<?xml version="1.0" encoding="UTF-8" standalone="no" ?>
<gpx xmlns="http://www.topografix.com/GPX/1/1" xmlns:xsi="http://www.w3.org/2001/XMLSchema-instance" xsi:schemaLocation="http://www.topografix.com/GPX/1/1 http://www.topografix.com/GPX/1/1/gpx.xsd" version="1.1" creator="VisuGPX - https://www.visugpx.com">
  <metadata>
    <name>TransLovérienne 2015 - 60 km</name>
    <desc><![CDATA[TransLovérienne 2015
60 km]]></desc>
  </metadata>
  <trk>
    <name><![CDATA[TransLovérienne 2015 - 60 km_1]]></name>
    <trkseg>
      <trkpt lat="49.20971" lon="1.17083">
        <ele>25.962387</ele>
        <time>2015-09-20T05:53:49Z</time>
      </trkpt>
      <trkpt lat="49.20967" lon="1.17084">
        <ele>25.962387</ele>
        <time>2015-09-20T05:53:50Z</time>
      </trkpt>
      <trkpt lat="49.20955" lon="1.17084">
        <ele>26.117367</ele>
        <time>2015-09-20T05:53:53Z</time>
      </trkpt>
      <trkpt lat="49.20943" lon="1.17086">
        <ele>26.379414</ele>
        <time>2015-09-20T05:53:56Z</time>
      </trkpt>
      <trkpt lat="49.20932" lon="1.17086">
        <ele>26.6339</ele>
        <time>2015-09-20T05:53:59Z</time>
      </trkpt>
      <trkpt lat="49.2092" lon="1.17086">
        <ele>26.905785</ele>
        <time>2015-09-20T05:54:02Z</time>
      </trkpt>
      <trkpt lat="49.20909" lon="1.17083">
        <ele>27.164244</ele>
        <time>2015-09-20T05:54:05Z</time>
      </trkpt>
      <trkpt lat="49.20897" lon="1.17079">
        <ele>27.487404</ele>
        <time>2015-09-20T05:54:08Z</time>
      </trkpt>
      <trkpt lat="49.20885" lon="1.17075">
        <ele>27.827871</ele>
        <time>2015-09-20T05:54:11Z</time>
      </trkpt>
      <trkpt lat="49.20874" lon="1.1707">
        <ele>28.179852</ele>
        <time>2015-09-20T05:54:14Z</time>
      </trkpt>
      <trkpt lat="49.20863" lon="1.17063">
        <ele>28.5</ele>
        <time>2015-09-20T05:54:17Z</time>
      </trkpt>
      <trkpt lat="49.20852" lon="1.17054">
        <ele>28.9</ele>
        <time>2015-09-20T05:54:20Z</time>
      </trkpt>
      <trkpt lat="49.2084" lon="1.17045">
        <ele>29.3</ele>
        <time>2015-09-20T05:54:23Z</time>
      </trkpt>
      <trkpt lat="49.20829" lon="1.17036">
        <ele>29.7</ele>
        <time>2015-09-20T05:54:26Z</time>
      </trkpt>
      <trkpt lat="49.20817" lon="1.17028">
        <ele>30.1</ele>
        <time>2015-09-20T05:54:29Z</time>
      </trkpt>
      <trkpt lat="49.20806" lon="1.17021">
        <ele>30.4</ele>
        <time>2015-09-20T05:54:32Z</time>
      </trkpt>
      <trkpt lat="49.20795" lon="1.17013">
        <ele>30.8</ele>
        <time>2015-09-20T05:54:35Z</time>
      </trkpt>
      <trkpt lat="49.20783" lon="1.17004">
        <ele>31.1</ele>
        <time>2015-09-20T05:54:38Z</time>
      </trkpt>
      <trkpt lat="49.20773" lon="1.16995">
        <ele>31.5</ele>
        <time>2015-09-20T05:54:41Z</time>
      </trkpt>
      <trkpt lat="49.20767" lon="1.1698">
        <ele>32</ele>
        <time>2015-09-20T05:54:44Z</time>
      </trkpt>
      <trkpt lat="49.20767" lon="1.16965">
        <ele>32.3</ele>
        <time>2015-09-20T05:54:46Z</time>
      </trkpt>
      <trkpt lat="49.20768" lon="1.1695">
        <ele>32.6</ele>
        <time>2015-09-20T05:54:48Z</time>
      </trkpt>
      <trkpt lat="49.20767" lon="1.16934">
        <ele>32.8</ele>
        <time>2015-09-20T05:54:50Z</time>
      </trkpt>
      <trkpt lat="49.20767" lon="1.16917">
        <ele>33</ele>
        <time>2015-09-20T05:54:52Z</time>
      </trkpt>
      <trkpt lat="49.20766" lon="1.16902">
        <ele>33.2</ele>
        <time>2015-09-20T05:54:54Z</time>
      </trkpt>
      <trkpt lat="49.20765" lon="1.16887">
        <ele>33.4</ele>
        <time>2015-09-20T05:54:56Z</time>
      </trkpt>
      <trkpt lat="49.20765" lon="1.16871">
        <ele>33.5</ele>
        <time>2015-09-20T05:54:58Z</time>
      </trkpt>
      <trkpt lat="49.20765" lon="1.16856">
        <ele>33.6</ele>
        <time>2015-09-20T05:55:00Z</time>
      </trkpt>
      <trkpt lat="49.20765" lon="1.16841">
        <ele>33.7</ele>
        <time>2015-09-20T05:55:02Z</time>
      </trkpt>
      <trkpt lat="49.20766" lon="1.16824">
        <ele>33.8</ele>
        <time>2015-09-20T05:55:04Z</time>
      </trkpt>
      <trkpt lat="49.20766" lon="1.16807">
        <ele>33.9</ele>
        <time>2015-09-20T05:55:06Z</time>
      </trkpt>
      <trkpt lat="49.20765" lon="1.16791">
        <ele>34</ele>
        <time>2015-09-20T05:55:08Z</time>
      </trkpt>
      <trkpt lat="49.20765" lon="1.16775">
        <ele>34.1</ele>
        <time>2015-09-20T05:55:10Z</time>
      </trkpt>
      <trkpt lat="49.20765" lon="1.16757">
        <ele>34.2</ele>
        <time>2015-09-20T05:55:12Z</time>
      </trkpt>
      <trkpt lat="49.20765" lon="1.1674">
        <ele>34.2</ele>
        <time>2015-09-20T05:55:14Z</time>
      </trkpt>
      <trkpt lat="49.20764" lon="1.16726">
        <ele>34.3</ele>
        <time>2015-09-20T05:55:16Z</time>
      </trkpt>
      <trkpt lat="49.20764" lon="1.16711">
        <ele>34.4</ele>
        <time>2015-09-20T05:55:18Z</time>
      </trkpt>
      <trkpt lat="49.20768" lon="1.1669">
        <ele>34.5</ele>
        <time>2015-09-20T05:55:21Z</time>
      </trkpt>
      <trkpt lat="49.20777" lon="1.16681">
        <ele>34.6</ele>
        <time>2015-09-20T05:55:23Z</time>
      </trkpt>
      <trkpt lat="49.20787" lon="1.16679">
        <ele>34.7</ele>
        <time>2015-09-20T05:55:25Z</time>
      </trkpt>
      <trkpt lat="49.20797" lon="1.16678">
        <ele>34.7</ele>
        <time>2015-09-20T05:55:27Z</time>
      </trkpt>
      <trkpt lat="49.20807" lon="1.16677">
        <ele>34.8</ele>
        <time>2015-09-20T05:55:29Z</time>
      </trkpt>
      <trkpt lat="49.20819" lon="1.16677">
        <ele>34.8</ele>
        <time>2015-09-20T05:55:31Z</time>
      </trkpt>
      <trkpt lat="49.2083" lon="1.16677">
        <ele>34.7</ele>
        <time>2015-09-20T05:55:33Z</time>
      </trkpt>
      <trkpt lat="49.2084" lon="1.16678">
        <ele>34.7</ele>
        <time>2015-09-20T05:55:35Z</time>
      </trkpt>
      <trkpt lat="49.20851" lon="1.16674">
        <ele>34.6</ele>
        <time>2015-09-20T05:55:38Z</time>
      </trkpt>
      <trkpt lat="49.20853" lon="1.16656">
        <ele>34.6</ele>
        <time>2015-09-20T05:55:41Z</time>
      </trkpt>
      <trkpt lat="49.20849" lon="1.16636">
        <ele>34.5</ele>
        <time>2015-09-20T05:55:44Z</time>
      </trkpt>
      <trkpt lat="49.20848" lon="1.16622">
        <ele>34.4</ele>
        <time>2015-09-20T05:55:46Z</time>
      </trkpt>
      <trkpt lat="49.20846" lon="1.16606">
        <ele>34.4</ele>
        <time>2015-09-20T05:55:48Z</time>
      </trkpt>
      <trkpt lat="49.20844" lon="1.1659">
        <ele>34.4</ele>
        <time>2015-09-20T05:55:50Z</time>
      </trkpt>
      <trkpt lat="49.20841" lon="1.16574">
        <ele>34.3</ele>
        <time>2015-09-20T05:55:52Z</time>
      </trkpt>
      <trkpt lat="49.20839" lon="1.16559">
        <ele>34.3</ele>
        <time>2015-09-20T05:55:54Z</time>
      </trkpt>
      <trkpt lat="49.20836" lon="1.16544">
        <ele>34.3</ele>
        <time>2015-09-20T05:55:56Z</time>
      </trkpt>
      <trkpt lat="49.20834" lon="1.16527">
        <ele>34.3</ele>
        <time>2015-09-20T05:55:58Z</time>
      </trkpt>
      <trkpt lat="49.20832" lon="1.1651">
        <ele>34.2</ele>
        <time>2015-09-20T05:56:00Z</time>
      </trkpt>
      <trkpt lat="49.20829" lon="1.16493">
        <ele>34.2</ele>
        <time>2015-09-20T05:56:02Z</time>
      </trkpt>
      <trkpt lat="49.20827" lon="1.16475">
        <ele>34.2</ele>
        <time>2015-09-20T05:56:04Z</time>
      </trkpt>
      <trkpt lat="49.20825" lon="1.16458">
        <ele>34.2</ele>
        <time>2015-09-20T05:56:06Z</time>
      </trkpt>
      <trkpt lat="49.20822" lon="1.16441">
        <ele>34.2</ele>
        <time>2015-09-20T05:56:08Z</time>
      </trkpt>
      <trkpt lat="49.2082" lon="1.16426">
        <ele>34.2</ele>
        <time>2015-09-20T05:56:10Z</time>
      </trkpt>
      <trkpt lat="49.20818" lon="1.16409">
        <ele>34.2</ele>
        <time>2015-09-20T05:56:12Z</time>
      </trkpt>
      <trkpt lat="49.20816" lon="1.16393">
        <ele>34.2</ele>
        <time>2015-09-20T05:56:14Z</time>
      </trkpt>
      <trkpt lat="49.20814" lon="1.16377">
        <ele>34.2</ele>
        <time>2015-09-20T05:56:16Z</time>
      </trkpt>
      <trkpt lat="49.20812" lon="1.16362">
        <ele>34.2</ele>
        <time>2015-09-20T05:56:18Z</time>
      </trkpt>
      <trkpt lat="49.2081" lon="1.16346">
        <ele>34.3</ele>
        <time>2015-09-20T05:56:20Z</time>
      </trkpt>
      <trkpt lat="49.20808" lon="1.16328">
        <ele>34.3</ele>
        <time>2015-09-20T05:56:22Z</time>
      </trkpt>
      <trkpt lat="49.20805" lon="1.16311">
        <ele>34.3</ele>
        <time>2015-09-20T05:56:24Z</time>
      </trkpt>
      <trkpt lat="49.20803" lon="1.16294">
        <ele>34.4</ele>
        <time>2015-09-20T05:56:26Z</time>
      </trkpt>
      <trkpt lat="49.20799" lon="1.16276">
        <ele>34.4</ele>
        <time>2015-09-20T05:56:28Z</time>
      </trkpt>
      <trkpt lat="49.20796" lon="1.16257">
        <ele>34.4</ele>
        <time>2015-09-20T05:56:30Z</time>
      </trkpt>
      <trkpt lat="49.20794" lon="1.16238">
        <ele>34.4</ele>
        <time>2015-09-20T05:56:32Z</time>
      </trkpt>
      <trkpt lat="49.20791" lon="1.1622">
        <ele>34.4</ele>
        <time>2015-09-20T05:56:34Z</time>
      </trkpt>
      <trkpt lat="49.20788" lon="1.16201">
        <ele>34.4</ele>
        <time>2015-09-20T05:56:36Z</time>
      </trkpt>
      <trkpt lat="49.20785" lon="1.16181">
        <ele>34.4</ele>
        <time>2015-09-20T05:56:38Z</time>
      </trkpt>
      <trkpt lat="49.20783" lon="1.16162">
        <ele>34.5</ele>
        <time>2015-09-20T05:56:40Z</time>
      </trkpt>
      <trkpt lat="49.2078" lon="1.16143">
        <ele>34.5</ele>
        <time>2015-09-20T05:56:42Z</time>
      </trkpt>
      <trkpt lat="49.20778" lon="1.16125">
        <ele>34.5</ele>
        <time>2015-09-20T05:56:44Z</time>
      </trkpt>
      <trkpt lat="49.20775" lon="1.16107">
        <ele>34.5</ele>
        <time>2015-09-20T05:56:46Z</time>
      </trkpt>
      <trkpt lat="49.20772" lon="1.1609">
        <ele>34.5</ele>
        <time>2015-09-20T05:56:48Z</time>
      </trkpt>
      <trkpt lat="49.2077" lon="1.16073">
        <ele>34.6</ele>
        <time>2015-09-20T05:56:50Z</time>
      </trkpt>
      <trkpt lat="49.20767" lon="1.16056">
        <ele>34.6</ele>
        <time>2015-09-20T05:56:52Z</time>
      </trkpt>
      <trkpt lat="49.20765" lon="1.16038">
        <ele>34.6</ele>
        <time>2015-09-20T05:56:54Z</time>
      </trkpt>
      <trkpt lat="49.20762" lon="1.1602">
        <ele>34.7</ele>
        <time>2015-09-20T05:56:56Z</time>
      </trkpt>
      <trkpt lat="49.2076" lon="1.16002">
        <ele>34.7</ele>
        <time>2015-09-20T05:56:58Z</time>
      </trkpt>
      <trkpt lat="49.20757" lon="1.15984">
        <ele>34.8</ele>
        <time>2015-09-20T05:57:00Z</time>
      </trkpt>
      <trkpt lat="49.20754" lon="1.15965">
        <ele>34.8</ele>
        <time>2015-09-20T05:57:02Z</time>
      </trkpt>
      <trkpt lat="49.2075" lon="1.15946">
        <ele>34.9</ele>
        <time>2015-09-20T05:57:04Z</time>
      </trkpt>
      <trkpt lat="49.20748" lon="1.15926">
        <ele>35</ele>
        <time>2015-09-20T05:57:06Z</time>
      </trkpt>
      <trkpt lat="49.20748" lon="1.15905">
        <ele>35</ele>
        <time>2015-09-20T05:57:08Z</time>
      </trkpt>
      <trkpt lat="49.20745" lon="1.15883">
        <ele>35.1</ele>
        <time>2015-09-20T05:57:10Z</time>
      </trkpt>
      <trkpt lat="49.2074" lon="1.15861">
        <ele>35.1</ele>
        <time>2015-09-20T05:57:12Z</time>
      </trkpt>
      <trkpt lat="49.20734" lon="1.1584">
        <ele>35.1</ele>
        <time>2015-09-20T05:57:14Z</time>
      </trkpt>
      <trkpt lat="49.20729" lon="1.15819">
        <ele>35.1</ele>
        <time>2015-09-20T05:57:16Z</time>
      </trkpt>
      <trkpt lat="49.20722" lon="1.15799">
        <ele>35.1</ele>
        <time>2015-09-20T05:57:18Z</time>
      </trkpt>
      <trkpt lat="49.20714" lon="1.15782">
        <ele>35.1</ele>
        <time>2015-09-20T05:57:20Z</time>
      </trkpt>
      <trkpt lat="49.20706" lon="1.15767">
        <ele>35.1</ele>
        <time>2015-09-20T05:57:22Z</time>
      </trkpt>
      <trkpt lat="49.20698" lon="1.15754">
        <ele>35.1</ele>
        <time>2015-09-20T05:57:24Z</time>
      </trkpt>
      <trkpt lat="49.20691" lon="1.1574">
        <ele>35.1</ele>
        <time>2015-09-20T05:57:26Z</time>
      </trkpt>
      <trkpt lat="49.20684" lon="1.15727">
        <ele>35.2</ele>
        <time>2015-09-20T05:57:28Z</time>
      </trkpt>
      <trkpt lat="49.20678" lon="1.15714">
        <ele>35.4</ele>
        <time>2015-09-20T05:57:30Z</time>
      </trkpt>
      <trkpt lat="49.2067" lon="1.15702">
        <ele>35.5</ele>
        <time>2015-09-20T05:57:32Z</time>
      </trkpt>
      <trkpt lat="49.20664" lon="1.15688">
        <ele>35.6</ele>
        <time>2015-09-20T05:57:34Z</time>
      </trkpt>
      <trkpt lat="49.20657" lon="1.15674">
        <ele>35.8</ele>
        <time>2015-09-20T05:57:36Z</time>
      </trkpt>
      <trkpt lat="49.20651" lon="1.15661">
        <ele>35.9</ele>
        <time>2015-09-20T05:57:38Z</time>
      </trkpt>
      <trkpt lat="49.20644" lon="1.15647">
        <ele>36.1</ele>
        <time>2015-09-20T05:57:40Z</time>
      </trkpt>
      <trkpt lat="49.20637" lon="1.15634">
        <ele>36.3</ele>
        <time>2015-09-20T05:57:42Z</time>
      </trkpt>
      <trkpt lat="49.20629" lon="1.15622">
        <ele>36.6</ele>
        <time>2015-09-20T05:57:44Z</time>
      </trkpt>
      <trkpt lat="49.20622" lon="1.1561">
        <ele>36.8</ele>
        <time>2015-09-20T05:57:46Z</time>
      </trkpt>
      <trkpt lat="49.20614" lon="1.15598">
        <ele>37</ele>
        <time>2015-09-20T05:57:48Z</time>
      </trkpt>
      <trkpt lat="49.20607" lon="1.15585">
        <ele>37.2</ele>
        <time>2015-09-20T05:57:50Z</time>
      </trkpt>
      <trkpt lat="49.20599" lon="1.15574">
        <ele>37.5</ele>
        <time>2015-09-20T05:57:52Z</time>
      </trkpt>
      <trkpt lat="49.20591" lon="1.15563">
        <ele>37.7</ele>
        <time>2015-09-20T05:57:54Z</time>
      </trkpt>
      <trkpt lat="49.20582" lon="1.15551">
        <ele>37.9</ele>
        <time>2015-09-20T05:57:56Z</time>
      </trkpt>
      <trkpt lat="49.20574" lon="1.1554">
        <ele>38.2</ele>
        <time>2015-09-20T05:57:58Z</time>
      </trkpt>
      <trkpt lat="49.20565" lon="1.15528">
        <ele>38.4</ele>
        <time>2015-09-20T05:58:00Z</time>
      </trkpt>
      <trkpt lat="49.20557" lon="1.15516">
        <ele>38.6</ele>
        <time>2015-09-20T05:58:02Z</time>
      </trkpt>
      <trkpt lat="49.2055" lon="1.15503">
        <ele>38.9</ele>
        <time>2015-09-20T05:58:04Z</time>
      </trkpt>
      <trkpt lat="49.20544" lon="1.15488">
        <ele>39.2</ele>
        <time>2015-09-20T05:58:06Z</time>
      </trkpt>
      <trkpt lat="49.2054" lon="1.15472">
        <ele>39.5</ele>
        <time>2015-09-20T05:58:08Z</time>
      </trkpt>
      <trkpt lat="49.20538" lon="1.15455">
        <ele>39.8</ele>
        <time>2015-09-20T05:58:10Z</time>
      </trkpt>
      <trkpt lat="49.20536" lon="1.15437">
        <ele>40</ele>
        <time>2015-09-20T05:58:12Z</time>
      </trkpt>
      <trkpt lat="49.20535" lon="1.15419">
        <ele>40.2</ele>
        <time>2015-09-20T05:58:14Z</time>
      </trkpt>
      <trkpt lat="49.20534" lon="1.154">
        <ele>40.4</ele>
        <time>2015-09-20T05:58:16Z</time>
      </trkpt>
      <trkpt lat="49.20533" lon="1.1538">
        <ele>40.6</ele>
        <time>2015-09-20T05:58:18Z</time>
      </trkpt>
      <trkpt lat="49.20532" lon="1.15359">
        <ele>40.7</ele>
        <time>2015-09-20T05:58:20Z</time>
      </trkpt>
      <trkpt lat="49.20531" lon="1.15336">
        <ele>40.8</ele>
        <time>2015-09-20T05:58:22Z</time>
      </trkpt>
      <trkpt lat="49.2053" lon="1.15313">
        <ele>40.8</ele>
        <time>2015-09-20T05:58:24Z</time>
      </trkpt>
      <trkpt lat="49.20529" lon="1.1529">
        <ele>40.7</ele>
        <time>2015-09-20T05:58:26Z</time>
      </trkpt>
      <trkpt lat="49.20529" lon="1.15268">
        <ele>40.5</ele>
        <time>2015-09-20T05:58:28Z</time>
      </trkpt>
      <trkpt lat="49.20528" lon="1.15247">
        <ele>40.4</ele>
        <time>2015-09-20T05:58:30Z</time>
      </trkpt>
      <trkpt lat="49.20527" lon="1.15226">
        <ele>40.3</ele>
        <time>2015-09-20T05:58:32Z</time>
      </trkpt>
      <trkpt lat="49.20526" lon="1.15207">
        <ele>40.1</ele>
        <time>2015-09-20T05:58:34Z</time>
      </trkpt>
      <trkpt lat="49.20524" lon="1.15187">
        <ele>40.1</ele>
        <time>2015-09-20T05:58:36Z</time>
      </trkpt>
      <trkpt lat="49.20521" lon="1.15168">
        <ele>40</ele>
        <time>2015-09-20T05:58:38Z</time>
      </trkpt>
      <trkpt lat="49.20517" lon="1.15148">
        <ele>39.9</ele>
        <time>2015-09-20T05:58:40Z</time>
      </trkpt>
      <trkpt lat="49.20514" lon="1.15129">
        <ele>39.8</ele>
        <time>2015-09-20T05:58:42Z</time>
      </trkpt>
      <trkpt lat="49.20512" lon="1.15109">
        <ele>39.8</ele>
        <time>2015-09-20T05:58:44Z</time>
      </trkpt>
      <trkpt lat="49.20512" lon="1.1509">
        <ele>39.7</ele>
        <time>2015-09-20T05:58:46Z</time>
      </trkpt>
      <trkpt lat="49.20505" lon="1.15075">
        <ele>39.7</ele>
        <time>2015-09-20T05:58:48Z</time>
      </trkpt>
      <trkpt lat="49.20497" lon="1.15063">
        <ele>39.7</ele>
        <time>2015-09-20T05:58:50Z</time>
      </trkpt>
      <trkpt lat="49.20489" lon="1.15048">
        <ele>39.7</ele>
        <time>2015-09-20T05:58:52Z</time>
      </trkpt>
      <trkpt lat="49.20482" lon="1.15032">
        <ele>39.7</ele>
        <time>2015-09-20T05:58:54Z</time>
      </trkpt>
      <trkpt lat="49.20476" lon="1.15016">
        <ele>39.7</ele>
        <time>2015-09-20T05:58:56Z</time>
      </trkpt>
      <trkpt lat="49.2047" lon="1.15001">
        <ele>39.7</ele>
        <time>2015-09-20T05:58:58Z</time>
      </trkpt>
      <trkpt lat="49.20463" lon="1.14987">
        <ele>39.7</ele>
        <time>2015-09-20T05:59:00Z</time>
      </trkpt>
      <trkpt lat="49.20455" lon="1.14974">
        <ele>39.8</ele>
        <time>2015-09-20T05:59:02Z</time>
      </trkpt>
      <trkpt lat="49.20448" lon="1.1496">
        <ele>39.8</ele>
        <time>2015-09-20T05:59:04Z</time>
      </trkpt>
      <trkpt lat="49.2044" lon="1.14948">
        <ele>39.9</ele>
        <time>2015-09-20T05:59:06Z</time>
      </trkpt>
      <trkpt lat="49.20433" lon="1.14935">
        <ele>40</ele>
        <time>2015-09-20T05:59:08Z</time>
      </trkpt>
      <trkpt lat="49.20426" lon="1.14922">
        <ele>40.1</ele>
        <time>2015-09-20T05:59:10Z</time>
      </trkpt>
      <trkpt lat="49.20419" lon="1.14909">
        <ele>40.2</ele>
        <time>2015-09-20T05:59:12Z</time>
      </trkpt>
      <trkpt lat="49.20412" lon="1.14896">
        <ele>40.4</ele>
        <time>2015-09-20T05:59:14Z</time>
      </trkpt>
      <trkpt lat="49.20406" lon="1.14882">
        <ele>40.5</ele>
        <time>2015-09-20T05:59:16Z</time>
      </trkpt>
      <trkpt lat="49.204" lon="1.14868">
        <ele>40.6</ele>
        <time>2015-09-20T05:59:18Z</time>
      </trkpt>
      <trkpt lat="49.20393" lon="1.14856">
        <ele>40.7</ele>
        <time>2015-09-20T05:59:20Z</time>
      </trkpt>
      <trkpt lat="49.20386" lon="1.14843">
        <ele>40.8</ele>
        <time>2015-09-20T05:59:22Z</time>
      </trkpt>
      <trkpt lat="49.20379" lon="1.1483">
        <ele>40.9</ele>
        <time>2015-09-20T05:59:24Z</time>
      </trkpt>
      <trkpt lat="49.20372" lon="1.14818">
        <ele>41.1</ele>
        <time>2015-09-20T05:59:26Z</time>
      </trkpt>
      <trkpt lat="49.20366" lon="1.14805">
        <ele>41.2</ele>
        <time>2015-09-20T05:59:28Z</time>
      </trkpt>
      <trkpt lat="49.20359" lon="1.14793">
        <ele>41.4</ele>
        <time>2015-09-20T05:59:30Z</time>
      </trkpt>
      <trkpt lat="49.20352" lon="1.1478">
        <ele>41.5</ele>
        <time>2015-09-20T05:59:32Z</time>
      </trkpt>
      <trkpt lat="49.20344" lon="1.14769">
        <ele>41.6</ele>
        <time>2015-09-20T05:59:34Z</time>
      </trkpt>
      <trkpt lat="49.20337" lon="1.14757">
        <ele>41.7</ele>
        <time>2015-09-20T05:59:36Z</time>
      </trkpt>
      <trkpt lat="49.20329" lon="1.14745">
        <ele>41.8</ele>
        <time>2015-09-20T05:59:38Z</time>
      </trkpt>
      <trkpt lat="49.20321" lon="1.14733">
        <ele>41.8</ele>
        <time>2015-09-20T05:59:40Z</time>
      </trkpt>
      <trkpt lat="49.20314" lon="1.14721">
        <ele>41.8</ele>
        <time>2015-09-20T05:59:42Z</time>
      </trkpt>
      <trkpt lat="49.20306" lon="1.14709">
        <ele>41.9</ele>
        <time>2015-09-20T05:59:44Z</time>
      </trkpt>
      <trkpt lat="49.20298" lon="1.14697">
        <ele>41.9</ele>
        <time>2015-09-20T05:59:46Z</time>
      </trkpt>
      <trkpt lat="49.20291" lon="1.14684">
        <ele>41.9</ele>
        <time>2015-09-20T05:59:48Z</time>
      </trkpt>
      <trkpt lat="49.20284" lon="1.14672">
        <ele>41.9</ele>
        <time>2015-09-20T05:59:50Z</time>
      </trkpt>
      <trkpt lat="49.20277" lon="1.1466">
        <ele>42</ele>
        <time>2015-09-20T05:59:52Z</time>
      </trkpt>
      <trkpt lat="49.2027" lon="1.14649">
        <ele>42</ele>
        <time>2015-09-20T05:59:54Z</time>
      </trkpt>
      <trkpt lat="49.20263" lon="1.14637">
        <ele>42.1</ele>
        <time>2015-09-20T05:59:56Z</time>
      </trkpt>
      <trkpt lat="49.20257" lon="1.14624">
        <ele>42.2</ele>
        <time>2015-09-20T05:59:58Z</time>
      </trkpt>
      <trkpt lat="49.20251" lon="1.14612">
        <ele>42.4</ele>
        <time>2015-09-20T06:00:00Z</time>
      </trkpt>
      <trkpt lat="49.20245" lon="1.14599">
        <ele>42.5</ele>
        <time>2015-09-20T06:00:02Z</time>
      </trkpt>
      <trkpt lat="49.20239" lon="1.14587">
        <ele>42.6</ele>
        <time>2015-09-20T06:00:04Z</time>
      </trkpt>
      <trkpt lat="49.20233" lon="1.14575">
        <ele>42.7</ele>
        <time>2015-09-20T06:00:06Z</time>
      </trkpt>
      <trkpt lat="49.20228" lon="1.14563">
        <ele>42.8</ele>
        <time>2015-09-20T06:00:08Z</time>
      </trkpt>
      <trkpt lat="49.20222" lon="1.1455">
        <ele>42.9</ele>
        <time>2015-09-20T06:00:10Z</time>
      </trkpt>
      <trkpt lat="49.20217" lon="1.14538">
        <ele>43</ele>
        <time>2015-09-20T06:00:12Z</time>
      </trkpt>
      <trkpt lat="49.20212" lon="1.14524">
        <ele>43</ele>
        <time>2015-09-20T06:00:14Z</time>
      </trkpt>
      <trkpt lat="49.20206" lon="1.14511">
        <ele>43.1</ele>
        <time>2015-09-20T06:00:16Z</time>
      </trkpt>
      <trkpt lat="49.20201" lon="1.14498">
        <ele>43.2</ele>
        <time>2015-09-20T06:00:18Z</time>
      </trkpt>
      <trkpt lat="49.20196" lon="1.14485">
        <ele>43.3</ele>
        <time>2015-09-20T06:00:20Z</time>
      </trkpt>
      <trkpt lat="49.20192" lon="1.14471">
        <ele>43.4</ele>
        <time>2015-09-20T06:00:22Z</time>
      </trkpt>
      <trkpt lat="49.20187" lon="1.14458">
        <ele>43.5</ele>
        <time>2015-09-20T06:00:24Z</time>
      </trkpt>
      <trkpt lat="49.20183" lon="1.14444">
        <ele>43.6</ele>
        <time>2015-09-20T06:00:26Z</time>
      </trkpt>
      <trkpt lat="49.20178" lon="1.14431">
        <ele>43.8</ele>
        <time>2015-09-20T06:00:28Z</time>
      </trkpt>
      <trkpt lat="49.20174" lon="1.14418">
        <ele>43.9</ele>
        <time>2015-09-20T06:00:30Z</time>
      </trkpt>
      <trkpt lat="49.2017" lon="1.14405">
        <ele>44</ele>
        <time>2015-09-20T06:00:32Z</time>
      </trkpt>
      <trkpt lat="49.20166" lon="1.14393">
        <ele>44.1</ele>
        <time>2015-09-20T06:00:34Z</time>
      </trkpt>
      <trkpt lat="49.2016" lon="1.14375">
        <ele>44.3</ele>
        <time>2015-09-20T06:00:37Z</time>
      </trkpt>
      <trkpt lat="49.20154" lon="1.14357">
        <ele>44.5</ele>
        <time>2015-09-20T06:00:40Z</time>
      </trkpt>
      <trkpt lat="49.20151" lon="1.14344">
        <ele>44.7</ele>
        <time>2015-09-20T06:00:42Z</time>
      </trkpt>
      <trkpt lat="49.20145" lon="1.14325">
        <ele>44.9</ele>
        <time>2015-09-20T06:00:45Z</time>
      </trkpt>
      <trkpt lat="49.2014" lon="1.14307">
        <ele>45.1</ele>
        <time>2015-09-20T06:00:48Z</time>
      </trkpt>
      <trkpt lat="49.20135" lon="1.14288">
        <ele>45.3</ele>
        <time>2015-09-20T06:00:51Z</time>
      </trkpt>
      <trkpt lat="49.20131" lon="1.14275">
        <ele>45.4</ele>
        <time>2015-09-20T06:00:53Z</time>
      </trkpt>
      <trkpt lat="49.20126" lon="1.14255">
        <ele>45.7</ele>
        <time>2015-09-20T06:00:56Z</time>
      </trkpt>
      <trkpt lat="49.20123" lon="1.14242">
        <ele>45.9</ele>
        <time>2015-09-20T06:00:58Z</time>
      </trkpt>
      <trkpt lat="49.2012" lon="1.14229">
        <ele>46.1</ele>
        <time>2015-09-20T06:01:00Z</time>
      </trkpt>
      <trkpt lat="49.20117" lon="1.14216">
        <ele>46.3</ele>
        <time>2015-09-20T06:01:02Z</time>
      </trkpt>
      <trkpt lat="49.20114" lon="1.14202">
        <ele>46.5</ele>
        <time>2015-09-20T06:01:04Z</time>
      </trkpt>
      <trkpt lat="49.20111" lon="1.14189">
        <ele>46.7</ele>
        <time>2015-09-20T06:01:06Z</time>
      </trkpt>
      <trkpt lat="49.20108" lon="1.14175">
        <ele>47</ele>
        <time>2015-09-20T06:01:08Z</time>
      </trkpt>
      <trkpt lat="49.20105" lon="1.14161">
        <ele>47.2</ele>
        <time>2015-09-20T06:01:10Z</time>
      </trkpt>
      <trkpt lat="49.20103" lon="1.14148">
        <ele>47.5</ele>
        <time>2015-09-20T06:01:12Z</time>
      </trkpt>
      <trkpt lat="49.20099" lon="1.14129">
        <ele>47.8</ele>
        <time>2015-09-20T06:01:15Z</time>
      </trkpt>
      <trkpt lat="49.20095" lon="1.1411">
        <ele>48.1</ele>
        <time>2015-09-20T06:01:18Z</time>
      </trkpt>
      <trkpt lat="49.20092" lon="1.14091">
        <ele>48.4</ele>
        <time>2015-09-20T06:01:21Z</time>
      </trkpt>
      <trkpt lat="49.20088" lon="1.14073">
        <ele>48.8</ele>
        <time>2015-09-20T06:01:24Z</time>
      </trkpt>
      <trkpt lat="49.20085" lon="1.14054">
        <ele>49.2</ele>
        <time>2015-09-20T06:01:27Z</time>
      </trkpt>
      <trkpt lat="49.20081" lon="1.14036">
        <ele>49.5</ele>
        <time>2015-09-20T06:01:30Z</time>
      </trkpt>
      <trkpt lat="49.20078" lon="1.14019">
        <ele>49.9</ele>
        <time>2015-09-20T06:01:33Z</time>
      </trkpt>
      <trkpt lat="49.20074" lon="1.14001">
        <ele>50.3</ele>
        <time>2015-09-20T06:01:36Z</time>
      </trkpt>
      <trkpt lat="49.2007" lon="1.13983">
        <ele>50.7</ele>
        <time>2015-09-20T06:01:39Z</time>
      </trkpt>
      <trkpt lat="49.20067" lon="1.13966">
        <ele>51</ele>
        <time>2015-09-20T06:01:42Z</time>
      </trkpt>
      <trkpt lat="49.20063" lon="1.13948">
        <ele>51.3</ele>
        <time>2015-09-20T06:01:45Z</time>
      </trkpt>
      <trkpt lat="49.2006" lon="1.13931">
        <ele>51.7</ele>
        <time>2015-09-20T06:01:48Z</time>
      </trkpt>
      <trkpt lat="49.20057" lon="1.13915">
        <ele>52</ele>
        <time>2015-09-20T06:01:51Z</time>
      </trkpt>
      <trkpt lat="49.20053" lon="1.13898">
        <ele>52.3</ele>
        <time>2015-09-20T06:01:54Z</time>
      </trkpt>
      <trkpt lat="49.2005" lon="1.13881">
        <ele>52.7</ele>
        <time>2015-09-20T06:01:57Z</time>
      </trkpt>
      <trkpt lat="49.20047" lon="1.13863">
        <ele>53.1</ele>
        <time>2015-09-20T06:02:00Z</time>
      </trkpt>
      <trkpt lat="49.20044" lon="1.13846">
        <ele>53.4</ele>
        <time>2015-09-20T06:02:03Z</time>
      </trkpt>
      <trkpt lat="49.20041" lon="1.13829">
        <ele>53.8</ele>
        <time>2015-09-20T06:02:06Z</time>
      </trkpt>
      <trkpt lat="49.20037" lon="1.13813">
        <ele>54.2</ele>
        <time>2015-09-20T06:02:09Z</time>
      </trkpt>
      <trkpt lat="49.20033" lon="1.13795">
        <ele>54.6</ele>
        <time>2015-09-20T06:02:12Z</time>
      </trkpt>
      <trkpt lat="49.2003" lon="1.13777">
        <ele>55.1</ele>
        <time>2015-09-20T06:02:15Z</time>
      </trkpt>
      <trkpt lat="49.20026" lon="1.1376">
        <ele>55.5</ele>
        <time>2015-09-20T06:02:18Z</time>
      </trkpt>
      <trkpt lat="49.20023" lon="1.13745">
        <ele>55.8</ele>
        <time>2015-09-20T06:02:21Z</time>
      </trkpt>
      <trkpt lat="49.2002" lon="1.1373">
        <ele>56.2</ele>
        <time>2015-09-20T06:02:24Z</time>
      </trkpt>
      <trkpt lat="49.20018" lon="1.13717">
        <ele>56.6</ele>
        <time>2015-09-20T06:02:27Z</time>
      </trkpt>
      <trkpt lat="49.20015" lon="1.13702">
        <ele>57.1</ele>
        <time>2015-09-20T06:02:30Z</time>
      </trkpt>
      <trkpt lat="49.20012" lon="1.13686">
        <ele>57.5</ele>
        <time>2015-09-20T06:02:33Z</time>
      </trkpt>
      <trkpt lat="49.20007" lon="1.13669">
        <ele>58</ele>
        <time>2015-09-20T06:02:36Z</time>
      </trkpt>
      <trkpt lat="49.20004" lon="1.13652">
        <ele>58.5</ele>
        <time>2015-09-20T06:02:39Z</time>
      </trkpt>
      <trkpt lat="49.20001" lon="1.13635">
        <ele>58.9</ele>
        <time>2015-09-20T06:02:42Z</time>
      </trkpt>
      <trkpt lat="49.19995" lon="1.1362">
        <ele>59.4</ele>
        <time>2015-09-20T06:02:46Z</time>
      </trkpt>
      <trkpt lat="49.19992" lon="1.13607">
        <ele>59.8</ele>
        <time>2015-09-20T06:02:49Z</time>
      </trkpt>
      <trkpt lat="49.19989" lon="1.1359">
        <ele>60.4</ele>
        <time>2015-09-20T06:02:53Z</time>
      </trkpt>
      <trkpt lat="49.19985" lon="1.13575">
        <ele>61</ele>
        <time>2015-09-20T06:02:57Z</time>
      </trkpt>
      <trkpt lat="49.19982" lon="1.13561">
        <ele>61.4</ele>
        <time>2015-09-20T06:03:00Z</time>
      </trkpt>
      <trkpt lat="49.19979" lon="1.13546">
        <ele>62</ele>
        <time>2015-09-20T06:03:04Z</time>
      </trkpt>
      <trkpt lat="49.19976" lon="1.13531">
        <ele>62.5</ele>
        <time>2015-09-20T06:03:08Z</time>
      </trkpt>
      <trkpt lat="49.19972" lon="1.13515">
        <ele>63</ele>
        <time>2015-09-20T06:03:12Z</time>
      </trkpt>
      <trkpt lat="49.19969" lon="1.13501">
        <ele>63.6</ele>
        <time>2015-09-20T06:03:16Z</time>
      </trkpt>
      <trkpt lat="49.19966" lon="1.13488">
        <ele>64.3</ele>
        <time>2015-09-20T06:03:20Z</time>
      </trkpt>
      <trkpt lat="49.19962" lon="1.13474">
        <ele>65</ele>
        <time>2015-09-20T06:03:24Z</time>
      </trkpt>
      <trkpt lat="49.19959" lon="1.1346">
        <ele>65.7</ele>
        <time>2015-09-20T06:03:28Z</time>
      </trkpt>
      <trkpt lat="49.19955" lon="1.13446">
        <ele>66.3</ele>
        <time>2015-09-20T06:03:32Z</time>
      </trkpt>
      <trkpt lat="49.19951" lon="1.13433">
        <ele>67</ele>
        <time>2015-09-20T06:03:36Z</time>
      </trkpt>
      <trkpt lat="49.19948" lon="1.13419">
        <ele>67.6</ele>
        <time>2015-09-20T06:03:40Z</time>
      </trkpt>
      <trkpt lat="49.19944" lon="1.13406">
        <ele>68.3</ele>
        <time>2015-09-20T06:03:44Z</time>
      </trkpt>
      <trkpt lat="49.1994" lon="1.13392">
        <ele>69.2</ele>
        <time>2015-09-20T06:03:49Z</time>
      </trkpt>
      <trkpt lat="49.19936" lon="1.13379">
        <ele>70.1</ele>
        <time>2015-09-20T06:03:54Z</time>
      </trkpt>
      <trkpt lat="49.19932" lon="1.13365">
        <ele>71.2</ele>
        <time>2015-09-20T06:04:00Z</time>
      </trkpt>
      <trkpt lat="49.19928" lon="1.13352">
        <ele>72.6</ele>
        <time>2015-09-20T06:04:06Z</time>
      </trkpt>
      <trkpt lat="49.19921" lon="1.13339">
        <ele>73.9</ele>
        <time>2015-09-20T06:04:12Z</time>
      </trkpt>
      <trkpt lat="49.19916" lon="1.13324">
        <ele>75.3</ele>
        <time>2015-09-20T06:04:18Z</time>
      </trkpt>
      <trkpt lat="49.19913" lon="1.13309">
        <ele>76.5</ele>
        <time>2015-09-20T06:04:23Z</time>
      </trkpt>
      <trkpt lat="49.19911" lon="1.13293">
        <ele>77.8</ele>
        <time>2015-09-20T06:04:28Z</time>
      </trkpt>
      <trkpt lat="49.19905" lon="1.1328">
        <ele>79.2</ele>
        <time>2015-09-20T06:04:33Z</time>
      </trkpt>
      <trkpt lat="49.199" lon="1.13268">
        <ele>80.5</ele>
        <time>2015-09-20T06:04:38Z</time>
      </trkpt>
      <trkpt lat="49.19897" lon="1.13255">
        <ele>81.9</ele>
        <time>2015-09-20T06:04:43Z</time>
      </trkpt>
      <trkpt lat="49.19892" lon="1.1324">
        <ele>83.2</ele>
        <time>2015-09-20T06:04:48Z</time>
      </trkpt>
      <trkpt lat="49.19885" lon="1.13229">
        <ele>84.7</ele>
        <time>2015-09-20T06:04:53Z</time>
      </trkpt>
      <trkpt lat="49.19878" lon="1.13217">
        <ele>86.2</ele>
        <time>2015-09-20T06:04:58Z</time>
      </trkpt>
      <trkpt lat="49.1987" lon="1.13205">
        <ele>88.4</ele>
        <time>2015-09-20T06:05:05Z</time>
      </trkpt>
      <trkpt lat="49.19863" lon="1.13195">
        <ele>90</ele>
        <time>2015-09-20T06:05:10Z</time>
      </trkpt>
      <trkpt lat="49.19854" lon="1.13186">
        <ele>91.3</ele>
        <time>2015-09-20T06:05:14Z</time>
      </trkpt>
      <trkpt lat="49.19845" lon="1.13181">
        <ele>92.5</ele>
        <time>2015-09-20T06:05:18Z</time>
      </trkpt>
      <trkpt lat="49.19837" lon="1.13172">
        <ele>94.1</ele>
        <time>2015-09-20T06:05:23Z</time>
      </trkpt>
      <trkpt lat="49.19829" lon="1.13162">
        <ele>95.3</ele>
        <time>2015-09-20T06:05:27Z</time>
      </trkpt>
      <trkpt lat="49.19821" lon="1.13153">
        <ele>96.4</ele>
        <time>2015-09-20T06:05:31Z</time>
      </trkpt>
      <trkpt lat="49.19813" lon="1.13142">
        <ele>97.5</ele>
        <time>2015-09-20T06:05:35Z</time>
      </trkpt>
      <trkpt lat="49.19804" lon="1.13132">
        <ele>98.5</ele>
        <time>2015-09-20T06:05:39Z</time>
      </trkpt>
      <trkpt lat="49.19797" lon="1.13119">
        <ele>99.8</ele>
        <time>2015-09-20T06:05:44Z</time>
      </trkpt>
      <trkpt lat="49.1979" lon="1.1311">
        <ele>100.9</ele>
        <time>2015-09-20T06:05:49Z</time>
      </trkpt>
      <trkpt lat="49.19782" lon="1.13099">
        <ele>101.7</ele>
        <time>2015-09-20T06:05:53Z</time>
      </trkpt>
      <trkpt lat="49.19777" lon="1.13087">
        <ele>102.7</ele>
        <time>2015-09-20T06:05:57Z</time>
      </trkpt>
      <trkpt lat="49.19773" lon="1.13074">
        <ele>103.7</ele>
        <time>2015-09-20T06:06:01Z</time>
      </trkpt>
      <trkpt lat="49.19767" lon="1.13062">
        <ele>105.2</ele>
        <time>2015-09-20T06:06:07Z</time>
      </trkpt>
      <trkpt lat="49.19758" lon="1.1305">
        <ele>106.2</ele>
        <time>2015-09-20T06:06:11Z</time>
      </trkpt>
      <trkpt lat="49.19751" lon="1.1304">
        <ele>107.3</ele>
        <time>2015-09-20T06:06:15Z</time>
      </trkpt>
      <trkpt lat="49.19746" lon="1.13025">
        <ele>108.6</ele>
        <time>2015-09-20T06:06:20Z</time>
      </trkpt>
      <trkpt lat="49.19743" lon="1.13011">
        <ele>109.5</ele>
        <time>2015-09-20T06:06:24Z</time>
      </trkpt>
      <trkpt lat="49.19741" lon="1.12995">
        <ele>111.2</ele>
        <time>2015-09-20T06:06:30Z</time>
      </trkpt>
      <trkpt lat="49.1974" lon="1.1298">
        <ele>112.8</ele>
        <time>2015-09-20T06:06:36Z</time>
      </trkpt>
      <trkpt lat="49.19739" lon="1.12964">
        <ele>113.9</ele>
        <time>2015-09-20T06:06:40Z</time>
      </trkpt>
      <trkpt lat="49.19741" lon="1.1295">
        <ele>115</ele>
        <time>2015-09-20T06:06:44Z</time>
      </trkpt>
      <trkpt lat="49.19741" lon="1.12935">
        <ele>116.2</ele>
        <time>2015-09-20T06:06:49Z</time>
      </trkpt>
      <trkpt lat="49.1974" lon="1.1292">
        <ele>117</ele>
        <time>2015-09-20T06:06:53Z</time>
      </trkpt>
      <trkpt lat="49.1974" lon="1.12906">
        <ele>117.7</ele>
        <time>2015-09-20T06:06:57Z</time>
      </trkpt>
      <trkpt lat="49.19741" lon="1.12891">
        <ele>118.2</ele>
        <time>2015-09-20T06:07:00Z</time>
      </trkpt>
      <trkpt lat="49.19738" lon="1.12874">
        <ele>119.1</ele>
        <time>2015-09-20T06:07:04Z</time>
      </trkpt>
      <trkpt lat="49.19735" lon="1.12861">
        <ele>119.7</ele>
        <time>2015-09-20T06:07:07Z</time>
      </trkpt>
      <trkpt lat="49.19733" lon="1.12845">
        <ele>120.4</ele>
        <time>2015-09-20T06:07:11Z</time>
      </trkpt>
      <trkpt lat="49.19736" lon="1.1283">
        <ele>121.2</ele>
        <time>2015-09-20T06:07:15Z</time>
      </trkpt>
      <trkpt lat="49.19737" lon="1.12815">
        <ele>121.7</ele>
        <time>2015-09-20T06:07:18Z</time>
      </trkpt>
      <trkpt lat="49.19737" lon="1.12798">
        <ele>122.6</ele>
        <time>2015-09-20T06:07:22Z</time>
      </trkpt>
      <trkpt lat="49.19737" lon="1.12783">
        <ele>123.8</ele>
        <time>2015-09-20T06:07:26Z</time>
      </trkpt>
      <trkpt lat="49.19739" lon="1.12768">
        <ele>124.9</ele>
        <time>2015-09-20T06:07:30Z</time>
      </trkpt>
      <trkpt lat="49.19737" lon="1.12754">
        <ele>126.1</ele>
        <time>2015-09-20T06:07:35Z</time>
      </trkpt>
      <trkpt lat="49.19737" lon="1.1274">
        <ele>127</ele>
        <time>2015-09-20T06:07:40Z</time>
      </trkpt>
      <trkpt lat="49.19738" lon="1.12725">
        <ele>127.9</ele>
        <time>2015-09-20T06:07:45Z</time>
      </trkpt>
      <trkpt lat="49.19737" lon="1.12708">
        <ele>128.6</ele>
        <time>2015-09-20T06:07:50Z</time>
      </trkpt>
      <trkpt lat="49.19737" lon="1.12694">
        <ele>129.2</ele>
        <time>2015-09-20T06:07:54Z</time>
      </trkpt>
      <trkpt lat="49.19737" lon="1.12678">
        <ele>129.8</ele>
        <time>2015-09-20T06:07:59Z</time>
      </trkpt>
      <trkpt lat="49.19736" lon="1.12662">
        <ele>130.4</ele>
        <time>2015-09-20T06:08:03Z</time>
      </trkpt>
      <trkpt lat="49.19737" lon="1.12644">
        <ele>131.1</ele>
        <time>2015-09-20T06:08:07Z</time>
      </trkpt>
      <trkpt lat="49.19738" lon="1.12628">
        <ele>131.8</ele>
        <time>2015-09-20T06:08:11Z</time>
      </trkpt>
      <trkpt lat="49.19739" lon="1.12611">
        <ele>132.6</ele>
        <time>2015-09-20T06:08:15Z</time>
      </trkpt>
      <trkpt lat="49.19738" lon="1.12594">
        <ele>133.2</ele>
        <time>2015-09-20T06:08:19Z</time>
      </trkpt>
      <trkpt lat="49.19739" lon="1.12577">
        <ele>133.7</ele>
        <time>2015-09-20T06:08:22Z</time>
      </trkpt>
      <trkpt lat="49.19739" lon="1.12561">
        <ele>134.1</ele>
        <time>2015-09-20T06:08:25Z</time>
      </trkpt>
      <trkpt lat="49.19739" lon="1.12546">
        <ele>134.6</ele>
        <time>2015-09-20T06:08:28Z</time>
      </trkpt>
      <trkpt lat="49.1974" lon="1.12532">
        <ele>135.2</ele>
        <time>2015-09-20T06:08:31Z</time>
      </trkpt>
      <trkpt lat="49.19741" lon="1.12514">
        <ele>135.8</ele>
        <time>2015-09-20T06:08:35Z</time>
      </trkpt>
      <trkpt lat="49.19742" lon="1.12497">
        <ele>136.3</ele>
        <time>2015-09-20T06:08:39Z</time>
      </trkpt>
      <trkpt lat="49.19743" lon="1.1248">
        <ele>137</ele>
        <time>2015-09-20T06:08:43Z</time>
      </trkpt>
      <trkpt lat="49.19743" lon="1.12465">
        <ele>137.5</ele>
        <time>2015-09-20T06:08:46Z</time>
      </trkpt>
      <trkpt lat="49.19744" lon="1.12452">
        <ele>138</ele>
        <time>2015-09-20T06:08:49Z</time>
      </trkpt>
      <trkpt lat="49.19745" lon="1.12437">
        <ele>138.5</ele>
        <time>2015-09-20T06:08:52Z</time>
      </trkpt>
      <trkpt lat="49.19746" lon="1.12422">
        <ele>138.9</ele>
        <time>2015-09-20T06:08:55Z</time>
      </trkpt>
      <trkpt lat="49.19746" lon="1.12405">
        <ele>139.4</ele>
        <time>2015-09-20T06:08:58Z</time>
      </trkpt>
      <trkpt lat="49.19748" lon="1.12391">
        <ele>139.8</ele>
        <time>2015-09-20T06:09:01Z</time>
      </trkpt>
      <trkpt lat="49.19755" lon="1.1238">
        <ele>140.2</ele>
        <time>2015-09-20T06:09:04Z</time>
      </trkpt>
      <trkpt lat="49.19765" lon="1.12375">
        <ele>140.7</ele>
        <time>2015-09-20T06:09:07Z</time>
      </trkpt>
      <trkpt lat="49.19777" lon="1.12379">
        <ele>141</ele>
        <time>2015-09-20T06:09:10Z</time>
      </trkpt>
      <trkpt lat="49.19788" lon="1.12383">
        <ele>141.5</ele>
        <time>2015-09-20T06:09:13Z</time>
      </trkpt>
      <trkpt lat="49.198" lon="1.12387">
        <ele>142</ele>
        <time>2015-09-20T06:09:16Z</time>
      </trkpt>
      <trkpt lat="49.19813" lon="1.12392">
        <ele>142.5</ele>
        <time>2015-09-20T06:09:19Z</time>
      </trkpt>
      <trkpt lat="49.19826" lon="1.12396">
        <ele>143</ele>
        <time>2015-09-20T06:09:22Z</time>
      </trkpt>
      <trkpt lat="49.19834" lon="1.124">
        <ele>143.4</ele>
        <time>2015-09-20T06:09:24Z</time>
      </trkpt>
      <trkpt lat="49.19844" lon="1.12403">
        <ele>143.7</ele>
        <time>2015-09-20T06:09:26Z</time>
      </trkpt>
      <trkpt lat="49.19853" lon="1.12407">
        <ele>144</ele>
        <time>2015-09-20T06:09:28Z</time>
      </trkpt>
      <trkpt lat="49.19863" lon="1.1241">
        <ele>144.3</ele>
        <time>2015-09-20T06:09:30Z</time>
      </trkpt>
      <trkpt lat="49.19873" lon="1.12414">
        <ele>144.6</ele>
        <time>2015-09-20T06:09:32Z</time>
      </trkpt>
      <trkpt lat="49.19883" lon="1.12418">
        <ele>144.8</ele>
        <time>2015-09-20T06:09:34Z</time>
      </trkpt>
      <trkpt lat="49.19893" lon="1.12422">
        <ele>145</ele>
        <time>2015-09-20T06:09:36Z</time>
      </trkpt>
      <trkpt lat="49.19903" lon="1.12426">
        <ele>145.2</ele>
        <time>2015-09-20T06:09:38Z</time>
      </trkpt>
      <trkpt lat="49.19914" lon="1.1243">
        <ele>145.4</ele>
        <time>2015-09-20T06:09:40Z</time>
      </trkpt>
      <trkpt lat="49.19925" lon="1.12434">
        <ele>145.6</ele>
        <time>2015-09-20T06:09:42Z</time>
      </trkpt>
      <trkpt lat="49.19937" lon="1.12438">
        <ele>145.7</ele>
        <time>2015-09-20T06:09:44Z</time>
      </trkpt>
      <trkpt lat="49.19948" lon="1.12443">
        <ele>145.8</ele>
        <time>2015-09-20T06:09:46Z</time>
      </trkpt>
      <trkpt lat="49.19959" lon="1.12447">
        <ele>146</ele>
        <time>2015-09-20T06:09:48Z</time>
      </trkpt>
      <trkpt lat="49.1997" lon="1.12452">
        <ele>146</ele>
        <time>2015-09-20T06:09:50Z</time>
      </trkpt>
      <trkpt lat="49.19981" lon="1.12462">
        <ele>146.1</ele>
        <time>2015-09-20T06:09:52Z</time>
      </trkpt>
      <trkpt lat="49.19991" lon="1.12475">
        <ele>146.2</ele>
        <time>2015-09-20T06:09:54Z</time>
      </trkpt>
      <trkpt lat="49.19999" lon="1.1249">
        <ele>146.2</ele>
        <time>2015-09-20T06:09:56Z</time>
      </trkpt>
      <trkpt lat="49.20008" lon="1.12506">
        <ele>146.2</ele>
        <time>2015-09-20T06:09:58Z</time>
      </trkpt>
      <trkpt lat="49.20016" lon="1.12524">
        <ele>146.2</ele>
        <time>2015-09-20T06:10:00Z</time>
      </trkpt>
      <trkpt lat="49.20025" lon="1.12541">
        <ele>146</ele>
        <time>2015-09-20T06:10:02Z</time>
      </trkpt>
      <trkpt lat="49.20032" lon="1.1256">
        <ele>145.9</ele>
        <time>2015-09-20T06:10:04Z</time>
      </trkpt>
      <trkpt lat="49.2004" lon="1.12579">
        <ele>145.8</ele>
        <time>2015-09-20T06:10:06Z</time>
      </trkpt>
      <trkpt lat="49.20048" lon="1.12596">
        <ele>145.6</ele>
        <time>2015-09-20T06:10:08Z</time>
      </trkpt>
      <trkpt lat="49.20055" lon="1.12616">
        <ele>145.4</ele>
        <time>2015-09-20T06:10:10Z</time>
      </trkpt>
      <trkpt lat="49.20063" lon="1.12635">
        <ele>145.1</ele>
        <time>2015-09-20T06:10:12Z</time>
      </trkpt>
      <trkpt lat="49.20072" lon="1.12655">
        <ele>144.8</ele>
        <time>2015-09-20T06:10:14Z</time>
      </trkpt>
      <trkpt lat="49.20081" lon="1.12675">
        <ele>144.5</ele>
        <time>2015-09-20T06:10:16Z</time>
      </trkpt>
      <trkpt lat="49.20089" lon="1.12696">
        <ele>144.1</ele>
        <time>2015-09-20T06:10:18Z</time>
      </trkpt>
      <trkpt lat="49.20098" lon="1.12717">
        <ele>143.8</ele>
        <time>2015-09-20T06:10:20Z</time>
      </trkpt>
      <trkpt lat="49.20107" lon="1.12739">
        <ele>143.5</ele>
        <time>2015-09-20T06:10:22Z</time>
      </trkpt>
      <trkpt lat="49.20116" lon="1.12761">
        <ele>143</ele>
        <time>2015-09-20T06:10:24Z</time>
      </trkpt>
      <trkpt lat="49.20124" lon="1.12782">
        <ele>142.5</ele>
        <time>2015-09-20T06:10:26Z</time>
      </trkpt>
      <trkpt lat="49.20131" lon="1.12804">
        <ele>142.1</ele>
        <time>2015-09-20T06:10:28Z</time>
      </trkpt>
      <trkpt lat="49.20139" lon="1.12824">
        <ele>141.7</ele>
        <time>2015-09-20T06:10:30Z</time>
      </trkpt>
      <trkpt lat="49.20147" lon="1.12834">
        <ele>141.2</ele>
        <time>2015-09-20T06:10:32Z</time>
      </trkpt>
      <trkpt lat="49.20158" lon="1.12832">
        <ele>140.4</ele>
        <time>2015-09-20T06:10:35Z</time>
      </trkpt>
      <trkpt lat="49.20169" lon="1.12832">
        <ele>139.9</ele>
        <time>2015-09-20T06:10:37Z</time>
      </trkpt>
      <trkpt lat="49.20179" lon="1.1283">
        <ele>139.5</ele>
        <time>2015-09-20T06:10:39Z</time>
      </trkpt>
      <trkpt lat="49.20188" lon="1.12827">
        <ele>139.2</ele>
        <time>2015-09-20T06:10:41Z</time>
      </trkpt>
      <trkpt lat="49.202" lon="1.12827">
        <ele>138.9</ele>
        <time>2015-09-20T06:10:43Z</time>
      </trkpt>
      <trkpt lat="49.20211" lon="1.12825">
        <ele>138.7</ele>
        <time>2015-09-20T06:10:45Z</time>
      </trkpt>
      <trkpt lat="49.20221" lon="1.12822">
        <ele>138.5</ele>
        <time>2015-09-20T06:10:47Z</time>
      </trkpt>
      <trkpt lat="49.20234" lon="1.12819">
        <ele>138.6</ele>
        <time>2015-09-20T06:10:49Z</time>
      </trkpt>
      <trkpt lat="49.20244" lon="1.12817">
        <ele>138.7</ele>
        <time>2015-09-20T06:10:51Z</time>
      </trkpt>
      <trkpt lat="49.20253" lon="1.12813">
        <ele>138.7</ele>
        <time>2015-09-20T06:10:53Z</time>
      </trkpt>
      <trkpt lat="49.20266" lon="1.12807">
        <ele>138.8</ele>
        <time>2015-09-20T06:10:56Z</time>
      </trkpt>
      <trkpt lat="49.20278" lon="1.12803">
        <ele>139</ele>
        <time>2015-09-20T06:10:59Z</time>
      </trkpt>
      <trkpt lat="49.20291" lon="1.12796">
        <ele>139.2</ele>
        <time>2015-09-20T06:11:02Z</time>
      </trkpt>
      <trkpt lat="49.20303" lon="1.1279">
        <ele>139.3</ele>
        <time>2015-09-20T06:11:04Z</time>
      </trkpt>
      <trkpt lat="49.20316" lon="1.12782">
        <ele>139.6</ele>
        <time>2015-09-20T06:11:07Z</time>
      </trkpt>
      <trkpt lat="49.20328" lon="1.12777">
        <ele>139.9</ele>
        <time>2015-09-20T06:11:09Z</time>
      </trkpt>
      <trkpt lat="49.20341" lon="1.1277">
        <ele>140.2</ele>
        <time>2015-09-20T06:11:12Z</time>
      </trkpt>
      <trkpt lat="49.2035" lon="1.12766">
        <ele>140.4</ele>
        <time>2015-09-20T06:11:14Z</time>
      </trkpt>
      <trkpt lat="49.20359" lon="1.1276">
        <ele>140.6</ele>
        <time>2015-09-20T06:11:16Z</time>
      </trkpt>
      <trkpt lat="49.20373" lon="1.12755">
        <ele>140.8</ele>
        <time>2015-09-20T06:11:18Z</time>
      </trkpt>
      <trkpt lat="49.20387" lon="1.12756">
        <ele>140.9</ele>
        <time>2015-09-20T06:11:19Z</time>
      </trkpt>
      <trkpt lat="49.20403" lon="1.12755">
        <ele>141</ele>
        <time>2015-09-20T06:11:21Z</time>
      </trkpt>
      <trkpt lat="49.20416" lon="1.12754">
        <ele>141.1</ele>
        <time>2015-09-20T06:11:23Z</time>
      </trkpt>
      <trkpt lat="49.2043" lon="1.12751">
        <ele>141.1</ele>
        <time>2015-09-20T06:11:25Z</time>
      </trkpt>
      <trkpt lat="49.20443" lon="1.12747">
        <ele>141.1</ele>
        <time>2015-09-20T06:11:27Z</time>
      </trkpt>
      <trkpt lat="49.20455" lon="1.12743">
        <ele>141</ele>
        <time>2015-09-20T06:11:29Z</time>
      </trkpt>
      <trkpt lat="49.20468" lon="1.12737">
        <ele>140.9</ele>
        <time>2015-09-20T06:11:31Z</time>
      </trkpt>
      <trkpt lat="49.20481" lon="1.12732">
        <ele>140.7</ele>
        <time>2015-09-20T06:11:33Z</time>
      </trkpt>
      <trkpt lat="49.20492" lon="1.12727">
        <ele>140.5</ele>
        <time>2015-09-20T06:11:35Z</time>
      </trkpt>
      <trkpt lat="49.20502" lon="1.12721">
        <ele>140.3</ele>
        <time>2015-09-20T06:11:37Z</time>
      </trkpt>
      <trkpt lat="49.20513" lon="1.12717">
        <ele>140.1</ele>
        <time>2015-09-20T06:11:39Z</time>
      </trkpt>
      <trkpt lat="49.20524" lon="1.12711">
        <ele>139.8</ele>
        <time>2015-09-20T06:11:42Z</time>
      </trkpt>
      <trkpt lat="49.20532" lon="1.12703">
        <ele>139.6</ele>
        <time>2015-09-20T06:11:44Z</time>
      </trkpt>
      <trkpt lat="49.20544" lon="1.12694">
        <ele>139.4</ele>
        <time>2015-09-20T06:11:46Z</time>
      </trkpt>
      <trkpt lat="49.20555" lon="1.12675">
        <ele>139.2</ele>
        <time>2015-09-20T06:11:48Z</time>
      </trkpt>
      <trkpt lat="49.20562" lon="1.12663">
        <ele>139</ele>
        <time>2015-09-20T06:11:49Z</time>
      </trkpt>
      <trkpt lat="49.2057" lon="1.12651">
        <ele>138.8</ele>
        <time>2015-09-20T06:11:50Z</time>
      </trkpt>
      <trkpt lat="49.20577" lon="1.12641">
        <ele>138.7</ele>
        <time>2015-09-20T06:11:51Z</time>
      </trkpt>
      <trkpt lat="49.20583" lon="1.12631">
        <ele>138.5</ele>
        <time>2015-09-20T06:11:52Z</time>
      </trkpt>
      <trkpt lat="49.20596" lon="1.12614">
        <ele>138.1</ele>
        <time>2015-09-20T06:11:54Z</time>
      </trkpt>
      <trkpt lat="49.20608" lon="1.12598">
        <ele>137.5</ele>
        <time>2015-09-20T06:11:56Z</time>
      </trkpt>
      <trkpt lat="49.2062" lon="1.12584">
        <ele>137.1</ele>
        <time>2015-09-20T06:11:58Z</time>
      </trkpt>
      <trkpt lat="49.20629" lon="1.12572">
        <ele>136.8</ele>
        <time>2015-09-20T06:12:00Z</time>
      </trkpt>
      <trkpt lat="49.20638" lon="1.12561">
        <ele>136.7</ele>
        <time>2015-09-20T06:12:02Z</time>
      </trkpt>
      <trkpt lat="49.20645" lon="1.12551">
        <ele>136.6</ele>
        <time>2015-09-20T06:12:04Z</time>
      </trkpt>
      <trkpt lat="49.20653" lon="1.1254">
        <ele>136.6</ele>
        <time>2015-09-20T06:12:06Z</time>
      </trkpt>
      <trkpt lat="49.2066" lon="1.1253">
        <ele>136.6</ele>
        <time>2015-09-20T06:12:08Z</time>
      </trkpt>
      <trkpt lat="49.20668" lon="1.1252">
        <ele>136.7</ele>
        <time>2015-09-20T06:12:10Z</time>
      </trkpt>
      <trkpt lat="49.20676" lon="1.1251">
        <ele>136.8</ele>
        <time>2015-09-20T06:12:12Z</time>
      </trkpt>
      <trkpt lat="49.20684" lon="1.12503">
        <ele>136.8</ele>
        <time>2015-09-20T06:12:14Z</time>
      </trkpt>
      <trkpt lat="49.20692" lon="1.12495">
        <ele>136.9</ele>
        <time>2015-09-20T06:12:16Z</time>
      </trkpt>
      <trkpt lat="49.207" lon="1.12486">
        <ele>137.1</ele>
        <time>2015-09-20T06:12:18Z</time>
      </trkpt>
      <trkpt lat="49.20711" lon="1.12473">
        <ele>137.4</ele>
        <time>2015-09-20T06:12:21Z</time>
      </trkpt>
      <trkpt lat="49.20716" lon="1.12459">
        <ele>137.5</ele>
        <time>2015-09-20T06:12:23Z</time>
      </trkpt>
      <trkpt lat="49.20719" lon="1.12443">
        <ele>137.8</ele>
        <time>2015-09-20T06:12:25Z</time>
      </trkpt>
      <trkpt lat="49.20722" lon="1.12429">
        <ele>138</ele>
        <time>2015-09-20T06:12:27Z</time>
      </trkpt>
      <trkpt lat="49.20725" lon="1.12413">
        <ele>138.2</ele>
        <time>2015-09-20T06:12:29Z</time>
      </trkpt>
      <trkpt lat="49.20728" lon="1.12397">
        <ele>138.4</ele>
        <time>2015-09-20T06:12:31Z</time>
      </trkpt>
      <trkpt lat="49.2073" lon="1.12381">
        <ele>138.7</ele>
        <time>2015-09-20T06:12:33Z</time>
      </trkpt>
      <trkpt lat="49.20731" lon="1.12366">
        <ele>139.1</ele>
        <time>2015-09-20T06:12:35Z</time>
      </trkpt>
      <trkpt lat="49.20732" lon="1.12349">
        <ele>139.4</ele>
        <time>2015-09-20T06:12:37Z</time>
      </trkpt>
      <trkpt lat="49.20732" lon="1.12335">
        <ele>139.7</ele>
        <time>2015-09-20T06:12:39Z</time>
      </trkpt>
      <trkpt lat="49.20733" lon="1.1232">
        <ele>139.9</ele>
        <time>2015-09-20T06:12:41Z</time>
      </trkpt>
      <trkpt lat="49.20734" lon="1.12305">
        <ele>140.2</ele>
        <time>2015-09-20T06:12:43Z</time>
      </trkpt>
      <trkpt lat="49.20735" lon="1.12287">
        <ele>140.4</ele>
        <time>2015-09-20T06:12:45Z</time>
      </trkpt>
      <trkpt lat="49.20738" lon="1.12268">
        <ele>140.8</ele>
        <time>2015-09-20T06:12:48Z</time>
      </trkpt>
      <trkpt lat="49.2074" lon="1.12252">
        <ele>141</ele>
        <time>2015-09-20T06:12:50Z</time>
      </trkpt>
      <trkpt lat="49.20745" lon="1.12238">
        <ele>141.3</ele>
        <time>2015-09-20T06:12:52Z</time>
      </trkpt>
      <trkpt lat="49.20746" lon="1.12221">
        <ele>141.6</ele>
        <time>2015-09-20T06:12:55Z</time>
      </trkpt>
      <trkpt lat="49.20748" lon="1.12204">
        <ele>142</ele>
        <time>2015-09-20T06:12:58Z</time>
      </trkpt>
      <trkpt lat="49.20748" lon="1.12186">
        <ele>142.4</ele>
        <time>2015-09-20T06:13:01Z</time>
      </trkpt>
      <trkpt lat="49.20748" lon="1.12168">
        <ele>142.7</ele>
        <time>2015-09-20T06:13:03Z</time>
      </trkpt>
      <trkpt lat="49.20749" lon="1.12148">
        <ele>143</ele>
        <time>2015-09-20T06:13:06Z</time>
      </trkpt>
      <trkpt lat="49.20751" lon="1.12133">
        <ele>143.2</ele>
        <time>2015-09-20T06:13:08Z</time>
      </trkpt>
      <trkpt lat="49.20754" lon="1.12117">
        <ele>143.5</ele>
        <time>2015-09-20T06:13:10Z</time>
      </trkpt>
      <trkpt lat="49.20756" lon="1.12101">
        <ele>143.7</ele>
        <time>2015-09-20T06:13:12Z</time>
      </trkpt>
      <trkpt lat="49.20758" lon="1.12081">
        <ele>143.9</ele>
        <time>2015-09-20T06:13:14Z</time>
      </trkpt>
      <trkpt lat="49.2076" lon="1.1206">
        <ele>144.3</ele>
        <time>2015-09-20T06:13:17Z</time>
      </trkpt>
      <trkpt lat="49.20763" lon="1.12044">
        <ele>144.5</ele>
        <time>2015-09-20T06:13:19Z</time>
      </trkpt>
      <trkpt lat="49.20766" lon="1.12028">
        <ele>144.7</ele>
        <time>2015-09-20T06:13:21Z</time>
      </trkpt>
      <trkpt lat="49.20769" lon="1.12011">
        <ele>144.9</ele>
        <time>2015-09-20T06:13:23Z</time>
      </trkpt>
      <trkpt lat="49.20773" lon="1.11995">
        <ele>145.1</ele>
        <time>2015-09-20T06:13:25Z</time>
      </trkpt>
      <trkpt lat="49.20775" lon="1.11981">
        <ele>145.3</ele>
        <time>2015-09-20T06:13:27Z</time>
      </trkpt>
      <trkpt lat="49.20777" lon="1.11965">
        <ele>145.5</ele>
        <time>2015-09-20T06:13:29Z</time>
      </trkpt>
      <trkpt lat="49.2078" lon="1.11949">
        <ele>145.6</ele>
        <time>2015-09-20T06:13:31Z</time>
      </trkpt>
      <trkpt lat="49.20782" lon="1.11932">
        <ele>145.8</ele>
        <time>2015-09-20T06:13:33Z</time>
      </trkpt>
      <trkpt lat="49.20784" lon="1.11915">
        <ele>146</ele>
        <time>2015-09-20T06:13:35Z</time>
      </trkpt>
      <trkpt lat="49.20787" lon="1.11899">
        <ele>146.2</ele>
        <time>2015-09-20T06:13:37Z</time>
      </trkpt>
      <trkpt lat="49.2079" lon="1.11883">
        <ele>146.3</ele>
        <time>2015-09-20T06:13:39Z</time>
      </trkpt>
      <trkpt lat="49.20793" lon="1.11866">
        <ele>146.5</ele>
        <time>2015-09-20T06:13:41Z</time>
      </trkpt>
      <trkpt lat="49.20796" lon="1.11847">
        <ele>146.6</ele>
        <time>2015-09-20T06:13:43Z</time>
      </trkpt>
      <trkpt lat="49.20798" lon="1.1183">
        <ele>146.7</ele>
        <time>2015-09-20T06:13:45Z</time>
      </trkpt>
      <trkpt lat="49.208" lon="1.11813">
        <ele>146.8</ele>
        <time>2015-09-20T06:13:47Z</time>
      </trkpt>
      <trkpt lat="49.20802" lon="1.11796">
        <ele>147</ele>
        <time>2015-09-20T06:13:49Z</time>
      </trkpt>
      <trkpt lat="49.20805" lon="1.11778">
        <ele>147.1</ele>
        <time>2015-09-20T06:13:51Z</time>
      </trkpt>
      <trkpt lat="49.20807" lon="1.11762">
        <ele>147.2</ele>
        <time>2015-09-20T06:13:53Z</time>
      </trkpt>
      <trkpt lat="49.20811" lon="1.11745">
        <ele>147.3</ele>
        <time>2015-09-20T06:13:55Z</time>
      </trkpt>
      <trkpt lat="49.20815" lon="1.1173">
        <ele>147.3</ele>
        <time>2015-09-20T06:13:57Z</time>
      </trkpt>
      <trkpt lat="49.2082" lon="1.11715">
        <ele>147.4</ele>
        <time>2015-09-20T06:13:59Z</time>
      </trkpt>
      <trkpt lat="49.20826" lon="1.11699">
        <ele>147.5</ele>
        <time>2015-09-20T06:14:01Z</time>
      </trkpt>
      <trkpt lat="49.20831" lon="1.11685">
        <ele>147.5</ele>
        <time>2015-09-20T06:14:03Z</time>
      </trkpt>
      <trkpt lat="49.20836" lon="1.11671">
        <ele>147.6</ele>
        <time>2015-09-20T06:14:05Z</time>
      </trkpt>
      <trkpt lat="49.20842" lon="1.11656">
        <ele>147.6</ele>
        <time>2015-09-20T06:14:07Z</time>
      </trkpt>
      <trkpt lat="49.20848" lon="1.11642">
        <ele>147.6</ele>
        <time>2015-09-20T06:14:09Z</time>
      </trkpt>
      <trkpt lat="49.20854" lon="1.11628">
        <ele>147.7</ele>
        <time>2015-09-20T06:14:11Z</time>
      </trkpt>
      <trkpt lat="49.2086" lon="1.11614">
        <ele>147.7</ele>
        <time>2015-09-20T06:14:13Z</time>
      </trkpt>
      <trkpt lat="49.20866" lon="1.11598">
        <ele>147.7</ele>
        <time>2015-09-20T06:14:15Z</time>
      </trkpt>
      <trkpt lat="49.20872" lon="1.11581">
        <ele>147.7</ele>
        <time>2015-09-20T06:14:17Z</time>
      </trkpt>
      <trkpt lat="49.20876" lon="1.11564">
        <ele>147.7</ele>
        <time>2015-09-20T06:14:19Z</time>
      </trkpt>
      <trkpt lat="49.20881" lon="1.11547">
        <ele>147.6</ele>
        <time>2015-09-20T06:14:21Z</time>
      </trkpt>
      <trkpt lat="49.20886" lon="1.11528">
        <ele>147.6</ele>
        <time>2015-09-20T06:14:23Z</time>
      </trkpt>
      <trkpt lat="49.20892" lon="1.11511">
        <ele>147.5</ele>
        <time>2015-09-20T06:14:25Z</time>
      </trkpt>
      <trkpt lat="49.20899" lon="1.11495">
        <ele>147.4</ele>
        <time>2015-09-20T06:14:27Z</time>
      </trkpt>
      <trkpt lat="49.20906" lon="1.11479">
        <ele>147.3</ele>
        <time>2015-09-20T06:14:29Z</time>
      </trkpt>
      <trkpt lat="49.20913" lon="1.11464">
        <ele>147.2</ele>
        <time>2015-09-20T06:14:31Z</time>
      </trkpt>
      <trkpt lat="49.2092" lon="1.11451">
        <ele>147.1</ele>
        <time>2015-09-20T06:14:33Z</time>
      </trkpt>
      <trkpt lat="49.20925" lon="1.11436">
        <ele>147</ele>
        <time>2015-09-20T06:14:35Z</time>
      </trkpt>
      <trkpt lat="49.20928" lon="1.11421">
        <ele>146.8</ele>
        <time>2015-09-20T06:14:37Z</time>
      </trkpt>
      <trkpt lat="49.20928" lon="1.11407">
        <ele>146.8</ele>
        <time>2015-09-20T06:14:39Z</time>
      </trkpt>
      <trkpt lat="49.20939" lon="1.11412">
        <ele>146.9</ele>
        <time>2015-09-20T06:14:45Z</time>
      </trkpt>
      <trkpt lat="49.20943" lon="1.1143">
        <ele>147.1</ele>
        <time>2015-09-20T06:14:48Z</time>
      </trkpt>
      <trkpt lat="49.20947" lon="1.11443">
        <ele>147.2</ele>
        <time>2015-09-20T06:14:50Z</time>
      </trkpt>
      <trkpt lat="49.20952" lon="1.11458">
        <ele>147.3</ele>
        <time>2015-09-20T06:14:52Z</time>
      </trkpt>
      <trkpt lat="49.20957" lon="1.11473">
        <ele>147.4</ele>
        <time>2015-09-20T06:14:54Z</time>
      </trkpt>
      <trkpt lat="49.20962" lon="1.11488">
        <ele>147.5</ele>
        <time>2015-09-20T06:14:56Z</time>
      </trkpt>
      <trkpt lat="49.20966" lon="1.11504">
        <ele>147.6</ele>
        <time>2015-09-20T06:14:58Z</time>
      </trkpt>
      <trkpt lat="49.20971" lon="1.11519">
        <ele>147.8</ele>
        <time>2015-09-20T06:15:00Z</time>
      </trkpt>
      <trkpt lat="49.20973" lon="1.11535">
        <ele>147.9</ele>
        <time>2015-09-20T06:15:02Z</time>
      </trkpt>
      <trkpt lat="49.20973" lon="1.11552">
        <ele>148</ele>
        <time>2015-09-20T06:15:04Z</time>
      </trkpt>
      <trkpt lat="49.20974" lon="1.11567">
        <ele>148</ele>
        <time>2015-09-20T06:15:06Z</time>
      </trkpt>
      <trkpt lat="49.20979" lon="1.1158">
        <ele>147.9</ele>
        <time>2015-09-20T06:15:08Z</time>
      </trkpt>
      <trkpt lat="49.20983" lon="1.11593">
        <ele>147.9</ele>
        <time>2015-09-20T06:15:11Z</time>
      </trkpt>
      <trkpt lat="49.20988" lon="1.11606">
        <ele>147.9</ele>
        <time>2015-09-20T06:15:14Z</time>
      </trkpt>
      <trkpt lat="49.20991" lon="1.1162">
        <ele>147.9</ele>
        <time>2015-09-20T06:15:16Z</time>
      </trkpt>
      <trkpt lat="49.20992" lon="1.11637">
        <ele>147.8</ele>
        <time>2015-09-20T06:15:18Z</time>
      </trkpt>
      <trkpt lat="49.20996" lon="1.11653">
        <ele>147.8</ele>
        <time>2015-09-20T06:15:20Z</time>
      </trkpt>
      <trkpt lat="49.21001" lon="1.11664">
        <ele>147.7</ele>
        <time>2015-09-20T06:15:22Z</time>
      </trkpt>
      <trkpt lat="49.21014" lon="1.11668">
        <ele>147.5</ele>
        <time>2015-09-20T06:15:25Z</time>
      </trkpt>
      <trkpt lat="49.21028" lon="1.11663">
        <ele>147.3</ele>
        <time>2015-09-20T06:15:28Z</time>
      </trkpt>
      <trkpt lat="49.21036" lon="1.11657">
        <ele>147.2</ele>
        <time>2015-09-20T06:15:30Z</time>
      </trkpt>
      <trkpt lat="49.21043" lon="1.11647">
        <ele>147.1</ele>
        <time>2015-09-20T06:15:32Z</time>
      </trkpt>
      <trkpt lat="49.21054" lon="1.1164">
        <ele>147</ele>
        <time>2015-09-20T06:15:35Z</time>
      </trkpt>
      <trkpt lat="49.21065" lon="1.11638">
        <ele>147</ele>
        <time>2015-09-20T06:15:38Z</time>
      </trkpt>
      <trkpt lat="49.21074" lon="1.11634">
        <ele>147</ele>
        <time>2015-09-20T06:15:40Z</time>
      </trkpt>
      <trkpt lat="49.21089" lon="1.11632">
        <ele>147</ele>
        <time>2015-09-20T06:15:43Z</time>
      </trkpt>
      <trkpt lat="49.21101" lon="1.1163">
        <ele>147</ele>
        <time>2015-09-20T06:15:45Z</time>
      </trkpt>
      <trkpt lat="49.21111" lon="1.11627">
        <ele>147</ele>
        <time>2015-09-20T06:15:47Z</time>
      </trkpt>
      <trkpt lat="49.2112" lon="1.11623">
        <ele>147</ele>
        <time>2015-09-20T06:15:49Z</time>
      </trkpt>
      <trkpt lat="49.21129" lon="1.1162">
        <ele>146.9</ele>
        <time>2015-09-20T06:15:51Z</time>
      </trkpt>
      <trkpt lat="49.2114" lon="1.11618">
        <ele>146.7</ele>
        <time>2015-09-20T06:15:54Z</time>
      </trkpt>
      <trkpt lat="49.2115" lon="1.11614">
        <ele>146.5</ele>
        <time>2015-09-20T06:15:56Z</time>
      </trkpt>
      <trkpt lat="49.2116" lon="1.11609">
        <ele>146</ele>
        <time>2015-09-20T06:15:58Z</time>
      </trkpt>
      <trkpt lat="49.21169" lon="1.11602">
        <ele>145.4</ele>
        <time>2015-09-20T06:16:00Z</time>
      </trkpt>
      <trkpt lat="49.21176" lon="1.11593">
        <ele>144.7</ele>
        <time>2015-09-20T06:16:02Z</time>
      </trkpt>
      <trkpt lat="49.21188" lon="1.11584">
        <ele>143.5</ele>
        <time>2015-09-20T06:16:05Z</time>
      </trkpt>
      <trkpt lat="49.212" lon="1.11572">
        <ele>141.9</ele>
        <time>2015-09-20T06:16:08Z</time>
      </trkpt>
      <trkpt lat="49.21213" lon="1.11567">
        <ele>140.8</ele>
        <time>2015-09-20T06:16:10Z</time>
      </trkpt>
      <trkpt lat="49.21225" lon="1.11564">
        <ele>139.2</ele>
        <time>2015-09-20T06:16:13Z</time>
      </trkpt>
      <trkpt lat="49.21235" lon="1.11569">
        <ele>138.1</ele>
        <time>2015-09-20T06:16:15Z</time>
      </trkpt>
      <trkpt lat="49.21246" lon="1.11576">
        <ele>137</ele>
        <time>2015-09-20T06:16:17Z</time>
      </trkpt>
      <trkpt lat="49.21252" lon="1.11586">
        <ele>135.8</ele>
        <time>2015-09-20T06:16:19Z</time>
      </trkpt>
      <trkpt lat="49.21255" lon="1.116">
        <ele>134.8</ele>
        <time>2015-09-20T06:16:21Z</time>
      </trkpt>
      <trkpt lat="49.21255" lon="1.11616">
        <ele>133.3</ele>
        <time>2015-09-20T06:16:24Z</time>
      </trkpt>
      <trkpt lat="49.21252" lon="1.11632">
        <ele>132.4</ele>
        <time>2015-09-20T06:16:26Z</time>
      </trkpt>
      <trkpt lat="49.21248" lon="1.11646">
        <ele>131.6</ele>
        <time>2015-09-20T06:16:28Z</time>
      </trkpt>
      <trkpt lat="49.21245" lon="1.11664">
        <ele>130.5</ele>
        <time>2015-09-20T06:16:31Z</time>
      </trkpt>
      <trkpt lat="49.21242" lon="1.11678">
        <ele>129.8</ele>
        <time>2015-09-20T06:16:33Z</time>
      </trkpt>
      <trkpt lat="49.21235" lon="1.11695">
        <ele>129.1</ele>
        <time>2015-09-20T06:16:35Z</time>
      </trkpt>
      <trkpt lat="49.21228" lon="1.11706">
        <ele>128.4</ele>
        <time>2015-09-20T06:16:37Z</time>
      </trkpt>
      <trkpt lat="49.21221" lon="1.11717">
        <ele>127.8</ele>
        <time>2015-09-20T06:16:39Z</time>
      </trkpt>
      <trkpt lat="49.21215" lon="1.11732">
        <ele>127</ele>
        <time>2015-09-20T06:16:42Z</time>
      </trkpt>
      <trkpt lat="49.21212" lon="1.11751">
        <ele>126.4</ele>
        <time>2015-09-20T06:16:45Z</time>
      </trkpt>
      <trkpt lat="49.21208" lon="1.11764">
        <ele>125.9</ele>
        <time>2015-09-20T06:16:47Z</time>
      </trkpt>
      <trkpt lat="49.21204" lon="1.11778">
        <ele>125.6</ele>
        <time>2015-09-20T06:16:49Z</time>
      </trkpt>
      <trkpt lat="49.21199" lon="1.11797">
        <ele>125.1</ele>
        <time>2015-09-20T06:16:52Z</time>
      </trkpt>
      <trkpt lat="49.21196" lon="1.11811">
        <ele>124.8</ele>
        <time>2015-09-20T06:16:54Z</time>
      </trkpt>
      <trkpt lat="49.21195" lon="1.11829">
        <ele>124.2</ele>
        <time>2015-09-20T06:16:57Z</time>
      </trkpt>
      <trkpt lat="49.21189" lon="1.11844">
        <ele>123.8</ele>
        <time>2015-09-20T06:16:59Z</time>
      </trkpt>
      <trkpt lat="49.21183" lon="1.1186">
        <ele>123.3</ele>
        <time>2015-09-20T06:17:02Z</time>
      </trkpt>
      <trkpt lat="49.21182" lon="1.11874">
        <ele>122.7</ele>
        <time>2015-09-20T06:17:05Z</time>
      </trkpt>
      <trkpt lat="49.21177" lon="1.11886">
        <ele>122.1</ele>
        <time>2015-09-20T06:17:09Z</time>
      </trkpt>
      <trkpt lat="49.21173" lon="1.119">
        <ele>121.7</ele>
        <time>2015-09-20T06:17:11Z</time>
      </trkpt>
      <trkpt lat="49.2117" lon="1.11919">
        <ele>121.1</ele>
        <time>2015-09-20T06:17:14Z</time>
      </trkpt>
      <trkpt lat="49.21168" lon="1.11933">
        <ele>120.8</ele>
        <time>2015-09-20T06:17:16Z</time>
      </trkpt>
      <trkpt lat="49.21165" lon="1.11947">
        <ele>120.5</ele>
        <time>2015-09-20T06:17:18Z</time>
      </trkpt>
      <trkpt lat="49.2116" lon="1.11964">
        <ele>120.1</ele>
        <time>2015-09-20T06:17:21Z</time>
      </trkpt>
      <trkpt lat="49.21159" lon="1.11981">
        <ele>119.8</ele>
        <time>2015-09-20T06:17:24Z</time>
      </trkpt>
      <trkpt lat="49.21156" lon="1.11999">
        <ele>119.3</ele>
        <time>2015-09-20T06:17:27Z</time>
      </trkpt>
      <trkpt lat="49.21159" lon="1.12012">
        <ele>118.8</ele>
        <time>2015-09-20T06:17:29Z</time>
      </trkpt>
      <trkpt lat="49.21159" lon="1.12029">
        <ele>118.3</ele>
        <time>2015-09-20T06:17:31Z</time>
      </trkpt>
      <trkpt lat="49.21159" lon="1.12047">
        <ele>117.7</ele>
        <time>2015-09-20T06:17:33Z</time>
      </trkpt>
      <trkpt lat="49.21159" lon="1.12066">
        <ele>117.2</ele>
        <time>2015-09-20T06:17:35Z</time>
      </trkpt>
      <trkpt lat="49.21158" lon="1.12084">
        <ele>116.7</ele>
        <time>2015-09-20T06:17:37Z</time>
      </trkpt>
      <trkpt lat="49.21157" lon="1.12103">
        <ele>116.2</ele>
        <time>2015-09-20T06:17:39Z</time>
      </trkpt>
      <trkpt lat="49.21156" lon="1.12117">
        <ele>115.8</ele>
        <time>2015-09-20T06:17:41Z</time>
      </trkpt>
      <trkpt lat="49.21152" lon="1.12132">
        <ele>115.4</ele>
        <time>2015-09-20T06:17:43Z</time>
      </trkpt>
      <trkpt lat="49.2115" lon="1.12148">
        <ele>114.8</ele>
        <time>2015-09-20T06:17:46Z</time>
      </trkpt>
      <trkpt lat="49.21152" lon="1.12163">
        <ele>114.1</ele>
        <time>2015-09-20T06:17:50Z</time>
      </trkpt>
      <trkpt lat="49.2116" lon="1.12172">
        <ele>113.3</ele>
        <time>2015-09-20T06:17:55Z</time>
      </trkpt>
      <trkpt lat="49.21171" lon="1.12171">
        <ele>112.8</ele>
        <time>2015-09-20T06:17:59Z</time>
      </trkpt>
      <trkpt lat="49.21181" lon="1.12159">
        <ele>112.4</ele>
        <time>2015-09-20T06:18:03Z</time>
      </trkpt>
      <trkpt lat="49.21186" lon="1.12147">
        <ele>112.2</ele>
        <time>2015-09-20T06:18:06Z</time>
      </trkpt>
      <trkpt lat="49.21192" lon="1.12132">
        <ele>112.2</ele>
        <time>2015-09-20T06:18:10Z</time>
      </trkpt>
      <trkpt lat="49.21195" lon="1.12119">
        <ele>112.5</ele>
        <time>2015-09-20T06:18:13Z</time>
      </trkpt>
      <trkpt lat="49.21198" lon="1.12105">
        <ele>112.9</ele>
        <time>2015-09-20T06:18:16Z</time>
      </trkpt>
      <trkpt lat="49.212" lon="1.12083">
        <ele>113.5</ele>
        <time>2015-09-20T06:18:20Z</time>
      </trkpt>
      <trkpt lat="49.21196" lon="1.12064">
        <ele>113.7</ele>
        <time>2015-09-20T06:18:23Z</time>
      </trkpt>
      <trkpt lat="49.21195" lon="1.12048">
        <ele>113.8</ele>
        <time>2015-09-20T06:18:25Z</time>
      </trkpt>
      <trkpt lat="49.21196" lon="1.1203">
        <ele>114</ele>
        <time>2015-09-20T06:18:28Z</time>
      </trkpt>
      <trkpt lat="49.21197" lon="1.12012">
        <ele>114.2</ele>
        <time>2015-09-20T06:18:32Z</time>
      </trkpt>
      <trkpt lat="49.21197" lon="1.11997">
        <ele>114.3</ele>
        <time>2015-09-20T06:18:34Z</time>
      </trkpt>
      <trkpt lat="49.21198" lon="1.11978">
        <ele>114.5</ele>
        <time>2015-09-20T06:18:37Z</time>
      </trkpt>
      <trkpt lat="49.21199" lon="1.11961">
        <ele>114.7</ele>
        <time>2015-09-20T06:18:40Z</time>
      </trkpt>
      <trkpt lat="49.21203" lon="1.11946">
        <ele>115</ele>
        <time>2015-09-20T06:18:43Z</time>
      </trkpt>
      <trkpt lat="49.21206" lon="1.1193">
        <ele>115.3</ele>
        <time>2015-09-20T06:18:46Z</time>
      </trkpt>
      <trkpt lat="49.2121" lon="1.11912">
        <ele>115.6</ele>
        <time>2015-09-20T06:18:49Z</time>
      </trkpt>
      <trkpt lat="49.21217" lon="1.11896">
        <ele>116</ele>
        <time>2015-09-20T06:18:52Z</time>
      </trkpt>
      <trkpt lat="49.21221" lon="1.11883">
        <ele>116.3</ele>
        <time>2015-09-20T06:18:55Z</time>
      </trkpt>
      <trkpt lat="49.21226" lon="1.11868">
        <ele>116.7</ele>
        <time>2015-09-20T06:18:58Z</time>
      </trkpt>
      <trkpt lat="49.21231" lon="1.11853">
        <ele>117.1</ele>
        <time>2015-09-20T06:19:01Z</time>
      </trkpt>
      <trkpt lat="49.21233" lon="1.11839">
        <ele>117.4</ele>
        <time>2015-09-20T06:19:03Z</time>
      </trkpt>
      <trkpt lat="49.21238" lon="1.11824">
        <ele>117.7</ele>
        <time>2015-09-20T06:19:06Z</time>
      </trkpt>
      <trkpt lat="49.21243" lon="1.11808">
        <ele>118.1</ele>
        <time>2015-09-20T06:19:09Z</time>
      </trkpt>
      <trkpt lat="49.21249" lon="1.11796">
        <ele>118.5</ele>
        <time>2015-09-20T06:19:12Z</time>
      </trkpt>
      <trkpt lat="49.21255" lon="1.11783">
        <ele>119</ele>
        <time>2015-09-20T06:19:15Z</time>
      </trkpt>
      <trkpt lat="49.21259" lon="1.11769">
        <ele>119.5</ele>
        <time>2015-09-20T06:19:18Z</time>
      </trkpt>
      <trkpt lat="49.21263" lon="1.11754">
        <ele>119.9</ele>
        <time>2015-09-20T06:19:21Z</time>
      </trkpt>
      <trkpt lat="49.21269" lon="1.11742">
        <ele>120.2</ele>
        <time>2015-09-20T06:19:24Z</time>
      </trkpt>
      <trkpt lat="49.21274" lon="1.1173">
        <ele>120.6</ele>
        <time>2015-09-20T06:19:27Z</time>
      </trkpt>
      <trkpt lat="49.21281" lon="1.11717">
        <ele>121.1</ele>
        <time>2015-09-20T06:19:30Z</time>
      </trkpt>
      <trkpt lat="49.21286" lon="1.11706">
        <ele>121.5</ele>
        <time>2015-09-20T06:19:33Z</time>
      </trkpt>
      <trkpt lat="49.21292" lon="1.11692">
        <ele>122.2</ele>
        <time>2015-09-20T06:19:37Z</time>
      </trkpt>
      <trkpt lat="49.21298" lon="1.11678">
        <ele>122.9</ele>
        <time>2015-09-20T06:19:41Z</time>
      </trkpt>
      <trkpt lat="49.21304" lon="1.11664">
        <ele>123.8</ele>
        <time>2015-09-20T06:19:45Z</time>
      </trkpt>
      <trkpt lat="49.21309" lon="1.1165">
        <ele>124.7</ele>
        <time>2015-09-20T06:19:49Z</time>
      </trkpt>
      <trkpt lat="49.21314" lon="1.11638">
        <ele>125.8</ele>
        <time>2015-09-20T06:19:53Z</time>
      </trkpt>
      <trkpt lat="49.21319" lon="1.11624">
        <ele>127</ele>
        <time>2015-09-20T06:19:58Z</time>
      </trkpt>
      <trkpt lat="49.21324" lon="1.11609">
        <ele>127.9</ele>
        <time>2015-09-20T06:20:02Z</time>
      </trkpt>
      <trkpt lat="49.21329" lon="1.11594">
        <ele>128.8</ele>
        <time>2015-09-20T06:20:06Z</time>
      </trkpt>
      <trkpt lat="49.21334" lon="1.11581">
        <ele>129.7</ele>
        <time>2015-09-20T06:20:10Z</time>
      </trkpt>
      <trkpt lat="49.21342" lon="1.11568">
        <ele>131</ele>
        <time>2015-09-20T06:20:15Z</time>
      </trkpt>
      <trkpt lat="49.21349" lon="1.11555">
        <ele>132.1</ele>
        <time>2015-09-20T06:20:19Z</time>
      </trkpt>
      <trkpt lat="49.21356" lon="1.11544">
        <ele>133.3</ele>
        <time>2015-09-20T06:20:23Z</time>
      </trkpt>
      <trkpt lat="49.21362" lon="1.11534">
        <ele>134.5</ele>
        <time>2015-09-20T06:20:27Z</time>
      </trkpt>
      <trkpt lat="49.2137" lon="1.11523">
        <ele>136.1</ele>
        <time>2015-09-20T06:20:32Z</time>
      </trkpt>
      <trkpt lat="49.21377" lon="1.11513">
        <ele>137.4</ele>
        <time>2015-09-20T06:20:36Z</time>
      </trkpt>
      <trkpt lat="49.21384" lon="1.11504">
        <ele>138.6</ele>
        <time>2015-09-20T06:20:40Z</time>
      </trkpt>
      <trkpt lat="49.21392" lon="1.11493">
        <ele>139.9</ele>
        <time>2015-09-20T06:20:44Z</time>
      </trkpt>
      <trkpt lat="49.214" lon="1.11482">
        <ele>141</ele>
        <time>2015-09-20T06:20:48Z</time>
      </trkpt>
      <trkpt lat="49.21408" lon="1.1147">
        <ele>142</ele>
        <time>2015-09-20T06:20:52Z</time>
      </trkpt>
      <trkpt lat="49.21412" lon="1.11457">
        <ele>142.8</ele>
        <time>2015-09-20T06:20:55Z</time>
      </trkpt>
      <trkpt lat="49.21412" lon="1.11442">
        <ele>143.6</ele>
        <time>2015-09-20T06:20:58Z</time>
      </trkpt>
      <trkpt lat="49.21411" lon="1.11427">
        <ele>144.1</ele>
        <time>2015-09-20T06:21:01Z</time>
      </trkpt>
      <trkpt lat="49.21411" lon="1.11408">
        <ele>144.6</ele>
        <time>2015-09-20T06:21:04Z</time>
      </trkpt>
      <trkpt lat="49.2141" lon="1.11392">
        <ele>145</ele>
        <time>2015-09-20T06:21:07Z</time>
      </trkpt>
      <trkpt lat="49.21409" lon="1.11372">
        <ele>145.4</ele>
        <time>2015-09-20T06:21:10Z</time>
      </trkpt>
      <trkpt lat="49.21409" lon="1.11358">
        <ele>145.6</ele>
        <time>2015-09-20T06:21:12Z</time>
      </trkpt>
      <trkpt lat="49.21409" lon="1.11343">
        <ele>145.7</ele>
        <time>2015-09-20T06:21:14Z</time>
      </trkpt>
      <trkpt lat="49.21408" lon="1.11329">
        <ele>145.9</ele>
        <time>2015-09-20T06:21:16Z</time>
      </trkpt>
      <trkpt lat="49.21408" lon="1.11315">
        <ele>146</ele>
        <time>2015-09-20T06:21:18Z</time>
      </trkpt>
      <trkpt lat="49.21407" lon="1.11294">
        <ele>146.2</ele>
        <time>2015-09-20T06:21:21Z</time>
      </trkpt>
      <trkpt lat="49.21407" lon="1.11279">
        <ele>146.2</ele>
        <time>2015-09-20T06:21:23Z</time>
      </trkpt>
      <trkpt lat="49.21407" lon="1.11265">
        <ele>146.3</ele>
        <time>2015-09-20T06:21:25Z</time>
      </trkpt>
      <trkpt lat="49.21407" lon="1.1125">
        <ele>146.4</ele>
        <time>2015-09-20T06:21:27Z</time>
      </trkpt>
      <trkpt lat="49.21407" lon="1.11235">
        <ele>146.5</ele>
        <time>2015-09-20T06:21:29Z</time>
      </trkpt>
      <trkpt lat="49.21406" lon="1.1122">
        <ele>146.5</ele>
        <time>2015-09-20T06:21:31Z</time>
      </trkpt>
      <trkpt lat="49.21404" lon="1.11201">
        <ele>146.7</ele>
        <time>2015-09-20T06:21:34Z</time>
      </trkpt>
      <trkpt lat="49.21402" lon="1.11186">
        <ele>146.8</ele>
        <time>2015-09-20T06:21:36Z</time>
      </trkpt>
      <trkpt lat="49.214" lon="1.11171">
        <ele>146.9</ele>
        <time>2015-09-20T06:21:38Z</time>
      </trkpt>
      <trkpt lat="49.21398" lon="1.11157">
        <ele>147</ele>
        <time>2015-09-20T06:21:40Z</time>
      </trkpt>
      <trkpt lat="49.21395" lon="1.11139">
        <ele>147.2</ele>
        <time>2015-09-20T06:21:43Z</time>
      </trkpt>
      <trkpt lat="49.21391" lon="1.1112">
        <ele>147.5</ele>
        <time>2015-09-20T06:21:46Z</time>
      </trkpt>
      <trkpt lat="49.21387" lon="1.11102">
        <ele>147.7</ele>
        <time>2015-09-20T06:21:49Z</time>
      </trkpt>
      <trkpt lat="49.21382" lon="1.11084">
        <ele>148</ele>
        <time>2015-09-20T06:21:52Z</time>
      </trkpt>
      <trkpt lat="49.21375" lon="1.11067">
        <ele>148.2</ele>
        <time>2015-09-20T06:21:55Z</time>
      </trkpt>
      <trkpt lat="49.21368" lon="1.11051">
        <ele>148.4</ele>
        <time>2015-09-20T06:21:58Z</time>
      </trkpt>
      <trkpt lat="49.21368" lon="1.11037">
        <ele>148.5</ele>
        <time>2015-09-20T06:22:01Z</time>
      </trkpt>
      <trkpt lat="49.21371" lon="1.11024">
        <ele>148.6</ele>
        <time>2015-09-20T06:22:03Z</time>
      </trkpt>
      <trkpt lat="49.21374" lon="1.11007">
        <ele>148.8</ele>
        <time>2015-09-20T06:22:05Z</time>
      </trkpt>
      <trkpt lat="49.21375" lon="1.10994">
        <ele>148.9</ele>
        <time>2015-09-20T06:22:07Z</time>
      </trkpt>
      <trkpt lat="49.2138" lon="1.10976">
        <ele>149.3</ele>
        <time>2015-09-20T06:22:10Z</time>
      </trkpt>
      <trkpt lat="49.21388" lon="1.10967">
        <ele>149.6</ele>
        <time>2015-09-20T06:22:13Z</time>
      </trkpt>
      <trkpt lat="49.21399" lon="1.10966">
        <ele>150</ele>
        <time>2015-09-20T06:22:16Z</time>
      </trkpt>
      <trkpt lat="49.2141" lon="1.10959">
        <ele>150.3</ele>
        <time>2015-09-20T06:22:19Z</time>
      </trkpt>
      <trkpt lat="49.21422" lon="1.10949">
        <ele>150.7</ele>
        <time>2015-09-20T06:22:22Z</time>
      </trkpt>
      <trkpt lat="49.21434" lon="1.10948">
        <ele>151.1</ele>
        <time>2015-09-20T06:22:25Z</time>
      </trkpt>
      <trkpt lat="49.21444" lon="1.10951">
        <ele>151.4</ele>
        <time>2015-09-20T06:22:28Z</time>
      </trkpt>
      <trkpt lat="49.21455" lon="1.10952">
        <ele>151.7</ele>
        <time>2015-09-20T06:22:31Z</time>
      </trkpt>
      <trkpt lat="49.21465" lon="1.10943">
        <ele>152.1</ele>
        <time>2015-09-20T06:22:34Z</time>
      </trkpt>
      <trkpt lat="49.21473" lon="1.1093">
        <ele>152.5</ele>
        <time>2015-09-20T06:22:37Z</time>
      </trkpt>
      <trkpt lat="49.21483" lon="1.10924">
        <ele>152.8</ele>
        <time>2015-09-20T06:22:40Z</time>
      </trkpt>
      <trkpt lat="49.21495" lon="1.10919">
        <ele>153.1</ele>
        <time>2015-09-20T06:22:43Z</time>
      </trkpt>
      <trkpt lat="49.21504" lon="1.10909">
        <ele>153.5</ele>
        <time>2015-09-20T06:22:46Z</time>
      </trkpt>
      <trkpt lat="49.21513" lon="1.10903">
        <ele>153.8</ele>
        <time>2015-09-20T06:22:48Z</time>
      </trkpt>
      <trkpt lat="49.21525" lon="1.10895">
        <ele>154.2</ele>
        <time>2015-09-20T06:22:51Z</time>
      </trkpt>
      <trkpt lat="49.21534" lon="1.10889">
        <ele>154.6</ele>
        <time>2015-09-20T06:22:53Z</time>
      </trkpt>
      <trkpt lat="49.21546" lon="1.10884">
        <ele>155</ele>
        <time>2015-09-20T06:22:56Z</time>
      </trkpt>
      <trkpt lat="49.21559" lon="1.10886">
        <ele>155.4</ele>
        <time>2015-09-20T06:22:59Z</time>
      </trkpt>
      <trkpt lat="49.21569" lon="1.10886">
        <ele>155.7</ele>
        <time>2015-09-20T06:23:01Z</time>
      </trkpt>
      <trkpt lat="49.21582" lon="1.1089">
        <ele>156.1</ele>
        <time>2015-09-20T06:23:04Z</time>
      </trkpt>
      <trkpt lat="49.21595" lon="1.10892">
        <ele>156.4</ele>
        <time>2015-09-20T06:23:07Z</time>
      </trkpt>
      <trkpt lat="49.21605" lon="1.10895">
        <ele>156.7</ele>
        <time>2015-09-20T06:23:10Z</time>
      </trkpt>
      <trkpt lat="49.21616" lon="1.10898">
        <ele>156.9</ele>
        <time>2015-09-20T06:23:12Z</time>
      </trkpt>
      <trkpt lat="49.21626" lon="1.109">
        <ele>157</ele>
        <time>2015-09-20T06:23:14Z</time>
      </trkpt>
      <trkpt lat="49.21636" lon="1.10901">
        <ele>157.1</ele>
        <time>2015-09-20T06:23:16Z</time>
      </trkpt>
      <trkpt lat="49.21646" lon="1.10904">
        <ele>157.2</ele>
        <time>2015-09-20T06:23:18Z</time>
      </trkpt>
      <trkpt lat="49.21659" lon="1.10908">
        <ele>157.4</ele>
        <time>2015-09-20T06:23:21Z</time>
      </trkpt>
      <trkpt lat="49.21669" lon="1.1091">
        <ele>157.5</ele>
        <time>2015-09-20T06:23:23Z</time>
      </trkpt>
      <trkpt lat="49.2168" lon="1.10913">
        <ele>157.5</ele>
        <time>2015-09-20T06:23:25Z</time>
      </trkpt>
      <trkpt lat="49.21693" lon="1.1092">
        <ele>157.6</ele>
        <time>2015-09-20T06:23:27Z</time>
      </trkpt>
      <trkpt lat="49.21705" lon="1.10923">
        <ele>157.7</ele>
        <time>2015-09-20T06:23:29Z</time>
      </trkpt>
      <trkpt lat="49.21714" lon="1.10923">
        <ele>157.7</ele>
        <time>2015-09-20T06:23:31Z</time>
      </trkpt>
      <trkpt lat="49.21725" lon="1.10926">
        <ele>157.7</ele>
        <time>2015-09-20T06:23:33Z</time>
      </trkpt>
      <trkpt lat="49.21735" lon="1.10929">
        <ele>157.7</ele>
        <time>2015-09-20T06:23:35Z</time>
      </trkpt>
      <trkpt lat="49.21745" lon="1.10928">
        <ele>157.7</ele>
        <time>2015-09-20T06:23:38Z</time>
      </trkpt>
      <trkpt lat="49.21756" lon="1.10929">
        <ele>157.5</ele>
        <time>2015-09-20T06:23:42Z</time>
      </trkpt>
      <trkpt lat="49.21765" lon="1.1092">
        <ele>157.2</ele>
        <time>2015-09-20T06:23:46Z</time>
      </trkpt>
      <trkpt lat="49.21775" lon="1.1092">
        <ele>157</ele>
        <time>2015-09-20T06:23:50Z</time>
      </trkpt>
      <trkpt lat="49.21781" lon="1.10935">
        <ele>156.9</ele>
        <time>2015-09-20T06:23:53Z</time>
      </trkpt>
      <trkpt lat="49.2179" lon="1.10948">
        <ele>156.6</ele>
        <time>2015-09-20T06:23:57Z</time>
      </trkpt>
      <trkpt lat="49.21798" lon="1.10961">
        <ele>156.4</ele>
        <time>2015-09-20T06:24:00Z</time>
      </trkpt>
      <trkpt lat="49.21808" lon="1.10972">
        <ele>156.3</ele>
        <time>2015-09-20T06:24:02Z</time>
      </trkpt>
      <trkpt lat="49.21815" lon="1.10983">
        <ele>156.2</ele>
        <time>2015-09-20T06:24:04Z</time>
      </trkpt>
      <trkpt lat="49.21821" lon="1.10995">
        <ele>156.1</ele>
        <time>2015-09-20T06:24:06Z</time>
      </trkpt>
      <trkpt lat="49.21827" lon="1.1101">
        <ele>156</ele>
        <time>2015-09-20T06:24:08Z</time>
      </trkpt>
      <trkpt lat="49.21836" lon="1.11026">
        <ele>155.8</ele>
        <time>2015-09-20T06:24:10Z</time>
      </trkpt>
      <trkpt lat="49.21845" lon="1.11043">
        <ele>155.7</ele>
        <time>2015-09-20T06:24:12Z</time>
      </trkpt>
      <trkpt lat="49.21856" lon="1.11058">
        <ele>155.5</ele>
        <time>2015-09-20T06:24:14Z</time>
      </trkpt>
      <trkpt lat="49.21864" lon="1.11078">
        <ele>155.3</ele>
        <time>2015-09-20T06:24:16Z</time>
      </trkpt>
      <trkpt lat="49.2187" lon="1.11097">
        <ele>154.9</ele>
        <time>2015-09-20T06:24:18Z</time>
      </trkpt>
      <trkpt lat="49.21879" lon="1.11115">
        <ele>154.6</ele>
        <time>2015-09-20T06:24:20Z</time>
      </trkpt>
      <trkpt lat="49.21886" lon="1.11135">
        <ele>154.3</ele>
        <time>2015-09-20T06:24:22Z</time>
      </trkpt>
      <trkpt lat="49.21893" lon="1.11155">
        <ele>154</ele>
        <time>2015-09-20T06:24:24Z</time>
      </trkpt>
      <trkpt lat="49.21899" lon="1.11176">
        <ele>153.7</ele>
        <time>2015-09-20T06:24:26Z</time>
      </trkpt>
      <trkpt lat="49.21905" lon="1.11195">
        <ele>153.4</ele>
        <time>2015-09-20T06:24:28Z</time>
      </trkpt>
      <trkpt lat="49.21911" lon="1.11214">
        <ele>153.1</ele>
        <time>2015-09-20T06:24:30Z</time>
      </trkpt>
      <trkpt lat="49.21919" lon="1.11234">
        <ele>152.9</ele>
        <time>2015-09-20T06:24:32Z</time>
      </trkpt>
      <trkpt lat="49.21926" lon="1.11252">
        <ele>152.7</ele>
        <time>2015-09-20T06:24:34Z</time>
      </trkpt>
      <trkpt lat="49.21934" lon="1.11269">
        <ele>152.3</ele>
        <time>2015-09-20T06:24:36Z</time>
      </trkpt>
      <trkpt lat="49.21942" lon="1.11288">
        <ele>151.9</ele>
        <time>2015-09-20T06:24:38Z</time>
      </trkpt>
      <trkpt lat="49.21951" lon="1.11308">
        <ele>151.5</ele>
        <time>2015-09-20T06:24:40Z</time>
      </trkpt>
      <trkpt lat="49.21961" lon="1.11329">
        <ele>151.2</ele>
        <time>2015-09-20T06:24:42Z</time>
      </trkpt>
      <trkpt lat="49.2197" lon="1.11349">
        <ele>150.9</ele>
        <time>2015-09-20T06:24:44Z</time>
      </trkpt>
      <trkpt lat="49.21979" lon="1.11366">
        <ele>150.6</ele>
        <time>2015-09-20T06:24:46Z</time>
      </trkpt>
      <trkpt lat="49.21985" lon="1.11386">
        <ele>150.2</ele>
        <time>2015-09-20T06:24:48Z</time>
      </trkpt>
      <trkpt lat="49.21987" lon="1.11402">
        <ele>149.9</ele>
        <time>2015-09-20T06:24:50Z</time>
      </trkpt>
      <trkpt lat="49.21984" lon="1.1142">
        <ele>149.3</ele>
        <time>2015-09-20T06:24:53Z</time>
      </trkpt>
      <trkpt lat="49.21984" lon="1.11437">
        <ele>148.9</ele>
        <time>2015-09-20T06:24:56Z</time>
      </trkpt>
      <trkpt lat="49.21982" lon="1.11457">
        <ele>148.4</ele>
        <time>2015-09-20T06:24:59Z</time>
      </trkpt>
      <trkpt lat="49.2198" lon="1.11471">
        <ele>148.2</ele>
        <time>2015-09-20T06:25:01Z</time>
      </trkpt>
      <trkpt lat="49.21977" lon="1.1149">
        <ele>147.8</ele>
        <time>2015-09-20T06:25:04Z</time>
      </trkpt>
      <trkpt lat="49.21975" lon="1.11504">
        <ele>147.5</ele>
        <time>2015-09-20T06:25:07Z</time>
      </trkpt>
      <trkpt lat="49.21973" lon="1.11519">
        <ele>147.1</ele>
        <time>2015-09-20T06:25:11Z</time>
      </trkpt>
      <trkpt lat="49.21974" lon="1.11534">
        <ele>146.9</ele>
        <time>2015-09-20T06:25:15Z</time>
      </trkpt>
      <trkpt lat="49.21971" lon="1.11548">
        <ele>146.7</ele>
        <time>2015-09-20T06:25:19Z</time>
      </trkpt>
      <trkpt lat="49.21969" lon="1.11563">
        <ele>146.6</ele>
        <time>2015-09-20T06:25:22Z</time>
      </trkpt>
      <trkpt lat="49.21966" lon="1.1158">
        <ele>146.5</ele>
        <time>2015-09-20T06:25:25Z</time>
      </trkpt>
      <trkpt lat="49.21964" lon="1.11595">
        <ele>146.4</ele>
        <time>2015-09-20T06:25:28Z</time>
      </trkpt>
      <trkpt lat="49.21961" lon="1.11613">
        <ele>146.3</ele>
        <time>2015-09-20T06:25:31Z</time>
      </trkpt>
      <trkpt lat="49.21957" lon="1.11629">
        <ele>146.3</ele>
        <time>2015-09-20T06:25:34Z</time>
      </trkpt>
      <trkpt lat="49.21955" lon="1.11645">
        <ele>146.2</ele>
        <time>2015-09-20T06:25:37Z</time>
      </trkpt>
      <trkpt lat="49.21952" lon="1.11663">
        <ele>146.2</ele>
        <time>2015-09-20T06:25:40Z</time>
      </trkpt>
      <trkpt lat="49.2195" lon="1.11681">
        <ele>146.2</ele>
        <time>2015-09-20T06:25:43Z</time>
      </trkpt>
      <trkpt lat="49.21948" lon="1.11699">
        <ele>146.2</ele>
        <time>2015-09-20T06:25:46Z</time>
      </trkpt>
      <trkpt lat="49.21945" lon="1.11718">
        <ele>146.3</ele>
        <time>2015-09-20T06:25:49Z</time>
      </trkpt>
      <trkpt lat="49.21941" lon="1.11736">
        <ele>146.3</ele>
        <time>2015-09-20T06:25:52Z</time>
      </trkpt>
      <trkpt lat="49.21938" lon="1.11755">
        <ele>146.4</ele>
        <time>2015-09-20T06:25:55Z</time>
      </trkpt>
      <trkpt lat="49.21935" lon="1.11774">
        <ele>146.5</ele>
        <time>2015-09-20T06:25:58Z</time>
      </trkpt>
      <trkpt lat="49.21932" lon="1.11792">
        <ele>146.6</ele>
        <time>2015-09-20T06:26:01Z</time>
      </trkpt>
      <trkpt lat="49.2193" lon="1.11811">
        <ele>146.7</ele>
        <time>2015-09-20T06:26:04Z</time>
      </trkpt>
      <trkpt lat="49.21928" lon="1.1183">
        <ele>146.8</ele>
        <time>2015-09-20T06:26:07Z</time>
      </trkpt>
      <trkpt lat="49.21924" lon="1.11848">
        <ele>147</ele>
        <time>2015-09-20T06:26:10Z</time>
      </trkpt>
      <trkpt lat="49.21921" lon="1.11863">
        <ele>147.1</ele>
        <time>2015-09-20T06:26:13Z</time>
      </trkpt>
      <trkpt lat="49.21928" lon="1.11876">
        <ele>147.2</ele>
        <time>2015-09-20T06:26:17Z</time>
      </trkpt>
      <trkpt lat="49.21941" lon="1.11883">
        <ele>147.3</ele>
        <time>2015-09-20T06:26:20Z</time>
      </trkpt>
      <trkpt lat="49.21949" lon="1.11889">
        <ele>147.3</ele>
        <time>2015-09-20T06:26:22Z</time>
      </trkpt>
      <trkpt lat="49.2196" lon="1.11898">
        <ele>147.3</ele>
        <time>2015-09-20T06:26:25Z</time>
      </trkpt>
      <trkpt lat="49.21969" lon="1.11904">
        <ele>147.2</ele>
        <time>2015-09-20T06:26:27Z</time>
      </trkpt>
      <trkpt lat="49.21979" lon="1.1191">
        <ele>147.1</ele>
        <time>2015-09-20T06:26:29Z</time>
      </trkpt>
      <trkpt lat="49.21987" lon="1.11917">
        <ele>147</ele>
        <time>2015-09-20T06:26:31Z</time>
      </trkpt>
      <trkpt lat="49.22" lon="1.11924">
        <ele>146.7</ele>
        <time>2015-09-20T06:26:34Z</time>
      </trkpt>
      <trkpt lat="49.22008" lon="1.1193">
        <ele>146.5</ele>
        <time>2015-09-20T06:26:36Z</time>
      </trkpt>
      <trkpt lat="49.22018" lon="1.11936">
        <ele>146.3</ele>
        <time>2015-09-20T06:26:38Z</time>
      </trkpt>
      <trkpt lat="49.22027" lon="1.11943">
        <ele>145.8</ele>
        <time>2015-09-20T06:26:40Z</time>
      </trkpt>
      <trkpt lat="49.22036" lon="1.11949">
        <ele>145.4</ele>
        <time>2015-09-20T06:26:42Z</time>
      </trkpt>
      <trkpt lat="49.22045" lon="1.11955">
        <ele>145</ele>
        <time>2015-09-20T06:26:44Z</time>
      </trkpt>
      <trkpt lat="49.22053" lon="1.1196">
        <ele>144.7</ele>
        <time>2015-09-20T06:26:46Z</time>
      </trkpt>
      <trkpt lat="49.22064" lon="1.11967">
        <ele>144.4</ele>
        <time>2015-09-20T06:26:48Z</time>
      </trkpt>
      <trkpt lat="49.22073" lon="1.11975">
        <ele>144</ele>
        <time>2015-09-20T06:26:50Z</time>
      </trkpt>
      <trkpt lat="49.22085" lon="1.11982">
        <ele>143.7</ele>
        <time>2015-09-20T06:26:52Z</time>
      </trkpt>
      <trkpt lat="49.22094" lon="1.1199">
        <ele>143.4</ele>
        <time>2015-09-20T06:26:54Z</time>
      </trkpt>
      <trkpt lat="49.22103" lon="1.11995">
        <ele>143</ele>
        <time>2015-09-20T06:26:56Z</time>
      </trkpt>
      <trkpt lat="49.22115" lon="1.12004">
        <ele>142.4</ele>
        <time>2015-09-20T06:26:59Z</time>
      </trkpt>
      <trkpt lat="49.22125" lon="1.1201">
        <ele>142</ele>
        <time>2015-09-20T06:27:01Z</time>
      </trkpt>
      <trkpt lat="49.22134" lon="1.12015">
        <ele>141.8</ele>
        <time>2015-09-20T06:27:02Z</time>
      </trkpt>
      <trkpt lat="49.22145" lon="1.12022">
        <ele>141.4</ele>
        <time>2015-09-20T06:27:04Z</time>
      </trkpt>
      <trkpt lat="49.2216" lon="1.12031">
        <ele>141</ele>
        <time>2015-09-20T06:27:06Z</time>
      </trkpt>
      <trkpt lat="49.22172" lon="1.12039">
        <ele>140.4</ele>
        <time>2015-09-20T06:27:08Z</time>
      </trkpt>
      <trkpt lat="49.22184" lon="1.12047">
        <ele>139.8</ele>
        <time>2015-09-20T06:27:10Z</time>
      </trkpt>
      <trkpt lat="49.22194" lon="1.12053">
        <ele>139.4</ele>
        <time>2015-09-20T06:27:12Z</time>
      </trkpt>
      <trkpt lat="49.22204" lon="1.1206">
        <ele>139</ele>
        <time>2015-09-20T06:27:14Z</time>
      </trkpt>
      <trkpt lat="49.22212" lon="1.12065">
        <ele>138.6</ele>
        <time>2015-09-20T06:27:16Z</time>
      </trkpt>
      <trkpt lat="49.22224" lon="1.12072">
        <ele>138.2</ele>
        <time>2015-09-20T06:27:19Z</time>
      </trkpt>
      <trkpt lat="49.22232" lon="1.12078">
        <ele>137.9</ele>
        <time>2015-09-20T06:27:21Z</time>
      </trkpt>
      <trkpt lat="49.22241" lon="1.12081">
        <ele>137.7</ele>
        <time>2015-09-20T06:27:23Z</time>
      </trkpt>
      <trkpt lat="49.22253" lon="1.12087">
        <ele>137.5</ele>
        <time>2015-09-20T06:27:25Z</time>
      </trkpt>
      <trkpt lat="49.22264" lon="1.1209">
        <ele>137.3</ele>
        <time>2015-09-20T06:27:27Z</time>
      </trkpt>
      <trkpt lat="49.22273" lon="1.12094">
        <ele>137.2</ele>
        <time>2015-09-20T06:27:29Z</time>
      </trkpt>
      <trkpt lat="49.22284" lon="1.12101">
        <ele>137</ele>
        <time>2015-09-20T06:27:31Z</time>
      </trkpt>
      <trkpt lat="49.22292" lon="1.12105">
        <ele>136.9</ele>
        <time>2015-09-20T06:27:33Z</time>
      </trkpt>
      <trkpt lat="49.22302" lon="1.12106">
        <ele>136.8</ele>
        <time>2015-09-20T06:27:35Z</time>
      </trkpt>
      <trkpt lat="49.22312" lon="1.12109">
        <ele>136.7</ele>
        <time>2015-09-20T06:27:37Z</time>
      </trkpt>
      <trkpt lat="49.22322" lon="1.12113">
        <ele>136.5</ele>
        <time>2015-09-20T06:27:40Z</time>
      </trkpt>
      <trkpt lat="49.22333" lon="1.12118">
        <ele>136.3</ele>
        <time>2015-09-20T06:27:43Z</time>
      </trkpt>
      <trkpt lat="49.22343" lon="1.12127">
        <ele>136.2</ele>
        <time>2015-09-20T06:27:46Z</time>
      </trkpt>
      <trkpt lat="49.22355" lon="1.12131">
        <ele>136.1</ele>
        <time>2015-09-20T06:27:49Z</time>
      </trkpt>
      <trkpt lat="49.22366" lon="1.12136">
        <ele>136</ele>
        <time>2015-09-20T06:27:52Z</time>
      </trkpt>
      <trkpt lat="49.22376" lon="1.12136">
        <ele>136</ele>
        <time>2015-09-20T06:27:54Z</time>
      </trkpt>
      <trkpt lat="49.22385" lon="1.12139">
        <ele>135.9</ele>
        <time>2015-09-20T06:27:56Z</time>
      </trkpt>
      <trkpt lat="49.22396" lon="1.12142">
        <ele>135.9</ele>
        <time>2015-09-20T06:27:58Z</time>
      </trkpt>
      <trkpt lat="49.22405" lon="1.12146">
        <ele>135.9</ele>
        <time>2015-09-20T06:28:00Z</time>
      </trkpt>
      <trkpt lat="49.22416" lon="1.12152">
        <ele>136</ele>
        <time>2015-09-20T06:28:03Z</time>
      </trkpt>
      <trkpt lat="49.22426" lon="1.12156">
        <ele>136</ele>
        <time>2015-09-20T06:28:05Z</time>
      </trkpt>
      <trkpt lat="49.22438" lon="1.12159">
        <ele>136</ele>
        <time>2015-09-20T06:28:07Z</time>
      </trkpt>
      <trkpt lat="49.22449" lon="1.12165">
        <ele>135.8</ele>
        <time>2015-09-20T06:28:09Z</time>
      </trkpt>
      <trkpt lat="49.22459" lon="1.12169">
        <ele>135.6</ele>
        <time>2015-09-20T06:28:11Z</time>
      </trkpt>
      <trkpt lat="49.22473" lon="1.12175">
        <ele>135</ele>
        <time>2015-09-20T06:28:13Z</time>
      </trkpt>
      <trkpt lat="49.22487" lon="1.12181">
        <ele>134.5</ele>
        <time>2015-09-20T06:28:15Z</time>
      </trkpt>
      <trkpt lat="49.225" lon="1.12187">
        <ele>133.8</ele>
        <time>2015-09-20T06:28:17Z</time>
      </trkpt>
      <trkpt lat="49.22512" lon="1.12194">
        <ele>133</ele>
        <time>2015-09-20T06:28:19Z</time>
      </trkpt>
      <trkpt lat="49.22526" lon="1.12198">
        <ele>132</ele>
        <time>2015-09-20T06:28:21Z</time>
      </trkpt>
      <trkpt lat="49.22539" lon="1.12204">
        <ele>130.8</ele>
        <time>2015-09-20T06:28:23Z</time>
      </trkpt>
      <trkpt lat="49.22553" lon="1.1221">
        <ele>129.5</ele>
        <time>2015-09-20T06:28:25Z</time>
      </trkpt>
      <trkpt lat="49.22562" lon="1.12211">
        <ele>128</ele>
        <time>2015-09-20T06:28:27Z</time>
      </trkpt>
      <trkpt lat="49.22573" lon="1.12213">
        <ele>126.3</ele>
        <time>2015-09-20T06:28:29Z</time>
      </trkpt>
      <trkpt lat="49.22583" lon="1.12214">
        <ele>123.8</ele>
        <time>2015-09-20T06:28:32Z</time>
      </trkpt>
      <trkpt lat="49.22593" lon="1.12219">
        <ele>121.4</ele>
        <time>2015-09-20T06:28:35Z</time>
      </trkpt>
      <trkpt lat="49.22603" lon="1.12226">
        <ele>119.1</ele>
        <time>2015-09-20T06:28:38Z</time>
      </trkpt>
      <trkpt lat="49.22613" lon="1.12232">
        <ele>115.8</ele>
        <time>2015-09-20T06:28:42Z</time>
      </trkpt>
      <trkpt lat="49.22623" lon="1.12233">
        <ele>113.3</ele>
        <time>2015-09-20T06:28:45Z</time>
      </trkpt>
      <trkpt lat="49.22632" lon="1.12239">
        <ele>110.3</ele>
        <time>2015-09-20T06:28:49Z</time>
      </trkpt>
      <trkpt lat="49.22642" lon="1.12244">
        <ele>108.2</ele>
        <time>2015-09-20T06:28:52Z</time>
      </trkpt>
      <trkpt lat="49.22652" lon="1.12248">
        <ele>106.8</ele>
        <time>2015-09-20T06:28:54Z</time>
      </trkpt>
      <trkpt lat="49.22661" lon="1.12252">
        <ele>105.3</ele>
        <time>2015-09-20T06:28:56Z</time>
      </trkpt>
      <trkpt lat="49.2267" lon="1.12256">
        <ele>103.8</ele>
        <time>2015-09-20T06:28:58Z</time>
      </trkpt>
      <trkpt lat="49.22679" lon="1.12261">
        <ele>102.2</ele>
        <time>2015-09-20T06:29:00Z</time>
      </trkpt>
      <trkpt lat="49.22692" lon="1.12266">
        <ele>100.7</ele>
        <time>2015-09-20T06:29:02Z</time>
      </trkpt>
      <trkpt lat="49.22704" lon="1.12271">
        <ele>99.1</ele>
        <time>2015-09-20T06:29:04Z</time>
      </trkpt>
      <trkpt lat="49.22713" lon="1.12275">
        <ele>97.4</ele>
        <time>2015-09-20T06:29:06Z</time>
      </trkpt>
      <trkpt lat="49.22723" lon="1.12279">
        <ele>95.1</ele>
        <time>2015-09-20T06:29:09Z</time>
      </trkpt>
      <trkpt lat="49.22732" lon="1.12283">
        <ele>93.5</ele>
        <time>2015-09-20T06:29:11Z</time>
      </trkpt>
      <trkpt lat="49.22744" lon="1.1229">
        <ele>90.2</ele>
        <time>2015-09-20T06:29:15Z</time>
      </trkpt>
      <trkpt lat="49.22756" lon="1.12293">
        <ele>88.6</ele>
        <time>2015-09-20T06:29:17Z</time>
      </trkpt>
      <trkpt lat="49.22768" lon="1.12294">
        <ele>86.4</ele>
        <time>2015-09-20T06:29:20Z</time>
      </trkpt>
      <trkpt lat="49.22778" lon="1.12294">
        <ele>85</ele>
        <time>2015-09-20T06:29:22Z</time>
      </trkpt>
      <trkpt lat="49.22795" lon="1.12297">
        <ele>83.7</ele>
        <time>2015-09-20T06:29:24Z</time>
      </trkpt>
      <trkpt lat="49.22808" lon="1.12303">
        <ele>82.5</ele>
        <time>2015-09-20T06:29:26Z</time>
      </trkpt>
      <trkpt lat="49.22821" lon="1.12306">
        <ele>81.5</ele>
        <time>2015-09-20T06:29:28Z</time>
      </trkpt>
      <trkpt lat="49.22827" lon="1.12294">
        <ele>79.7</ele>
        <time>2015-09-20T06:29:32Z</time>
      </trkpt>
      <trkpt lat="49.2283" lon="1.12278">
        <ele>78.4</ele>
        <time>2015-09-20T06:29:36Z</time>
      </trkpt>
      <trkpt lat="49.22835" lon="1.12261">
        <ele>77.8</ele>
        <time>2015-09-20T06:29:40Z</time>
      </trkpt>
      <trkpt lat="49.22836" lon="1.12245">
        <ele>77.5</ele>
        <time>2015-09-20T06:29:45Z</time>
      </trkpt>
      <trkpt lat="49.22838" lon="1.12231">
        <ele>77.6</ele>
        <time>2015-09-20T06:29:49Z</time>
      </trkpt>
      <trkpt lat="49.22839" lon="1.12215">
        <ele>78</ele>
        <time>2015-09-20T06:29:53Z</time>
      </trkpt>
      <trkpt lat="49.22838" lon="1.122">
        <ele>78.9</ele>
        <time>2015-09-20T06:29:58Z</time>
      </trkpt>
      <trkpt lat="49.22841" lon="1.12185">
        <ele>79.8</ele>
        <time>2015-09-20T06:30:02Z</time>
      </trkpt>
      <trkpt lat="49.22842" lon="1.12171">
        <ele>81</ele>
        <time>2015-09-20T06:30:07Z</time>
      </trkpt>
      <trkpt lat="49.22844" lon="1.12156">
        <ele>82.3</ele>
        <time>2015-09-20T06:30:12Z</time>
      </trkpt>
      <trkpt lat="49.22842" lon="1.12143">
        <ele>84.3</ele>
        <time>2015-09-20T06:30:20Z</time>
      </trkpt>
      <trkpt lat="49.22843" lon="1.12128">
        <ele>86.5</ele>
        <time>2015-09-20T06:30:30Z</time>
      </trkpt>
      <trkpt lat="49.22844" lon="1.12113">
        <ele>89</ele>
        <time>2015-09-20T06:30:41Z</time>
      </trkpt>
      <trkpt lat="49.22845" lon="1.12099">
        <ele>91.6</ele>
        <time>2015-09-20T06:30:56Z</time>
      </trkpt>
      <trkpt lat="49.22845" lon="1.12084">
        <ele>93.1</ele>
        <time>2015-09-20T06:31:05Z</time>
      </trkpt>
      <trkpt lat="49.22846" lon="1.1207">
        <ele>95</ele>
        <time>2015-09-20T06:31:15Z</time>
      </trkpt>
      <trkpt lat="49.22851" lon="1.12057">
        <ele>97.1</ele>
        <time>2015-09-20T06:31:25Z</time>
      </trkpt>
      <trkpt lat="49.22855" lon="1.12044">
        <ele>99.1</ele>
        <time>2015-09-20T06:31:34Z</time>
      </trkpt>
      <trkpt lat="49.22859" lon="1.1203">
        <ele>101.4</ele>
        <time>2015-09-20T06:31:44Z</time>
      </trkpt>
      <trkpt lat="49.22862" lon="1.12016">
        <ele>102.9</ele>
        <time>2015-09-20T06:31:51Z</time>
      </trkpt>
      <trkpt lat="49.22869" lon="1.12004">
        <ele>105</ele>
        <time>2015-09-20T06:32:04Z</time>
      </trkpt>
      <trkpt lat="49.22876" lon="1.1199">
        <ele>105.5</ele>
        <time>2015-09-20T06:32:08Z</time>
      </trkpt>
      <trkpt lat="49.22882" lon="1.11981">
        <ele>105.9</ele>
        <time>2015-09-20T06:32:11Z</time>
      </trkpt>
      <trkpt lat="49.22892" lon="1.11974">
        <ele>106.3</ele>
        <time>2015-09-20T06:32:15Z</time>
      </trkpt>
      <trkpt lat="49.22903" lon="1.11965">
        <ele>107.4</ele>
        <time>2015-09-20T06:32:20Z</time>
      </trkpt>
      <trkpt lat="49.22912" lon="1.11958">
        <ele>108.1</ele>
        <time>2015-09-20T06:32:23Z</time>
      </trkpt>
      <trkpt lat="49.2292" lon="1.11951">
        <ele>109.5</ele>
        <time>2015-09-20T06:32:28Z</time>
      </trkpt>
      <trkpt lat="49.2293" lon="1.11945">
        <ele>111</ele>
        <time>2015-09-20T06:32:33Z</time>
      </trkpt>
      <trkpt lat="49.22939" lon="1.11939">
        <ele>112</ele>
        <time>2015-09-20T06:32:37Z</time>
      </trkpt>
      <trkpt lat="49.22949" lon="1.11937">
        <ele>113.2</ele>
        <time>2015-09-20T06:32:41Z</time>
      </trkpt>
      <trkpt lat="49.22958" lon="1.11934">
        <ele>114.3</ele>
        <time>2015-09-20T06:32:45Z</time>
      </trkpt>
      <trkpt lat="49.22968" lon="1.11935">
        <ele>115.3</ele>
        <time>2015-09-20T06:32:49Z</time>
      </trkpt>
      <trkpt lat="49.22978" lon="1.11935">
        <ele>116</ele>
        <time>2015-09-20T06:32:52Z</time>
      </trkpt>
      <trkpt lat="49.22987" lon="1.11934">
        <ele>116.7</ele>
        <time>2015-09-20T06:32:55Z</time>
      </trkpt>
      <trkpt lat="49.22999" lon="1.11927">
        <ele>117.5</ele>
        <time>2015-09-20T06:32:59Z</time>
      </trkpt>
      <trkpt lat="49.23011" lon="1.11923">
        <ele>118.1</ele>
        <time>2015-09-20T06:33:02Z</time>
      </trkpt>
      <trkpt lat="49.23021" lon="1.11918">
        <ele>118.7</ele>
        <time>2015-09-20T06:33:05Z</time>
      </trkpt>
      <trkpt lat="49.23031" lon="1.11913">
        <ele>119.2</ele>
        <time>2015-09-20T06:33:08Z</time>
      </trkpt>
      <trkpt lat="49.2304" lon="1.11904">
        <ele>119.6</ele>
        <time>2015-09-20T06:33:11Z</time>
      </trkpt>
      <trkpt lat="49.2305" lon="1.11897">
        <ele>120</ele>
        <time>2015-09-20T06:33:14Z</time>
      </trkpt>
      <trkpt lat="49.23059" lon="1.11888">
        <ele>120.4</ele>
        <time>2015-09-20T06:33:17Z</time>
      </trkpt>
      <trkpt lat="49.23068" lon="1.1188">
        <ele>120.8</ele>
        <time>2015-09-20T06:33:20Z</time>
      </trkpt>
      <trkpt lat="49.23077" lon="1.11876">
        <ele>121.2</ele>
        <time>2015-09-20T06:33:24Z</time>
      </trkpt>
      <trkpt lat="49.23077" lon="1.1189">
        <ele>121.6</ele>
        <time>2015-09-20T06:33:28Z</time>
      </trkpt>
      <trkpt lat="49.23076" lon="1.11904">
        <ele>121.8</ele>
        <time>2015-09-20T06:33:31Z</time>
      </trkpt>
      <trkpt lat="49.23072" lon="1.11922">
        <ele>121.9</ele>
        <time>2015-09-20T06:33:34Z</time>
      </trkpt>
      <trkpt lat="49.23069" lon="1.11942">
        <ele>122</ele>
        <time>2015-09-20T06:33:37Z</time>
      </trkpt>
      <trkpt lat="49.23069" lon="1.11957">
        <ele>122</ele>
        <time>2015-09-20T06:33:39Z</time>
      </trkpt>
      <trkpt lat="49.23067" lon="1.11971">
        <ele>122.1</ele>
        <time>2015-09-20T06:33:41Z</time>
      </trkpt>
      <trkpt lat="49.23064" lon="1.11987">
        <ele>122.1</ele>
        <time>2015-09-20T06:33:43Z</time>
      </trkpt>
      <trkpt lat="49.23063" lon="1.12002">
        <ele>122.1</ele>
        <time>2015-09-20T06:33:45Z</time>
      </trkpt>
      <trkpt lat="49.23062" lon="1.12016">
        <ele>122.1</ele>
        <time>2015-09-20T06:33:47Z</time>
      </trkpt>
      <trkpt lat="49.23061" lon="1.12031">
        <ele>122</ele>
        <time>2015-09-20T06:33:49Z</time>
      </trkpt>
      <trkpt lat="49.23061" lon="1.12049">
        <ele>121.8</ele>
        <time>2015-09-20T06:33:52Z</time>
      </trkpt>
      <trkpt lat="49.23058" lon="1.12068">
        <ele>121.5</ele>
        <time>2015-09-20T06:33:54Z</time>
      </trkpt>
      <trkpt lat="49.23057" lon="1.12083">
        <ele>121.2</ele>
        <time>2015-09-20T06:33:56Z</time>
      </trkpt>
      <trkpt lat="49.23054" lon="1.121">
        <ele>120.9</ele>
        <time>2015-09-20T06:33:58Z</time>
      </trkpt>
      <trkpt lat="49.23052" lon="1.12115">
        <ele>120.5</ele>
        <time>2015-09-20T06:34:00Z</time>
      </trkpt>
      <trkpt lat="49.2305" lon="1.12136">
        <ele>119.9</ele>
        <time>2015-09-20T06:34:02Z</time>
      </trkpt>
      <trkpt lat="49.23046" lon="1.12163">
        <ele>119.4</ele>
        <time>2015-09-20T06:34:04Z</time>
      </trkpt>
      <trkpt lat="49.23044" lon="1.12177">
        <ele>119.1</ele>
        <time>2015-09-20T06:34:05Z</time>
      </trkpt>
      <trkpt lat="49.23041" lon="1.12199">
        <ele>118.3</ele>
        <time>2015-09-20T06:34:07Z</time>
      </trkpt>
      <trkpt lat="49.23039" lon="1.12216">
        <ele>117.4</ele>
        <time>2015-09-20T06:34:09Z</time>
      </trkpt>
      <trkpt lat="49.23043" lon="1.12232">
        <ele>116</ele>
        <time>2015-09-20T06:34:12Z</time>
      </trkpt>
      <trkpt lat="49.23044" lon="1.12251">
        <ele>115.1</ele>
        <time>2015-09-20T06:34:14Z</time>
      </trkpt>
      <trkpt lat="49.23042" lon="1.12265">
        <ele>114.7</ele>
        <time>2015-09-20T06:34:15Z</time>
      </trkpt>
      <trkpt lat="49.2305" lon="1.12278">
        <ele>113.7</ele>
        <time>2015-09-20T06:34:18Z</time>
      </trkpt>
      <trkpt lat="49.2306" lon="1.12278">
        <ele>112.7</ele>
        <time>2015-09-20T06:34:22Z</time>
      </trkpt>
      <trkpt lat="49.2307" lon="1.12281">
        <ele>112.2</ele>
        <time>2015-09-20T06:34:26Z</time>
      </trkpt>
      <trkpt lat="49.23077" lon="1.1229">
        <ele>112.1</ele>
        <time>2015-09-20T06:34:30Z</time>
      </trkpt>
      <trkpt lat="49.23085" lon="1.12303">
        <ele>112.2</ele>
        <time>2015-09-20T06:34:33Z</time>
      </trkpt>
      <trkpt lat="49.23091" lon="1.12316">
        <ele>112.3</ele>
        <time>2015-09-20T06:34:36Z</time>
      </trkpt>
      <trkpt lat="49.23097" lon="1.12329">
        <ele>112.3</ele>
        <time>2015-09-20T06:34:39Z</time>
      </trkpt>
      <trkpt lat="49.23102" lon="1.12343">
        <ele>112.3</ele>
        <time>2015-09-20T06:34:42Z</time>
      </trkpt>
      <trkpt lat="49.23108" lon="1.1236">
        <ele>112.4</ele>
        <time>2015-09-20T06:34:45Z</time>
      </trkpt>
      <trkpt lat="49.2311" lon="1.12375">
        <ele>112.5</ele>
        <time>2015-09-20T06:34:48Z</time>
      </trkpt>
      <trkpt lat="49.23113" lon="1.12396">
        <ele>112.5</ele>
        <time>2015-09-20T06:34:51Z</time>
      </trkpt>
      <trkpt lat="49.23122" lon="1.12406">
        <ele>112.5</ele>
        <time>2015-09-20T06:34:54Z</time>
      </trkpt>
      <trkpt lat="49.23131" lon="1.12413">
        <ele>112.4</ele>
        <time>2015-09-20T06:34:58Z</time>
      </trkpt>
      <trkpt lat="49.2314" lon="1.12415">
        <ele>112.4</ele>
        <time>2015-09-20T06:35:00Z</time>
      </trkpt>
      <trkpt lat="49.23152" lon="1.12419">
        <ele>112.3</ele>
        <time>2015-09-20T06:35:02Z</time>
      </trkpt>
      <trkpt lat="49.23164" lon="1.12424">
        <ele>112.4</ele>
        <time>2015-09-20T06:35:04Z</time>
      </trkpt>
      <trkpt lat="49.23176" lon="1.12426">
        <ele>112.4</ele>
        <time>2015-09-20T06:35:06Z</time>
      </trkpt>
      <trkpt lat="49.23186" lon="1.12428">
        <ele>112.4</ele>
        <time>2015-09-20T06:35:08Z</time>
      </trkpt>
      <trkpt lat="49.23198" lon="1.12431">
        <ele>112.4</ele>
        <time>2015-09-20T06:35:10Z</time>
      </trkpt>
      <trkpt lat="49.2321" lon="1.12434">
        <ele>112.3</ele>
        <time>2015-09-20T06:35:12Z</time>
      </trkpt>
      <trkpt lat="49.23222" lon="1.12438">
        <ele>112.1</ele>
        <time>2015-09-20T06:35:14Z</time>
      </trkpt>
      <trkpt lat="49.23232" lon="1.12439">
        <ele>111.8</ele>
        <time>2015-09-20T06:35:16Z</time>
      </trkpt>
      <trkpt lat="49.23241" lon="1.12432">
        <ele>111.2</ele>
        <time>2015-09-20T06:35:19Z</time>
      </trkpt>
      <trkpt lat="49.23248" lon="1.12415">
        <ele>110.7</ele>
        <time>2015-09-20T06:35:22Z</time>
      </trkpt>
      <trkpt lat="49.23252" lon="1.12397">
        <ele>110.3</ele>
        <time>2015-09-20T06:35:25Z</time>
      </trkpt>
      <trkpt lat="49.23254" lon="1.1238">
        <ele>110.1</ele>
        <time>2015-09-20T06:35:28Z</time>
      </trkpt>
      <trkpt lat="49.23258" lon="1.12362">
        <ele>109.9</ele>
        <time>2015-09-20T06:35:31Z</time>
      </trkpt>
      <trkpt lat="49.23262" lon="1.12343">
        <ele>109.8</ele>
        <time>2015-09-20T06:35:34Z</time>
      </trkpt>
      <trkpt lat="49.23265" lon="1.12323">
        <ele>109.7</ele>
        <time>2015-09-20T06:35:37Z</time>
      </trkpt>
      <trkpt lat="49.23267" lon="1.12305">
        <ele>109.6</ele>
        <time>2015-09-20T06:35:40Z</time>
      </trkpt>
      <trkpt lat="49.2327" lon="1.1229">
        <ele>109.6</ele>
        <time>2015-09-20T06:35:42Z</time>
      </trkpt>
      <trkpt lat="49.23273" lon="1.1227">
        <ele>109.7</ele>
        <time>2015-09-20T06:35:45Z</time>
      </trkpt>
      <trkpt lat="49.23276" lon="1.12251">
        <ele>109.8</ele>
        <time>2015-09-20T06:35:48Z</time>
      </trkpt>
      <trkpt lat="49.23279" lon="1.12234">
        <ele>110</ele>
        <time>2015-09-20T06:35:51Z</time>
      </trkpt>
      <trkpt lat="49.23281" lon="1.1222">
        <ele>110.1</ele>
        <time>2015-09-20T06:35:53Z</time>
      </trkpt>
      <trkpt lat="49.23283" lon="1.12205">
        <ele>110.2</ele>
        <time>2015-09-20T06:35:55Z</time>
      </trkpt>
      <trkpt lat="49.23286" lon="1.12192">
        <ele>110.3</ele>
        <time>2015-09-20T06:35:57Z</time>
      </trkpt>
      <trkpt lat="49.23289" lon="1.12178">
        <ele>110.4</ele>
        <time>2015-09-20T06:35:59Z</time>
      </trkpt>
      <trkpt lat="49.23291" lon="1.12161">
        <ele>110.6</ele>
        <time>2015-09-20T06:36:02Z</time>
      </trkpt>
      <trkpt lat="49.23293" lon="1.12147">
        <ele>110.7</ele>
        <time>2015-09-20T06:36:04Z</time>
      </trkpt>
      <trkpt lat="49.23295" lon="1.12133">
        <ele>110.9</ele>
        <time>2015-09-20T06:36:06Z</time>
      </trkpt>
      <trkpt lat="49.23298" lon="1.12118">
        <ele>111.1</ele>
        <time>2015-09-20T06:36:08Z</time>
      </trkpt>
      <trkpt lat="49.23299" lon="1.12102">
        <ele>111.2</ele>
        <time>2015-09-20T06:36:10Z</time>
      </trkpt>
      <trkpt lat="49.23301" lon="1.12088">
        <ele>111.3</ele>
        <time>2015-09-20T06:36:12Z</time>
      </trkpt>
      <trkpt lat="49.23305" lon="1.12069">
        <ele>111.6</ele>
        <time>2015-09-20T06:36:15Z</time>
      </trkpt>
      <trkpt lat="49.23307" lon="1.12055">
        <ele>111.7</ele>
        <time>2015-09-20T06:36:17Z</time>
      </trkpt>
      <trkpt lat="49.23309" lon="1.12039">
        <ele>111.8</ele>
        <time>2015-09-20T06:36:19Z</time>
      </trkpt>
      <trkpt lat="49.23311" lon="1.12023">
        <ele>111.9</ele>
        <time>2015-09-20T06:36:21Z</time>
      </trkpt>
      <trkpt lat="49.23313" lon="1.12008">
        <ele>111.9</ele>
        <time>2015-09-20T06:36:23Z</time>
      </trkpt>
      <trkpt lat="49.23316" lon="1.11995">
        <ele>112</ele>
        <time>2015-09-20T06:36:25Z</time>
      </trkpt>
      <trkpt lat="49.23319" lon="1.11975">
        <ele>112.1</ele>
        <time>2015-09-20T06:36:28Z</time>
      </trkpt>
      <trkpt lat="49.23321" lon="1.11957">
        <ele>112.2</ele>
        <time>2015-09-20T06:36:31Z</time>
      </trkpt>
      <trkpt lat="49.23323" lon="1.11941">
        <ele>112.3</ele>
        <time>2015-09-20T06:36:34Z</time>
      </trkpt>
      <trkpt lat="49.23326" lon="1.11926">
        <ele>112.5</ele>
        <time>2015-09-20T06:36:37Z</time>
      </trkpt>
      <trkpt lat="49.23329" lon="1.11906">
        <ele>112.7</ele>
        <time>2015-09-20T06:36:40Z</time>
      </trkpt>
      <trkpt lat="49.23331" lon="1.11892">
        <ele>112.9</ele>
        <time>2015-09-20T06:36:42Z</time>
      </trkpt>
      <trkpt lat="49.23333" lon="1.11878">
        <ele>113</ele>
        <time>2015-09-20T06:36:44Z</time>
      </trkpt>
      <trkpt lat="49.23335" lon="1.11858">
        <ele>113.1</ele>
        <time>2015-09-20T06:36:47Z</time>
      </trkpt>
      <trkpt lat="49.23337" lon="1.11844">
        <ele>113.2</ele>
        <time>2015-09-20T06:36:49Z</time>
      </trkpt>
      <trkpt lat="49.2334" lon="1.11829">
        <ele>113.2</ele>
        <time>2015-09-20T06:36:51Z</time>
      </trkpt>
      <trkpt lat="49.23343" lon="1.1181">
        <ele>113.3</ele>
        <time>2015-09-20T06:36:53Z</time>
      </trkpt>
      <trkpt lat="49.23346" lon="1.11793">
        <ele>113.1</ele>
        <time>2015-09-20T06:36:55Z</time>
      </trkpt>
      <trkpt lat="49.2335" lon="1.11775">
        <ele>112.9</ele>
        <time>2015-09-20T06:36:57Z</time>
      </trkpt>
      <trkpt lat="49.23353" lon="1.1176">
        <ele>112.4</ele>
        <time>2015-09-20T06:36:59Z</time>
      </trkpt>
      <trkpt lat="49.23357" lon="1.11745">
        <ele>111.9</ele>
        <time>2015-09-20T06:37:01Z</time>
      </trkpt>
      <trkpt lat="49.23359" lon="1.11728">
        <ele>111.3</ele>
        <time>2015-09-20T06:37:03Z</time>
      </trkpt>
      <trkpt lat="49.23361" lon="1.11714">
        <ele>110.4</ele>
        <time>2015-09-20T06:37:06Z</time>
      </trkpt>
      <trkpt lat="49.23365" lon="1.11699">
        <ele>109.6</ele>
        <time>2015-09-20T06:37:09Z</time>
      </trkpt>
      <trkpt lat="49.23374" lon="1.11705">
        <ele>108.7</ele>
        <time>2015-09-20T06:37:13Z</time>
      </trkpt>
      <trkpt lat="49.2338" lon="1.1172">
        <ele>108</ele>
        <time>2015-09-20T06:37:17Z</time>
      </trkpt>
      <trkpt lat="49.23382" lon="1.11734">
        <ele>107.7</ele>
        <time>2015-09-20T06:37:19Z</time>
      </trkpt>
      <trkpt lat="49.23385" lon="1.11747">
        <ele>107.4</ele>
        <time>2015-09-20T06:37:21Z</time>
      </trkpt>
      <trkpt lat="49.23394" lon="1.11756">
        <ele>107.1</ele>
        <time>2015-09-20T06:37:23Z</time>
      </trkpt>
      <trkpt lat="49.23406" lon="1.11761">
        <ele>106.9</ele>
        <time>2015-09-20T06:37:25Z</time>
      </trkpt>
      <trkpt lat="49.23417" lon="1.11754">
        <ele>106.5</ele>
        <time>2015-09-20T06:37:28Z</time>
      </trkpt>
      <trkpt lat="49.23427" lon="1.1175">
        <ele>106.4</ele>
        <time>2015-09-20T06:37:31Z</time>
      </trkpt>
      <trkpt lat="49.23436" lon="1.11746">
        <ele>106.6</ele>
        <time>2015-09-20T06:37:35Z</time>
      </trkpt>
      <trkpt lat="49.23445" lon="1.11744">
        <ele>107</ele>
        <time>2015-09-20T06:37:39Z</time>
      </trkpt>
      <trkpt lat="49.23456" lon="1.11745">
        <ele>108</ele>
        <time>2015-09-20T06:37:44Z</time>
      </trkpt>
      <trkpt lat="49.23467" lon="1.11745">
        <ele>108.8</ele>
        <time>2015-09-20T06:37:48Z</time>
      </trkpt>
      <trkpt lat="49.23476" lon="1.11755">
        <ele>109.8</ele>
        <time>2015-09-20T06:37:52Z</time>
      </trkpt>
      <trkpt lat="49.23481" lon="1.11768">
        <ele>110.8</ele>
        <time>2015-09-20T06:37:56Z</time>
      </trkpt>
      <trkpt lat="49.23486" lon="1.11781">
        <ele>111.7</ele>
        <time>2015-09-20T06:38:00Z</time>
      </trkpt>
      <trkpt lat="49.23489" lon="1.11797">
        <ele>112.6</ele>
        <time>2015-09-20T06:38:04Z</time>
      </trkpt>
      <trkpt lat="49.23496" lon="1.11811">
        <ele>113.2</ele>
        <time>2015-09-20T06:38:07Z</time>
      </trkpt>
      <trkpt lat="49.23503" lon="1.11824">
        <ele>113.9</ele>
        <time>2015-09-20T06:38:10Z</time>
      </trkpt>
      <trkpt lat="49.23508" lon="1.11841">
        <ele>114.7</ele>
        <time>2015-09-20T06:38:14Z</time>
      </trkpt>
      <trkpt lat="49.23515" lon="1.11856">
        <ele>115.4</ele>
        <time>2015-09-20T06:38:17Z</time>
      </trkpt>
      <trkpt lat="49.23517" lon="1.11872">
        <ele>116</ele>
        <time>2015-09-20T06:38:20Z</time>
      </trkpt>
      <trkpt lat="49.23518" lon="1.11888">
        <ele>116.5</ele>
        <time>2015-09-20T06:38:23Z</time>
      </trkpt>
      <trkpt lat="49.23521" lon="1.11904">
        <ele>117</ele>
        <time>2015-09-20T06:38:26Z</time>
      </trkpt>
      <trkpt lat="49.23523" lon="1.11921">
        <ele>117.5</ele>
        <time>2015-09-20T06:38:29Z</time>
      </trkpt>
      <trkpt lat="49.23527" lon="1.11934">
        <ele>117.7</ele>
        <time>2015-09-20T06:38:31Z</time>
      </trkpt>
      <trkpt lat="49.23531" lon="1.11947">
        <ele>118</ele>
        <time>2015-09-20T06:38:33Z</time>
      </trkpt>
      <trkpt lat="49.23534" lon="1.1196">
        <ele>118.3</ele>
        <time>2015-09-20T06:38:35Z</time>
      </trkpt>
      <trkpt lat="49.2354" lon="1.11971">
        <ele>118.7</ele>
        <time>2015-09-20T06:38:37Z</time>
      </trkpt>
      <trkpt lat="49.23547" lon="1.11984">
        <ele>119.2</ele>
        <time>2015-09-20T06:38:40Z</time>
      </trkpt>
      <trkpt lat="49.23556" lon="1.11996">
        <ele>119.7</ele>
        <time>2015-09-20T06:38:43Z</time>
      </trkpt>
      <trkpt lat="49.23565" lon="1.12006">
        <ele>120.2</ele>
        <time>2015-09-20T06:38:46Z</time>
      </trkpt>
      <trkpt lat="49.23575" lon="1.12014">
        <ele>120.7</ele>
        <time>2015-09-20T06:38:49Z</time>
      </trkpt>
      <trkpt lat="49.23587" lon="1.12021">
        <ele>121.2</ele>
        <time>2015-09-20T06:38:52Z</time>
      </trkpt>
      <trkpt lat="49.23596" lon="1.12026">
        <ele>121.6</ele>
        <time>2015-09-20T06:38:54Z</time>
      </trkpt>
      <trkpt lat="49.23604" lon="1.12031">
        <ele>122</ele>
        <time>2015-09-20T06:38:57Z</time>
      </trkpt>
      <trkpt lat="49.2361" lon="1.12044">
        <ele>122.4</ele>
        <time>2015-09-20T06:39:00Z</time>
      </trkpt>
      <trkpt lat="49.23618" lon="1.12059">
        <ele>122.7</ele>
        <time>2015-09-20T06:39:03Z</time>
      </trkpt>
      <trkpt lat="49.23621" lon="1.12071">
        <ele>122.9</ele>
        <time>2015-09-20T06:39:05Z</time>
      </trkpt>
      <trkpt lat="49.23624" lon="1.12085">
        <ele>123.1</ele>
        <time>2015-09-20T06:39:07Z</time>
      </trkpt>
      <trkpt lat="49.23626" lon="1.12099">
        <ele>123.3</ele>
        <time>2015-09-20T06:39:09Z</time>
      </trkpt>
      <trkpt lat="49.23629" lon="1.12114">
        <ele>123.5</ele>
        <time>2015-09-20T06:39:11Z</time>
      </trkpt>
      <trkpt lat="49.23632" lon="1.12129">
        <ele>123.6</ele>
        <time>2015-09-20T06:39:13Z</time>
      </trkpt>
      <trkpt lat="49.23635" lon="1.12144">
        <ele>123.8</ele>
        <time>2015-09-20T06:39:15Z</time>
      </trkpt>
      <trkpt lat="49.23638" lon="1.12159">
        <ele>123.9</ele>
        <time>2015-09-20T06:39:17Z</time>
      </trkpt>
      <trkpt lat="49.23641" lon="1.12175">
        <ele>124</ele>
        <time>2015-09-20T06:39:19Z</time>
      </trkpt>
      <trkpt lat="49.23643" lon="1.12191">
        <ele>124.1</ele>
        <time>2015-09-20T06:39:21Z</time>
      </trkpt>
      <trkpt lat="49.23646" lon="1.12207">
        <ele>124.2</ele>
        <time>2015-09-20T06:39:23Z</time>
      </trkpt>
      <trkpt lat="49.2365" lon="1.12223">
        <ele>124.2</ele>
        <time>2015-09-20T06:39:25Z</time>
      </trkpt>
      <trkpt lat="49.23654" lon="1.12239">
        <ele>124.3</ele>
        <time>2015-09-20T06:39:27Z</time>
      </trkpt>
      <trkpt lat="49.23656" lon="1.12257">
        <ele>124.3</ele>
        <time>2015-09-20T06:39:29Z</time>
      </trkpt>
      <trkpt lat="49.2366" lon="1.12274">
        <ele>124.4</ele>
        <time>2015-09-20T06:39:31Z</time>
      </trkpt>
      <trkpt lat="49.23663" lon="1.12291">
        <ele>124.4</ele>
        <time>2015-09-20T06:39:33Z</time>
      </trkpt>
      <trkpt lat="49.23667" lon="1.12309">
        <ele>124.4</ele>
        <time>2015-09-20T06:39:35Z</time>
      </trkpt>
      <trkpt lat="49.2367" lon="1.12328">
        <ele>124.4</ele>
        <time>2015-09-20T06:39:37Z</time>
      </trkpt>
      <trkpt lat="49.23674" lon="1.12346">
        <ele>124.5</ele>
        <time>2015-09-20T06:39:39Z</time>
      </trkpt>
      <trkpt lat="49.23678" lon="1.12365">
        <ele>124.5</ele>
        <time>2015-09-20T06:39:41Z</time>
      </trkpt>
      <trkpt lat="49.23681" lon="1.12384">
        <ele>124.5</ele>
        <time>2015-09-20T06:39:43Z</time>
      </trkpt>
      <trkpt lat="49.23685" lon="1.12403">
        <ele>124.5</ele>
        <time>2015-09-20T06:39:45Z</time>
      </trkpt>
      <trkpt lat="49.23688" lon="1.12421">
        <ele>124.4</ele>
        <time>2015-09-20T06:39:47Z</time>
      </trkpt>
      <trkpt lat="49.23692" lon="1.12438">
        <ele>124.4</ele>
        <time>2015-09-20T06:39:49Z</time>
      </trkpt>
      <trkpt lat="49.23694" lon="1.12456">
        <ele>124.3</ele>
        <time>2015-09-20T06:39:51Z</time>
      </trkpt>
      <trkpt lat="49.23693" lon="1.12474">
        <ele>124.2</ele>
        <time>2015-09-20T06:39:53Z</time>
      </trkpt>
      <trkpt lat="49.23694" lon="1.12492">
        <ele>124.2</ele>
        <time>2015-09-20T06:39:55Z</time>
      </trkpt>
      <trkpt lat="49.23693" lon="1.1251">
        <ele>124.1</ele>
        <time>2015-09-20T06:39:58Z</time>
      </trkpt>
      <trkpt lat="49.23696" lon="1.12526">
        <ele>123.8</ele>
        <time>2015-09-20T06:40:02Z</time>
      </trkpt>
      <trkpt lat="49.23699" lon="1.12544">
        <ele>123.6</ele>
        <time>2015-09-20T06:40:05Z</time>
      </trkpt>
      <trkpt lat="49.23701" lon="1.12558">
        <ele>123.5</ele>
        <time>2015-09-20T06:40:07Z</time>
      </trkpt>
      <trkpt lat="49.23702" lon="1.12573">
        <ele>123.4</ele>
        <time>2015-09-20T06:40:09Z</time>
      </trkpt>
      <trkpt lat="49.23705" lon="1.12589">
        <ele>123.4</ele>
        <time>2015-09-20T06:40:11Z</time>
      </trkpt>
      <trkpt lat="49.23707" lon="1.12605">
        <ele>123.4</ele>
        <time>2015-09-20T06:40:13Z</time>
      </trkpt>
      <trkpt lat="49.23707" lon="1.12623">
        <ele>123.4</ele>
        <time>2015-09-20T06:40:15Z</time>
      </trkpt>
      <trkpt lat="49.23709" lon="1.12639">
        <ele>123.4</ele>
        <time>2015-09-20T06:40:17Z</time>
      </trkpt>
      <trkpt lat="49.23709" lon="1.12653">
        <ele>123.4</ele>
        <time>2015-09-20T06:40:19Z</time>
      </trkpt>
      <trkpt lat="49.23712" lon="1.12669">
        <ele>123.4</ele>
        <time>2015-09-20T06:40:21Z</time>
      </trkpt>
      <trkpt lat="49.23721" lon="1.12677">
        <ele>123.4</ele>
        <time>2015-09-20T06:40:24Z</time>
      </trkpt>
      <trkpt lat="49.23734" lon="1.1268">
        <ele>123.4</ele>
        <time>2015-09-20T06:40:27Z</time>
      </trkpt>
      <trkpt lat="49.23742" lon="1.12689">
        <ele>123.4</ele>
        <time>2015-09-20T06:40:30Z</time>
      </trkpt>
      <trkpt lat="49.2375" lon="1.12696">
        <ele>123.5</ele>
        <time>2015-09-20T06:40:33Z</time>
      </trkpt>
      <trkpt lat="49.2376" lon="1.12698">
        <ele>123.6</ele>
        <time>2015-09-20T06:40:35Z</time>
      </trkpt>
      <trkpt lat="49.2377" lon="1.12702">
        <ele>123.7</ele>
        <time>2015-09-20T06:40:38Z</time>
      </trkpt>
      <trkpt lat="49.2378" lon="1.12703">
        <ele>123.8</ele>
        <time>2015-09-20T06:40:41Z</time>
      </trkpt>
      <trkpt lat="49.23789" lon="1.12707">
        <ele>123.9</ele>
        <time>2015-09-20T06:40:43Z</time>
      </trkpt>
      <trkpt lat="49.23799" lon="1.12714">
        <ele>124.1</ele>
        <time>2015-09-20T06:40:46Z</time>
      </trkpt>
      <trkpt lat="49.23808" lon="1.12717">
        <ele>124.2</ele>
        <time>2015-09-20T06:40:49Z</time>
      </trkpt>
      <trkpt lat="49.23817" lon="1.1272">
        <ele>124.4</ele>
        <time>2015-09-20T06:40:52Z</time>
      </trkpt>
      <trkpt lat="49.23829" lon="1.12725">
        <ele>124.5</ele>
        <time>2015-09-20T06:40:55Z</time>
      </trkpt>
      <trkpt lat="49.23838" lon="1.12731">
        <ele>124.6</ele>
        <time>2015-09-20T06:40:57Z</time>
      </trkpt>
      <trkpt lat="49.23846" lon="1.12737">
        <ele>124.7</ele>
        <time>2015-09-20T06:40:59Z</time>
      </trkpt>
      <trkpt lat="49.23855" lon="1.12744">
        <ele>124.9</ele>
        <time>2015-09-20T06:41:02Z</time>
      </trkpt>
      <trkpt lat="49.23867" lon="1.12746">
        <ele>125.1</ele>
        <time>2015-09-20T06:41:05Z</time>
      </trkpt>
      <trkpt lat="49.23877" lon="1.1275">
        <ele>125.3</ele>
        <time>2015-09-20T06:41:08Z</time>
      </trkpt>
      <trkpt lat="49.23888" lon="1.12755">
        <ele>125.4</ele>
        <time>2015-09-20T06:41:10Z</time>
      </trkpt>
      <trkpt lat="49.23897" lon="1.12758">
        <ele>125.6</ele>
        <time>2015-09-20T06:41:12Z</time>
      </trkpt>
      <trkpt lat="49.23909" lon="1.12761">
        <ele>125.8</ele>
        <time>2015-09-20T06:41:15Z</time>
      </trkpt>
      <trkpt lat="49.23917" lon="1.12768">
        <ele>125.9</ele>
        <time>2015-09-20T06:41:17Z</time>
      </trkpt>
      <trkpt lat="49.23925" lon="1.12773">
        <ele>126</ele>
        <time>2015-09-20T06:41:19Z</time>
      </trkpt>
      <trkpt lat="49.23935" lon="1.12778">
        <ele>126.1</ele>
        <time>2015-09-20T06:41:21Z</time>
      </trkpt>
      <trkpt lat="49.23944" lon="1.12782">
        <ele>126.2</ele>
        <time>2015-09-20T06:41:23Z</time>
      </trkpt>
      <trkpt lat="49.23954" lon="1.12788">
        <ele>126.4</ele>
        <time>2015-09-20T06:41:26Z</time>
      </trkpt>
      <trkpt lat="49.23963" lon="1.12794">
        <ele>126.6</ele>
        <time>2015-09-20T06:41:29Z</time>
      </trkpt>
      <trkpt lat="49.23976" lon="1.12801">
        <ele>126.8</ele>
        <time>2015-09-20T06:41:32Z</time>
      </trkpt>
      <trkpt lat="49.23986" lon="1.12805">
        <ele>126.9</ele>
        <time>2015-09-20T06:41:34Z</time>
      </trkpt>
      <trkpt lat="49.23995" lon="1.12809">
        <ele>127</ele>
        <time>2015-09-20T06:41:36Z</time>
      </trkpt>
      <trkpt lat="49.24006" lon="1.12812">
        <ele>127.1</ele>
        <time>2015-09-20T06:41:39Z</time>
      </trkpt>
      <trkpt lat="49.24017" lon="1.12817">
        <ele>127.2</ele>
        <time>2015-09-20T06:41:42Z</time>
      </trkpt>
      <trkpt lat="49.24028" lon="1.12822">
        <ele>127.3</ele>
        <time>2015-09-20T06:41:46Z</time>
      </trkpt>
      <trkpt lat="49.24038" lon="1.12825">
        <ele>127.4</ele>
        <time>2015-09-20T06:41:48Z</time>
      </trkpt>
      <trkpt lat="49.24048" lon="1.12828">
        <ele>127.4</ele>
        <time>2015-09-20T06:41:50Z</time>
      </trkpt>
      <trkpt lat="49.24061" lon="1.12831">
        <ele>127.5</ele>
        <time>2015-09-20T06:41:53Z</time>
      </trkpt>
      <trkpt lat="49.24073" lon="1.12836">
        <ele>127.6</ele>
        <time>2015-09-20T06:41:56Z</time>
      </trkpt>
      <trkpt lat="49.24083" lon="1.12836">
        <ele>127.7</ele>
        <time>2015-09-20T06:41:59Z</time>
      </trkpt>
      <trkpt lat="49.24093" lon="1.12843">
        <ele>127.8</ele>
        <time>2015-09-20T06:42:02Z</time>
      </trkpt>
      <trkpt lat="49.24103" lon="1.12846">
        <ele>127.9</ele>
        <time>2015-09-20T06:42:04Z</time>
      </trkpt>
      <trkpt lat="49.24113" lon="1.1285">
        <ele>127.9</ele>
        <time>2015-09-20T06:42:07Z</time>
      </trkpt>
      <trkpt lat="49.24122" lon="1.12859">
        <ele>128</ele>
        <time>2015-09-20T06:42:10Z</time>
      </trkpt>
      <trkpt lat="49.24132" lon="1.12862">
        <ele>128</ele>
        <time>2015-09-20T06:42:12Z</time>
      </trkpt>
      <trkpt lat="49.24142" lon="1.12867">
        <ele>128</ele>
        <time>2015-09-20T06:42:14Z</time>
      </trkpt>
      <trkpt lat="49.24152" lon="1.12874">
        <ele>128.1</ele>
        <time>2015-09-20T06:42:16Z</time>
      </trkpt>
      <trkpt lat="49.24163" lon="1.12882">
        <ele>128.1</ele>
        <time>2015-09-20T06:42:19Z</time>
      </trkpt>
      <trkpt lat="49.24171" lon="1.12889">
        <ele>128</ele>
        <time>2015-09-20T06:42:22Z</time>
      </trkpt>
      <trkpt lat="49.24182" lon="1.12892">
        <ele>127.8</ele>
        <time>2015-09-20T06:42:27Z</time>
      </trkpt>
      <trkpt lat="49.24191" lon="1.12891">
        <ele>127.6</ele>
        <time>2015-09-20T06:42:33Z</time>
      </trkpt>
      <trkpt lat="49.242" lon="1.12894">
        <ele>127.5</ele>
        <time>2015-09-20T06:42:36Z</time>
      </trkpt>
      <trkpt lat="49.2421" lon="1.12901">
        <ele>127.4</ele>
        <time>2015-09-20T06:42:39Z</time>
      </trkpt>
      <trkpt lat="49.24221" lon="1.12905">
        <ele>127.3</ele>
        <time>2015-09-20T06:42:42Z</time>
      </trkpt>
      <trkpt lat="49.2423" lon="1.12907">
        <ele>127.1</ele>
        <time>2015-09-20T06:42:45Z</time>
      </trkpt>
      <trkpt lat="49.24241" lon="1.1291">
        <ele>126.9</ele>
        <time>2015-09-20T06:42:48Z</time>
      </trkpt>
      <trkpt lat="49.24252" lon="1.12917">
        <ele>126.8</ele>
        <time>2015-09-20T06:42:52Z</time>
      </trkpt>
      <trkpt lat="49.24262" lon="1.12921">
        <ele>126.7</ele>
        <time>2015-09-20T06:42:54Z</time>
      </trkpt>
      <trkpt lat="49.24274" lon="1.1293">
        <ele>126.5</ele>
        <time>2015-09-20T06:42:57Z</time>
      </trkpt>
      <trkpt lat="49.24284" lon="1.12933">
        <ele>126.2</ele>
        <time>2015-09-20T06:43:00Z</time>
      </trkpt>
      <trkpt lat="49.24294" lon="1.12938">
        <ele>125.8</ele>
        <time>2015-09-20T06:43:06Z</time>
      </trkpt>
      <trkpt lat="49.24303" lon="1.12943">
        <ele>124.9</ele>
        <time>2015-09-20T06:43:16Z</time>
      </trkpt>
      <trkpt lat="49.24313" lon="1.12947">
        <ele>124.6</ele>
        <time>2015-09-20T06:43:22Z</time>
      </trkpt>
      <trkpt lat="49.24323" lon="1.12951">
        <ele>124.5</ele>
        <time>2015-09-20T06:43:25Z</time>
      </trkpt>
      <trkpt lat="49.24332" lon="1.12954">
        <ele>124.4</ele>
        <time>2015-09-20T06:43:27Z</time>
      </trkpt>
      <trkpt lat="49.24343" lon="1.1296">
        <ele>124.3</ele>
        <time>2015-09-20T06:43:30Z</time>
      </trkpt>
      <trkpt lat="49.24352" lon="1.12965">
        <ele>124.1</ele>
        <time>2015-09-20T06:43:33Z</time>
      </trkpt>
      <trkpt lat="49.24362" lon="1.1297">
        <ele>123.7</ele>
        <time>2015-09-20T06:43:39Z</time>
      </trkpt>
      <trkpt lat="49.24374" lon="1.12975">
        <ele>123.5</ele>
        <time>2015-09-20T06:43:43Z</time>
      </trkpt>
      <trkpt lat="49.24383" lon="1.1298">
        <ele>123.3</ele>
        <time>2015-09-20T06:43:47Z</time>
      </trkpt>
      <trkpt lat="49.24392" lon="1.12984">
        <ele>123.2</ele>
        <time>2015-09-20T06:43:50Z</time>
      </trkpt>
      <trkpt lat="49.24404" lon="1.12991">
        <ele>123.1</ele>
        <time>2015-09-20T06:43:53Z</time>
      </trkpt>
      <trkpt lat="49.24417" lon="1.12997">
        <ele>122.9</ele>
        <time>2015-09-20T06:43:56Z</time>
      </trkpt>
      <trkpt lat="49.24429" lon="1.13002">
        <ele>122.8</ele>
        <time>2015-09-20T06:43:58Z</time>
      </trkpt>
      <trkpt lat="49.2444" lon="1.13009">
        <ele>122.7</ele>
        <time>2015-09-20T06:44:01Z</time>
      </trkpt>
      <trkpt lat="49.24449" lon="1.13015">
        <ele>122.5</ele>
        <time>2015-09-20T06:44:03Z</time>
      </trkpt>
      <trkpt lat="49.24459" lon="1.13017">
        <ele>122.3</ele>
        <time>2015-09-20T06:44:05Z</time>
      </trkpt>
      <trkpt lat="49.2447" lon="1.13022">
        <ele>122.1</ele>
        <time>2015-09-20T06:44:07Z</time>
      </trkpt>
      <trkpt lat="49.2448" lon="1.13026">
        <ele>121.8</ele>
        <time>2015-09-20T06:44:09Z</time>
      </trkpt>
      <trkpt lat="49.24489" lon="1.13022">
        <ele>121.6</ele>
        <time>2015-09-20T06:44:11Z</time>
      </trkpt>
      <trkpt lat="49.24494" lon="1.13005">
        <ele>121.3</ele>
        <time>2015-09-20T06:44:14Z</time>
      </trkpt>
      <trkpt lat="49.24498" lon="1.12992">
        <ele>121.1</ele>
        <time>2015-09-20T06:44:16Z</time>
      </trkpt>
      <trkpt lat="49.24502" lon="1.12977">
        <ele>121</ele>
        <time>2015-09-20T06:44:18Z</time>
      </trkpt>
      <trkpt lat="49.24505" lon="1.12962">
        <ele>120.9</ele>
        <time>2015-09-20T06:44:20Z</time>
      </trkpt>
      <trkpt lat="49.24507" lon="1.12944">
        <ele>120.8</ele>
        <time>2015-09-20T06:44:22Z</time>
      </trkpt>
      <trkpt lat="49.24511" lon="1.12927">
        <ele>120.7</ele>
        <time>2015-09-20T06:44:24Z</time>
      </trkpt>
      <trkpt lat="49.24514" lon="1.1291">
        <ele>120.6</ele>
        <time>2015-09-20T06:44:26Z</time>
      </trkpt>
      <trkpt lat="49.24517" lon="1.12894">
        <ele>120.6</ele>
        <time>2015-09-20T06:44:28Z</time>
      </trkpt>
      <trkpt lat="49.2452" lon="1.12877">
        <ele>120.5</ele>
        <time>2015-09-20T06:44:30Z</time>
      </trkpt>
      <trkpt lat="49.24524" lon="1.12861">
        <ele>120.5</ele>
        <time>2015-09-20T06:44:32Z</time>
      </trkpt>
      <trkpt lat="49.24527" lon="1.12844">
        <ele>120.4</ele>
        <time>2015-09-20T06:44:34Z</time>
      </trkpt>
      <trkpt lat="49.24531" lon="1.12827">
        <ele>120.4</ele>
        <time>2015-09-20T06:44:36Z</time>
      </trkpt>
      <trkpt lat="49.24534" lon="1.1281">
        <ele>120.5</ele>
        <time>2015-09-20T06:44:38Z</time>
      </trkpt>
      <trkpt lat="49.24537" lon="1.12793">
        <ele>120.5</ele>
        <time>2015-09-20T06:44:40Z</time>
      </trkpt>
      <trkpt lat="49.24541" lon="1.12776">
        <ele>120.5</ele>
        <time>2015-09-20T06:44:42Z</time>
      </trkpt>
      <trkpt lat="49.24544" lon="1.12758">
        <ele>120.4</ele>
        <time>2015-09-20T06:44:44Z</time>
      </trkpt>
      <trkpt lat="49.24547" lon="1.12741">
        <ele>120.4</ele>
        <time>2015-09-20T06:44:46Z</time>
      </trkpt>
      <trkpt lat="49.24551" lon="1.12723">
        <ele>120.4</ele>
        <time>2015-09-20T06:44:48Z</time>
      </trkpt>
      <trkpt lat="49.24554" lon="1.12706">
        <ele>120.4</ele>
        <time>2015-09-20T06:44:50Z</time>
      </trkpt>
      <trkpt lat="49.24557" lon="1.12689">
        <ele>120.3</ele>
        <time>2015-09-20T06:44:52Z</time>
      </trkpt>
      <trkpt lat="49.2456" lon="1.12672">
        <ele>120.3</ele>
        <time>2015-09-20T06:44:54Z</time>
      </trkpt>
      <trkpt lat="49.24563" lon="1.12655">
        <ele>120.3</ele>
        <time>2015-09-20T06:44:56Z</time>
      </trkpt>
      <trkpt lat="49.24566" lon="1.12638">
        <ele>120.3</ele>
        <time>2015-09-20T06:44:58Z</time>
      </trkpt>
      <trkpt lat="49.24569" lon="1.1262">
        <ele>120.3</ele>
        <time>2015-09-20T06:45:00Z</time>
      </trkpt>
      <trkpt lat="49.24572" lon="1.12603">
        <ele>120.3</ele>
        <time>2015-09-20T06:45:02Z</time>
      </trkpt>
      <trkpt lat="49.24575" lon="1.12587">
        <ele>120.3</ele>
        <time>2015-09-20T06:45:04Z</time>
      </trkpt>
      <trkpt lat="49.24578" lon="1.12571">
        <ele>120.2</ele>
        <time>2015-09-20T06:45:06Z</time>
      </trkpt>
      <trkpt lat="49.24581" lon="1.12557">
        <ele>120.2</ele>
        <time>2015-09-20T06:45:08Z</time>
      </trkpt>
      <trkpt lat="49.24593" lon="1.1255">
        <ele>120.1</ele>
        <time>2015-09-20T06:45:11Z</time>
      </trkpt>
      <trkpt lat="49.24605" lon="1.12547">
        <ele>120</ele>
        <time>2015-09-20T06:45:14Z</time>
      </trkpt>
      <trkpt lat="49.24614" lon="1.12545">
        <ele>119.9</ele>
        <time>2015-09-20T06:45:16Z</time>
      </trkpt>
      <trkpt lat="49.24629" lon="1.12546">
        <ele>119.8</ele>
        <time>2015-09-20T06:45:19Z</time>
      </trkpt>
      <trkpt lat="49.24643" lon="1.12548">
        <ele>119.4</ele>
        <time>2015-09-20T06:45:22Z</time>
      </trkpt>
      <trkpt lat="49.24653" lon="1.12555">
        <ele>118.8</ele>
        <time>2015-09-20T06:45:25Z</time>
      </trkpt>
      <trkpt lat="49.24665" lon="1.12556">
        <ele>118.2</ele>
        <time>2015-09-20T06:45:28Z</time>
      </trkpt>
      <trkpt lat="49.24674" lon="1.12558">
        <ele>117.8</ele>
        <time>2015-09-20T06:45:30Z</time>
      </trkpt>
      <trkpt lat="49.24682" lon="1.12567">
        <ele>116.6</ele>
        <time>2015-09-20T06:45:37Z</time>
      </trkpt>
      <trkpt lat="49.24691" lon="1.12571">
        <ele>116</ele>
        <time>2015-09-20T06:45:41Z</time>
      </trkpt>
      <trkpt lat="49.247" lon="1.12565">
        <ele>115.4</ele>
        <time>2015-09-20T06:45:45Z</time>
      </trkpt>
      <trkpt lat="49.24712" lon="1.12565">
        <ele>114.9</ele>
        <time>2015-09-20T06:45:49Z</time>
      </trkpt>
      <trkpt lat="49.24718" lon="1.12582">
        <ele>114.5</ele>
        <time>2015-09-20T06:45:53Z</time>
      </trkpt>
      <trkpt lat="49.24721" lon="1.12599">
        <ele>114.1</ele>
        <time>2015-09-20T06:45:56Z</time>
      </trkpt>
      <trkpt lat="49.24733" lon="1.12602">
        <ele>113.6</ele>
        <time>2015-09-20T06:45:59Z</time>
      </trkpt>
      <trkpt lat="49.24743" lon="1.12602">
        <ele>113.1</ele>
        <time>2015-09-20T06:46:01Z</time>
      </trkpt>
      <trkpt lat="49.24753" lon="1.12599">
        <ele>112.7</ele>
        <time>2015-09-20T06:46:03Z</time>
      </trkpt>
      <trkpt lat="49.24764" lon="1.1259">
        <ele>112.2</ele>
        <time>2015-09-20T06:46:06Z</time>
      </trkpt>
      <trkpt lat="49.24776" lon="1.12586">
        <ele>111.9</ele>
        <time>2015-09-20T06:46:09Z</time>
      </trkpt>
      <trkpt lat="49.24788" lon="1.12582">
        <ele>111.5</ele>
        <time>2015-09-20T06:46:12Z</time>
      </trkpt>
      <trkpt lat="49.24799" lon="1.12578">
        <ele>111.4</ele>
        <time>2015-09-20T06:46:14Z</time>
      </trkpt>
      <trkpt lat="49.2481" lon="1.12576">
        <ele>111.1</ele>
        <time>2015-09-20T06:46:17Z</time>
      </trkpt>
      <trkpt lat="49.2482" lon="1.12573">
        <ele>110.9</ele>
        <time>2015-09-20T06:46:20Z</time>
      </trkpt>
      <trkpt lat="49.2483" lon="1.1257">
        <ele>110.7</ele>
        <time>2015-09-20T06:46:23Z</time>
      </trkpt>
      <trkpt lat="49.24842" lon="1.12565">
        <ele>110.5</ele>
        <time>2015-09-20T06:46:26Z</time>
      </trkpt>
      <trkpt lat="49.24852" lon="1.12561">
        <ele>110.2</ele>
        <time>2015-09-20T06:46:30Z</time>
      </trkpt>
      <trkpt lat="49.24861" lon="1.12552">
        <ele>109.9</ele>
        <time>2015-09-20T06:46:34Z</time>
      </trkpt>
      <trkpt lat="49.24873" lon="1.12543">
        <ele>109.7</ele>
        <time>2015-09-20T06:46:37Z</time>
      </trkpt>
      <trkpt lat="49.2488" lon="1.1253">
        <ele>109.4</ele>
        <time>2015-09-20T06:46:40Z</time>
      </trkpt>
      <trkpt lat="49.2489" lon="1.12525">
        <ele>108.9</ele>
        <time>2015-09-20T06:46:43Z</time>
      </trkpt>
      <trkpt lat="49.24897" lon="1.12513">
        <ele>108</ele>
        <time>2015-09-20T06:46:47Z</time>
      </trkpt>
      <trkpt lat="49.24907" lon="1.12511">
        <ele>106.6</ele>
        <time>2015-09-20T06:46:53Z</time>
      </trkpt>
      <trkpt lat="49.24917" lon="1.12502">
        <ele>105.4</ele>
        <time>2015-09-20T06:46:57Z</time>
      </trkpt>
      <trkpt lat="49.24926" lon="1.12492">
        <ele>103.8</ele>
        <time>2015-09-20T06:47:01Z</time>
      </trkpt>
      <trkpt lat="49.24934" lon="1.12482">
        <ele>102.4</ele>
        <time>2015-09-20T06:47:04Z</time>
      </trkpt>
      <trkpt lat="49.24944" lon="1.12471">
        <ele>100.7</ele>
        <time>2015-09-20T06:47:07Z</time>
      </trkpt>
      <trkpt lat="49.24953" lon="1.12463">
        <ele>99.2</ele>
        <time>2015-09-20T06:47:10Z</time>
      </trkpt>
      <trkpt lat="49.24957" lon="1.12449">
        <ele>97.2</ele>
        <time>2015-09-20T06:47:14Z</time>
      </trkpt>
      <trkpt lat="49.24958" lon="1.12433">
        <ele>95.9</ele>
        <time>2015-09-20T06:47:17Z</time>
      </trkpt>
      <trkpt lat="49.24963" lon="1.1242">
        <ele>95.1</ele>
        <time>2015-09-20T06:47:19Z</time>
      </trkpt>
      <trkpt lat="49.24968" lon="1.12403">
        <ele>94</ele>
        <time>2015-09-20T06:47:22Z</time>
      </trkpt>
      <trkpt lat="49.24975" lon="1.12387">
        <ele>93</ele>
        <time>2015-09-20T06:47:25Z</time>
      </trkpt>
      <trkpt lat="49.24982" lon="1.12374">
        <ele>92.2</ele>
        <time>2015-09-20T06:47:28Z</time>
      </trkpt>
      <trkpt lat="49.24989" lon="1.12362">
        <ele>91.4</ele>
        <time>2015-09-20T06:47:32Z</time>
      </trkpt>
      <trkpt lat="49.25" lon="1.12362">
        <ele>91.2</ele>
        <time>2015-09-20T06:47:37Z</time>
      </trkpt>
      <trkpt lat="49.25009" lon="1.12368">
        <ele>91.6</ele>
        <time>2015-09-20T06:47:42Z</time>
      </trkpt>
      <trkpt lat="49.25017" lon="1.12376">
        <ele>92.5</ele>
        <time>2015-09-20T06:47:47Z</time>
      </trkpt>
      <trkpt lat="49.25026" lon="1.12384">
        <ele>93.4</ele>
        <time>2015-09-20T06:47:51Z</time>
      </trkpt>
      <trkpt lat="49.25035" lon="1.12392">
        <ele>95</ele>
        <time>2015-09-20T06:47:57Z</time>
      </trkpt>
      <trkpt lat="49.25043" lon="1.12401">
        <ele>96.8</ele>
        <time>2015-09-20T06:48:03Z</time>
      </trkpt>
      <trkpt lat="49.25051" lon="1.12409">
        <ele>98.6</ele>
        <time>2015-09-20T06:48:09Z</time>
      </trkpt>
      <trkpt lat="49.25057" lon="1.1242">
        <ele>100</ele>
        <time>2015-09-20T06:48:14Z</time>
      </trkpt>
      <trkpt lat="49.25065" lon="1.1243">
        <ele>101.1</ele>
        <time>2015-09-20T06:48:18Z</time>
      </trkpt>
      <trkpt lat="49.25074" lon="1.12438">
        <ele>102.1</ele>
        <time>2015-09-20T06:48:22Z</time>
      </trkpt>
      <trkpt lat="49.2508" lon="1.12451">
        <ele>103.2</ele>
        <time>2015-09-20T06:48:27Z</time>
      </trkpt>
      <trkpt lat="49.25089" lon="1.12459">
        <ele>104.2</ele>
        <time>2015-09-20T06:48:32Z</time>
      </trkpt>
      <trkpt lat="49.25099" lon="1.12467">
        <ele>105.1</ele>
        <time>2015-09-20T06:48:36Z</time>
      </trkpt>
      <trkpt lat="49.25107" lon="1.12473">
        <ele>105.7</ele>
        <time>2015-09-20T06:48:39Z</time>
      </trkpt>
      <trkpt lat="49.25116" lon="1.12479">
        <ele>106.5</ele>
        <time>2015-09-20T06:48:43Z</time>
      </trkpt>
      <trkpt lat="49.25127" lon="1.12481">
        <ele>107.8</ele>
        <time>2015-09-20T06:48:48Z</time>
      </trkpt>
      <trkpt lat="49.25135" lon="1.12488">
        <ele>108.8</ele>
        <time>2015-09-20T06:48:52Z</time>
      </trkpt>
      <trkpt lat="49.25145" lon="1.12493">
        <ele>109.9</ele>
        <time>2015-09-20T06:48:57Z</time>
      </trkpt>
      <trkpt lat="49.25156" lon="1.12501">
        <ele>111</ele>
        <time>2015-09-20T06:49:02Z</time>
      </trkpt>
      <trkpt lat="49.25164" lon="1.12507">
        <ele>111.5</ele>
        <time>2015-09-20T06:49:05Z</time>
      </trkpt>
      <trkpt lat="49.25171" lon="1.12518">
        <ele>112</ele>
        <time>2015-09-20T06:49:09Z</time>
      </trkpt>
      <trkpt lat="49.25179" lon="1.12531">
        <ele>113.1</ele>
        <time>2015-09-20T06:49:13Z</time>
      </trkpt>
      <trkpt lat="49.25183" lon="1.12555">
        <ele>113.9</ele>
        <time>2015-09-20T06:49:19Z</time>
      </trkpt>
      <trkpt lat="49.25188" lon="1.12573">
        <ele>114.3</ele>
        <time>2015-09-20T06:49:22Z</time>
      </trkpt>
      <trkpt lat="49.25189" lon="1.12589">
        <ele>115</ele>
        <time>2015-09-20T06:49:26Z</time>
      </trkpt>
      <trkpt lat="49.25194" lon="1.12602">
        <ele>115.5</ele>
        <time>2015-09-20T06:49:30Z</time>
      </trkpt>
      <trkpt lat="49.25197" lon="1.12616">
        <ele>115.9</ele>
        <time>2015-09-20T06:49:33Z</time>
      </trkpt>
      <trkpt lat="49.252" lon="1.12634">
        <ele>116.4</ele>
        <time>2015-09-20T06:49:37Z</time>
      </trkpt>
      <trkpt lat="49.252" lon="1.12649">
        <ele>116.8</ele>
        <time>2015-09-20T06:49:41Z</time>
      </trkpt>
      <trkpt lat="49.25205" lon="1.12668">
        <ele>117.1</ele>
        <time>2015-09-20T06:49:44Z</time>
      </trkpt>
      <trkpt lat="49.25212" lon="1.1268">
        <ele>117.4</ele>
        <time>2015-09-20T06:49:47Z</time>
      </trkpt>
      <trkpt lat="49.25214" lon="1.12695">
        <ele>117.7</ele>
        <time>2015-09-20T06:49:51Z</time>
      </trkpt>
      <trkpt lat="49.25215" lon="1.12711">
        <ele>118</ele>
        <time>2015-09-20T06:49:54Z</time>
      </trkpt>
      <trkpt lat="49.25218" lon="1.12727">
        <ele>118.1</ele>
        <time>2015-09-20T06:49:57Z</time>
      </trkpt>
      <trkpt lat="49.25221" lon="1.12742">
        <ele>118.3</ele>
        <time>2015-09-20T06:50:00Z</time>
      </trkpt>
      <trkpt lat="49.25224" lon="1.12759">
        <ele>118.5</ele>
        <time>2015-09-20T06:50:03Z</time>
      </trkpt>
      <trkpt lat="49.25229" lon="1.12775">
        <ele>118.6</ele>
        <time>2015-09-20T06:50:06Z</time>
      </trkpt>
      <trkpt lat="49.25237" lon="1.1279">
        <ele>118.7</ele>
        <time>2015-09-20T06:50:09Z</time>
      </trkpt>
      <trkpt lat="49.25241" lon="1.12806">
        <ele>118.8</ele>
        <time>2015-09-20T06:50:12Z</time>
      </trkpt>
      <trkpt lat="49.25249" lon="1.12814">
        <ele>118.9</ele>
        <time>2015-09-20T06:50:15Z</time>
      </trkpt>
      <trkpt lat="49.25261" lon="1.12829">
        <ele>119</ele>
        <time>2015-09-20T06:50:18Z</time>
      </trkpt>
      <trkpt lat="49.25266" lon="1.12845">
        <ele>119.1</ele>
        <time>2015-09-20T06:50:20Z</time>
      </trkpt>
      <trkpt lat="49.25272" lon="1.12857">
        <ele>119.1</ele>
        <time>2015-09-20T06:50:22Z</time>
      </trkpt>
      <trkpt lat="49.25282" lon="1.12864">
        <ele>119.1</ele>
        <time>2015-09-20T06:50:24Z</time>
      </trkpt>
      <trkpt lat="49.25292" lon="1.12868">
        <ele>119.1</ele>
        <time>2015-09-20T06:50:26Z</time>
      </trkpt>
      <trkpt lat="49.25303" lon="1.12877">
        <ele>119</ele>
        <time>2015-09-20T06:50:29Z</time>
      </trkpt>
      <trkpt lat="49.25312" lon="1.12888">
        <ele>119.1</ele>
        <time>2015-09-20T06:50:32Z</time>
      </trkpt>
      <trkpt lat="49.25318" lon="1.12903">
        <ele>119.3</ele>
        <time>2015-09-20T06:50:35Z</time>
      </trkpt>
      <trkpt lat="49.25324" lon="1.12916">
        <ele>119.5</ele>
        <time>2015-09-20T06:50:38Z</time>
      </trkpt>
      <trkpt lat="49.25333" lon="1.1293">
        <ele>119.8</ele>
        <time>2015-09-20T06:50:41Z</time>
      </trkpt>
      <trkpt lat="49.2534" lon="1.12946">
        <ele>120</ele>
        <time>2015-09-20T06:50:44Z</time>
      </trkpt>
      <trkpt lat="49.25348" lon="1.1296">
        <ele>120.3</ele>
        <time>2015-09-20T06:50:47Z</time>
      </trkpt>
      <trkpt lat="49.25356" lon="1.12972">
        <ele>120.6</ele>
        <time>2015-09-20T06:50:50Z</time>
      </trkpt>
      <trkpt lat="49.25362" lon="1.12985">
        <ele>120.9</ele>
        <time>2015-09-20T06:50:53Z</time>
      </trkpt>
      <trkpt lat="49.2537" lon="1.12999">
        <ele>121.2</ele>
        <time>2015-09-20T06:50:56Z</time>
      </trkpt>
      <trkpt lat="49.25374" lon="1.13016">
        <ele>121.7</ele>
        <time>2015-09-20T06:51:00Z</time>
      </trkpt>
      <trkpt lat="49.25377" lon="1.13029">
        <ele>122</ele>
        <time>2015-09-20T06:51:03Z</time>
      </trkpt>
      <trkpt lat="49.25377" lon="1.13049">
        <ele>122.3</ele>
        <time>2015-09-20T06:51:06Z</time>
      </trkpt>
      <trkpt lat="49.25378" lon="1.13064">
        <ele>122.5</ele>
        <time>2015-09-20T06:51:09Z</time>
      </trkpt>
      <trkpt lat="49.25376" lon="1.13082">
        <ele>122.7</ele>
        <time>2015-09-20T06:51:12Z</time>
      </trkpt>
      <trkpt lat="49.25374" lon="1.131">
        <ele>122.9</ele>
        <time>2015-09-20T06:51:15Z</time>
      </trkpt>
      <trkpt lat="49.25377" lon="1.13113">
        <ele>123.1</ele>
        <time>2015-09-20T06:51:17Z</time>
      </trkpt>
      <trkpt lat="49.25378" lon="1.13131">
        <ele>123.4</ele>
        <time>2015-09-20T06:51:20Z</time>
      </trkpt>
      <trkpt lat="49.25377" lon="1.13149">
        <ele>123.7</ele>
        <time>2015-09-20T06:51:23Z</time>
      </trkpt>
      <trkpt lat="49.25378" lon="1.13164">
        <ele>124</ele>
        <time>2015-09-20T06:51:26Z</time>
      </trkpt>
      <trkpt lat="49.25381" lon="1.13177">
        <ele>124.3</ele>
        <time>2015-09-20T06:51:29Z</time>
      </trkpt>
      <trkpt lat="49.25385" lon="1.13194">
        <ele>124.7</ele>
        <time>2015-09-20T06:51:33Z</time>
      </trkpt>
      <trkpt lat="49.25381" lon="1.13208">
        <ele>125</ele>
        <time>2015-09-20T06:51:36Z</time>
      </trkpt>
      <trkpt lat="49.2539" lon="1.1322">
        <ele>125.2</ele>
        <time>2015-09-20T06:51:39Z</time>
      </trkpt>
      <trkpt lat="49.25401" lon="1.13225">
        <ele>125.5</ele>
        <time>2015-09-20T06:51:42Z</time>
      </trkpt>
      <trkpt lat="49.25411" lon="1.13231">
        <ele>125.9</ele>
        <time>2015-09-20T06:51:45Z</time>
      </trkpt>
      <trkpt lat="49.25423" lon="1.13237">
        <ele>126.3</ele>
        <time>2015-09-20T06:51:48Z</time>
      </trkpt>
      <trkpt lat="49.25434" lon="1.13243">
        <ele>126.6</ele>
        <time>2015-09-20T06:51:51Z</time>
      </trkpt>
      <trkpt lat="49.25447" lon="1.13249">
        <ele>127.1</ele>
        <time>2015-09-20T06:51:54Z</time>
      </trkpt>
      <trkpt lat="49.25457" lon="1.13254">
        <ele>127.5</ele>
        <time>2015-09-20T06:51:57Z</time>
      </trkpt>
      <trkpt lat="49.25467" lon="1.13259">
        <ele>127.8</ele>
        <time>2015-09-20T06:52:00Z</time>
      </trkpt>
      <trkpt lat="49.25479" lon="1.13264">
        <ele>128.1</ele>
        <time>2015-09-20T06:52:02Z</time>
      </trkpt>
      <trkpt lat="49.2549" lon="1.13269">
        <ele>128.6</ele>
        <time>2015-09-20T06:52:05Z</time>
      </trkpt>
      <trkpt lat="49.25501" lon="1.13276">
        <ele>128.9</ele>
        <time>2015-09-20T06:52:08Z</time>
      </trkpt>
      <trkpt lat="49.2551" lon="1.13281">
        <ele>129.5</ele>
        <time>2015-09-20T06:52:14Z</time>
      </trkpt>
      <trkpt lat="49.2552" lon="1.13279">
        <ele>130.3</ele>
        <time>2015-09-20T06:52:32Z</time>
      </trkpt>
      <trkpt lat="49.25517" lon="1.13266">
        <ele>130.6</ele>
        <time>2015-09-20T06:53:17Z</time>
      </trkpt>
      <trkpt lat="49.2552" lon="1.13252">
        <ele>130.2</ele>
        <time>2015-09-20T06:57:15Z</time>
      </trkpt>
      <trkpt lat="49.25522" lon="1.13237">
        <ele>130.2</ele>
        <time>2015-09-20T06:57:18Z</time>
      </trkpt>
      <trkpt lat="49.25524" lon="1.13221">
        <ele>130.2</ele>
        <time>2015-09-20T06:57:21Z</time>
      </trkpt>
      <trkpt lat="49.2553" lon="1.13203">
        <ele>130.2</ele>
        <time>2015-09-20T06:57:24Z</time>
      </trkpt>
      <trkpt lat="49.25532" lon="1.13186">
        <ele>130.3</ele>
        <time>2015-09-20T06:57:26Z</time>
      </trkpt>
      <trkpt lat="49.25534" lon="1.1317">
        <ele>130.3</ele>
        <time>2015-09-20T06:57:28Z</time>
      </trkpt>
      <trkpt lat="49.25538" lon="1.13156">
        <ele>130.3</ele>
        <time>2015-09-20T06:57:30Z</time>
      </trkpt>
      <trkpt lat="49.25542" lon="1.13141">
        <ele>130.3</ele>
        <time>2015-09-20T06:57:32Z</time>
      </trkpt>
      <trkpt lat="49.25545" lon="1.13125">
        <ele>130.3</ele>
        <time>2015-09-20T06:57:34Z</time>
      </trkpt>
      <trkpt lat="49.25547" lon="1.13108">
        <ele>130.3</ele>
        <time>2015-09-20T06:57:36Z</time>
      </trkpt>
      <trkpt lat="49.25551" lon="1.13092">
        <ele>130.3</ele>
        <time>2015-09-20T06:57:38Z</time>
      </trkpt>
      <trkpt lat="49.25554" lon="1.13077">
        <ele>130.3</ele>
        <time>2015-09-20T06:57:40Z</time>
      </trkpt>
      <trkpt lat="49.25557" lon="1.13061">
        <ele>130.3</ele>
        <time>2015-09-20T06:57:42Z</time>
      </trkpt>
      <trkpt lat="49.2556" lon="1.13045">
        <ele>130.4</ele>
        <time>2015-09-20T06:57:44Z</time>
      </trkpt>
      <trkpt lat="49.25563" lon="1.1303">
        <ele>130.4</ele>
        <time>2015-09-20T06:57:46Z</time>
      </trkpt>
      <trkpt lat="49.25566" lon="1.13015">
        <ele>130.4</ele>
        <time>2015-09-20T06:57:48Z</time>
      </trkpt>
      <trkpt lat="49.25569" lon="1.12998">
        <ele>130.3</ele>
        <time>2015-09-20T06:57:50Z</time>
      </trkpt>
      <trkpt lat="49.25572" lon="1.12982">
        <ele>130.3</ele>
        <time>2015-09-20T06:57:52Z</time>
      </trkpt>
      <trkpt lat="49.25574" lon="1.12966">
        <ele>130.3</ele>
        <time>2015-09-20T06:57:54Z</time>
      </trkpt>
      <trkpt lat="49.25577" lon="1.12948">
        <ele>130.3</ele>
        <time>2015-09-20T06:57:56Z</time>
      </trkpt>
      <trkpt lat="49.25581" lon="1.12931">
        <ele>130.3</ele>
        <time>2015-09-20T06:57:58Z</time>
      </trkpt>
      <trkpt lat="49.25584" lon="1.12914">
        <ele>130.2</ele>
        <time>2015-09-20T06:58:00Z</time>
      </trkpt>
      <trkpt lat="49.25588" lon="1.12897">
        <ele>130.2</ele>
        <time>2015-09-20T06:58:02Z</time>
      </trkpt>
      <trkpt lat="49.25592" lon="1.1288">
        <ele>130.1</ele>
        <time>2015-09-20T06:58:04Z</time>
      </trkpt>
      <trkpt lat="49.25595" lon="1.12863">
        <ele>130.1</ele>
        <time>2015-09-20T06:58:06Z</time>
      </trkpt>
      <trkpt lat="49.25598" lon="1.12847">
        <ele>130</ele>
        <time>2015-09-20T06:58:08Z</time>
      </trkpt>
      <trkpt lat="49.25602" lon="1.12831">
        <ele>129.9</ele>
        <time>2015-09-20T06:58:10Z</time>
      </trkpt>
      <trkpt lat="49.25605" lon="1.12815">
        <ele>129.9</ele>
        <time>2015-09-20T06:58:12Z</time>
      </trkpt>
      <trkpt lat="49.25608" lon="1.12799">
        <ele>129.8</ele>
        <time>2015-09-20T06:58:14Z</time>
      </trkpt>
      <trkpt lat="49.25611" lon="1.12785">
        <ele>129.8</ele>
        <time>2015-09-20T06:58:16Z</time>
      </trkpt>
      <trkpt lat="49.25614" lon="1.1277">
        <ele>129.8</ele>
        <time>2015-09-20T06:58:18Z</time>
      </trkpt>
      <trkpt lat="49.25617" lon="1.12756">
        <ele>129.8</ele>
        <time>2015-09-20T06:58:20Z</time>
      </trkpt>
      <trkpt lat="49.2562" lon="1.1274">
        <ele>129.7</ele>
        <time>2015-09-20T06:58:22Z</time>
      </trkpt>
      <trkpt lat="49.25623" lon="1.12724">
        <ele>129.7</ele>
        <time>2015-09-20T06:58:24Z</time>
      </trkpt>
      <trkpt lat="49.25626" lon="1.12708">
        <ele>129.7</ele>
        <time>2015-09-20T06:58:26Z</time>
      </trkpt>
      <trkpt lat="49.25629" lon="1.12692">
        <ele>129.7</ele>
        <time>2015-09-20T06:58:28Z</time>
      </trkpt>
      <trkpt lat="49.25632" lon="1.12676">
        <ele>129.7</ele>
        <time>2015-09-20T06:58:30Z</time>
      </trkpt>
      <trkpt lat="49.25635" lon="1.1266">
        <ele>129.7</ele>
        <time>2015-09-20T06:58:32Z</time>
      </trkpt>
      <trkpt lat="49.25638" lon="1.12644">
        <ele>129.7</ele>
        <time>2015-09-20T06:58:34Z</time>
      </trkpt>
      <trkpt lat="49.25641" lon="1.12628">
        <ele>129.7</ele>
        <time>2015-09-20T06:58:36Z</time>
      </trkpt>
      <trkpt lat="49.25645" lon="1.12613">
        <ele>129.7</ele>
        <time>2015-09-20T06:58:38Z</time>
      </trkpt>
      <trkpt lat="49.25648" lon="1.12597">
        <ele>129.7</ele>
        <time>2015-09-20T06:58:40Z</time>
      </trkpt>
      <trkpt lat="49.25651" lon="1.12581">
        <ele>129.7</ele>
        <time>2015-09-20T06:58:42Z</time>
      </trkpt>
      <trkpt lat="49.25654" lon="1.12564">
        <ele>129.7</ele>
        <time>2015-09-20T06:58:44Z</time>
      </trkpt>
      <trkpt lat="49.25658" lon="1.12548">
        <ele>129.7</ele>
        <time>2015-09-20T06:58:46Z</time>
      </trkpt>
      <trkpt lat="49.25661" lon="1.12532">
        <ele>129.8</ele>
        <time>2015-09-20T06:58:48Z</time>
      </trkpt>
      <trkpt lat="49.25664" lon="1.12516">
        <ele>129.8</ele>
        <time>2015-09-20T06:58:50Z</time>
      </trkpt>
      <trkpt lat="49.25667" lon="1.12499">
        <ele>129.8</ele>
        <time>2015-09-20T06:58:52Z</time>
      </trkpt>
      <trkpt lat="49.2567" lon="1.12482">
        <ele>129.8</ele>
        <time>2015-09-20T06:58:54Z</time>
      </trkpt>
      <trkpt lat="49.25674" lon="1.12466">
        <ele>129.8</ele>
        <time>2015-09-20T06:58:56Z</time>
      </trkpt>
      <trkpt lat="49.25677" lon="1.12449">
        <ele>129.8</ele>
        <time>2015-09-20T06:58:58Z</time>
      </trkpt>
      <trkpt lat="49.25681" lon="1.12432">
        <ele>129.9</ele>
        <time>2015-09-20T06:59:00Z</time>
      </trkpt>
      <trkpt lat="49.25684" lon="1.12416">
        <ele>129.9</ele>
        <time>2015-09-20T06:59:02Z</time>
      </trkpt>
      <trkpt lat="49.25688" lon="1.124">
        <ele>129.9</ele>
        <time>2015-09-20T06:59:04Z</time>
      </trkpt>
      <trkpt lat="49.25691" lon="1.12382">
        <ele>129.9</ele>
        <time>2015-09-20T06:59:06Z</time>
      </trkpt>
      <trkpt lat="49.25694" lon="1.12365">
        <ele>129.9</ele>
        <time>2015-09-20T06:59:08Z</time>
      </trkpt>
      <trkpt lat="49.25697" lon="1.12347">
        <ele>129.9</ele>
        <time>2015-09-20T06:59:10Z</time>
      </trkpt>
      <trkpt lat="49.25701" lon="1.12329">
        <ele>129.8</ele>
        <time>2015-09-20T06:59:12Z</time>
      </trkpt>
      <trkpt lat="49.25704" lon="1.12311">
        <ele>129.6</ele>
        <time>2015-09-20T06:59:14Z</time>
      </trkpt>
      <trkpt lat="49.25708" lon="1.12293">
        <ele>129.4</ele>
        <time>2015-09-20T06:59:16Z</time>
      </trkpt>
      <trkpt lat="49.25711" lon="1.12275">
        <ele>129.2</ele>
        <time>2015-09-20T06:59:18Z</time>
      </trkpt>
      <trkpt lat="49.25714" lon="1.12256">
        <ele>129</ele>
        <time>2015-09-20T06:59:20Z</time>
      </trkpt>
      <trkpt lat="49.25717" lon="1.12237">
        <ele>128.9</ele>
        <time>2015-09-20T06:59:22Z</time>
      </trkpt>
      <trkpt lat="49.2572" lon="1.12218">
        <ele>128.7</ele>
        <time>2015-09-20T06:59:24Z</time>
      </trkpt>
      <trkpt lat="49.25724" lon="1.122">
        <ele>128.5</ele>
        <time>2015-09-20T06:59:26Z</time>
      </trkpt>
      <trkpt lat="49.2573" lon="1.12182">
        <ele>128.2</ele>
        <time>2015-09-20T06:59:28Z</time>
      </trkpt>
      <trkpt lat="49.2574" lon="1.12171">
        <ele>128</ele>
        <time>2015-09-20T06:59:30Z</time>
      </trkpt>
      <trkpt lat="49.25752" lon="1.12168">
        <ele>127.8</ele>
        <time>2015-09-20T06:59:32Z</time>
      </trkpt>
      <trkpt lat="49.25764" lon="1.12167">
        <ele>127.6</ele>
        <time>2015-09-20T06:59:34Z</time>
      </trkpt>
      <trkpt lat="49.25775" lon="1.12165">
        <ele>127.4</ele>
        <time>2015-09-20T06:59:36Z</time>
      </trkpt>
      <trkpt lat="49.25787" lon="1.12159">
        <ele>127.2</ele>
        <time>2015-09-20T06:59:38Z</time>
      </trkpt>
      <trkpt lat="49.25797" lon="1.12149">
        <ele>127</ele>
        <time>2015-09-20T06:59:40Z</time>
      </trkpt>
      <trkpt lat="49.25806" lon="1.12137">
        <ele>126.8</ele>
        <time>2015-09-20T06:59:42Z</time>
      </trkpt>
      <trkpt lat="49.25816" lon="1.12125">
        <ele>126.6</ele>
        <time>2015-09-20T06:59:44Z</time>
      </trkpt>
      <trkpt lat="49.25826" lon="1.12115">
        <ele>126.4</ele>
        <time>2015-09-20T06:59:46Z</time>
      </trkpt>
      <trkpt lat="49.25837" lon="1.12106">
        <ele>126.3</ele>
        <time>2015-09-20T06:59:48Z</time>
      </trkpt>
      <trkpt lat="49.25847" lon="1.12096">
        <ele>126</ele>
        <time>2015-09-20T06:59:50Z</time>
      </trkpt>
      <trkpt lat="49.25853" lon="1.12084">
        <ele>125.6</ele>
        <time>2015-09-20T06:59:52Z</time>
      </trkpt>
      <trkpt lat="49.2585" lon="1.12065">
        <ele>124.9</ele>
        <time>2015-09-20T06:59:55Z</time>
      </trkpt>
      <trkpt lat="49.25845" lon="1.12049">
        <ele>124.4</ele>
        <time>2015-09-20T06:59:57Z</time>
      </trkpt>
      <trkpt lat="49.25842" lon="1.12032">
        <ele>123.7</ele>
        <time>2015-09-20T06:59:59Z</time>
      </trkpt>
      <trkpt lat="49.25842" lon="1.12013">
        <ele>123.2</ele>
        <time>2015-09-20T07:00:01Z</time>
      </trkpt>
      <trkpt lat="49.25845" lon="1.11996">
        <ele>122.7</ele>
        <time>2015-09-20T07:00:03Z</time>
      </trkpt>
      <trkpt lat="49.25849" lon="1.1198">
        <ele>122.3</ele>
        <time>2015-09-20T07:00:05Z</time>
      </trkpt>
      <trkpt lat="49.25853" lon="1.11965">
        <ele>121.9</ele>
        <time>2015-09-20T07:00:07Z</time>
      </trkpt>
      <trkpt lat="49.25857" lon="1.11953">
        <ele>121.5</ele>
        <time>2015-09-20T07:00:09Z</time>
      </trkpt>
      <trkpt lat="49.25862" lon="1.11941">
        <ele>121.4</ele>
        <time>2015-09-20T07:00:11Z</time>
      </trkpt>
      <trkpt lat="49.25868" lon="1.11923">
        <ele>121.3</ele>
        <time>2015-09-20T07:00:14Z</time>
      </trkpt>
      <trkpt lat="49.25872" lon="1.11907">
        <ele>121.3</ele>
        <time>2015-09-20T07:00:17Z</time>
      </trkpt>
      <trkpt lat="49.25877" lon="1.11891">
        <ele>121.4</ele>
        <time>2015-09-20T07:00:20Z</time>
      </trkpt>
      <trkpt lat="49.2588" lon="1.11872">
        <ele>121.6</ele>
        <time>2015-09-20T07:00:23Z</time>
      </trkpt>
      <trkpt lat="49.25883" lon="1.11853">
        <ele>121.9</ele>
        <time>2015-09-20T07:00:26Z</time>
      </trkpt>
      <trkpt lat="49.25887" lon="1.11833">
        <ele>122.2</ele>
        <time>2015-09-20T07:00:29Z</time>
      </trkpt>
      <trkpt lat="49.2589" lon="1.11814">
        <ele>122.5</ele>
        <time>2015-09-20T07:00:32Z</time>
      </trkpt>
      <trkpt lat="49.25894" lon="1.11794">
        <ele>122.8</ele>
        <time>2015-09-20T07:00:35Z</time>
      </trkpt>
      <trkpt lat="49.25897" lon="1.11781">
        <ele>123</ele>
        <time>2015-09-20T07:00:37Z</time>
      </trkpt>
      <trkpt lat="49.25899" lon="1.11767">
        <ele>123.2</ele>
        <time>2015-09-20T07:00:39Z</time>
      </trkpt>
      <trkpt lat="49.25902" lon="1.11754">
        <ele>123.3</ele>
        <time>2015-09-20T07:00:41Z</time>
      </trkpt>
      <trkpt lat="49.25904" lon="1.1174">
        <ele>123.5</ele>
        <time>2015-09-20T07:00:43Z</time>
      </trkpt>
      <trkpt lat="49.25906" lon="1.11726">
        <ele>123.7</ele>
        <time>2015-09-20T07:00:45Z</time>
      </trkpt>
      <trkpt lat="49.25909" lon="1.11713">
        <ele>123.8</ele>
        <time>2015-09-20T07:00:47Z</time>
      </trkpt>
      <trkpt lat="49.25912" lon="1.11692">
        <ele>124</ele>
        <time>2015-09-20T07:00:50Z</time>
      </trkpt>
      <trkpt lat="49.25914" lon="1.11678">
        <ele>124.1</ele>
        <time>2015-09-20T07:00:52Z</time>
      </trkpt>
      <trkpt lat="49.25917" lon="1.11663">
        <ele>124.2</ele>
        <time>2015-09-20T07:00:54Z</time>
      </trkpt>
      <trkpt lat="49.25919" lon="1.11649">
        <ele>124.4</ele>
        <time>2015-09-20T07:00:56Z</time>
      </trkpt>
      <trkpt lat="49.25922" lon="1.11636">
        <ele>124.6</ele>
        <time>2015-09-20T07:00:58Z</time>
      </trkpt>
      <trkpt lat="49.25924" lon="1.11623">
        <ele>124.8</ele>
        <time>2015-09-20T07:01:00Z</time>
      </trkpt>
      <trkpt lat="49.25928" lon="1.11602">
        <ele>125</ele>
        <time>2015-09-20T07:01:03Z</time>
      </trkpt>
      <trkpt lat="49.25931" lon="1.11589">
        <ele>125.1</ele>
        <time>2015-09-20T07:01:05Z</time>
      </trkpt>
      <trkpt lat="49.25934" lon="1.11575">
        <ele>125.2</ele>
        <time>2015-09-20T07:01:07Z</time>
      </trkpt>
      <trkpt lat="49.25937" lon="1.11561">
        <ele>125.4</ele>
        <time>2015-09-20T07:01:09Z</time>
      </trkpt>
      <trkpt lat="49.25939" lon="1.11548">
        <ele>125.6</ele>
        <time>2015-09-20T07:01:11Z</time>
      </trkpt>
      <trkpt lat="49.25944" lon="1.11528">
        <ele>125.9</ele>
        <time>2015-09-20T07:01:14Z</time>
      </trkpt>
      <trkpt lat="49.25946" lon="1.11515">
        <ele>126.1</ele>
        <time>2015-09-20T07:01:16Z</time>
      </trkpt>
      <trkpt lat="49.25951" lon="1.11495">
        <ele>126.4</ele>
        <time>2015-09-20T07:01:19Z</time>
      </trkpt>
      <trkpt lat="49.25955" lon="1.11482">
        <ele>126.6</ele>
        <time>2015-09-20T07:01:21Z</time>
      </trkpt>
      <trkpt lat="49.25959" lon="1.11469">
        <ele>126.9</ele>
        <time>2015-09-20T07:01:23Z</time>
      </trkpt>
      <trkpt lat="49.25962" lon="1.11456">
        <ele>127.1</ele>
        <time>2015-09-20T07:01:25Z</time>
      </trkpt>
      <trkpt lat="49.25966" lon="1.11443">
        <ele>127.3</ele>
        <time>2015-09-20T07:01:27Z</time>
      </trkpt>
      <trkpt lat="49.2597" lon="1.1143">
        <ele>127.5</ele>
        <time>2015-09-20T07:01:29Z</time>
      </trkpt>
      <trkpt lat="49.25975" lon="1.11418">
        <ele>127.7</ele>
        <time>2015-09-20T07:01:31Z</time>
      </trkpt>
      <trkpt lat="49.2598" lon="1.11406">
        <ele>127.9</ele>
        <time>2015-09-20T07:01:33Z</time>
      </trkpt>
      <trkpt lat="49.25985" lon="1.11393">
        <ele>128.1</ele>
        <time>2015-09-20T07:01:35Z</time>
      </trkpt>
      <trkpt lat="49.2599" lon="1.11381">
        <ele>128.3</ele>
        <time>2015-09-20T07:01:37Z</time>
      </trkpt>
      <trkpt lat="49.25994" lon="1.11369">
        <ele>128.5</ele>
        <time>2015-09-20T07:01:39Z</time>
      </trkpt>
      <trkpt lat="49.26002" lon="1.11356">
        <ele>128.7</ele>
        <time>2015-09-20T07:01:42Z</time>
      </trkpt>
      <trkpt lat="49.26015" lon="1.1136">
        <ele>129</ele>
        <time>2015-09-20T07:01:45Z</time>
      </trkpt>
      <trkpt lat="49.26024" lon="1.11358">
        <ele>129.2</ele>
        <time>2015-09-20T07:01:47Z</time>
      </trkpt>
      <trkpt lat="49.26033" lon="1.11347">
        <ele>129.3</ele>
        <time>2015-09-20T07:01:49Z</time>
      </trkpt>
      <trkpt lat="49.26039" lon="1.11333">
        <ele>129.5</ele>
        <time>2015-09-20T07:01:51Z</time>
      </trkpt>
      <trkpt lat="49.26044" lon="1.11318">
        <ele>129.7</ele>
        <time>2015-09-20T07:01:53Z</time>
      </trkpt>
      <trkpt lat="49.26049" lon="1.11303">
        <ele>129.8</ele>
        <time>2015-09-20T07:01:55Z</time>
      </trkpt>
      <trkpt lat="49.26055" lon="1.11288">
        <ele>129.9</ele>
        <time>2015-09-20T07:01:57Z</time>
      </trkpt>
      <trkpt lat="49.2606" lon="1.11274">
        <ele>130</ele>
        <time>2015-09-20T07:01:59Z</time>
      </trkpt>
      <trkpt lat="49.26066" lon="1.11259">
        <ele>130.1</ele>
        <time>2015-09-20T07:02:01Z</time>
      </trkpt>
      <trkpt lat="49.26071" lon="1.11244">
        <ele>130.2</ele>
        <time>2015-09-20T07:02:03Z</time>
      </trkpt>
      <trkpt lat="49.26076" lon="1.1123">
        <ele>130.2</ele>
        <time>2015-09-20T07:02:05Z</time>
      </trkpt>
      <trkpt lat="49.26081" lon="1.11215">
        <ele>130.3</ele>
        <time>2015-09-20T07:02:07Z</time>
      </trkpt>
      <trkpt lat="49.26086" lon="1.112">
        <ele>130.4</ele>
        <time>2015-09-20T07:02:09Z</time>
      </trkpt>
      <trkpt lat="49.26091" lon="1.11185">
        <ele>130.6</ele>
        <time>2015-09-20T07:02:11Z</time>
      </trkpt>
      <trkpt lat="49.26096" lon="1.11171">
        <ele>130.7</ele>
        <time>2015-09-20T07:02:13Z</time>
      </trkpt>
      <trkpt lat="49.26101" lon="1.11157">
        <ele>130.9</ele>
        <time>2015-09-20T07:02:15Z</time>
      </trkpt>
      <trkpt lat="49.26106" lon="1.11142">
        <ele>131.1</ele>
        <time>2015-09-20T07:02:17Z</time>
      </trkpt>
      <trkpt lat="49.26111" lon="1.11128">
        <ele>131.2</ele>
        <time>2015-09-20T07:02:19Z</time>
      </trkpt>
      <trkpt lat="49.26117" lon="1.11114">
        <ele>131.5</ele>
        <time>2015-09-20T07:02:21Z</time>
      </trkpt>
      <trkpt lat="49.26123" lon="1.111">
        <ele>131.7</ele>
        <time>2015-09-20T07:02:23Z</time>
      </trkpt>
      <trkpt lat="49.26128" lon="1.11085">
        <ele>131.8</ele>
        <time>2015-09-20T07:02:25Z</time>
      </trkpt>
      <trkpt lat="49.26135" lon="1.1107">
        <ele>132.1</ele>
        <time>2015-09-20T07:02:27Z</time>
      </trkpt>
      <trkpt lat="49.26141" lon="1.11056">
        <ele>132.3</ele>
        <time>2015-09-20T07:02:29Z</time>
      </trkpt>
      <trkpt lat="49.26147" lon="1.11042">
        <ele>132.6</ele>
        <time>2015-09-20T07:02:31Z</time>
      </trkpt>
      <trkpt lat="49.26152" lon="1.11028">
        <ele>132.8</ele>
        <time>2015-09-20T07:02:33Z</time>
      </trkpt>
      <trkpt lat="49.26157" lon="1.11014">
        <ele>133.1</ele>
        <time>2015-09-20T07:02:35Z</time>
      </trkpt>
      <trkpt lat="49.26163" lon="1.11">
        <ele>133.4</ele>
        <time>2015-09-20T07:02:37Z</time>
      </trkpt>
      <trkpt lat="49.26169" lon="1.10987">
        <ele>133.7</ele>
        <time>2015-09-20T07:02:39Z</time>
      </trkpt>
      <trkpt lat="49.26175" lon="1.10974">
        <ele>133.9</ele>
        <time>2015-09-20T07:02:41Z</time>
      </trkpt>
      <trkpt lat="49.26181" lon="1.10961">
        <ele>134.2</ele>
        <time>2015-09-20T07:02:43Z</time>
      </trkpt>
      <trkpt lat="49.26186" lon="1.10949">
        <ele>134.5</ele>
        <time>2015-09-20T07:02:45Z</time>
      </trkpt>
      <trkpt lat="49.26191" lon="1.10935">
        <ele>134.8</ele>
        <time>2015-09-20T07:02:47Z</time>
      </trkpt>
      <trkpt lat="49.26195" lon="1.1092">
        <ele>135.1</ele>
        <time>2015-09-20T07:02:49Z</time>
      </trkpt>
      <trkpt lat="49.262" lon="1.10905">
        <ele>135.3</ele>
        <time>2015-09-20T07:02:51Z</time>
      </trkpt>
      <trkpt lat="49.26206" lon="1.10891">
        <ele>135.5</ele>
        <time>2015-09-20T07:02:53Z</time>
      </trkpt>
      <trkpt lat="49.26213" lon="1.10879">
        <ele>135.7</ele>
        <time>2015-09-20T07:02:55Z</time>
      </trkpt>
      <trkpt lat="49.2622" lon="1.10866">
        <ele>135.9</ele>
        <time>2015-09-20T07:02:57Z</time>
      </trkpt>
      <trkpt lat="49.26227" lon="1.10853">
        <ele>136.1</ele>
        <time>2015-09-20T07:02:59Z</time>
      </trkpt>
      <trkpt lat="49.26235" lon="1.10841">
        <ele>136.3</ele>
        <time>2015-09-20T07:03:01Z</time>
      </trkpt>
      <trkpt lat="49.26243" lon="1.10829">
        <ele>136.5</ele>
        <time>2015-09-20T07:03:03Z</time>
      </trkpt>
      <trkpt lat="49.2625" lon="1.10817">
        <ele>136.7</ele>
        <time>2015-09-20T07:03:05Z</time>
      </trkpt>
      <trkpt lat="49.26258" lon="1.10805">
        <ele>136.9</ele>
        <time>2015-09-20T07:03:07Z</time>
      </trkpt>
      <trkpt lat="49.26266" lon="1.10793">
        <ele>137.1</ele>
        <time>2015-09-20T07:03:09Z</time>
      </trkpt>
      <trkpt lat="49.26274" lon="1.10781">
        <ele>137.3</ele>
        <time>2015-09-20T07:03:11Z</time>
      </trkpt>
      <trkpt lat="49.26283" lon="1.10768">
        <ele>137.5</ele>
        <time>2015-09-20T07:03:13Z</time>
      </trkpt>
      <trkpt lat="49.26291" lon="1.10756">
        <ele>137.7</ele>
        <time>2015-09-20T07:03:15Z</time>
      </trkpt>
      <trkpt lat="49.26299" lon="1.10744">
        <ele>137.9</ele>
        <time>2015-09-20T07:03:17Z</time>
      </trkpt>
      <trkpt lat="49.26307" lon="1.10731">
        <ele>138.2</ele>
        <time>2015-09-20T07:03:19Z</time>
      </trkpt>
      <trkpt lat="49.26316" lon="1.10718">
        <ele>138.4</ele>
        <time>2015-09-20T07:03:21Z</time>
      </trkpt>
      <trkpt lat="49.26325" lon="1.10705">
        <ele>138.5</ele>
        <time>2015-09-20T07:03:23Z</time>
      </trkpt>
      <trkpt lat="49.26334" lon="1.10691">
        <ele>138.7</ele>
        <time>2015-09-20T07:03:25Z</time>
      </trkpt>
      <trkpt lat="49.26343" lon="1.10678">
        <ele>138.8</ele>
        <time>2015-09-20T07:03:27Z</time>
      </trkpt>
      <trkpt lat="49.26352" lon="1.10665">
        <ele>138.9</ele>
        <time>2015-09-20T07:03:29Z</time>
      </trkpt>
      <trkpt lat="49.26361" lon="1.10652">
        <ele>139</ele>
        <time>2015-09-20T07:03:31Z</time>
      </trkpt>
      <trkpt lat="49.2637" lon="1.10638">
        <ele>139.1</ele>
        <time>2015-09-20T07:03:33Z</time>
      </trkpt>
      <trkpt lat="49.26379" lon="1.10625">
        <ele>139.2</ele>
        <time>2015-09-20T07:03:35Z</time>
      </trkpt>
      <trkpt lat="49.26389" lon="1.10612">
        <ele>139.3</ele>
        <time>2015-09-20T07:03:37Z</time>
      </trkpt>
      <trkpt lat="49.26398" lon="1.10599">
        <ele>139.3</ele>
        <time>2015-09-20T07:03:39Z</time>
      </trkpt>
      <trkpt lat="49.26407" lon="1.10586">
        <ele>139.4</ele>
        <time>2015-09-20T07:03:41Z</time>
      </trkpt>
      <trkpt lat="49.26416" lon="1.10574">
        <ele>139.4</ele>
        <time>2015-09-20T07:03:43Z</time>
      </trkpt>
      <trkpt lat="49.26425" lon="1.10561">
        <ele>139.5</ele>
        <time>2015-09-20T07:03:45Z</time>
      </trkpt>
      <trkpt lat="49.26435" lon="1.10548">
        <ele>139.5</ele>
        <time>2015-09-20T07:03:47Z</time>
      </trkpt>
      <trkpt lat="49.26444" lon="1.10536">
        <ele>139.5</ele>
        <time>2015-09-20T07:03:49Z</time>
      </trkpt>
      <trkpt lat="49.26452" lon="1.10522">
        <ele>139.5</ele>
        <time>2015-09-20T07:03:51Z</time>
      </trkpt>
      <trkpt lat="49.26461" lon="1.1051">
        <ele>139.5</ele>
        <time>2015-09-20T07:03:53Z</time>
      </trkpt>
      <trkpt lat="49.2647" lon="1.10496">
        <ele>139.5</ele>
        <time>2015-09-20T07:03:55Z</time>
      </trkpt>
      <trkpt lat="49.26479" lon="1.10482">
        <ele>139.5</ele>
        <time>2015-09-20T07:03:57Z</time>
      </trkpt>
      <trkpt lat="49.26489" lon="1.10468">
        <ele>139.5</ele>
        <time>2015-09-20T07:03:59Z</time>
      </trkpt>
      <trkpt lat="49.26498" lon="1.10455">
        <ele>139.5</ele>
        <time>2015-09-20T07:04:01Z</time>
      </trkpt>
      <trkpt lat="49.26507" lon="1.10441">
        <ele>139.5</ele>
        <time>2015-09-20T07:04:03Z</time>
      </trkpt>
      <trkpt lat="49.26516" lon="1.10427">
        <ele>139.5</ele>
        <time>2015-09-20T07:04:05Z</time>
      </trkpt>
      <trkpt lat="49.26524" lon="1.1041">
        <ele>139.5</ele>
        <time>2015-09-20T07:04:07Z</time>
      </trkpt>
      <trkpt lat="49.26532" lon="1.10393">
        <ele>139.5</ele>
        <time>2015-09-20T07:04:09Z</time>
      </trkpt>
      <trkpt lat="49.26537" lon="1.10375">
        <ele>139.5</ele>
        <time>2015-09-20T07:04:11Z</time>
      </trkpt>
      <trkpt lat="49.26542" lon="1.10355">
        <ele>139.5</ele>
        <time>2015-09-20T07:04:13Z</time>
      </trkpt>
      <trkpt lat="49.26547" lon="1.10337">
        <ele>139.5</ele>
        <time>2015-09-20T07:04:15Z</time>
      </trkpt>
      <trkpt lat="49.26552" lon="1.10318">
        <ele>139.5</ele>
        <time>2015-09-20T07:04:17Z</time>
      </trkpt>
      <trkpt lat="49.26558" lon="1.10299">
        <ele>139.5</ele>
        <time>2015-09-20T07:04:19Z</time>
      </trkpt>
      <trkpt lat="49.26566" lon="1.10284">
        <ele>139.4</ele>
        <time>2015-09-20T07:04:21Z</time>
      </trkpt>
      <trkpt lat="49.26575" lon="1.10269">
        <ele>139.4</ele>
        <time>2015-09-20T07:04:23Z</time>
      </trkpt>
      <trkpt lat="49.26584" lon="1.10255">
        <ele>139.3</ele>
        <time>2015-09-20T07:04:25Z</time>
      </trkpt>
      <trkpt lat="49.2659" lon="1.10239">
        <ele>139.2</ele>
        <time>2015-09-20T07:04:27Z</time>
      </trkpt>
      <trkpt lat="49.26593" lon="1.10221">
        <ele>139.1</ele>
        <time>2015-09-20T07:04:29Z</time>
      </trkpt>
      <trkpt lat="49.26595" lon="1.10205">
        <ele>138.9</ele>
        <time>2015-09-20T07:04:31Z</time>
      </trkpt>
      <trkpt lat="49.26596" lon="1.10187">
        <ele>138.8</ele>
        <time>2015-09-20T07:04:33Z</time>
      </trkpt>
      <trkpt lat="49.26597" lon="1.1017">
        <ele>138.6</ele>
        <time>2015-09-20T07:04:35Z</time>
      </trkpt>
      <trkpt lat="49.26598" lon="1.10151">
        <ele>138.3</ele>
        <time>2015-09-20T07:04:37Z</time>
      </trkpt>
      <trkpt lat="49.26597" lon="1.10131">
        <ele>138.1</ele>
        <time>2015-09-20T07:04:39Z</time>
      </trkpt>
      <trkpt lat="49.26597" lon="1.10108">
        <ele>137.8</ele>
        <time>2015-09-20T07:04:41Z</time>
      </trkpt>
      <trkpt lat="49.26597" lon="1.10087">
        <ele>137.6</ele>
        <time>2015-09-20T07:04:43Z</time>
      </trkpt>
      <trkpt lat="49.26594" lon="1.10069">
        <ele>137.3</ele>
        <time>2015-09-20T07:04:45Z</time>
      </trkpt>
      <trkpt lat="49.26589" lon="1.10057">
        <ele>137</ele>
        <time>2015-09-20T07:04:47Z</time>
      </trkpt>
      <trkpt lat="49.2658" lon="1.10047">
        <ele>136.8</ele>
        <time>2015-09-20T07:04:49Z</time>
      </trkpt>
      <trkpt lat="49.26569" lon="1.1004">
        <ele>136.5</ele>
        <time>2015-09-20T07:04:51Z</time>
      </trkpt>
      <trkpt lat="49.26555" lon="1.10036">
        <ele>136.2</ele>
        <time>2015-09-20T07:04:53Z</time>
      </trkpt>
      <trkpt lat="49.26545" lon="1.10033">
        <ele>136</ele>
        <time>2015-09-20T07:04:55Z</time>
      </trkpt>
      <trkpt lat="49.2653" lon="1.10029">
        <ele>135.8</ele>
        <time>2015-09-20T07:04:57Z</time>
      </trkpt>
      <trkpt lat="49.26518" lon="1.10024">
        <ele>135.5</ele>
        <time>2015-09-20T07:04:59Z</time>
      </trkpt>
      <trkpt lat="49.26508" lon="1.10013">
        <ele>135.2</ele>
        <time>2015-09-20T07:05:01Z</time>
      </trkpt>
      <trkpt lat="49.26502" lon="1.1">
        <ele>134.9</ele>
        <time>2015-09-20T07:05:03Z</time>
      </trkpt>
      <trkpt lat="49.26495" lon="1.09987">
        <ele>134.6</ele>
        <time>2015-09-20T07:05:05Z</time>
      </trkpt>
      <trkpt lat="49.26485" lon="1.09973">
        <ele>134.4</ele>
        <time>2015-09-20T07:05:07Z</time>
      </trkpt>
      <trkpt lat="49.26474" lon="1.09961">
        <ele>134.1</ele>
        <time>2015-09-20T07:05:09Z</time>
      </trkpt>
      <trkpt lat="49.26468" lon="1.0995">
        <ele>133.9</ele>
        <time>2015-09-20T07:05:11Z</time>
      </trkpt>
      <trkpt lat="49.26464" lon="1.09931">
        <ele>133.3</ele>
        <time>2015-09-20T07:05:15Z</time>
      </trkpt>
      <trkpt lat="49.2646" lon="1.09917">
        <ele>133</ele>
        <time>2015-09-20T07:05:17Z</time>
      </trkpt>
      <trkpt lat="49.26456" lon="1.09898">
        <ele>132.6</ele>
        <time>2015-09-20T07:05:20Z</time>
      </trkpt>
      <trkpt lat="49.26454" lon="1.0988">
        <ele>132.4</ele>
        <time>2015-09-20T07:05:22Z</time>
      </trkpt>
      <trkpt lat="49.26454" lon="1.09856">
        <ele>132</ele>
        <time>2015-09-20T07:05:25Z</time>
      </trkpt>
      <trkpt lat="49.26445" lon="1.09837">
        <ele>131.7</ele>
        <time>2015-09-20T07:05:27Z</time>
      </trkpt>
      <trkpt lat="49.26439" lon="1.09819">
        <ele>131.2</ele>
        <time>2015-09-20T07:05:30Z</time>
      </trkpt>
      <trkpt lat="49.26435" lon="1.09795">
        <ele>130.4</ele>
        <time>2015-09-20T07:05:33Z</time>
      </trkpt>
      <trkpt lat="49.26432" lon="1.09775">
        <ele>129.9</ele>
        <time>2015-09-20T07:05:35Z</time>
      </trkpt>
      <trkpt lat="49.26432" lon="1.09752">
        <ele>129.4</ele>
        <time>2015-09-20T07:05:37Z</time>
      </trkpt>
      <trkpt lat="49.26436" lon="1.09731">
        <ele>128.8</ele>
        <time>2015-09-20T07:05:39Z</time>
      </trkpt>
      <trkpt lat="49.26438" lon="1.0971">
        <ele>128.1</ele>
        <time>2015-09-20T07:05:41Z</time>
      </trkpt>
      <trkpt lat="49.26439" lon="1.09692">
        <ele>127.3</ele>
        <time>2015-09-20T07:05:43Z</time>
      </trkpt>
      <trkpt lat="49.26441" lon="1.09672">
        <ele>126.6</ele>
        <time>2015-09-20T07:05:45Z</time>
      </trkpt>
      <trkpt lat="49.26441" lon="1.09656">
        <ele>125.8</ele>
        <time>2015-09-20T07:05:47Z</time>
      </trkpt>
      <trkpt lat="49.2644" lon="1.09637">
        <ele>125</ele>
        <time>2015-09-20T07:05:49Z</time>
      </trkpt>
      <trkpt lat="49.26439" lon="1.09621">
        <ele>124.6</ele>
        <time>2015-09-20T07:05:50Z</time>
      </trkpt>
      <trkpt lat="49.26436" lon="1.09601">
        <ele>123.8</ele>
        <time>2015-09-20T07:05:52Z</time>
      </trkpt>
      <trkpt lat="49.26433" lon="1.09579">
        <ele>122.8</ele>
        <time>2015-09-20T07:05:54Z</time>
      </trkpt>
      <trkpt lat="49.26432" lon="1.09554">
        <ele>121.9</ele>
        <time>2015-09-20T07:05:56Z</time>
      </trkpt>
      <trkpt lat="49.26431" lon="1.09532">
        <ele>121.1</ele>
        <time>2015-09-20T07:05:58Z</time>
      </trkpt>
      <trkpt lat="49.26432" lon="1.09517">
        <ele>120.4</ele>
        <time>2015-09-20T07:06:00Z</time>
      </trkpt>
      <trkpt lat="49.26431" lon="1.09502">
        <ele>119.5</ele>
        <time>2015-09-20T07:06:02Z</time>
      </trkpt>
      <trkpt lat="49.26432" lon="1.09488">
        <ele>119.1</ele>
        <time>2015-09-20T07:06:03Z</time>
      </trkpt>
      <trkpt lat="49.2643" lon="1.09464">
        <ele>118.4</ele>
        <time>2015-09-20T07:06:05Z</time>
      </trkpt>
      <trkpt lat="49.26432" lon="1.09441">
        <ele>117.6</ele>
        <time>2015-09-20T07:06:07Z</time>
      </trkpt>
      <trkpt lat="49.26433" lon="1.09416">
        <ele>116.8</ele>
        <time>2015-09-20T07:06:09Z</time>
      </trkpt>
      <trkpt lat="49.26433" lon="1.09392">
        <ele>116</ele>
        <time>2015-09-20T07:06:11Z</time>
      </trkpt>
      <trkpt lat="49.26433" lon="1.09372">
        <ele>115.3</ele>
        <time>2015-09-20T07:06:13Z</time>
      </trkpt>
      <trkpt lat="49.26434" lon="1.0935">
        <ele>114.6</ele>
        <time>2015-09-20T07:06:15Z</time>
      </trkpt>
      <trkpt lat="49.26435" lon="1.09328">
        <ele>113.9</ele>
        <time>2015-09-20T07:06:17Z</time>
      </trkpt>
      <trkpt lat="49.26439" lon="1.09313">
        <ele>113.3</ele>
        <time>2015-09-20T07:06:19Z</time>
      </trkpt>
      <trkpt lat="49.2644" lon="1.09299">
        <ele>112.7</ele>
        <time>2015-09-20T07:06:21Z</time>
      </trkpt>
      <trkpt lat="49.2644" lon="1.0928">
        <ele>112.1</ele>
        <time>2015-09-20T07:06:23Z</time>
      </trkpt>
      <trkpt lat="49.2644" lon="1.09254">
        <ele>111.6</ele>
        <time>2015-09-20T07:06:25Z</time>
      </trkpt>
      <trkpt lat="49.26441" lon="1.09232">
        <ele>111.2</ele>
        <time>2015-09-20T07:06:27Z</time>
      </trkpt>
      <trkpt lat="49.26442" lon="1.09216">
        <ele>110.7</ele>
        <time>2015-09-20T07:06:29Z</time>
      </trkpt>
      <trkpt lat="49.26447" lon="1.09199">
        <ele>109.7</ele>
        <time>2015-09-20T07:06:32Z</time>
      </trkpt>
      <trkpt lat="49.2645" lon="1.09184">
        <ele>108.7</ele>
        <time>2015-09-20T07:06:35Z</time>
      </trkpt>
      <trkpt lat="49.26462" lon="1.09168">
        <ele>108</ele>
        <time>2015-09-20T07:06:37Z</time>
      </trkpt>
      <trkpt lat="49.26471" lon="1.09155">
        <ele>107.4</ele>
        <time>2015-09-20T07:06:39Z</time>
      </trkpt>
      <trkpt lat="49.26481" lon="1.09146">
        <ele>106.8</ele>
        <time>2015-09-20T07:06:41Z</time>
      </trkpt>
      <trkpt lat="49.2649" lon="1.09131">
        <ele>106.2</ele>
        <time>2015-09-20T07:06:43Z</time>
      </trkpt>
      <trkpt lat="49.265" lon="1.09118">
        <ele>105.7</ele>
        <time>2015-09-20T07:06:45Z</time>
      </trkpt>
      <trkpt lat="49.26508" lon="1.09108">
        <ele>105.2</ele>
        <time>2015-09-20T07:06:47Z</time>
      </trkpt>
      <trkpt lat="49.26513" lon="1.09096">
        <ele>104.7</ele>
        <time>2015-09-20T07:06:49Z</time>
      </trkpt>
      <trkpt lat="49.26521" lon="1.09086">
        <ele>104.4</ele>
        <time>2015-09-20T07:06:51Z</time>
      </trkpt>
      <trkpt lat="49.2653" lon="1.09078">
        <ele>103.9</ele>
        <time>2015-09-20T07:06:54Z</time>
      </trkpt>
      <trkpt lat="49.26539" lon="1.09073">
        <ele>103.6</ele>
        <time>2015-09-20T07:06:56Z</time>
      </trkpt>
      <trkpt lat="49.2655" lon="1.09066">
        <ele>103.3</ele>
        <time>2015-09-20T07:06:58Z</time>
      </trkpt>
      <trkpt lat="49.26558" lon="1.09054">
        <ele>103.1</ele>
        <time>2015-09-20T07:07:00Z</time>
      </trkpt>
      <trkpt lat="49.26565" lon="1.09045">
        <ele>102.9</ele>
        <time>2015-09-20T07:07:02Z</time>
      </trkpt>
      <trkpt lat="49.26572" lon="1.09032">
        <ele>102.8</ele>
        <time>2015-09-20T07:07:04Z</time>
      </trkpt>
      <trkpt lat="49.26581" lon="1.09025">
        <ele>102.5</ele>
        <time>2015-09-20T07:07:06Z</time>
      </trkpt>
      <trkpt lat="49.26595" lon="1.09012">
        <ele>102.2</ele>
        <time>2015-09-20T07:07:08Z</time>
      </trkpt>
      <trkpt lat="49.26611" lon="1.08999">
        <ele>101.7</ele>
        <time>2015-09-20T07:07:10Z</time>
      </trkpt>
      <trkpt lat="49.2662" lon="1.08996">
        <ele>101.4</ele>
        <time>2015-09-20T07:07:11Z</time>
      </trkpt>
      <trkpt lat="49.26632" lon="1.08987">
        <ele>100.9</ele>
        <time>2015-09-20T07:07:13Z</time>
      </trkpt>
      <trkpt lat="49.26646" lon="1.0898">
        <ele>100.4</ele>
        <time>2015-09-20T07:07:15Z</time>
      </trkpt>
      <trkpt lat="49.2666" lon="1.08974">
        <ele>99.8</ele>
        <time>2015-09-20T07:07:17Z</time>
      </trkpt>
      <trkpt lat="49.26673" lon="1.08972">
        <ele>99.2</ele>
        <time>2015-09-20T07:07:19Z</time>
      </trkpt>
      <trkpt lat="49.26683" lon="1.08968">
        <ele>98.5</ele>
        <time>2015-09-20T07:07:21Z</time>
      </trkpt>
      <trkpt lat="49.26693" lon="1.08955">
        <ele>97.6</ele>
        <time>2015-09-20T07:07:24Z</time>
      </trkpt>
      <trkpt lat="49.26705" lon="1.0895">
        <ele>96.8</ele>
        <time>2015-09-20T07:07:27Z</time>
      </trkpt>
      <trkpt lat="49.26714" lon="1.08939">
        <ele>96.2</ele>
        <time>2015-09-20T07:07:30Z</time>
      </trkpt>
      <trkpt lat="49.26719" lon="1.08927">
        <ele>95.7</ele>
        <time>2015-09-20T07:07:33Z</time>
      </trkpt>
      <trkpt lat="49.26725" lon="1.08913">
        <ele>95.3</ele>
        <time>2015-09-20T07:07:38Z</time>
      </trkpt>
      <trkpt lat="49.26731" lon="1.08902">
        <ele>95.6</ele>
        <time>2015-09-20T07:07:44Z</time>
      </trkpt>
      <trkpt lat="49.26735" lon="1.0889">
        <ele>97.2</ele>
        <time>2015-09-20T07:07:56Z</time>
      </trkpt>
      <trkpt lat="49.26741" lon="1.08878">
        <ele>99.7</ele>
        <time>2015-09-20T07:08:07Z</time>
      </trkpt>
      <trkpt lat="49.26746" lon="1.08865">
        <ele>102.2</ele>
        <time>2015-09-20T07:08:17Z</time>
      </trkpt>
      <trkpt lat="49.26752" lon="1.08854">
        <ele>104.4</ele>
        <time>2015-09-20T07:08:26Z</time>
      </trkpt>
      <trkpt lat="49.26757" lon="1.08842">
        <ele>106.1</ele>
        <time>2015-09-20T07:08:34Z</time>
      </trkpt>
      <trkpt lat="49.26752" lon="1.08831">
        <ele>108.6</ele>
        <time>2015-09-20T07:08:49Z</time>
      </trkpt>
      <trkpt lat="49.26745" lon="1.08819">
        <ele>109.3</ele>
        <time>2015-09-20T07:08:55Z</time>
      </trkpt>
      <trkpt lat="49.26738" lon="1.08807">
        <ele>110</ele>
        <time>2015-09-20T07:09:00Z</time>
      </trkpt>
      <trkpt lat="49.26731" lon="1.08793">
        <ele>110.9</ele>
        <time>2015-09-20T07:09:05Z</time>
      </trkpt>
      <trkpt lat="49.26726" lon="1.08781">
        <ele>111.5</ele>
        <time>2015-09-20T07:09:09Z</time>
      </trkpt>
      <trkpt lat="49.26719" lon="1.08769">
        <ele>112.1</ele>
        <time>2015-09-20T07:09:13Z</time>
      </trkpt>
      <trkpt lat="49.26712" lon="1.08758">
        <ele>112.9</ele>
        <time>2015-09-20T07:09:17Z</time>
      </trkpt>
      <trkpt lat="49.26704" lon="1.08747">
        <ele>113.6</ele>
        <time>2015-09-20T07:09:21Z</time>
      </trkpt>
      <trkpt lat="49.26698" lon="1.08734">
        <ele>114.5</ele>
        <time>2015-09-20T07:09:25Z</time>
      </trkpt>
      <trkpt lat="49.2669" lon="1.08724">
        <ele>115.3</ele>
        <time>2015-09-20T07:09:29Z</time>
      </trkpt>
      <trkpt lat="49.26683" lon="1.08713">
        <ele>116.1</ele>
        <time>2015-09-20T07:09:33Z</time>
      </trkpt>
      <trkpt lat="49.26676" lon="1.08702">
        <ele>116.9</ele>
        <time>2015-09-20T07:09:37Z</time>
      </trkpt>
      <trkpt lat="49.2667" lon="1.0869">
        <ele>117.7</ele>
        <time>2015-09-20T07:09:41Z</time>
      </trkpt>
      <trkpt lat="49.26661" lon="1.08678">
        <ele>118.6</ele>
        <time>2015-09-20T07:09:45Z</time>
      </trkpt>
      <trkpt lat="49.26652" lon="1.08667">
        <ele>119.4</ele>
        <time>2015-09-20T07:09:49Z</time>
      </trkpt>
      <trkpt lat="49.26645" lon="1.08654">
        <ele>120.3</ele>
        <time>2015-09-20T07:09:53Z</time>
      </trkpt>
      <trkpt lat="49.26636" lon="1.08641">
        <ele>121.1</ele>
        <time>2015-09-20T07:09:57Z</time>
      </trkpt>
      <trkpt lat="49.2663" lon="1.08629">
        <ele>121.9</ele>
        <time>2015-09-20T07:10:01Z</time>
      </trkpt>
      <trkpt lat="49.26627" lon="1.08616">
        <ele>122.8</ele>
        <time>2015-09-20T07:10:06Z</time>
      </trkpt>
      <trkpt lat="49.26623" lon="1.08603">
        <ele>123.5</ele>
        <time>2015-09-20T07:10:10Z</time>
      </trkpt>
      <trkpt lat="49.26622" lon="1.08588">
        <ele>123.9</ele>
        <time>2015-09-20T07:10:13Z</time>
      </trkpt>
      <trkpt lat="49.26628" lon="1.08575">
        <ele>124.5</ele>
        <time>2015-09-20T07:10:17Z</time>
      </trkpt>
      <trkpt lat="49.26635" lon="1.08564">
        <ele>124.8</ele>
        <time>2015-09-20T07:10:20Z</time>
      </trkpt>
      <trkpt lat="49.26641" lon="1.08549">
        <ele>125.1</ele>
        <time>2015-09-20T07:10:23Z</time>
      </trkpt>
      <trkpt lat="49.26646" lon="1.08536">
        <ele>125.3</ele>
        <time>2015-09-20T07:10:25Z</time>
      </trkpt>
      <trkpt lat="49.26651" lon="1.08525">
        <ele>125.4</ele>
        <time>2015-09-20T07:10:27Z</time>
      </trkpt>
      <trkpt lat="49.26658" lon="1.08514">
        <ele>125.6</ele>
        <time>2015-09-20T07:10:29Z</time>
      </trkpt>
      <trkpt lat="49.26663" lon="1.08497">
        <ele>125.7</ele>
        <time>2015-09-20T07:10:32Z</time>
      </trkpt>
      <trkpt lat="49.26662" lon="1.08481">
        <ele>125.7</ele>
        <time>2015-09-20T07:10:36Z</time>
      </trkpt>
      <trkpt lat="49.26655" lon="1.08473">
        <ele>125.7</ele>
        <time>2015-09-20T07:10:39Z</time>
      </trkpt>
      <trkpt lat="49.26645" lon="1.08467">
        <ele>125.8</ele>
        <time>2015-09-20T07:10:43Z</time>
      </trkpt>
      <trkpt lat="49.26634" lon="1.08459">
        <ele>126</ele>
        <time>2015-09-20T07:10:46Z</time>
      </trkpt>
      <trkpt lat="49.26624" lon="1.08454">
        <ele>126.1</ele>
        <time>2015-09-20T07:10:49Z</time>
      </trkpt>
      <trkpt lat="49.26612" lon="1.08447">
        <ele>126.3</ele>
        <time>2015-09-20T07:10:52Z</time>
      </trkpt>
      <trkpt lat="49.26602" lon="1.08438">
        <ele>126.5</ele>
        <time>2015-09-20T07:10:55Z</time>
      </trkpt>
      <trkpt lat="49.26593" lon="1.08431">
        <ele>126.7</ele>
        <time>2015-09-20T07:10:58Z</time>
      </trkpt>
      <trkpt lat="49.26584" lon="1.08425">
        <ele>126.9</ele>
        <time>2015-09-20T07:11:00Z</time>
      </trkpt>
      <trkpt lat="49.26576" lon="1.0842">
        <ele>127.1</ele>
        <time>2015-09-20T07:11:02Z</time>
      </trkpt>
      <trkpt lat="49.26565" lon="1.08414">
        <ele>127.3</ele>
        <time>2015-09-20T07:11:04Z</time>
      </trkpt>
      <trkpt lat="49.26554" lon="1.08409">
        <ele>127.5</ele>
        <time>2015-09-20T07:11:06Z</time>
      </trkpt>
      <trkpt lat="49.2654" lon="1.08398">
        <ele>127.8</ele>
        <time>2015-09-20T07:11:09Z</time>
      </trkpt>
      <trkpt lat="49.26532" lon="1.08392">
        <ele>127.9</ele>
        <time>2015-09-20T07:11:11Z</time>
      </trkpt>
      <trkpt lat="49.26521" lon="1.08383">
        <ele>128.1</ele>
        <time>2015-09-20T07:11:14Z</time>
      </trkpt>
      <trkpt lat="49.26512" lon="1.08374">
        <ele>128.3</ele>
        <time>2015-09-20T07:11:17Z</time>
      </trkpt>
      <trkpt lat="49.26504" lon="1.08369">
        <ele>128.4</ele>
        <time>2015-09-20T07:11:19Z</time>
      </trkpt>
      <trkpt lat="49.26495" lon="1.08363">
        <ele>128.5</ele>
        <time>2015-09-20T07:11:21Z</time>
      </trkpt>
      <trkpt lat="49.26486" lon="1.08357">
        <ele>128.7</ele>
        <time>2015-09-20T07:11:23Z</time>
      </trkpt>
      <trkpt lat="49.26477" lon="1.0835">
        <ele>128.9</ele>
        <time>2015-09-20T07:11:25Z</time>
      </trkpt>
      <trkpt lat="49.26468" lon="1.08346">
        <ele>129.1</ele>
        <time>2015-09-20T07:11:28Z</time>
      </trkpt>
      <trkpt lat="49.26458" lon="1.08339">
        <ele>129.5</ele>
        <time>2015-09-20T07:11:31Z</time>
      </trkpt>
      <trkpt lat="49.26446" lon="1.08335">
        <ele>130</ele>
        <time>2015-09-20T07:11:35Z</time>
      </trkpt>
      <trkpt lat="49.26435" lon="1.08329">
        <ele>130.4</ele>
        <time>2015-09-20T07:11:38Z</time>
      </trkpt>
      <trkpt lat="49.26426" lon="1.08321">
        <ele>130.7</ele>
        <time>2015-09-20T07:11:40Z</time>
      </trkpt>
      <trkpt lat="49.26413" lon="1.08315">
        <ele>131</ele>
        <time>2015-09-20T07:11:43Z</time>
      </trkpt>
      <trkpt lat="49.26402" lon="1.08311">
        <ele>131.2</ele>
        <time>2015-09-20T07:11:45Z</time>
      </trkpt>
      <trkpt lat="49.26392" lon="1.08306">
        <ele>131.4</ele>
        <time>2015-09-20T07:11:47Z</time>
      </trkpt>
      <trkpt lat="49.26378" lon="1.08303">
        <ele>131.6</ele>
        <time>2015-09-20T07:11:50Z</time>
      </trkpt>
      <trkpt lat="49.26366" lon="1.08299">
        <ele>131.7</ele>
        <time>2015-09-20T07:11:52Z</time>
      </trkpt>
      <trkpt lat="49.26355" lon="1.08298">
        <ele>131.9</ele>
        <time>2015-09-20T07:11:55Z</time>
      </trkpt>
      <trkpt lat="49.26346" lon="1.08295">
        <ele>132.2</ele>
        <time>2015-09-20T07:11:58Z</time>
      </trkpt>
      <trkpt lat="49.26338" lon="1.08287">
        <ele>132.4</ele>
        <time>2015-09-20T07:12:00Z</time>
      </trkpt>
      <trkpt lat="49.2633" lon="1.08276">
        <ele>132.6</ele>
        <time>2015-09-20T07:12:03Z</time>
      </trkpt>
      <trkpt lat="49.2632" lon="1.08261">
        <ele>132.9</ele>
        <time>2015-09-20T07:12:06Z</time>
      </trkpt>
      <trkpt lat="49.26313" lon="1.08247">
        <ele>133.1</ele>
        <time>2015-09-20T07:12:09Z</time>
      </trkpt>
      <trkpt lat="49.26308" lon="1.08234">
        <ele>133.4</ele>
        <time>2015-09-20T07:12:12Z</time>
      </trkpt>
      <trkpt lat="49.26302" lon="1.08221">
        <ele>133.6</ele>
        <time>2015-09-20T07:12:14Z</time>
      </trkpt>
      <trkpt lat="49.26292" lon="1.08206">
        <ele>133.8</ele>
        <time>2015-09-20T07:12:17Z</time>
      </trkpt>
      <trkpt lat="49.26283" lon="1.08195">
        <ele>134.1</ele>
        <time>2015-09-20T07:12:20Z</time>
      </trkpt>
      <trkpt lat="49.26277" lon="1.0818">
        <ele>134.2</ele>
        <time>2015-09-20T07:12:22Z</time>
      </trkpt>
      <trkpt lat="49.26267" lon="1.08168">
        <ele>134.5</ele>
        <time>2015-09-20T07:12:25Z</time>
      </trkpt>
      <trkpt lat="49.26259" lon="1.08151">
        <ele>134.6</ele>
        <time>2015-09-20T07:12:27Z</time>
      </trkpt>
      <trkpt lat="49.26254" lon="1.08138">
        <ele>134.7</ele>
        <time>2015-09-20T07:12:29Z</time>
      </trkpt>
      <trkpt lat="49.26247" lon="1.08127">
        <ele>134.7</ele>
        <time>2015-09-20T07:12:31Z</time>
      </trkpt>
      <trkpt lat="49.26241" lon="1.08113">
        <ele>134.8</ele>
        <time>2015-09-20T07:12:34Z</time>
      </trkpt>
      <trkpt lat="49.26234" lon="1.08099">
        <ele>134.9</ele>
        <time>2015-09-20T07:12:37Z</time>
      </trkpt>
      <trkpt lat="49.26227" lon="1.08088">
        <ele>134.9</ele>
        <time>2015-09-20T07:12:39Z</time>
      </trkpt>
      <trkpt lat="49.26219" lon="1.08076">
        <ele>135</ele>
        <time>2015-09-20T07:12:41Z</time>
      </trkpt>
      <trkpt lat="49.26213" lon="1.08066">
        <ele>134.9</ele>
        <time>2015-09-20T07:12:43Z</time>
      </trkpt>
      <trkpt lat="49.26207" lon="1.08052">
        <ele>134.9</ele>
        <time>2015-09-20T07:12:45Z</time>
      </trkpt>
      <trkpt lat="49.26202" lon="1.08039">
        <ele>134.9</ele>
        <time>2015-09-20T07:12:47Z</time>
      </trkpt>
      <trkpt lat="49.26195" lon="1.08027">
        <ele>135</ele>
        <time>2015-09-20T07:12:49Z</time>
      </trkpt>
      <trkpt lat="49.26187" lon="1.08015">
        <ele>135</ele>
        <time>2015-09-20T07:12:51Z</time>
      </trkpt>
      <trkpt lat="49.26179" lon="1.08001">
        <ele>135.1</ele>
        <time>2015-09-20T07:12:54Z</time>
      </trkpt>
      <trkpt lat="49.26173" lon="1.0799">
        <ele>135.1</ele>
        <time>2015-09-20T07:12:56Z</time>
      </trkpt>
      <trkpt lat="49.26167" lon="1.07978">
        <ele>135.1</ele>
        <time>2015-09-20T07:12:58Z</time>
      </trkpt>
      <trkpt lat="49.2616" lon="1.07966">
        <ele>135.2</ele>
        <time>2015-09-20T07:13:00Z</time>
      </trkpt>
      <trkpt lat="49.26153" lon="1.07952">
        <ele>135.2</ele>
        <time>2015-09-20T07:13:02Z</time>
      </trkpt>
      <trkpt lat="49.26146" lon="1.07938">
        <ele>135.3</ele>
        <time>2015-09-20T07:13:04Z</time>
      </trkpt>
      <trkpt lat="49.2614" lon="1.07926">
        <ele>135.3</ele>
        <time>2015-09-20T07:13:06Z</time>
      </trkpt>
      <trkpt lat="49.26134" lon="1.07915">
        <ele>135.4</ele>
        <time>2015-09-20T07:13:08Z</time>
      </trkpt>
      <trkpt lat="49.26129" lon="1.07902">
        <ele>135.4</ele>
        <time>2015-09-20T07:13:10Z</time>
      </trkpt>
      <trkpt lat="49.26123" lon="1.07891">
        <ele>135.4</ele>
        <time>2015-09-20T07:13:12Z</time>
      </trkpt>
      <trkpt lat="49.26117" lon="1.07877">
        <ele>135.5</ele>
        <time>2015-09-20T07:13:15Z</time>
      </trkpt>
      <trkpt lat="49.26105" lon="1.07864">
        <ele>135.5</ele>
        <time>2015-09-20T07:13:17Z</time>
      </trkpt>
      <trkpt lat="49.26097" lon="1.07853">
        <ele>135.5</ele>
        <time>2015-09-20T07:13:19Z</time>
      </trkpt>
      <trkpt lat="49.26091" lon="1.07842">
        <ele>135.6</ele>
        <time>2015-09-20T07:13:21Z</time>
      </trkpt>
      <trkpt lat="49.26085" lon="1.07831">
        <ele>135.6</ele>
        <time>2015-09-20T07:13:23Z</time>
      </trkpt>
      <trkpt lat="49.26078" lon="1.07822">
        <ele>135.6</ele>
        <time>2015-09-20T07:13:25Z</time>
      </trkpt>
      <trkpt lat="49.26071" lon="1.07809">
        <ele>135.6</ele>
        <time>2015-09-20T07:13:27Z</time>
      </trkpt>
      <trkpt lat="49.26064" lon="1.07793">
        <ele>135.6</ele>
        <time>2015-09-20T07:13:30Z</time>
      </trkpt>
      <trkpt lat="49.26058" lon="1.0778">
        <ele>135.6</ele>
        <time>2015-09-20T07:13:32Z</time>
      </trkpt>
      <trkpt lat="49.26059" lon="1.07766">
        <ele>135.6</ele>
        <time>2015-09-20T07:13:35Z</time>
      </trkpt>
      <trkpt lat="49.26068" lon="1.07751">
        <ele>135.7</ele>
        <time>2015-09-20T07:13:38Z</time>
      </trkpt>
      <trkpt lat="49.26075" lon="1.07737">
        <ele>135.7</ele>
        <time>2015-09-20T07:13:40Z</time>
      </trkpt>
      <trkpt lat="49.2608" lon="1.07724">
        <ele>135.7</ele>
        <time>2015-09-20T07:13:42Z</time>
      </trkpt>
      <trkpt lat="49.26085" lon="1.07712">
        <ele>135.7</ele>
        <time>2015-09-20T07:13:44Z</time>
      </trkpt>
      <trkpt lat="49.26092" lon="1.07697">
        <ele>135.6</ele>
        <time>2015-09-20T07:13:46Z</time>
      </trkpt>
      <trkpt lat="49.26099" lon="1.07683">
        <ele>135.5</ele>
        <time>2015-09-20T07:13:48Z</time>
      </trkpt>
      <trkpt lat="49.26105" lon="1.0767">
        <ele>135.4</ele>
        <time>2015-09-20T07:13:50Z</time>
      </trkpt>
      <trkpt lat="49.26112" lon="1.07656">
        <ele>135.2</ele>
        <time>2015-09-20T07:13:52Z</time>
      </trkpt>
      <trkpt lat="49.26117" lon="1.0764">
        <ele>135.1</ele>
        <time>2015-09-20T07:13:54Z</time>
      </trkpt>
      <trkpt lat="49.26123" lon="1.07625">
        <ele>134.9</ele>
        <time>2015-09-20T07:13:56Z</time>
      </trkpt>
      <trkpt lat="49.2613" lon="1.07613">
        <ele>134.6</ele>
        <time>2015-09-20T07:13:58Z</time>
      </trkpt>
      <trkpt lat="49.26137" lon="1.07602">
        <ele>134.2</ele>
        <time>2015-09-20T07:14:00Z</time>
      </trkpt>
      <trkpt lat="49.26144" lon="1.07587">
        <ele>133.9</ele>
        <time>2015-09-20T07:14:02Z</time>
      </trkpt>
      <trkpt lat="49.2615" lon="1.07573">
        <ele>133.5</ele>
        <time>2015-09-20T07:14:04Z</time>
      </trkpt>
      <trkpt lat="49.26152" lon="1.07557">
        <ele>133.1</ele>
        <time>2015-09-20T07:14:06Z</time>
      </trkpt>
      <trkpt lat="49.26159" lon="1.07545">
        <ele>132.4</ele>
        <time>2015-09-20T07:14:09Z</time>
      </trkpt>
      <trkpt lat="49.26168" lon="1.07536">
        <ele>131.9</ele>
        <time>2015-09-20T07:14:11Z</time>
      </trkpt>
      <trkpt lat="49.26176" lon="1.07524">
        <ele>131.4</ele>
        <time>2015-09-20T07:14:13Z</time>
      </trkpt>
      <trkpt lat="49.26184" lon="1.07509">
        <ele>130.9</ele>
        <time>2015-09-20T07:14:15Z</time>
      </trkpt>
      <trkpt lat="49.26191" lon="1.07492">
        <ele>130.3</ele>
        <time>2015-09-20T07:14:17Z</time>
      </trkpt>
      <trkpt lat="49.26198" lon="1.07475">
        <ele>129.6</ele>
        <time>2015-09-20T07:14:19Z</time>
      </trkpt>
      <trkpt lat="49.26207" lon="1.07458">
        <ele>128.8</ele>
        <time>2015-09-20T07:14:21Z</time>
      </trkpt>
      <trkpt lat="49.26218" lon="1.0744">
        <ele>128</ele>
        <time>2015-09-20T07:14:23Z</time>
      </trkpt>
      <trkpt lat="49.26228" lon="1.07422">
        <ele>127</ele>
        <time>2015-09-20T07:14:25Z</time>
      </trkpt>
      <trkpt lat="49.26237" lon="1.07405">
        <ele>126</ele>
        <time>2015-09-20T07:14:27Z</time>
      </trkpt>
      <trkpt lat="49.26245" lon="1.07388">
        <ele>124.6</ele>
        <time>2015-09-20T07:14:29Z</time>
      </trkpt>
      <trkpt lat="49.26253" lon="1.07372">
        <ele>123.2</ele>
        <time>2015-09-20T07:14:31Z</time>
      </trkpt>
      <trkpt lat="49.26261" lon="1.07357">
        <ele>121.9</ele>
        <time>2015-09-20T07:14:33Z</time>
      </trkpt>
      <trkpt lat="49.26268" lon="1.07346">
        <ele>120.6</ele>
        <time>2015-09-20T07:14:35Z</time>
      </trkpt>
      <trkpt lat="49.26275" lon="1.07334">
        <ele>118.4</ele>
        <time>2015-09-20T07:14:38Z</time>
      </trkpt>
      <trkpt lat="49.26283" lon="1.07322">
        <ele>116.2</ele>
        <time>2015-09-20T07:14:41Z</time>
      </trkpt>
      <trkpt lat="49.26291" lon="1.07311">
        <ele>113.7</ele>
        <time>2015-09-20T07:14:44Z</time>
      </trkpt>
      <trkpt lat="49.26297" lon="1.07297">
        <ele>111.1</ele>
        <time>2015-09-20T07:14:47Z</time>
      </trkpt>
      <trkpt lat="49.26303" lon="1.07281">
        <ele>107.7</ele>
        <time>2015-09-20T07:14:51Z</time>
      </trkpt>
      <trkpt lat="49.26311" lon="1.07268">
        <ele>105.2</ele>
        <time>2015-09-20T07:14:54Z</time>
      </trkpt>
      <trkpt lat="49.26318" lon="1.07258">
        <ele>103.5</ele>
        <time>2015-09-20T07:14:56Z</time>
      </trkpt>
      <trkpt lat="49.26325" lon="1.07244">
        <ele>101.7</ele>
        <time>2015-09-20T07:14:58Z</time>
      </trkpt>
      <trkpt lat="49.26333" lon="1.07232">
        <ele>99.9</ele>
        <time>2015-09-20T07:15:00Z</time>
      </trkpt>
      <trkpt lat="49.26337" lon="1.0722">
        <ele>98</ele>
        <time>2015-09-20T07:15:02Z</time>
      </trkpt>
      <trkpt lat="49.2634" lon="1.07204">
        <ele>95.4</ele>
        <time>2015-09-20T07:15:05Z</time>
      </trkpt>
      <trkpt lat="49.26353" lon="1.07196">
        <ele>93.1</ele>
        <time>2015-09-20T07:15:08Z</time>
      </trkpt>
      <trkpt lat="49.2636" lon="1.07185">
        <ele>91.6</ele>
        <time>2015-09-20T07:15:10Z</time>
      </trkpt>
      <trkpt lat="49.26365" lon="1.07173">
        <ele>90.2</ele>
        <time>2015-09-20T07:15:12Z</time>
      </trkpt>
      <trkpt lat="49.26368" lon="1.07158">
        <ele>88.9</ele>
        <time>2015-09-20T07:15:14Z</time>
      </trkpt>
      <trkpt lat="49.26373" lon="1.07143">
        <ele>87.6</ele>
        <time>2015-09-20T07:15:16Z</time>
      </trkpt>
      <trkpt lat="49.26377" lon="1.07129">
        <ele>86.4</ele>
        <time>2015-09-20T07:15:18Z</time>
      </trkpt>
      <trkpt lat="49.26386" lon="1.07119">
        <ele>85.3</ele>
        <time>2015-09-20T07:15:20Z</time>
      </trkpt>
      <trkpt lat="49.26396" lon="1.07113">
        <ele>84.2</ele>
        <time>2015-09-20T07:15:22Z</time>
      </trkpt>
      <trkpt lat="49.26408" lon="1.07099">
        <ele>82.6</ele>
        <time>2015-09-20T07:15:25Z</time>
      </trkpt>
      <trkpt lat="49.26417" lon="1.07082">
        <ele>81.5</ele>
        <time>2015-09-20T07:15:27Z</time>
      </trkpt>
      <trkpt lat="49.26426" lon="1.07065">
        <ele>80.5</ele>
        <time>2015-09-20T07:15:29Z</time>
      </trkpt>
      <trkpt lat="49.26436" lon="1.07049">
        <ele>79.6</ele>
        <time>2015-09-20T07:15:31Z</time>
      </trkpt>
      <trkpt lat="49.26445" lon="1.0703">
        <ele>78.7</ele>
        <time>2015-09-20T07:15:33Z</time>
      </trkpt>
      <trkpt lat="49.26456" lon="1.07013">
        <ele>77.7</ele>
        <time>2015-09-20T07:15:35Z</time>
      </trkpt>
      <trkpt lat="49.26466" lon="1.06997">
        <ele>76.8</ele>
        <time>2015-09-20T07:15:37Z</time>
      </trkpt>
      <trkpt lat="49.26477" lon="1.0698">
        <ele>75.9</ele>
        <time>2015-09-20T07:15:39Z</time>
      </trkpt>
      <trkpt lat="49.26487" lon="1.06962">
        <ele>75.1</ele>
        <time>2015-09-20T07:15:41Z</time>
      </trkpt>
      <trkpt lat="49.26496" lon="1.06944">
        <ele>74.2</ele>
        <time>2015-09-20T07:15:43Z</time>
      </trkpt>
      <trkpt lat="49.26504" lon="1.06926">
        <ele>73.4</ele>
        <time>2015-09-20T07:15:45Z</time>
      </trkpt>
      <trkpt lat="49.26514" lon="1.0691">
        <ele>72.7</ele>
        <time>2015-09-20T07:15:47Z</time>
      </trkpt>
      <trkpt lat="49.26524" lon="1.06894">
        <ele>72</ele>
        <time>2015-09-20T07:15:49Z</time>
      </trkpt>
      <trkpt lat="49.26532" lon="1.06877">
        <ele>71.3</ele>
        <time>2015-09-20T07:15:51Z</time>
      </trkpt>
      <trkpt lat="49.26543" lon="1.06861">
        <ele>70.7</ele>
        <time>2015-09-20T07:15:53Z</time>
      </trkpt>
      <trkpt lat="49.26554" lon="1.06845">
        <ele>70.1</ele>
        <time>2015-09-20T07:15:55Z</time>
      </trkpt>
      <trkpt lat="49.26562" lon="1.06828">
        <ele>69.5</ele>
        <time>2015-09-20T07:15:57Z</time>
      </trkpt>
      <trkpt lat="49.26569" lon="1.06814">
        <ele>68.9</ele>
        <time>2015-09-20T07:15:59Z</time>
      </trkpt>
      <trkpt lat="49.26579" lon="1.068">
        <ele>68.4</ele>
        <time>2015-09-20T07:16:01Z</time>
      </trkpt>
      <trkpt lat="49.26588" lon="1.06789">
        <ele>67.9</ele>
        <time>2015-09-20T07:16:03Z</time>
      </trkpt>
      <trkpt lat="49.26594" lon="1.06776">
        <ele>67.6</ele>
        <time>2015-09-20T07:16:05Z</time>
      </trkpt>
      <trkpt lat="49.26601" lon="1.06763">
        <ele>67.2</ele>
        <time>2015-09-20T07:16:07Z</time>
      </trkpt>
      <trkpt lat="49.26608" lon="1.0675">
        <ele>66.9</ele>
        <time>2015-09-20T07:16:09Z</time>
      </trkpt>
      <trkpt lat="49.26615" lon="1.06737">
        <ele>66.7</ele>
        <time>2015-09-20T07:16:11Z</time>
      </trkpt>
      <trkpt lat="49.26621" lon="1.06725">
        <ele>66.6</ele>
        <time>2015-09-20T07:16:13Z</time>
      </trkpt>
      <trkpt lat="49.26628" lon="1.06712">
        <ele>66.4</ele>
        <time>2015-09-20T07:16:15Z</time>
      </trkpt>
      <trkpt lat="49.26636" lon="1.067">
        <ele>66.3</ele>
        <time>2015-09-20T07:16:17Z</time>
      </trkpt>
      <trkpt lat="49.26637" lon="1.06685">
        <ele>66.2</ele>
        <time>2015-09-20T07:16:19Z</time>
      </trkpt>
      <trkpt lat="49.26633" lon="1.06668">
        <ele>66</ele>
        <time>2015-09-20T07:16:22Z</time>
      </trkpt>
      <trkpt lat="49.26626" lon="1.06655">
        <ele>66</ele>
        <time>2015-09-20T07:16:25Z</time>
      </trkpt>
      <trkpt lat="49.2662" lon="1.06642">
        <ele>66.1</ele>
        <time>2015-09-20T07:16:28Z</time>
      </trkpt>
      <trkpt lat="49.26614" lon="1.06631">
        <ele>66.2</ele>
        <time>2015-09-20T07:16:31Z</time>
      </trkpt>
      <trkpt lat="49.26606" lon="1.06617">
        <ele>66.4</ele>
        <time>2015-09-20T07:16:34Z</time>
      </trkpt>
      <trkpt lat="49.26599" lon="1.06603">
        <ele>66.8</ele>
        <time>2015-09-20T07:16:37Z</time>
      </trkpt>
      <trkpt lat="49.26591" lon="1.06595">
        <ele>67</ele>
        <time>2015-09-20T07:16:39Z</time>
      </trkpt>
      <trkpt lat="49.26581" lon="1.06582">
        <ele>67.4</ele>
        <time>2015-09-20T07:16:42Z</time>
      </trkpt>
      <trkpt lat="49.26574" lon="1.0657">
        <ele>67.9</ele>
        <time>2015-09-20T07:16:45Z</time>
      </trkpt>
      <trkpt lat="49.26565" lon="1.0656">
        <ele>68.4</ele>
        <time>2015-09-20T07:16:48Z</time>
      </trkpt>
      <trkpt lat="49.26559" lon="1.06545">
        <ele>69.1</ele>
        <time>2015-09-20T07:16:53Z</time>
      </trkpt>
      <trkpt lat="49.26554" lon="1.06528">
        <ele>69.7</ele>
        <time>2015-09-20T07:16:56Z</time>
      </trkpt>
      <trkpt lat="49.26554" lon="1.06513">
        <ele>70.2</ele>
        <time>2015-09-20T07:16:59Z</time>
      </trkpt>
      <trkpt lat="49.26554" lon="1.06497">
        <ele>70.7</ele>
        <time>2015-09-20T07:17:02Z</time>
      </trkpt>
      <trkpt lat="49.26549" lon="1.0648">
        <ele>71.2</ele>
        <time>2015-09-20T07:17:05Z</time>
      </trkpt>
      <trkpt lat="49.26545" lon="1.06463">
        <ele>71.8</ele>
        <time>2015-09-20T07:17:08Z</time>
      </trkpt>
      <trkpt lat="49.26544" lon="1.06449">
        <ele>72.3</ele>
        <time>2015-09-20T07:17:11Z</time>
      </trkpt>
      <trkpt lat="49.2654" lon="1.06436">
        <ele>72.6</ele>
        <time>2015-09-20T07:17:13Z</time>
      </trkpt>
      <trkpt lat="49.26543" lon="1.06418">
        <ele>73</ele>
        <time>2015-09-20T07:17:16Z</time>
      </trkpt>
      <trkpt lat="49.26551" lon="1.06404">
        <ele>73.3</ele>
        <time>2015-09-20T07:17:19Z</time>
      </trkpt>
      <trkpt lat="49.26558" lon="1.0639">
        <ele>73.6</ele>
        <time>2015-09-20T07:17:22Z</time>
      </trkpt>
      <trkpt lat="49.26562" lon="1.06377">
        <ele>73.8</ele>
        <time>2015-09-20T07:17:24Z</time>
      </trkpt>
      <trkpt lat="49.26567" lon="1.06365">
        <ele>74</ele>
        <time>2015-09-20T07:17:26Z</time>
      </trkpt>
      <trkpt lat="49.26572" lon="1.06351">
        <ele>74.1</ele>
        <time>2015-09-20T07:17:28Z</time>
      </trkpt>
      <trkpt lat="49.26579" lon="1.06341">
        <ele>74.2</ele>
        <time>2015-09-20T07:17:30Z</time>
      </trkpt>
      <trkpt lat="49.26586" lon="1.06328">
        <ele>74.1</ele>
        <time>2015-09-20T07:17:32Z</time>
      </trkpt>
      <trkpt lat="49.26595" lon="1.06312">
        <ele>73.8</ele>
        <time>2015-09-20T07:17:34Z</time>
      </trkpt>
      <trkpt lat="49.26604" lon="1.06298">
        <ele>73.3</ele>
        <time>2015-09-20T07:17:36Z</time>
      </trkpt>
      <trkpt lat="49.26612" lon="1.06284">
        <ele>72.6</ele>
        <time>2015-09-20T07:17:38Z</time>
      </trkpt>
      <trkpt lat="49.2662" lon="1.06271">
        <ele>71.7</ele>
        <time>2015-09-20T07:17:40Z</time>
      </trkpt>
      <trkpt lat="49.26628" lon="1.06255">
        <ele>70.9</ele>
        <time>2015-09-20T07:17:42Z</time>
      </trkpt>
      <trkpt lat="49.26638" lon="1.06239">
        <ele>70</ele>
        <time>2015-09-20T07:17:44Z</time>
      </trkpt>
      <trkpt lat="49.26646" lon="1.06221">
        <ele>69.1</ele>
        <time>2015-09-20T07:17:46Z</time>
      </trkpt>
      <trkpt lat="49.26653" lon="1.06204">
        <ele>67.7</ele>
        <time>2015-09-20T07:17:48Z</time>
      </trkpt>
      <trkpt lat="49.26658" lon="1.06188">
        <ele>66.5</ele>
        <time>2015-09-20T07:17:50Z</time>
      </trkpt>
      <trkpt lat="49.26665" lon="1.06174">
        <ele>65.4</ele>
        <time>2015-09-20T07:17:52Z</time>
      </trkpt>
      <trkpt lat="49.26674" lon="1.06159">
        <ele>64.3</ele>
        <time>2015-09-20T07:17:54Z</time>
      </trkpt>
      <trkpt lat="49.26683" lon="1.06143">
        <ele>63.2</ele>
        <time>2015-09-20T07:17:56Z</time>
      </trkpt>
      <trkpt lat="49.2669" lon="1.06128">
        <ele>62.1</ele>
        <time>2015-09-20T07:17:58Z</time>
      </trkpt>
      <trkpt lat="49.26697" lon="1.06112">
        <ele>61.1</ele>
        <time>2015-09-20T07:18:00Z</time>
      </trkpt>
      <trkpt lat="49.26709" lon="1.06097">
        <ele>60.1</ele>
        <time>2015-09-20T07:18:02Z</time>
      </trkpt>
      <trkpt lat="49.26719" lon="1.06085">
        <ele>59.2</ele>
        <time>2015-09-20T07:18:04Z</time>
      </trkpt>
      <trkpt lat="49.26728" lon="1.06066">
        <ele>58.2</ele>
        <time>2015-09-20T07:18:06Z</time>
      </trkpt>
      <trkpt lat="49.26735" lon="1.06047">
        <ele>57.2</ele>
        <time>2015-09-20T07:18:08Z</time>
      </trkpt>
      <trkpt lat="49.26747" lon="1.06028">
        <ele>56.3</ele>
        <time>2015-09-20T07:18:10Z</time>
      </trkpt>
      <trkpt lat="49.26756" lon="1.06008">
        <ele>55.2</ele>
        <time>2015-09-20T07:18:12Z</time>
      </trkpt>
      <trkpt lat="49.26768" lon="1.05989">
        <ele>54.3</ele>
        <time>2015-09-20T07:18:14Z</time>
      </trkpt>
      <trkpt lat="49.26779" lon="1.05971">
        <ele>53.4</ele>
        <time>2015-09-20T07:18:16Z</time>
      </trkpt>
      <trkpt lat="49.26788" lon="1.05955">
        <ele>52.4</ele>
        <time>2015-09-20T07:18:18Z</time>
      </trkpt>
      <trkpt lat="49.26798" lon="1.05936">
        <ele>51.6</ele>
        <time>2015-09-20T07:18:20Z</time>
      </trkpt>
      <trkpt lat="49.26809" lon="1.05918">
        <ele>50.8</ele>
        <time>2015-09-20T07:18:22Z</time>
      </trkpt>
      <trkpt lat="49.26818" lon="1.05901">
        <ele>50</ele>
        <time>2015-09-20T07:18:24Z</time>
      </trkpt>
      <trkpt lat="49.26827" lon="1.05882">
        <ele>49.2</ele>
        <time>2015-09-20T07:18:26Z</time>
      </trkpt>
      <trkpt lat="49.26835" lon="1.05866">
        <ele>48.6</ele>
        <time>2015-09-20T07:18:28Z</time>
      </trkpt>
      <trkpt lat="49.26845" lon="1.05854">
        <ele>48</ele>
        <time>2015-09-20T07:18:30Z</time>
      </trkpt>
      <trkpt lat="49.26853" lon="1.05839">
        <ele>47.5</ele>
        <time>2015-09-20T07:18:32Z</time>
      </trkpt>
      <trkpt lat="49.2686" lon="1.05827">
        <ele>46.9</ele>
        <time>2015-09-20T07:18:34Z</time>
      </trkpt>
      <trkpt lat="49.2687" lon="1.0581">
        <ele>46.5</ele>
        <time>2015-09-20T07:18:36Z</time>
      </trkpt>
      <trkpt lat="49.26881" lon="1.05798">
        <ele>46</ele>
        <time>2015-09-20T07:18:38Z</time>
      </trkpt>
      <trkpt lat="49.26881" lon="1.05782">
        <ele>45.6</ele>
        <time>2015-09-20T07:18:40Z</time>
      </trkpt>
      <trkpt lat="49.2688" lon="1.05767">
        <ele>45.1</ele>
        <time>2015-09-20T07:18:43Z</time>
      </trkpt>
      <trkpt lat="49.26877" lon="1.05754">
        <ele>44.8</ele>
        <time>2015-09-20T07:18:45Z</time>
      </trkpt>
      <trkpt lat="49.26872" lon="1.05737">
        <ele>44.5</ele>
        <time>2015-09-20T07:18:48Z</time>
      </trkpt>
      <trkpt lat="49.26867" lon="1.0572">
        <ele>44.2</ele>
        <time>2015-09-20T07:18:51Z</time>
      </trkpt>
      <trkpt lat="49.26861" lon="1.05707">
        <ele>44</ele>
        <time>2015-09-20T07:18:53Z</time>
      </trkpt>
      <trkpt lat="49.26855" lon="1.05692">
        <ele>43.8</ele>
        <time>2015-09-20T07:18:55Z</time>
      </trkpt>
      <trkpt lat="49.26851" lon="1.05679">
        <ele>43.7</ele>
        <time>2015-09-20T07:18:57Z</time>
      </trkpt>
      <trkpt lat="49.26846" lon="1.05665">
        <ele>43.6</ele>
        <time>2015-09-20T07:18:59Z</time>
      </trkpt>
      <trkpt lat="49.26841" lon="1.05653">
        <ele>43.5</ele>
        <time>2015-09-20T07:19:01Z</time>
      </trkpt>
      <trkpt lat="49.26835" lon="1.05639">
        <ele>43.4</ele>
        <time>2015-09-20T07:19:03Z</time>
      </trkpt>
      <trkpt lat="49.26829" lon="1.05627">
        <ele>43.4</ele>
        <time>2015-09-20T07:19:05Z</time>
      </trkpt>
      <trkpt lat="49.26822" lon="1.05614">
        <ele>43.4</ele>
        <time>2015-09-20T07:19:07Z</time>
      </trkpt>
      <trkpt lat="49.26814" lon="1.05601">
        <ele>43.5</ele>
        <time>2015-09-20T07:19:09Z</time>
      </trkpt>
      <trkpt lat="49.26807" lon="1.05589">
        <ele>43.5</ele>
        <time>2015-09-20T07:19:11Z</time>
      </trkpt>
      <trkpt lat="49.26801" lon="1.05578">
        <ele>43.6</ele>
        <time>2015-09-20T07:19:13Z</time>
      </trkpt>
      <trkpt lat="49.26796" lon="1.05564">
        <ele>43.6</ele>
        <time>2015-09-20T07:19:15Z</time>
      </trkpt>
      <trkpt lat="49.26793" lon="1.05547">
        <ele>43.7</ele>
        <time>2015-09-20T07:19:17Z</time>
      </trkpt>
      <trkpt lat="49.26793" lon="1.0553">
        <ele>43.7</ele>
        <time>2015-09-20T07:19:19Z</time>
      </trkpt>
      <trkpt lat="49.26795" lon="1.05514">
        <ele>43.8</ele>
        <time>2015-09-20T07:19:21Z</time>
      </trkpt>
      <trkpt lat="49.268" lon="1.05499">
        <ele>44</ele>
        <time>2015-09-20T07:19:23Z</time>
      </trkpt>
      <trkpt lat="49.26799" lon="1.05481">
        <ele>44.1</ele>
        <time>2015-09-20T07:19:25Z</time>
      </trkpt>
      <trkpt lat="49.26803" lon="1.05467">
        <ele>44.2</ele>
        <time>2015-09-20T07:19:27Z</time>
      </trkpt>
      <trkpt lat="49.26812" lon="1.05469">
        <ele>44.4</ele>
        <time>2015-09-20T07:19:32Z</time>
      </trkpt>
      <trkpt lat="49.26822" lon="1.05473">
        <ele>44.5</ele>
        <time>2015-09-20T07:19:35Z</time>
      </trkpt>
      <trkpt lat="49.2683" lon="1.05485">
        <ele>44.6</ele>
        <time>2015-09-20T07:19:38Z</time>
      </trkpt>
      <trkpt lat="49.26835" lon="1.05499">
        <ele>44.6</ele>
        <time>2015-09-20T07:19:41Z</time>
      </trkpt>
      <trkpt lat="49.26845" lon="1.05502">
        <ele>44.7</ele>
        <time>2015-09-20T07:19:43Z</time>
      </trkpt>
      <trkpt lat="49.26856" lon="1.05509">
        <ele>44.7</ele>
        <time>2015-09-20T07:19:46Z</time>
      </trkpt>
      <trkpt lat="49.26865" lon="1.05517">
        <ele>44.5</ele>
        <time>2015-09-20T07:19:49Z</time>
      </trkpt>
      <trkpt lat="49.2687" lon="1.05532">
        <ele>44.4</ele>
        <time>2015-09-20T07:19:53Z</time>
      </trkpt>
      <trkpt lat="49.26874" lon="1.05547">
        <ele>44.2</ele>
        <time>2015-09-20T07:19:56Z</time>
      </trkpt>
      <trkpt lat="49.2688" lon="1.0556">
        <ele>44.1</ele>
        <time>2015-09-20T07:19:59Z</time>
      </trkpt>
      <trkpt lat="49.26888" lon="1.05568">
        <ele>44</ele>
        <time>2015-09-20T07:20:01Z</time>
      </trkpt>
      <trkpt lat="49.26894" lon="1.05583">
        <ele>43.9</ele>
        <time>2015-09-20T07:20:04Z</time>
      </trkpt>
      <trkpt lat="49.26907" lon="1.05597">
        <ele>43.7</ele>
        <time>2015-09-20T07:20:06Z</time>
      </trkpt>
      <trkpt lat="49.26917" lon="1.05609">
        <ele>43.6</ele>
        <time>2015-09-20T07:20:08Z</time>
      </trkpt>
      <trkpt lat="49.26925" lon="1.0562">
        <ele>43.3</ele>
        <time>2015-09-20T07:20:10Z</time>
      </trkpt>
      <trkpt lat="49.26934" lon="1.05631">
        <ele>43</ele>
        <time>2015-09-20T07:20:12Z</time>
      </trkpt>
      <trkpt lat="49.26942" lon="1.0564">
        <ele>42.8</ele>
        <time>2015-09-20T07:20:14Z</time>
      </trkpt>
      <trkpt lat="49.26949" lon="1.05653">
        <ele>42.6</ele>
        <time>2015-09-20T07:20:16Z</time>
      </trkpt>
      <trkpt lat="49.26958" lon="1.05666">
        <ele>42.4</ele>
        <time>2015-09-20T07:20:19Z</time>
      </trkpt>
      <trkpt lat="49.26968" lon="1.0568">
        <ele>42.2</ele>
        <time>2015-09-20T07:20:22Z</time>
      </trkpt>
      <trkpt lat="49.26977" lon="1.05696">
        <ele>42</ele>
        <time>2015-09-20T07:20:25Z</time>
      </trkpt>
      <trkpt lat="49.26987" lon="1.05708">
        <ele>41.9</ele>
        <time>2015-09-20T07:20:28Z</time>
      </trkpt>
      <trkpt lat="49.26999" lon="1.05718">
        <ele>41.8</ele>
        <time>2015-09-20T07:20:31Z</time>
      </trkpt>
      <trkpt lat="49.27007" lon="1.05728">
        <ele>41.7</ele>
        <time>2015-09-20T07:20:33Z</time>
      </trkpt>
      <trkpt lat="49.27017" lon="1.05738">
        <ele>41.6</ele>
        <time>2015-09-20T07:20:35Z</time>
      </trkpt>
      <trkpt lat="49.27026" lon="1.05749">
        <ele>41.6</ele>
        <time>2015-09-20T07:20:37Z</time>
      </trkpt>
      <trkpt lat="49.27033" lon="1.0576">
        <ele>41.5</ele>
        <time>2015-09-20T07:20:39Z</time>
      </trkpt>
      <trkpt lat="49.27042" lon="1.0577">
        <ele>41.4</ele>
        <time>2015-09-20T07:20:41Z</time>
      </trkpt>
      <trkpt lat="49.27049" lon="1.0578">
        <ele>41.3</ele>
        <time>2015-09-20T07:20:43Z</time>
      </trkpt>
      <trkpt lat="49.27058" lon="1.05797">
        <ele>41.2</ele>
        <time>2015-09-20T07:20:46Z</time>
      </trkpt>
      <trkpt lat="49.27064" lon="1.05808">
        <ele>41.1</ele>
        <time>2015-09-20T07:20:48Z</time>
      </trkpt>
      <trkpt lat="49.27075" lon="1.05823">
        <ele>40.9</ele>
        <time>2015-09-20T07:20:51Z</time>
      </trkpt>
      <trkpt lat="49.27084" lon="1.05833">
        <ele>40.8</ele>
        <time>2015-09-20T07:20:53Z</time>
      </trkpt>
      <trkpt lat="49.27092" lon="1.05845">
        <ele>40.7</ele>
        <time>2015-09-20T07:20:56Z</time>
      </trkpt>
      <trkpt lat="49.271" lon="1.05854">
        <ele>40.6</ele>
        <time>2015-09-20T07:20:58Z</time>
      </trkpt>
      <trkpt lat="49.27109" lon="1.0586">
        <ele>40.5</ele>
        <time>2015-09-20T07:20:59Z</time>
      </trkpt>
      <trkpt lat="49.27118" lon="1.05872">
        <ele>40.5</ele>
        <time>2015-09-20T07:21:01Z</time>
      </trkpt>
      <trkpt lat="49.27128" lon="1.05883">
        <ele>40.4</ele>
        <time>2015-09-20T07:21:03Z</time>
      </trkpt>
      <trkpt lat="49.27141" lon="1.05894">
        <ele>40.3</ele>
        <time>2015-09-20T07:21:05Z</time>
      </trkpt>
      <trkpt lat="49.27153" lon="1.05906">
        <ele>40.2</ele>
        <time>2015-09-20T07:21:07Z</time>
      </trkpt>
      <trkpt lat="49.27163" lon="1.05917">
        <ele>40.1</ele>
        <time>2015-09-20T07:21:09Z</time>
      </trkpt>
      <trkpt lat="49.27171" lon="1.05929">
        <ele>40</ele>
        <time>2015-09-20T07:21:11Z</time>
      </trkpt>
      <trkpt lat="49.27181" lon="1.05941">
        <ele>39.9</ele>
        <time>2015-09-20T07:21:13Z</time>
      </trkpt>
      <trkpt lat="49.27189" lon="1.05952">
        <ele>39.7</ele>
        <time>2015-09-20T07:21:15Z</time>
      </trkpt>
      <trkpt lat="49.27197" lon="1.05964">
        <ele>39.6</ele>
        <time>2015-09-20T07:21:17Z</time>
      </trkpt>
      <trkpt lat="49.27207" lon="1.05975">
        <ele>39.6</ele>
        <time>2015-09-20T07:21:19Z</time>
      </trkpt>
      <trkpt lat="49.27217" lon="1.05986">
        <ele>39.5</ele>
        <time>2015-09-20T07:21:21Z</time>
      </trkpt>
      <trkpt lat="49.27224" lon="1.05999">
        <ele>39.4</ele>
        <time>2015-09-20T07:21:23Z</time>
      </trkpt>
      <trkpt lat="49.27233" lon="1.06012">
        <ele>39.3</ele>
        <time>2015-09-20T07:21:25Z</time>
      </trkpt>
      <trkpt lat="49.27241" lon="1.06023">
        <ele>39.3</ele>
        <time>2015-09-20T07:21:27Z</time>
      </trkpt>
      <trkpt lat="49.27249" lon="1.06035">
        <ele>39.2</ele>
        <time>2015-09-20T07:21:29Z</time>
      </trkpt>
      <trkpt lat="49.27258" lon="1.06045">
        <ele>39.2</ele>
        <time>2015-09-20T07:21:31Z</time>
      </trkpt>
      <trkpt lat="49.27265" lon="1.06055">
        <ele>39.1</ele>
        <time>2015-09-20T07:21:33Z</time>
      </trkpt>
      <trkpt lat="49.27273" lon="1.06067">
        <ele>39.1</ele>
        <time>2015-09-20T07:21:35Z</time>
      </trkpt>
      <trkpt lat="49.27281" lon="1.06077">
        <ele>39</ele>
        <time>2015-09-20T07:21:37Z</time>
      </trkpt>
      <trkpt lat="49.27289" lon="1.06086">
        <ele>39</ele>
        <time>2015-09-20T07:21:39Z</time>
      </trkpt>
      <trkpt lat="49.27297" lon="1.06096">
        <ele>39</ele>
        <time>2015-09-20T07:21:41Z</time>
      </trkpt>
      <trkpt lat="49.27304" lon="1.06109">
        <ele>39</ele>
        <time>2015-09-20T07:21:43Z</time>
      </trkpt>
      <trkpt lat="49.27312" lon="1.0612">
        <ele>38.9</ele>
        <time>2015-09-20T07:21:45Z</time>
      </trkpt>
      <trkpt lat="49.2732" lon="1.06131">
        <ele>38.9</ele>
        <time>2015-09-20T07:21:47Z</time>
      </trkpt>
      <trkpt lat="49.27327" lon="1.0614">
        <ele>38.8</ele>
        <time>2015-09-20T07:21:49Z</time>
      </trkpt>
      <trkpt lat="49.27333" lon="1.06152">
        <ele>38.8</ele>
        <time>2015-09-20T07:21:51Z</time>
      </trkpt>
      <trkpt lat="49.27341" lon="1.06161">
        <ele>38.8</ele>
        <time>2015-09-20T07:21:54Z</time>
      </trkpt>
      <trkpt lat="49.27349" lon="1.06169">
        <ele>38.7</ele>
        <time>2015-09-20T07:21:56Z</time>
      </trkpt>
      <trkpt lat="49.27356" lon="1.0618">
        <ele>38.7</ele>
        <time>2015-09-20T07:21:58Z</time>
      </trkpt>
      <trkpt lat="49.27364" lon="1.06188">
        <ele>38.7</ele>
        <time>2015-09-20T07:22:00Z</time>
      </trkpt>
      <trkpt lat="49.27371" lon="1.06197">
        <ele>38.7</ele>
        <time>2015-09-20T07:22:02Z</time>
      </trkpt>
      <trkpt lat="49.27381" lon="1.06212">
        <ele>38.7</ele>
        <time>2015-09-20T07:22:05Z</time>
      </trkpt>
      <trkpt lat="49.27387" lon="1.06221">
        <ele>38.6</ele>
        <time>2015-09-20T07:22:07Z</time>
      </trkpt>
      <trkpt lat="49.27396" lon="1.06229">
        <ele>38.6</ele>
        <time>2015-09-20T07:22:09Z</time>
      </trkpt>
      <trkpt lat="49.27405" lon="1.06241">
        <ele>38.6</ele>
        <time>2015-09-20T07:22:12Z</time>
      </trkpt>
      <trkpt lat="49.27414" lon="1.06253">
        <ele>38.6</ele>
        <time>2015-09-20T07:22:15Z</time>
      </trkpt>
      <trkpt lat="49.27424" lon="1.06263">
        <ele>38.6</ele>
        <time>2015-09-20T07:22:18Z</time>
      </trkpt>
      <trkpt lat="49.27434" lon="1.06275">
        <ele>38.5</ele>
        <time>2015-09-20T07:22:21Z</time>
      </trkpt>
      <trkpt lat="49.27441" lon="1.06285">
        <ele>38.5</ele>
        <time>2015-09-20T07:22:23Z</time>
      </trkpt>
      <trkpt lat="49.27449" lon="1.06295">
        <ele>38.5</ele>
        <time>2015-09-20T07:22:25Z</time>
      </trkpt>
      <trkpt lat="49.27456" lon="1.06304">
        <ele>38.5</ele>
        <time>2015-09-20T07:22:27Z</time>
      </trkpt>
      <trkpt lat="49.27463" lon="1.06314">
        <ele>38.5</ele>
        <time>2015-09-20T07:22:29Z</time>
      </trkpt>
      <trkpt lat="49.2747" lon="1.06323">
        <ele>38.5</ele>
        <time>2015-09-20T07:22:31Z</time>
      </trkpt>
      <trkpt lat="49.27477" lon="1.06333">
        <ele>38.5</ele>
        <time>2015-09-20T07:22:33Z</time>
      </trkpt>
      <trkpt lat="49.27485" lon="1.06344">
        <ele>38.5</ele>
        <time>2015-09-20T07:22:35Z</time>
      </trkpt>
      <trkpt lat="49.27492" lon="1.06353">
        <ele>38.5</ele>
        <time>2015-09-20T07:22:37Z</time>
      </trkpt>
      <trkpt lat="49.27502" lon="1.0636">
        <ele>38.5</ele>
        <time>2015-09-20T07:22:41Z</time>
      </trkpt>
      <trkpt lat="49.27508" lon="1.06374">
        <ele>38.5</ele>
        <time>2015-09-20T07:22:44Z</time>
      </trkpt>
      <trkpt lat="49.27518" lon="1.06387">
        <ele>38.5</ele>
        <time>2015-09-20T07:22:47Z</time>
      </trkpt>
      <trkpt lat="49.27527" lon="1.06401">
        <ele>38.4</ele>
        <time>2015-09-20T07:22:50Z</time>
      </trkpt>
      <trkpt lat="49.27535" lon="1.06409">
        <ele>38.4</ele>
        <time>2015-09-20T07:22:52Z</time>
      </trkpt>
      <trkpt lat="49.27543" lon="1.06419">
        <ele>38.4</ele>
        <time>2015-09-20T07:22:54Z</time>
      </trkpt>
      <trkpt lat="49.27551" lon="1.06428">
        <ele>38.4</ele>
        <time>2015-09-20T07:22:56Z</time>
      </trkpt>
      <trkpt lat="49.27558" lon="1.06439">
        <ele>38.3</ele>
        <time>2015-09-20T07:22:58Z</time>
      </trkpt>
      <trkpt lat="49.27566" lon="1.06448">
        <ele>38.3</ele>
        <time>2015-09-20T07:23:00Z</time>
      </trkpt>
      <trkpt lat="49.27574" lon="1.06457">
        <ele>38.3</ele>
        <time>2015-09-20T07:23:02Z</time>
      </trkpt>
      <trkpt lat="49.27581" lon="1.06467">
        <ele>38.3</ele>
        <time>2015-09-20T07:23:04Z</time>
      </trkpt>
      <trkpt lat="49.27581" lon="1.06483">
        <ele>38.1</ele>
        <time>2015-09-20T07:23:09Z</time>
      </trkpt>
      <trkpt lat="49.27573" lon="1.06493">
        <ele>38</ele>
        <time>2015-09-20T07:23:12Z</time>
      </trkpt>
      <trkpt lat="49.27565" lon="1.06505">
        <ele>37.8</ele>
        <time>2015-09-20T07:23:15Z</time>
      </trkpt>
      <trkpt lat="49.27557" lon="1.06512">
        <ele>37.6</ele>
        <time>2015-09-20T07:23:18Z</time>
      </trkpt>
      <trkpt lat="49.27547" lon="1.0652">
        <ele>37.5</ele>
        <time>2015-09-20T07:23:21Z</time>
      </trkpt>
      <trkpt lat="49.27537" lon="1.06531">
        <ele>37.5</ele>
        <time>2015-09-20T07:23:24Z</time>
      </trkpt>
      <trkpt lat="49.27529" lon="1.06543">
        <ele>37.5</ele>
        <time>2015-09-20T07:23:27Z</time>
      </trkpt>
      <trkpt lat="49.27524" lon="1.06555">
        <ele>37.5</ele>
        <time>2015-09-20T07:23:30Z</time>
      </trkpt>
      <trkpt lat="49.27516" lon="1.06562">
        <ele>37.6</ele>
        <time>2015-09-20T07:23:33Z</time>
      </trkpt>
      <trkpt lat="49.27508" lon="1.06576">
        <ele>37.7</ele>
        <time>2015-09-20T07:23:37Z</time>
      </trkpt>
      <trkpt lat="49.27497" lon="1.06584">
        <ele>37.8</ele>
        <time>2015-09-20T07:23:41Z</time>
      </trkpt>
      <trkpt lat="49.27488" lon="1.06585">
        <ele>37.9</ele>
        <time>2015-09-20T07:23:44Z</time>
      </trkpt>
      <trkpt lat="49.27478" lon="1.06586">
        <ele>37.9</ele>
        <time>2015-09-20T07:23:47Z</time>
      </trkpt>
      <trkpt lat="49.27469" lon="1.0659">
        <ele>38</ele>
        <time>2015-09-20T07:23:50Z</time>
      </trkpt>
      <trkpt lat="49.27459" lon="1.06595">
        <ele>38.1</ele>
        <time>2015-09-20T07:23:53Z</time>
      </trkpt>
      <trkpt lat="49.2745" lon="1.06595">
        <ele>38.1</ele>
        <time>2015-09-20T07:23:56Z</time>
      </trkpt>
      <trkpt lat="49.27442" lon="1.06585">
        <ele>38.2</ele>
        <time>2015-09-20T07:23:59Z</time>
      </trkpt>
      <trkpt lat="49.27435" lon="1.06574">
        <ele>38.3</ele>
        <time>2015-09-20T07:24:03Z</time>
      </trkpt>
      <trkpt lat="49.27425" lon="1.06564">
        <ele>38.5</ele>
        <time>2015-09-20T07:24:06Z</time>
      </trkpt>
      <trkpt lat="49.27413" lon="1.06564">
        <ele>38.6</ele>
        <time>2015-09-20T07:24:09Z</time>
      </trkpt>
      <trkpt lat="49.27404" lon="1.06576">
        <ele>38.7</ele>
        <time>2015-09-20T07:24:12Z</time>
      </trkpt>
      <trkpt lat="49.27396" lon="1.06586">
        <ele>38.8</ele>
        <time>2015-09-20T07:24:14Z</time>
      </trkpt>
      <trkpt lat="49.27389" lon="1.06597">
        <ele>38.8</ele>
        <time>2015-09-20T07:24:16Z</time>
      </trkpt>
      <trkpt lat="49.27384" lon="1.06609">
        <ele>38.9</ele>
        <time>2015-09-20T07:24:18Z</time>
      </trkpt>
      <trkpt lat="49.27377" lon="1.06619">
        <ele>38.9</ele>
        <time>2015-09-20T07:24:20Z</time>
      </trkpt>
      <trkpt lat="49.27368" lon="1.06628">
        <ele>39</ele>
        <time>2015-09-20T07:24:22Z</time>
      </trkpt>
      <trkpt lat="49.2736" lon="1.0664">
        <ele>39.1</ele>
        <time>2015-09-20T07:24:25Z</time>
      </trkpt>
      <trkpt lat="49.27355" lon="1.06652">
        <ele>39.2</ele>
        <time>2015-09-20T07:24:27Z</time>
      </trkpt>
      <trkpt lat="49.27347" lon="1.06666">
        <ele>39.4</ele>
        <time>2015-09-20T07:24:30Z</time>
      </trkpt>
      <trkpt lat="49.27337" lon="1.06675">
        <ele>39.5</ele>
        <time>2015-09-20T07:24:32Z</time>
      </trkpt>
      <trkpt lat="49.27327" lon="1.06691">
        <ele>39.7</ele>
        <time>2015-09-20T07:24:35Z</time>
      </trkpt>
      <trkpt lat="49.27318" lon="1.06706">
        <ele>39.8</ele>
        <time>2015-09-20T07:24:38Z</time>
      </trkpt>
      <trkpt lat="49.27311" lon="1.06719">
        <ele>40</ele>
        <time>2015-09-20T07:24:40Z</time>
      </trkpt>
      <trkpt lat="49.27303" lon="1.06729">
        <ele>40.1</ele>
        <time>2015-09-20T07:24:42Z</time>
      </trkpt>
      <trkpt lat="49.27295" lon="1.06738">
        <ele>40.3</ele>
        <time>2015-09-20T07:24:44Z</time>
      </trkpt>
      <trkpt lat="49.27281" lon="1.06749">
        <ele>40.4</ele>
        <time>2015-09-20T07:24:46Z</time>
      </trkpt>
      <trkpt lat="49.27267" lon="1.06748">
        <ele>40.6</ele>
        <time>2015-09-20T07:24:48Z</time>
      </trkpt>
      <trkpt lat="49.27257" lon="1.06743">
        <ele>40.7</ele>
        <time>2015-09-20T07:24:50Z</time>
      </trkpt>
      <trkpt lat="49.2725" lon="1.06736">
        <ele>40.8</ele>
        <time>2015-09-20T07:24:52Z</time>
      </trkpt>
      <trkpt lat="49.27241" lon="1.06728">
        <ele>41</ele>
        <time>2015-09-20T07:24:54Z</time>
      </trkpt>
      <trkpt lat="49.27232" lon="1.06719">
        <ele>41.1</ele>
        <time>2015-09-20T07:24:56Z</time>
      </trkpt>
      <trkpt lat="49.27223" lon="1.06709">
        <ele>41.1</ele>
        <time>2015-09-20T07:24:58Z</time>
      </trkpt>
      <trkpt lat="49.27215" lon="1.06699">
        <ele>41.2</ele>
        <time>2015-09-20T07:25:00Z</time>
      </trkpt>
      <trkpt lat="49.27206" lon="1.06688">
        <ele>41.4</ele>
        <time>2015-09-20T07:25:02Z</time>
      </trkpt>
      <trkpt lat="49.27197" lon="1.06678">
        <ele>41.5</ele>
        <time>2015-09-20T07:25:04Z</time>
      </trkpt>
      <trkpt lat="49.27189" lon="1.06668">
        <ele>41.6</ele>
        <time>2015-09-20T07:25:06Z</time>
      </trkpt>
      <trkpt lat="49.2718" lon="1.06658">
        <ele>41.8</ele>
        <time>2015-09-20T07:25:08Z</time>
      </trkpt>
      <trkpt lat="49.27172" lon="1.06647">
        <ele>41.9</ele>
        <time>2015-09-20T07:25:10Z</time>
      </trkpt>
      <trkpt lat="49.27163" lon="1.06636">
        <ele>42</ele>
        <time>2015-09-20T07:25:12Z</time>
      </trkpt>
      <trkpt lat="49.27155" lon="1.06624">
        <ele>42.1</ele>
        <time>2015-09-20T07:25:14Z</time>
      </trkpt>
      <trkpt lat="49.27146" lon="1.06613">
        <ele>42.2</ele>
        <time>2015-09-20T07:25:16Z</time>
      </trkpt>
      <trkpt lat="49.27137" lon="1.06602">
        <ele>42.4</ele>
        <time>2015-09-20T07:25:18Z</time>
      </trkpt>
      <trkpt lat="49.27129" lon="1.06592">
        <ele>42.5</ele>
        <time>2015-09-20T07:25:20Z</time>
      </trkpt>
      <trkpt lat="49.27119" lon="1.0658">
        <ele>42.6</ele>
        <time>2015-09-20T07:25:22Z</time>
      </trkpt>
      <trkpt lat="49.2711" lon="1.06569">
        <ele>42.7</ele>
        <time>2015-09-20T07:25:24Z</time>
      </trkpt>
      <trkpt lat="49.27102" lon="1.06558">
        <ele>42.8</ele>
        <time>2015-09-20T07:25:26Z</time>
      </trkpt>
      <trkpt lat="49.27093" lon="1.06547">
        <ele>42.9</ele>
        <time>2015-09-20T07:25:28Z</time>
      </trkpt>
      <trkpt lat="49.27084" lon="1.06536">
        <ele>42.9</ele>
        <time>2015-09-20T07:25:30Z</time>
      </trkpt>
      <trkpt lat="49.27077" lon="1.06525">
        <ele>43</ele>
        <time>2015-09-20T07:25:32Z</time>
      </trkpt>
      <trkpt lat="49.2707" lon="1.06514">
        <ele>43.1</ele>
        <time>2015-09-20T07:25:35Z</time>
      </trkpt>
      <trkpt lat="49.27063" lon="1.06525">
        <ele>43.1</ele>
        <time>2015-09-20T07:25:38Z</time>
      </trkpt>
      <trkpt lat="49.27054" lon="1.06534">
        <ele>43.1</ele>
        <time>2015-09-20T07:25:40Z</time>
      </trkpt>
      <trkpt lat="49.27046" lon="1.06548">
        <ele>43.2</ele>
        <time>2015-09-20T07:25:43Z</time>
      </trkpt>
      <trkpt lat="49.27036" lon="1.06558">
        <ele>43.2</ele>
        <time>2015-09-20T07:25:45Z</time>
      </trkpt>
      <trkpt lat="49.27029" lon="1.06567">
        <ele>43.3</ele>
        <time>2015-09-20T07:25:47Z</time>
      </trkpt>
      <trkpt lat="49.2702" lon="1.06581">
        <ele>43.4</ele>
        <time>2015-09-20T07:25:50Z</time>
      </trkpt>
      <trkpt lat="49.27014" lon="1.06596">
        <ele>43.6</ele>
        <time>2015-09-20T07:25:53Z</time>
      </trkpt>
      <trkpt lat="49.27014" lon="1.06611">
        <ele>43.7</ele>
        <time>2015-09-20T07:25:56Z</time>
      </trkpt>
      <trkpt lat="49.27022" lon="1.06626">
        <ele>43.9</ele>
        <time>2015-09-20T07:26:00Z</time>
      </trkpt>
      <trkpt lat="49.27029" lon="1.0664">
        <ele>44.2</ele>
        <time>2015-09-20T07:26:03Z</time>
      </trkpt>
      <trkpt lat="49.27026" lon="1.06654">
        <ele>44.4</ele>
        <time>2015-09-20T07:26:06Z</time>
      </trkpt>
      <trkpt lat="49.27019" lon="1.06666">
        <ele>44.6</ele>
        <time>2015-09-20T07:26:09Z</time>
      </trkpt>
      <trkpt lat="49.27013" lon="1.06677">
        <ele>44.8</ele>
        <time>2015-09-20T07:26:12Z</time>
      </trkpt>
      <trkpt lat="49.27006" lon="1.06686">
        <ele>45</ele>
        <time>2015-09-20T07:26:15Z</time>
      </trkpt>
      <trkpt lat="49.27004" lon="1.06701">
        <ele>45.3</ele>
        <time>2015-09-20T07:26:19Z</time>
      </trkpt>
      <trkpt lat="49.26995" lon="1.06717">
        <ele>45.7</ele>
        <time>2015-09-20T07:26:23Z</time>
      </trkpt>
      <trkpt lat="49.26989" lon="1.0673">
        <ele>45.9</ele>
        <time>2015-09-20T07:26:26Z</time>
      </trkpt>
      <trkpt lat="49.2698" lon="1.06745">
        <ele>46.2</ele>
        <time>2015-09-20T07:26:29Z</time>
      </trkpt>
      <trkpt lat="49.26972" lon="1.06755">
        <ele>46.4</ele>
        <time>2015-09-20T07:26:31Z</time>
      </trkpt>
      <trkpt lat="49.26965" lon="1.06769">
        <ele>46.8</ele>
        <time>2015-09-20T07:26:34Z</time>
      </trkpt>
      <trkpt lat="49.26956" lon="1.06786">
        <ele>47.2</ele>
        <time>2015-09-20T07:26:37Z</time>
      </trkpt>
      <trkpt lat="49.26955" lon="1.06805">
        <ele>47.7</ele>
        <time>2015-09-20T07:26:40Z</time>
      </trkpt>
      <trkpt lat="49.26957" lon="1.0682">
        <ele>48</ele>
        <time>2015-09-20T07:26:43Z</time>
      </trkpt>
      <trkpt lat="49.2696" lon="1.06834">
        <ele>48.4</ele>
        <time>2015-09-20T07:26:46Z</time>
      </trkpt>
      <trkpt lat="49.26955" lon="1.06847">
        <ele>48.6</ele>
        <time>2015-09-20T07:26:49Z</time>
      </trkpt>
      <trkpt lat="49.26951" lon="1.06862">
        <ele>49</ele>
        <time>2015-09-20T07:26:54Z</time>
      </trkpt>
      <trkpt lat="49.26946" lon="1.06876">
        <ele>49.3</ele>
        <time>2015-09-20T07:26:57Z</time>
      </trkpt>
      <trkpt lat="49.26941" lon="1.06889">
        <ele>49.9</ele>
        <time>2015-09-20T07:27:02Z</time>
      </trkpt>
      <trkpt lat="49.26933" lon="1.06903">
        <ele>50.5</ele>
        <time>2015-09-20T07:27:06Z</time>
      </trkpt>
      <trkpt lat="49.26926" lon="1.06913">
        <ele>51</ele>
        <time>2015-09-20T07:27:09Z</time>
      </trkpt>
      <trkpt lat="49.26918" lon="1.06924">
        <ele>51.8</ele>
        <time>2015-09-20T07:27:13Z</time>
      </trkpt>
      <trkpt lat="49.26912" lon="1.06941">
        <ele>52.7</ele>
        <time>2015-09-20T07:27:17Z</time>
      </trkpt>
      <trkpt lat="49.26905" lon="1.0695">
        <ele>53.1</ele>
        <time>2015-09-20T07:27:19Z</time>
      </trkpt>
      <trkpt lat="49.269" lon="1.06963">
        <ele>53.7</ele>
        <time>2015-09-20T07:27:22Z</time>
      </trkpt>
      <trkpt lat="49.26895" lon="1.06976">
        <ele>54.3</ele>
        <time>2015-09-20T07:27:25Z</time>
      </trkpt>
      <trkpt lat="49.26899" lon="1.0699">
        <ele>54.8</ele>
        <time>2015-09-20T07:27:28Z</time>
      </trkpt>
      <trkpt lat="49.26902" lon="1.07006">
        <ele>55.5</ele>
        <time>2015-09-20T07:27:32Z</time>
      </trkpt>
      <trkpt lat="49.26901" lon="1.07021">
        <ele>56</ele>
        <time>2015-09-20T07:27:35Z</time>
      </trkpt>
      <trkpt lat="49.269" lon="1.07036">
        <ele>56.4</ele>
        <time>2015-09-20T07:27:38Z</time>
      </trkpt>
      <trkpt lat="49.26897" lon="1.07053">
        <ele>56.9</ele>
        <time>2015-09-20T07:27:41Z</time>
      </trkpt>
      <trkpt lat="49.26897" lon="1.07068">
        <ele>57.3</ele>
        <time>2015-09-20T07:27:44Z</time>
      </trkpt>
      <trkpt lat="49.26897" lon="1.07085">
        <ele>57.7</ele>
        <time>2015-09-20T07:27:47Z</time>
      </trkpt>
      <trkpt lat="49.26897" lon="1.07103">
        <ele>58</ele>
        <time>2015-09-20T07:27:50Z</time>
      </trkpt>
      <trkpt lat="49.26898" lon="1.07122">
        <ele>58.3</ele>
        <time>2015-09-20T07:27:53Z</time>
      </trkpt>
      <trkpt lat="49.26902" lon="1.0714">
        <ele>58.6</ele>
        <time>2015-09-20T07:27:56Z</time>
      </trkpt>
      <trkpt lat="49.26905" lon="1.07158">
        <ele>58.9</ele>
        <time>2015-09-20T07:27:59Z</time>
      </trkpt>
      <trkpt lat="49.26906" lon="1.07176">
        <ele>59.1</ele>
        <time>2015-09-20T07:28:02Z</time>
      </trkpt>
      <trkpt lat="49.26902" lon="1.07192">
        <ele>59.2</ele>
        <time>2015-09-20T07:28:04Z</time>
      </trkpt>
      <trkpt lat="49.26901" lon="1.07207">
        <ele>59.3</ele>
        <time>2015-09-20T07:28:06Z</time>
      </trkpt>
      <trkpt lat="49.26901" lon="1.07221">
        <ele>59.4</ele>
        <time>2015-09-20T07:28:08Z</time>
      </trkpt>
      <trkpt lat="49.26898" lon="1.07241">
        <ele>59.5</ele>
        <time>2015-09-20T07:28:11Z</time>
      </trkpt>
      <trkpt lat="49.26895" lon="1.07261">
        <ele>59.6</ele>
        <time>2015-09-20T07:28:14Z</time>
      </trkpt>
      <trkpt lat="49.26892" lon="1.07274">
        <ele>59.7</ele>
        <time>2015-09-20T07:28:16Z</time>
      </trkpt>
      <trkpt lat="49.26899" lon="1.07288">
        <ele>59.8</ele>
        <time>2015-09-20T07:28:18Z</time>
      </trkpt>
      <trkpt lat="49.26904" lon="1.07304">
        <ele>59.8</ele>
        <time>2015-09-20T07:28:21Z</time>
      </trkpt>
      <trkpt lat="49.26915" lon="1.07317">
        <ele>59.9</ele>
        <time>2015-09-20T07:28:23Z</time>
      </trkpt>
      <trkpt lat="49.26924" lon="1.0733">
        <ele>59.9</ele>
        <time>2015-09-20T07:28:25Z</time>
      </trkpt>
      <trkpt lat="49.26933" lon="1.07342">
        <ele>59.7</ele>
        <time>2015-09-20T07:28:27Z</time>
      </trkpt>
      <trkpt lat="49.26942" lon="1.07355">
        <ele>59.6</ele>
        <time>2015-09-20T07:28:29Z</time>
      </trkpt>
      <trkpt lat="49.26951" lon="1.07371">
        <ele>59.4</ele>
        <time>2015-09-20T07:28:31Z</time>
      </trkpt>
      <trkpt lat="49.26958" lon="1.07387">
        <ele>59.3</ele>
        <time>2015-09-20T07:28:33Z</time>
      </trkpt>
      <trkpt lat="49.26962" lon="1.07403">
        <ele>59</ele>
        <time>2015-09-20T07:28:35Z</time>
      </trkpt>
      <trkpt lat="49.26966" lon="1.07424">
        <ele>59.1</ele>
        <time>2015-09-20T07:28:38Z</time>
      </trkpt>
      <trkpt lat="49.26967" lon="1.07437">
        <ele>59.1</ele>
        <time>2015-09-20T07:28:40Z</time>
      </trkpt>
      <trkpt lat="49.26971" lon="1.07451">
        <ele>59</ele>
        <time>2015-09-20T07:28:42Z</time>
      </trkpt>
      <trkpt lat="49.26979" lon="1.07464">
        <ele>59</ele>
        <time>2015-09-20T07:28:44Z</time>
      </trkpt>
      <trkpt lat="49.26987" lon="1.07477">
        <ele>59.1</ele>
        <time>2015-09-20T07:28:46Z</time>
      </trkpt>
      <trkpt lat="49.26996" lon="1.07491">
        <ele>59.2</ele>
        <time>2015-09-20T07:28:49Z</time>
      </trkpt>
      <trkpt lat="49.27003" lon="1.07504">
        <ele>59.3</ele>
        <time>2015-09-20T07:28:52Z</time>
      </trkpt>
      <trkpt lat="49.27013" lon="1.07511">
        <ele>59.3</ele>
        <time>2015-09-20T07:28:54Z</time>
      </trkpt>
      <trkpt lat="49.27024" lon="1.07523">
        <ele>59.3</ele>
        <time>2015-09-20T07:28:56Z</time>
      </trkpt>
      <trkpt lat="49.27032" lon="1.07535">
        <ele>59.4</ele>
        <time>2015-09-20T07:28:58Z</time>
      </trkpt>
      <trkpt lat="49.27037" lon="1.07548">
        <ele>59.4</ele>
        <time>2015-09-20T07:29:00Z</time>
      </trkpt>
      <trkpt lat="49.27036" lon="1.07563">
        <ele>59.4</ele>
        <time>2015-09-20T07:29:03Z</time>
      </trkpt>
      <trkpt lat="49.2703" lon="1.07577">
        <ele>59.4</ele>
        <time>2015-09-20T07:29:06Z</time>
      </trkpt>
      <trkpt lat="49.27027" lon="1.07591">
        <ele>59.4</ele>
        <time>2015-09-20T07:29:09Z</time>
      </trkpt>
      <trkpt lat="49.27025" lon="1.07607">
        <ele>59.5</ele>
        <time>2015-09-20T07:29:12Z</time>
      </trkpt>
      <trkpt lat="49.27021" lon="1.0762">
        <ele>59.7</ele>
        <time>2015-09-20T07:29:15Z</time>
      </trkpt>
      <trkpt lat="49.27017" lon="1.07636">
        <ele>60</ele>
        <time>2015-09-20T07:29:18Z</time>
      </trkpt>
      <trkpt lat="49.2701" lon="1.07651">
        <ele>60.3</ele>
        <time>2015-09-20T07:29:21Z</time>
      </trkpt>
      <trkpt lat="49.27002" lon="1.07665">
        <ele>60.6</ele>
        <time>2015-09-20T07:29:24Z</time>
      </trkpt>
      <trkpt lat="49.26995" lon="1.0768">
        <ele>60.9</ele>
        <time>2015-09-20T07:29:27Z</time>
      </trkpt>
      <trkpt lat="49.26988" lon="1.07693">
        <ele>61.3</ele>
        <time>2015-09-20T07:29:30Z</time>
      </trkpt>
      <trkpt lat="49.2698" lon="1.07708">
        <ele>61.7</ele>
        <time>2015-09-20T07:29:33Z</time>
      </trkpt>
      <trkpt lat="49.26973" lon="1.07723">
        <ele>62.2</ele>
        <time>2015-09-20T07:29:36Z</time>
      </trkpt>
      <trkpt lat="49.26966" lon="1.07739">
        <ele>62.7</ele>
        <time>2015-09-20T07:29:39Z</time>
      </trkpt>
      <trkpt lat="49.2696" lon="1.07753">
        <ele>63.1</ele>
        <time>2015-09-20T07:29:42Z</time>
      </trkpt>
      <trkpt lat="49.26954" lon="1.07767">
        <ele>63.6</ele>
        <time>2015-09-20T07:29:45Z</time>
      </trkpt>
      <trkpt lat="49.26949" lon="1.0778">
        <ele>64.2</ele>
        <time>2015-09-20T07:29:48Z</time>
      </trkpt>
      <trkpt lat="49.26945" lon="1.07795">
        <ele>64.9</ele>
        <time>2015-09-20T07:29:52Z</time>
      </trkpt>
      <trkpt lat="49.26937" lon="1.07809">
        <ele>65.6</ele>
        <time>2015-09-20T07:29:56Z</time>
      </trkpt>
      <trkpt lat="49.26931" lon="1.0782">
        <ele>66.2</ele>
        <time>2015-09-20T07:29:59Z</time>
      </trkpt>
      <trkpt lat="49.26924" lon="1.07834">
        <ele>67</ele>
        <time>2015-09-20T07:30:03Z</time>
      </trkpt>
      <trkpt lat="49.26918" lon="1.07845">
        <ele>67.7</ele>
        <time>2015-09-20T07:30:06Z</time>
      </trkpt>
      <trkpt lat="49.26913" lon="1.07859">
        <ele>68.4</ele>
        <time>2015-09-20T07:30:10Z</time>
      </trkpt>
      <trkpt lat="49.26904" lon="1.07869">
        <ele>69.1</ele>
        <time>2015-09-20T07:30:14Z</time>
      </trkpt>
      <trkpt lat="49.26897" lon="1.07883">
        <ele>70.2</ele>
        <time>2015-09-20T07:30:19Z</time>
      </trkpt>
      <trkpt lat="49.26889" lon="1.07895">
        <ele>70.8</ele>
        <time>2015-09-20T07:30:22Z</time>
      </trkpt>
      <trkpt lat="49.26882" lon="1.07906">
        <ele>71.7</ele>
        <time>2015-09-20T07:30:26Z</time>
      </trkpt>
      <trkpt lat="49.26876" lon="1.07921">
        <ele>72.7</ele>
        <time>2015-09-20T07:30:31Z</time>
      </trkpt>
      <trkpt lat="49.26871" lon="1.07935">
        <ele>74</ele>
        <time>2015-09-20T07:30:36Z</time>
      </trkpt>
      <trkpt lat="49.26865" lon="1.0795">
        <ele>75</ele>
        <time>2015-09-20T07:30:40Z</time>
      </trkpt>
      <trkpt lat="49.26867" lon="1.07964">
        <ele>76</ele>
        <time>2015-09-20T07:30:44Z</time>
      </trkpt>
      <trkpt lat="49.2687" lon="1.07978">
        <ele>76.9</ele>
        <time>2015-09-20T07:30:48Z</time>
      </trkpt>
      <trkpt lat="49.26876" lon="1.0799">
        <ele>77.4</ele>
        <time>2015-09-20T07:30:51Z</time>
      </trkpt>
      <trkpt lat="49.26882" lon="1.08001">
        <ele>77.9</ele>
        <time>2015-09-20T07:30:54Z</time>
      </trkpt>
      <trkpt lat="49.2689" lon="1.08014">
        <ele>78.3</ele>
        <time>2015-09-20T07:30:57Z</time>
      </trkpt>
      <trkpt lat="49.26897" lon="1.08024">
        <ele>78.6</ele>
        <time>2015-09-20T07:31:00Z</time>
      </trkpt>
      <trkpt lat="49.26905" lon="1.08034">
        <ele>79</ele>
        <time>2015-09-20T07:31:03Z</time>
      </trkpt>
      <trkpt lat="49.26912" lon="1.08047">
        <ele>79.3</ele>
        <time>2015-09-20T07:31:06Z</time>
      </trkpt>
      <trkpt lat="49.26918" lon="1.08057">
        <ele>79.6</ele>
        <time>2015-09-20T07:31:09Z</time>
      </trkpt>
      <trkpt lat="49.26925" lon="1.08068">
        <ele>79.8</ele>
        <time>2015-09-20T07:31:12Z</time>
      </trkpt>
      <trkpt lat="49.26929" lon="1.0808">
        <ele>79.9</ele>
        <time>2015-09-20T07:31:15Z</time>
      </trkpt>
      <trkpt lat="49.26934" lon="1.08093">
        <ele>80.1</ele>
        <time>2015-09-20T07:31:18Z</time>
      </trkpt>
      <trkpt lat="49.26942" lon="1.08104">
        <ele>80.3</ele>
        <time>2015-09-20T07:31:21Z</time>
      </trkpt>
      <trkpt lat="49.26951" lon="1.08115">
        <ele>80.4</ele>
        <time>2015-09-20T07:31:23Z</time>
      </trkpt>
      <trkpt lat="49.26961" lon="1.08126">
        <ele>80.4</ele>
        <time>2015-09-20T07:31:25Z</time>
      </trkpt>
      <trkpt lat="49.26969" lon="1.08138">
        <ele>80.5</ele>
        <time>2015-09-20T07:31:27Z</time>
      </trkpt>
      <trkpt lat="49.26977" lon="1.08148">
        <ele>80.6</ele>
        <time>2015-09-20T07:31:29Z</time>
      </trkpt>
      <trkpt lat="49.26984" lon="1.08157">
        <ele>80.6</ele>
        <time>2015-09-20T07:31:31Z</time>
      </trkpt>
      <trkpt lat="49.26992" lon="1.08167">
        <ele>80.8</ele>
        <time>2015-09-20T07:31:34Z</time>
      </trkpt>
      <trkpt lat="49.27" lon="1.08175">
        <ele>81.1</ele>
        <time>2015-09-20T07:31:37Z</time>
      </trkpt>
      <trkpt lat="49.27009" lon="1.08188">
        <ele>81.6</ele>
        <time>2015-09-20T07:31:41Z</time>
      </trkpt>
      <trkpt lat="49.27017" lon="1.08199">
        <ele>82</ele>
        <time>2015-09-20T07:31:44Z</time>
      </trkpt>
      <trkpt lat="49.27026" lon="1.08209">
        <ele>82.3</ele>
        <time>2015-09-20T07:31:47Z</time>
      </trkpt>
      <trkpt lat="49.27034" lon="1.0822">
        <ele>82.7</ele>
        <time>2015-09-20T07:31:50Z</time>
      </trkpt>
      <trkpt lat="49.27043" lon="1.08229">
        <ele>83</ele>
        <time>2015-09-20T07:31:52Z</time>
      </trkpt>
      <trkpt lat="49.2705" lon="1.08238">
        <ele>83.2</ele>
        <time>2015-09-20T07:31:54Z</time>
      </trkpt>
      <trkpt lat="49.27059" lon="1.08248">
        <ele>83.5</ele>
        <time>2015-09-20T07:31:56Z</time>
      </trkpt>
      <trkpt lat="49.27065" lon="1.08257">
        <ele>83.6</ele>
        <time>2015-09-20T07:31:58Z</time>
      </trkpt>
      <trkpt lat="49.27073" lon="1.08267">
        <ele>83.8</ele>
        <time>2015-09-20T07:32:00Z</time>
      </trkpt>
      <trkpt lat="49.27079" lon="1.08276">
        <ele>83.9</ele>
        <time>2015-09-20T07:32:02Z</time>
      </trkpt>
      <trkpt lat="49.27089" lon="1.08286">
        <ele>84.1</ele>
        <time>2015-09-20T07:32:04Z</time>
      </trkpt>
      <trkpt lat="49.27099" lon="1.08297">
        <ele>84.2</ele>
        <time>2015-09-20T07:32:06Z</time>
      </trkpt>
      <trkpt lat="49.27106" lon="1.08307">
        <ele>84.2</ele>
        <time>2015-09-20T07:32:08Z</time>
      </trkpt>
      <trkpt lat="49.27114" lon="1.08315">
        <ele>84.4</ele>
        <time>2015-09-20T07:32:10Z</time>
      </trkpt>
      <trkpt lat="49.27121" lon="1.08325">
        <ele>84.5</ele>
        <time>2015-09-20T07:32:12Z</time>
      </trkpt>
      <trkpt lat="49.27129" lon="1.08334">
        <ele>84.6</ele>
        <time>2015-09-20T07:32:14Z</time>
      </trkpt>
      <trkpt lat="49.27137" lon="1.08343">
        <ele>84.7</ele>
        <time>2015-09-20T07:32:16Z</time>
      </trkpt>
      <trkpt lat="49.27144" lon="1.08352">
        <ele>84.8</ele>
        <time>2015-09-20T07:32:18Z</time>
      </trkpt>
      <trkpt lat="49.27152" lon="1.08361">
        <ele>84.9</ele>
        <time>2015-09-20T07:32:20Z</time>
      </trkpt>
      <trkpt lat="49.27159" lon="1.08372">
        <ele>85</ele>
        <time>2015-09-20T07:32:22Z</time>
      </trkpt>
      <trkpt lat="49.27167" lon="1.08381">
        <ele>85.1</ele>
        <time>2015-09-20T07:32:24Z</time>
      </trkpt>
      <trkpt lat="49.27175" lon="1.08392">
        <ele>85.3</ele>
        <time>2015-09-20T07:32:26Z</time>
      </trkpt>
      <trkpt lat="49.27183" lon="1.08402">
        <ele>85.3</ele>
        <time>2015-09-20T07:32:28Z</time>
      </trkpt>
      <trkpt lat="49.27191" lon="1.08414">
        <ele>85.4</ele>
        <time>2015-09-20T07:32:30Z</time>
      </trkpt>
      <trkpt lat="49.27199" lon="1.08424">
        <ele>85.5</ele>
        <time>2015-09-20T07:32:32Z</time>
      </trkpt>
      <trkpt lat="49.27207" lon="1.08435">
        <ele>85.5</ele>
        <time>2015-09-20T07:32:34Z</time>
      </trkpt>
      <trkpt lat="49.27216" lon="1.08445">
        <ele>85.6</ele>
        <time>2015-09-20T07:32:36Z</time>
      </trkpt>
      <trkpt lat="49.27224" lon="1.08456">
        <ele>85.6</ele>
        <time>2015-09-20T07:32:38Z</time>
      </trkpt>
      <trkpt lat="49.27234" lon="1.08468">
        <ele>85.5</ele>
        <time>2015-09-20T07:32:40Z</time>
      </trkpt>
      <trkpt lat="49.27244" lon="1.08479">
        <ele>85.5</ele>
        <time>2015-09-20T07:32:42Z</time>
      </trkpt>
      <trkpt lat="49.27253" lon="1.08491">
        <ele>85.3</ele>
        <time>2015-09-20T07:32:44Z</time>
      </trkpt>
      <trkpt lat="49.27263" lon="1.08504">
        <ele>84.9</ele>
        <time>2015-09-20T07:32:46Z</time>
      </trkpt>
      <trkpt lat="49.27274" lon="1.08517">
        <ele>84.6</ele>
        <time>2015-09-20T07:32:48Z</time>
      </trkpt>
      <trkpt lat="49.27284" lon="1.0853">
        <ele>84.2</ele>
        <time>2015-09-20T07:32:50Z</time>
      </trkpt>
      <trkpt lat="49.27295" lon="1.08544">
        <ele>83.7</ele>
        <time>2015-09-20T07:32:52Z</time>
      </trkpt>
      <trkpt lat="49.27305" lon="1.08559">
        <ele>83</ele>
        <time>2015-09-20T07:32:54Z</time>
      </trkpt>
      <trkpt lat="49.27316" lon="1.08573">
        <ele>82.1</ele>
        <time>2015-09-20T07:32:56Z</time>
      </trkpt>
      <trkpt lat="49.27328" lon="1.08588">
        <ele>81.1</ele>
        <time>2015-09-20T07:32:58Z</time>
      </trkpt>
      <trkpt lat="49.2734" lon="1.08603">
        <ele>80.1</ele>
        <time>2015-09-20T07:33:00Z</time>
      </trkpt>
      <trkpt lat="49.27353" lon="1.0862">
        <ele>79</ele>
        <time>2015-09-20T07:33:02Z</time>
      </trkpt>
      <trkpt lat="49.27365" lon="1.08637">
        <ele>77.9</ele>
        <time>2015-09-20T07:33:04Z</time>
      </trkpt>
      <trkpt lat="49.27374" lon="1.08652">
        <ele>76.7</ele>
        <time>2015-09-20T07:33:06Z</time>
      </trkpt>
      <trkpt lat="49.27385" lon="1.08666">
        <ele>75.6</ele>
        <time>2015-09-20T07:33:08Z</time>
      </trkpt>
      <trkpt lat="49.27393" lon="1.08675">
        <ele>74.4</ele>
        <time>2015-09-20T07:33:10Z</time>
      </trkpt>
      <trkpt lat="49.27402" lon="1.08684">
        <ele>73.2</ele>
        <time>2015-09-20T07:33:12Z</time>
      </trkpt>
      <trkpt lat="49.2741" lon="1.08692">
        <ele>72.1</ele>
        <time>2015-09-20T07:33:14Z</time>
      </trkpt>
      <trkpt lat="49.2742" lon="1.08701">
        <ele>71.1</ele>
        <time>2015-09-20T07:33:16Z</time>
      </trkpt>
      <trkpt lat="49.27426" lon="1.08711">
        <ele>70.2</ele>
        <time>2015-09-20T07:33:18Z</time>
      </trkpt>
      <trkpt lat="49.27433" lon="1.08727">
        <ele>68.8</ele>
        <time>2015-09-20T07:33:21Z</time>
      </trkpt>
      <trkpt lat="49.27442" lon="1.0874">
        <ele>68</ele>
        <time>2015-09-20T07:33:23Z</time>
      </trkpt>
      <trkpt lat="49.27449" lon="1.08751">
        <ele>67.4</ele>
        <time>2015-09-20T07:33:25Z</time>
      </trkpt>
      <trkpt lat="49.27455" lon="1.08765">
        <ele>66.7</ele>
        <time>2015-09-20T07:33:28Z</time>
      </trkpt>
      <trkpt lat="49.27461" lon="1.08781">
        <ele>66.2</ele>
        <time>2015-09-20T07:33:32Z</time>
      </trkpt>
      <trkpt lat="49.27467" lon="1.08793">
        <ele>66.1</ele>
        <time>2015-09-20T07:33:35Z</time>
      </trkpt>
      <trkpt lat="49.27475" lon="1.08802">
        <ele>66.3</ele>
        <time>2015-09-20T07:33:38Z</time>
      </trkpt>
      <trkpt lat="49.27483" lon="1.08811">
        <ele>66.4</ele>
        <time>2015-09-20T07:33:41Z</time>
      </trkpt>
      <trkpt lat="49.2749" lon="1.08822">
        <ele>66.7</ele>
        <time>2015-09-20T07:33:44Z</time>
      </trkpt>
      <trkpt lat="49.275" lon="1.0883">
        <ele>66.9</ele>
        <time>2015-09-20T07:33:46Z</time>
      </trkpt>
      <trkpt lat="49.27507" lon="1.08843">
        <ele>67.3</ele>
        <time>2015-09-20T07:33:49Z</time>
      </trkpt>
      <trkpt lat="49.27518" lon="1.08852">
        <ele>67.8</ele>
        <time>2015-09-20T07:33:52Z</time>
      </trkpt>
      <trkpt lat="49.27525" lon="1.08863">
        <ele>68.2</ele>
        <time>2015-09-20T07:33:55Z</time>
      </trkpt>
      <trkpt lat="49.27535" lon="1.08874">
        <ele>68.6</ele>
        <time>2015-09-20T07:33:58Z</time>
      </trkpt>
      <trkpt lat="49.27544" lon="1.08885">
        <ele>69.1</ele>
        <time>2015-09-20T07:34:01Z</time>
      </trkpt>
      <trkpt lat="49.27554" lon="1.08896">
        <ele>69.6</ele>
        <time>2015-09-20T07:34:04Z</time>
      </trkpt>
      <trkpt lat="49.27563" lon="1.08909">
        <ele>69.9</ele>
        <time>2015-09-20T07:34:07Z</time>
      </trkpt>
      <trkpt lat="49.27573" lon="1.08922">
        <ele>70.3</ele>
        <time>2015-09-20T07:34:10Z</time>
      </trkpt>
      <trkpt lat="49.27581" lon="1.08931">
        <ele>70.5</ele>
        <time>2015-09-20T07:34:12Z</time>
      </trkpt>
      <trkpt lat="49.27591" lon="1.08946">
        <ele>70.8</ele>
        <time>2015-09-20T07:34:15Z</time>
      </trkpt>
      <trkpt lat="49.276" lon="1.0896">
        <ele>71.1</ele>
        <time>2015-09-20T07:34:18Z</time>
      </trkpt>
      <trkpt lat="49.2761" lon="1.0897">
        <ele>71.2</ele>
        <time>2015-09-20T07:34:20Z</time>
      </trkpt>
      <trkpt lat="49.2762" lon="1.08979">
        <ele>71.4</ele>
        <time>2015-09-20T07:34:22Z</time>
      </trkpt>
      <trkpt lat="49.27627" lon="1.0899">
        <ele>71.5</ele>
        <time>2015-09-20T07:34:24Z</time>
      </trkpt>
      <trkpt lat="49.2763" lon="1.09008">
        <ele>71.6</ele>
        <time>2015-09-20T07:34:27Z</time>
      </trkpt>
      <trkpt lat="49.27628" lon="1.09025">
        <ele>71.7</ele>
        <time>2015-09-20T07:34:31Z</time>
      </trkpt>
      <trkpt lat="49.27623" lon="1.09041">
        <ele>72</ele>
        <time>2015-09-20T07:34:35Z</time>
      </trkpt>
      <trkpt lat="49.27621" lon="1.09056">
        <ele>72.3</ele>
        <time>2015-09-20T07:34:39Z</time>
      </trkpt>
      <trkpt lat="49.27616" lon="1.0907">
        <ele>72.8</ele>
        <time>2015-09-20T07:34:43Z</time>
      </trkpt>
      <trkpt lat="49.2761" lon="1.09082">
        <ele>73.3</ele>
        <time>2015-09-20T07:34:47Z</time>
      </trkpt>
      <trkpt lat="49.27604" lon="1.09097">
        <ele>73.7</ele>
        <time>2015-09-20T07:34:51Z</time>
      </trkpt>
      <trkpt lat="49.27598" lon="1.09112">
        <ele>74.2</ele>
        <time>2015-09-20T07:34:55Z</time>
      </trkpt>
      <trkpt lat="49.2759" lon="1.09124">
        <ele>74.6</ele>
        <time>2015-09-20T07:34:58Z</time>
      </trkpt>
      <trkpt lat="49.27586" lon="1.09138">
        <ele>75</ele>
        <time>2015-09-20T07:35:01Z</time>
      </trkpt>
      <trkpt lat="49.27583" lon="1.09151">
        <ele>75.4</ele>
        <time>2015-09-20T07:35:04Z</time>
      </trkpt>
      <trkpt lat="49.27579" lon="1.09165">
        <ele>75.8</ele>
        <time>2015-09-20T07:35:07Z</time>
      </trkpt>
      <trkpt lat="49.27576" lon="1.0918">
        <ele>76.2</ele>
        <time>2015-09-20T07:35:10Z</time>
      </trkpt>
      <trkpt lat="49.27571" lon="1.09193">
        <ele>76.6</ele>
        <time>2015-09-20T07:35:13Z</time>
      </trkpt>
      <trkpt lat="49.27566" lon="1.09207">
        <ele>77.1</ele>
        <time>2015-09-20T07:35:16Z</time>
      </trkpt>
      <trkpt lat="49.27561" lon="1.09219">
        <ele>77.5</ele>
        <time>2015-09-20T07:35:19Z</time>
      </trkpt>
      <trkpt lat="49.27557" lon="1.09234">
        <ele>78.1</ele>
        <time>2015-09-20T07:35:23Z</time>
      </trkpt>
      <trkpt lat="49.27548" lon="1.09245">
        <ele>78.7</ele>
        <time>2015-09-20T07:35:26Z</time>
      </trkpt>
      <trkpt lat="49.27541" lon="1.09258">
        <ele>79.1</ele>
        <time>2015-09-20T07:35:29Z</time>
      </trkpt>
      <trkpt lat="49.27535" lon="1.09272">
        <ele>79.6</ele>
        <time>2015-09-20T07:35:32Z</time>
      </trkpt>
      <trkpt lat="49.27527" lon="1.09281">
        <ele>80</ele>
        <time>2015-09-20T07:35:34Z</time>
      </trkpt>
      <trkpt lat="49.27521" lon="1.09294">
        <ele>80.7</ele>
        <time>2015-09-20T07:35:37Z</time>
      </trkpt>
      <trkpt lat="49.27527" lon="1.0931">
        <ele>81.4</ele>
        <time>2015-09-20T07:35:41Z</time>
      </trkpt>
      <trkpt lat="49.27534" lon="1.09324">
        <ele>81.9</ele>
        <time>2015-09-20T07:35:44Z</time>
      </trkpt>
      <trkpt lat="49.27542" lon="1.09335">
        <ele>82.3</ele>
        <time>2015-09-20T07:35:47Z</time>
      </trkpt>
      <trkpt lat="49.27548" lon="1.09349">
        <ele>82.7</ele>
        <time>2015-09-20T07:35:50Z</time>
      </trkpt>
      <trkpt lat="49.27544" lon="1.09365">
        <ele>83.2</ele>
        <time>2015-09-20T07:35:54Z</time>
      </trkpt>
      <trkpt lat="49.27539" lon="1.09378">
        <ele>83.8</ele>
        <time>2015-09-20T07:35:59Z</time>
      </trkpt>
      <trkpt lat="49.27536" lon="1.09394">
        <ele>84.7</ele>
        <time>2015-09-20T07:36:04Z</time>
      </trkpt>
      <trkpt lat="49.27528" lon="1.09404">
        <ele>85.5</ele>
        <time>2015-09-20T07:36:08Z</time>
      </trkpt>
      <trkpt lat="49.27519" lon="1.09415">
        <ele>86.3</ele>
        <time>2015-09-20T07:36:12Z</time>
      </trkpt>
      <trkpt lat="49.27512" lon="1.09427">
        <ele>87.2</ele>
        <time>2015-09-20T07:36:16Z</time>
      </trkpt>
      <trkpt lat="49.27505" lon="1.09435">
        <ele>87.8</ele>
        <time>2015-09-20T07:36:19Z</time>
      </trkpt>
      <trkpt lat="49.27497" lon="1.09443">
        <ele>88.5</ele>
        <time>2015-09-20T07:36:22Z</time>
      </trkpt>
      <trkpt lat="49.27492" lon="1.09456">
        <ele>89.8</ele>
        <time>2015-09-20T07:36:28Z</time>
      </trkpt>
      <trkpt lat="49.27485" lon="1.09466">
        <ele>90.9</ele>
        <time>2015-09-20T07:36:33Z</time>
      </trkpt>
      <trkpt lat="49.27479" lon="1.09477">
        <ele>92.2</ele>
        <time>2015-09-20T07:36:39Z</time>
      </trkpt>
      <trkpt lat="49.27472" lon="1.09489">
        <ele>93.8</ele>
        <time>2015-09-20T07:36:46Z</time>
      </trkpt>
      <trkpt lat="49.27466" lon="1.09501">
        <ele>95.4</ele>
        <time>2015-09-20T07:36:53Z</time>
      </trkpt>
      <trkpt lat="49.2746" lon="1.09516">
        <ele>96.8</ele>
        <time>2015-09-20T07:36:58Z</time>
      </trkpt>
      <trkpt lat="49.27451" lon="1.09525">
        <ele>98.1</ele>
        <time>2015-09-20T07:37:03Z</time>
      </trkpt>
      <trkpt lat="49.27445" lon="1.09535">
        <ele>99.4</ele>
        <time>2015-09-20T07:37:08Z</time>
      </trkpt>
      <trkpt lat="49.27439" lon="1.09548">
        <ele>101.1</ele>
        <time>2015-09-20T07:37:15Z</time>
      </trkpt>
      <trkpt lat="49.27433" lon="1.09559">
        <ele>103.1</ele>
        <time>2015-09-20T07:37:23Z</time>
      </trkpt>
      <trkpt lat="49.27428" lon="1.09571">
        <ele>104.6</ele>
        <time>2015-09-20T07:37:29Z</time>
      </trkpt>
      <trkpt lat="49.27423" lon="1.09583">
        <ele>106.1</ele>
        <time>2015-09-20T07:37:36Z</time>
      </trkpt>
      <trkpt lat="49.27416" lon="1.09593">
        <ele>107.3</ele>
        <time>2015-09-20T07:37:41Z</time>
      </trkpt>
      <trkpt lat="49.2741" lon="1.09604">
        <ele>109.1</ele>
        <time>2015-09-20T07:37:48Z</time>
      </trkpt>
      <trkpt lat="49.27404" lon="1.09615">
        <ele>111</ele>
        <time>2015-09-20T07:37:55Z</time>
      </trkpt>
      <trkpt lat="49.27398" lon="1.09627">
        <ele>111.8</ele>
        <time>2015-09-20T07:37:59Z</time>
      </trkpt>
      <trkpt lat="49.2739" lon="1.09639">
        <ele>112.7</ele>
        <time>2015-09-20T07:38:04Z</time>
      </trkpt>
      <trkpt lat="49.27383" lon="1.0965">
        <ele>113.9</ele>
        <time>2015-09-20T07:38:10Z</time>
      </trkpt>
      <trkpt lat="49.27377" lon="1.09663">
        <ele>114.9</ele>
        <time>2015-09-20T07:38:15Z</time>
      </trkpt>
      <trkpt lat="49.27372" lon="1.09677">
        <ele>115.6</ele>
        <time>2015-09-20T07:38:19Z</time>
      </trkpt>
      <trkpt lat="49.27366" lon="1.09689">
        <ele>116.4</ele>
        <time>2015-09-20T07:38:24Z</time>
      </trkpt>
      <trkpt lat="49.27359" lon="1.09703">
        <ele>117.4</ele>
        <time>2015-09-20T07:38:30Z</time>
      </trkpt>
      <trkpt lat="49.27351" lon="1.09713">
        <ele>117.9</ele>
        <time>2015-09-20T07:38:33Z</time>
      </trkpt>
      <trkpt lat="49.27345" lon="1.09727">
        <ele>118.6</ele>
        <time>2015-09-20T07:38:37Z</time>
      </trkpt>
      <trkpt lat="49.2734" lon="1.09741">
        <ele>119.3</ele>
        <time>2015-09-20T07:38:41Z</time>
      </trkpt>
      <trkpt lat="49.27336" lon="1.09756">
        <ele>119.9</ele>
        <time>2015-09-20T07:38:45Z</time>
      </trkpt>
      <trkpt lat="49.27331" lon="1.09769">
        <ele>120.4</ele>
        <time>2015-09-20T07:38:49Z</time>
      </trkpt>
      <trkpt lat="49.27324" lon="1.0978">
        <ele>120.8</ele>
        <time>2015-09-20T07:38:53Z</time>
      </trkpt>
      <trkpt lat="49.27315" lon="1.09793">
        <ele>121.2</ele>
        <time>2015-09-20T07:38:56Z</time>
      </trkpt>
      <trkpt lat="49.27309" lon="1.09803">
        <ele>121.5</ele>
        <time>2015-09-20T07:38:58Z</time>
      </trkpt>
      <trkpt lat="49.27301" lon="1.09816">
        <ele>121.8</ele>
        <time>2015-09-20T07:39:01Z</time>
      </trkpt>
      <trkpt lat="49.27297" lon="1.09829">
        <ele>122</ele>
        <time>2015-09-20T07:39:04Z</time>
      </trkpt>
      <trkpt lat="49.27291" lon="1.0984">
        <ele>122.3</ele>
        <time>2015-09-20T07:39:08Z</time>
      </trkpt>
      <trkpt lat="49.27283" lon="1.09853">
        <ele>122.6</ele>
        <time>2015-09-20T07:39:11Z</time>
      </trkpt>
      <trkpt lat="49.27271" lon="1.0986">
        <ele>122.8</ele>
        <time>2015-09-20T07:39:13Z</time>
      </trkpt>
      <trkpt lat="49.27271" lon="1.09874">
        <ele>123.1</ele>
        <time>2015-09-20T07:39:17Z</time>
      </trkpt>
      <trkpt lat="49.2728" lon="1.09882">
        <ele>123.4</ele>
        <time>2015-09-20T07:39:20Z</time>
      </trkpt>
      <trkpt lat="49.27289" lon="1.0989">
        <ele>123.7</ele>
        <time>2015-09-20T07:39:24Z</time>
      </trkpt>
      <trkpt lat="49.27301" lon="1.09905">
        <ele>123</ele>
        <time>2015-09-20T07:39:28Z</time>
      </trkpt>
      <trkpt lat="49.2731" lon="1.09918">
        <ele>124.2</ele>
        <time>2015-09-20T07:39:31Z</time>
      </trkpt>
      <trkpt lat="49.2732" lon="1.0993">
        <ele>124.3</ele>
        <time>2015-09-20T07:39:34Z</time>
      </trkpt>
      <trkpt lat="49.27329" lon="1.0994">
        <ele>124.4</ele>
        <time>2015-09-20T07:39:36Z</time>
      </trkpt>
      <trkpt lat="49.27339" lon="1.0995">
        <ele>124.4</ele>
        <time>2015-09-20T07:39:38Z</time>
      </trkpt>
      <trkpt lat="49.27348" lon="1.09959">
        <ele>124.5</ele>
        <time>2015-09-20T07:39:40Z</time>
      </trkpt>
      <trkpt lat="49.27358" lon="1.0997">
        <ele>124.6</ele>
        <time>2015-09-20T07:39:43Z</time>
      </trkpt>
      <trkpt lat="49.27368" lon="1.09984">
        <ele>124.6</ele>
        <time>2015-09-20T07:39:46Z</time>
      </trkpt>
      <trkpt lat="49.27377" lon="1.09993">
        <ele>124.6</ele>
        <time>2015-09-20T07:39:48Z</time>
      </trkpt>
      <trkpt lat="49.27387" lon="1.10002">
        <ele>124.6</ele>
        <time>2015-09-20T07:39:50Z</time>
      </trkpt>
      <trkpt lat="49.27399" lon="1.1001">
        <ele>124.6</ele>
        <time>2015-09-20T07:39:52Z</time>
      </trkpt>
      <trkpt lat="49.27408" lon="1.10018">
        <ele>124.6</ele>
        <time>2015-09-20T07:39:54Z</time>
      </trkpt>
      <trkpt lat="49.27419" lon="1.10031">
        <ele>124.5</ele>
        <time>2015-09-20T07:39:57Z</time>
      </trkpt>
      <trkpt lat="49.27427" lon="1.1004">
        <ele>124.5</ele>
        <time>2015-09-20T07:39:59Z</time>
      </trkpt>
      <trkpt lat="49.27437" lon="1.10048">
        <ele>124.5</ele>
        <time>2015-09-20T07:40:01Z</time>
      </trkpt>
      <trkpt lat="49.27447" lon="1.10058">
        <ele>124.5</ele>
        <time>2015-09-20T07:40:03Z</time>
      </trkpt>
      <trkpt lat="49.27457" lon="1.10069">
        <ele>124.5</ele>
        <time>2015-09-20T07:40:05Z</time>
      </trkpt>
      <trkpt lat="49.27465" lon="1.10081">
        <ele>124.5</ele>
        <time>2015-09-20T07:40:07Z</time>
      </trkpt>
      <trkpt lat="49.27474" lon="1.10093">
        <ele>124.5</ele>
        <time>2015-09-20T07:40:09Z</time>
      </trkpt>
      <trkpt lat="49.27478" lon="1.10107">
        <ele>124.4</ele>
        <time>2015-09-20T07:40:11Z</time>
      </trkpt>
      <trkpt lat="49.27481" lon="1.10123">
        <ele>124.4</ele>
        <time>2015-09-20T07:40:13Z</time>
      </trkpt>
      <trkpt lat="49.27482" lon="1.10139">
        <ele>124.5</ele>
        <time>2015-09-20T07:40:15Z</time>
      </trkpt>
      <trkpt lat="49.27484" lon="1.10154">
        <ele>124</ele>
        <time>2015-09-20T07:40:17Z</time>
      </trkpt>
      <trkpt lat="49.2749" lon="1.10176">
        <ele>124.5</ele>
        <time>2015-09-20T07:40:20Z</time>
      </trkpt>
      <trkpt lat="49.27498" lon="1.10189">
        <ele>124.5</ele>
        <time>2015-09-20T07:40:22Z</time>
      </trkpt>
      <trkpt lat="49.27505" lon="1.10203">
        <ele>124.5</ele>
        <time>2015-09-20T07:40:24Z</time>
      </trkpt>
      <trkpt lat="49.2751" lon="1.10218">
        <ele>124.5</ele>
        <time>2015-09-20T07:40:26Z</time>
      </trkpt>
      <trkpt lat="49.27511" lon="1.10233">
        <ele>124.5</ele>
        <time>2015-09-20T07:40:28Z</time>
      </trkpt>
      <trkpt lat="49.27518" lon="1.10249">
        <ele>124.5</ele>
        <time>2015-09-20T07:40:30Z</time>
      </trkpt>
      <trkpt lat="49.27523" lon="1.10267">
        <ele>124.6</ele>
        <time>2015-09-20T07:40:32Z</time>
      </trkpt>
      <trkpt lat="49.27528" lon="1.10282">
        <ele>124.6</ele>
        <time>2015-09-20T07:40:34Z</time>
      </trkpt>
      <trkpt lat="49.27534" lon="1.10296">
        <ele>124.7</ele>
        <time>2015-09-20T07:40:36Z</time>
      </trkpt>
      <trkpt lat="49.27539" lon="1.1031">
        <ele>124.7</ele>
        <time>2015-09-20T07:40:38Z</time>
      </trkpt>
      <trkpt lat="49.27545" lon="1.10325">
        <ele>124.7</ele>
        <time>2015-09-20T07:40:40Z</time>
      </trkpt>
      <trkpt lat="49.27552" lon="1.10338">
        <ele>124.7</ele>
        <time>2015-09-20T07:40:42Z</time>
      </trkpt>
      <trkpt lat="49.2756" lon="1.10349">
        <ele>124.6</ele>
        <time>2015-09-20T07:40:44Z</time>
      </trkpt>
      <trkpt lat="49.27569" lon="1.10359">
        <ele>124.6</ele>
        <time>2015-09-20T07:40:46Z</time>
      </trkpt>
      <trkpt lat="49.27579" lon="1.10369">
        <ele>124.6</ele>
        <time>2015-09-20T07:40:48Z</time>
      </trkpt>
      <trkpt lat="49.27588" lon="1.10379">
        <ele>124.5</ele>
        <time>2015-09-20T07:40:50Z</time>
      </trkpt>
      <trkpt lat="49.27597" lon="1.1039">
        <ele>124.5</ele>
        <time>2015-09-20T07:40:52Z</time>
      </trkpt>
      <trkpt lat="49.27606" lon="1.104">
        <ele>124.5</ele>
        <time>2015-09-20T07:40:54Z</time>
      </trkpt>
      <trkpt lat="49.27614" lon="1.10411">
        <ele>124.5</ele>
        <time>2015-09-20T07:40:56Z</time>
      </trkpt>
      <trkpt lat="49.27621" lon="1.10423">
        <ele>124.4</ele>
        <time>2015-09-20T07:40:58Z</time>
      </trkpt>
      <trkpt lat="49.27627" lon="1.10436">
        <ele>124.4</ele>
        <time>2015-09-20T07:41:00Z</time>
      </trkpt>
      <trkpt lat="49.27632" lon="1.10449">
        <ele>124.3</ele>
        <time>2015-09-20T07:41:02Z</time>
      </trkpt>
      <trkpt lat="49.27638" lon="1.10465">
        <ele>124.3</ele>
        <time>2015-09-20T07:41:04Z</time>
      </trkpt>
      <trkpt lat="49.27644" lon="1.1048">
        <ele>124.2</ele>
        <time>2015-09-20T07:41:06Z</time>
      </trkpt>
      <trkpt lat="49.27651" lon="1.10494">
        <ele>124.2</ele>
        <time>2015-09-20T07:41:08Z</time>
      </trkpt>
      <trkpt lat="49.27658" lon="1.10509">
        <ele>124.1</ele>
        <time>2015-09-20T07:41:10Z</time>
      </trkpt>
      <trkpt lat="49.27667" lon="1.10523">
        <ele>124</ele>
        <time>2015-09-20T07:41:12Z</time>
      </trkpt>
      <trkpt lat="49.27674" lon="1.10536">
        <ele>124</ele>
        <time>2015-09-20T07:41:14Z</time>
      </trkpt>
      <trkpt lat="49.27683" lon="1.10549">
        <ele>123.9</ele>
        <time>2015-09-20T07:41:16Z</time>
      </trkpt>
      <trkpt lat="49.27693" lon="1.10559">
        <ele>123.8</ele>
        <time>2015-09-20T07:41:18Z</time>
      </trkpt>
      <trkpt lat="49.27702" lon="1.10569">
        <ele>123.7</ele>
        <time>2015-09-20T07:41:20Z</time>
      </trkpt>
      <trkpt lat="49.27712" lon="1.10581">
        <ele>123.5</ele>
        <time>2015-09-20T07:41:22Z</time>
      </trkpt>
      <trkpt lat="49.27719" lon="1.10593">
        <ele>123.3</ele>
        <time>2015-09-20T07:41:24Z</time>
      </trkpt>
      <trkpt lat="49.27727" lon="1.10605">
        <ele>123.1</ele>
        <time>2015-09-20T07:41:26Z</time>
      </trkpt>
      <trkpt lat="49.27736" lon="1.10619">
        <ele>123</ele>
        <time>2015-09-20T07:41:28Z</time>
      </trkpt>
      <trkpt lat="49.27745" lon="1.10631">
        <ele>122.8</ele>
        <time>2015-09-20T07:41:30Z</time>
      </trkpt>
      <trkpt lat="49.27756" lon="1.10641">
        <ele>122.7</ele>
        <time>2015-09-20T07:41:32Z</time>
      </trkpt>
      <trkpt lat="49.27765" lon="1.1065">
        <ele>122.6</ele>
        <time>2015-09-20T07:41:34Z</time>
      </trkpt>
      <trkpt lat="49.27775" lon="1.10658">
        <ele>122.4</ele>
        <time>2015-09-20T07:41:36Z</time>
      </trkpt>
      <trkpt lat="49.27782" lon="1.10669">
        <ele>122.3</ele>
        <time>2015-09-20T07:41:38Z</time>
      </trkpt>
      <trkpt lat="49.27782" lon="1.10683">
        <ele>122.2</ele>
        <time>2015-09-20T07:41:40Z</time>
      </trkpt>
      <trkpt lat="49.27781" lon="1.10699">
        <ele>122</ele>
        <time>2015-09-20T07:41:42Z</time>
      </trkpt>
      <trkpt lat="49.27779" lon="1.10715">
        <ele>121.8</ele>
        <time>2015-09-20T07:41:44Z</time>
      </trkpt>
      <trkpt lat="49.27778" lon="1.10733">
        <ele>121.6</ele>
        <time>2015-09-20T07:41:46Z</time>
      </trkpt>
      <trkpt lat="49.27776" lon="1.1075">
        <ele>121.4</ele>
        <time>2015-09-20T07:41:48Z</time>
      </trkpt>
      <trkpt lat="49.27774" lon="1.10767">
        <ele>121.3</ele>
        <time>2015-09-20T07:41:50Z</time>
      </trkpt>
      <trkpt lat="49.27772" lon="1.10785">
        <ele>121.1</ele>
        <time>2015-09-20T07:41:52Z</time>
      </trkpt>
      <trkpt lat="49.27771" lon="1.10803">
        <ele>121</ele>
        <time>2015-09-20T07:41:54Z</time>
      </trkpt>
      <trkpt lat="49.27769" lon="1.10821">
        <ele>120.8</ele>
        <time>2015-09-20T07:41:56Z</time>
      </trkpt>
      <trkpt lat="49.27767" lon="1.1084">
        <ele>120.6</ele>
        <time>2015-09-20T07:41:58Z</time>
      </trkpt>
      <trkpt lat="49.27765" lon="1.10859">
        <ele>120.2</ele>
        <time>2015-09-20T07:42:00Z</time>
      </trkpt>
      <trkpt lat="49.27762" lon="1.10879">
        <ele>119.9</ele>
        <time>2015-09-20T07:42:02Z</time>
      </trkpt>
      <trkpt lat="49.27761" lon="1.10899">
        <ele>119.7</ele>
        <time>2015-09-20T07:42:04Z</time>
      </trkpt>
      <trkpt lat="49.2776" lon="1.10919">
        <ele>119.3</ele>
        <time>2015-09-20T07:42:06Z</time>
      </trkpt>
      <trkpt lat="49.27758" lon="1.10938">
        <ele>118.8</ele>
        <time>2015-09-20T07:42:08Z</time>
      </trkpt>
      <trkpt lat="49.27756" lon="1.10958">
        <ele>118.4</ele>
        <time>2015-09-20T07:42:10Z</time>
      </trkpt>
      <trkpt lat="49.27752" lon="1.10979">
        <ele>117.9</ele>
        <time>2015-09-20T07:42:12Z</time>
      </trkpt>
      <trkpt lat="49.2775" lon="1.11004">
        <ele>117.1</ele>
        <time>2015-09-20T07:42:14Z</time>
      </trkpt>
      <trkpt lat="49.27747" lon="1.11028">
        <ele>116.4</ele>
        <time>2015-09-20T07:42:16Z</time>
      </trkpt>
      <trkpt lat="49.27744" lon="1.11051">
        <ele>115.4</ele>
        <time>2015-09-20T07:42:18Z</time>
      </trkpt>
      <trkpt lat="49.27742" lon="1.11073">
        <ele>114.4</ele>
        <time>2015-09-20T07:42:20Z</time>
      </trkpt>
      <trkpt lat="49.27738" lon="1.11094">
        <ele>113.2</ele>
        <time>2015-09-20T07:42:22Z</time>
      </trkpt>
      <trkpt lat="49.27734" lon="1.1111">
        <ele>111.8</ele>
        <time>2015-09-20T07:42:24Z</time>
      </trkpt>
      <trkpt lat="49.27732" lon="1.11128">
        <ele>110.3</ele>
        <time>2015-09-20T07:42:26Z</time>
      </trkpt>
      <trkpt lat="49.2773" lon="1.11149">
        <ele>108.8</ele>
        <time>2015-09-20T07:42:28Z</time>
      </trkpt>
      <trkpt lat="49.27727" lon="1.1117">
        <ele>107.3</ele>
        <time>2015-09-20T07:42:30Z</time>
      </trkpt>
      <trkpt lat="49.27726" lon="1.11192">
        <ele>105.9</ele>
        <time>2015-09-20T07:42:32Z</time>
      </trkpt>
      <trkpt lat="49.27725" lon="1.11211">
        <ele>104.7</ele>
        <time>2015-09-20T07:42:34Z</time>
      </trkpt>
      <trkpt lat="49.27724" lon="1.11226">
        <ele>103.6</ele>
        <time>2015-09-20T07:42:36Z</time>
      </trkpt>
      <trkpt lat="49.27722" lon="1.11246">
        <ele>102.3</ele>
        <time>2015-09-20T07:42:39Z</time>
      </trkpt>
      <trkpt lat="49.27719" lon="1.11262">
        <ele>101.3</ele>
        <time>2015-09-20T07:42:42Z</time>
      </trkpt>
      <trkpt lat="49.27721" lon="1.11281">
        <ele>100.7</ele>
        <time>2015-09-20T07:42:45Z</time>
      </trkpt>
      <trkpt lat="49.27719" lon="1.113">
        <ele>100.3</ele>
        <time>2015-09-20T07:42:48Z</time>
      </trkpt>
      <trkpt lat="49.27718" lon="1.11318">
        <ele>100.1</ele>
        <time>2015-09-20T07:42:51Z</time>
      </trkpt>
      <trkpt lat="49.27716" lon="1.11338">
        <ele>99.9</ele>
        <time>2015-09-20T07:42:54Z</time>
      </trkpt>
      <trkpt lat="49.27714" lon="1.11359">
        <ele>99.8</ele>
        <time>2015-09-20T07:42:57Z</time>
      </trkpt>
      <trkpt lat="49.27712" lon="1.11378">
        <ele>99.7</ele>
        <time>2015-09-20T07:43:00Z</time>
      </trkpt>
      <trkpt lat="49.27711" lon="1.11398">
        <ele>99.6</ele>
        <time>2015-09-20T07:43:03Z</time>
      </trkpt>
      <trkpt lat="49.27709" lon="1.11411">
        <ele>99.6</ele>
        <time>2015-09-20T07:43:05Z</time>
      </trkpt>
      <trkpt lat="49.27708" lon="1.11431">
        <ele>99.7</ele>
        <time>2015-09-20T07:43:08Z</time>
      </trkpt>
      <trkpt lat="49.27705" lon="1.1145">
        <ele>99.8</ele>
        <time>2015-09-20T07:43:11Z</time>
      </trkpt>
      <trkpt lat="49.27703" lon="1.11464">
        <ele>99.8</ele>
        <time>2015-09-20T07:43:13Z</time>
      </trkpt>
      <trkpt lat="49.27701" lon="1.11482">
        <ele>99.7</ele>
        <time>2015-09-20T07:43:16Z</time>
      </trkpt>
      <trkpt lat="49.277" lon="1.11497">
        <ele>99.2</ele>
        <time>2015-09-20T07:43:19Z</time>
      </trkpt>
      <trkpt lat="49.27697" lon="1.11513">
        <ele>98.2</ele>
        <time>2015-09-20T07:43:23Z</time>
      </trkpt>
      <trkpt lat="49.27698" lon="1.11528">
        <ele>96.7</ele>
        <time>2015-09-20T07:43:27Z</time>
      </trkpt>
      <trkpt lat="49.27695" lon="1.11549">
        <ele>95.4</ele>
        <time>2015-09-20T07:43:30Z</time>
      </trkpt>
      <trkpt lat="49.27693" lon="1.11568">
        <ele>93.7</ele>
        <time>2015-09-20T07:43:33Z</time>
      </trkpt>
      <trkpt lat="49.27691" lon="1.11586">
        <ele>91.9</ele>
        <time>2015-09-20T07:43:36Z</time>
      </trkpt>
      <trkpt lat="49.27689" lon="1.11604">
        <ele>90.3</ele>
        <time>2015-09-20T07:43:39Z</time>
      </trkpt>
      <trkpt lat="49.27691" lon="1.11623">
        <ele>88.7</ele>
        <time>2015-09-20T07:43:42Z</time>
      </trkpt>
      <trkpt lat="49.27687" lon="1.11642">
        <ele>87.3</ele>
        <time>2015-09-20T07:43:45Z</time>
      </trkpt>
      <trkpt lat="49.27684" lon="1.11656">
        <ele>86.2</ele>
        <time>2015-09-20T07:43:48Z</time>
      </trkpt>
      <trkpt lat="49.27684" lon="1.11671">
        <ele>84</ele>
        <time>2015-09-20T07:43:53Z</time>
      </trkpt>
      <trkpt lat="49.27684" lon="1.11685">
        <ele>84.4</ele>
        <time>2015-09-20T07:44:03Z</time>
      </trkpt>
      <trkpt lat="49.27681" lon="1.11699">
        <ele>85</ele>
        <time>2015-09-20T07:44:13Z</time>
      </trkpt>
      <trkpt lat="49.27677" lon="1.11711">
        <ele>86.9</ele>
        <time>2015-09-20T07:44:25Z</time>
      </trkpt>
      <trkpt lat="49.27673" lon="1.11724">
        <ele>89.4</ele>
        <time>2015-09-20T07:44:38Z</time>
      </trkpt>
      <trkpt lat="49.27674" lon="1.11738">
        <ele>92.4</ele>
        <time>2015-09-20T07:44:52Z</time>
      </trkpt>
      <trkpt lat="49.27671" lon="1.11752">
        <ele>95.6</ele>
        <time>2015-09-20T07:45:08Z</time>
      </trkpt>
      <trkpt lat="49.27673" lon="1.11766">
        <ele>98.1</ele>
        <time>2015-09-20T07:45:20Z</time>
      </trkpt>
      <trkpt lat="49.27671" lon="1.1178">
        <ele>100.6</ele>
        <time>2015-09-20T07:45:34Z</time>
      </trkpt>
      <trkpt lat="49.27671" lon="1.11795">
        <ele>101.5</ele>
        <time>2015-09-20T07:45:40Z</time>
      </trkpt>
      <trkpt lat="49.27669" lon="1.11809">
        <ele>102.6</ele>
        <time>2015-09-20T07:45:46Z</time>
      </trkpt>
      <trkpt lat="49.27666" lon="1.11824">
        <ele>103.7</ele>
        <time>2015-09-20T07:45:52Z</time>
      </trkpt>
      <trkpt lat="49.27664" lon="1.11837">
        <ele>104.7</ele>
        <time>2015-09-20T07:45:57Z</time>
      </trkpt>
      <trkpt lat="49.27663" lon="1.11853">
        <ele>105.8</ele>
        <time>2015-09-20T07:46:03Z</time>
      </trkpt>
      <trkpt lat="49.27662" lon="1.11867">
        <ele>106.8</ele>
        <time>2015-09-20T07:46:08Z</time>
      </trkpt>
      <trkpt lat="49.2766" lon="1.11882">
        <ele>107.8</ele>
        <time>2015-09-20T07:46:13Z</time>
      </trkpt>
      <trkpt lat="49.27658" lon="1.11898">
        <ele>108.7</ele>
        <time>2015-09-20T07:46:18Z</time>
      </trkpt>
      <trkpt lat="49.27657" lon="1.11915">
        <ele>109.5</ele>
        <time>2015-09-20T07:46:23Z</time>
      </trkpt>
      <trkpt lat="49.27655" lon="1.11933">
        <ele>110.1</ele>
        <time>2015-09-20T07:46:27Z</time>
      </trkpt>
      <trkpt lat="49.27654" lon="1.11947">
        <ele>110.6</ele>
        <time>2015-09-20T07:46:30Z</time>
      </trkpt>
      <trkpt lat="49.27652" lon="1.11963">
        <ele>111</ele>
        <time>2015-09-20T07:46:33Z</time>
      </trkpt>
      <trkpt lat="49.2765" lon="1.11982">
        <ele>111.4</ele>
        <time>2015-09-20T07:46:36Z</time>
      </trkpt>
      <trkpt lat="49.27648" lon="1.12">
        <ele>111.8</ele>
        <time>2015-09-20T07:46:39Z</time>
      </trkpt>
      <trkpt lat="49.27646" lon="1.1202">
        <ele>112.1</ele>
        <time>2015-09-20T07:46:42Z</time>
      </trkpt>
      <trkpt lat="49.27644" lon="1.1204">
        <ele>112.4</ele>
        <time>2015-09-20T07:46:45Z</time>
      </trkpt>
      <trkpt lat="49.27641" lon="1.1206">
        <ele>112.6</ele>
        <time>2015-09-20T07:46:48Z</time>
      </trkpt>
      <trkpt lat="49.27639" lon="1.12079">
        <ele>112.7</ele>
        <time>2015-09-20T07:46:51Z</time>
      </trkpt>
      <trkpt lat="49.27636" lon="1.12098">
        <ele>112.8</ele>
        <time>2015-09-20T07:46:54Z</time>
      </trkpt>
      <trkpt lat="49.27634" lon="1.12118">
        <ele>112.9</ele>
        <time>2015-09-20T07:46:57Z</time>
      </trkpt>
      <trkpt lat="49.27632" lon="1.12133">
        <ele>113</ele>
        <time>2015-09-20T07:46:59Z</time>
      </trkpt>
      <trkpt lat="49.27631" lon="1.12147">
        <ele>113</ele>
        <time>2015-09-20T07:47:01Z</time>
      </trkpt>
      <trkpt lat="49.27629" lon="1.12162">
        <ele>113.1</ele>
        <time>2015-09-20T07:47:03Z</time>
      </trkpt>
      <trkpt lat="49.27627" lon="1.12176">
        <ele>113.2</ele>
        <time>2015-09-20T07:47:05Z</time>
      </trkpt>
      <trkpt lat="49.27626" lon="1.12191">
        <ele>113.2</ele>
        <time>2015-09-20T07:47:07Z</time>
      </trkpt>
      <trkpt lat="49.27624" lon="1.12205">
        <ele>113.3</ele>
        <time>2015-09-20T07:47:09Z</time>
      </trkpt>
      <trkpt lat="49.27622" lon="1.1222">
        <ele>113.3</ele>
        <time>2015-09-20T07:47:11Z</time>
      </trkpt>
      <trkpt lat="49.27621" lon="1.12234">
        <ele>113.4</ele>
        <time>2015-09-20T07:47:13Z</time>
      </trkpt>
      <trkpt lat="49.27619" lon="1.12249">
        <ele>113.5</ele>
        <time>2015-09-20T07:47:15Z</time>
      </trkpt>
      <trkpt lat="49.27617" lon="1.12264">
        <ele>113.6</ele>
        <time>2015-09-20T07:47:17Z</time>
      </trkpt>
      <trkpt lat="49.27616" lon="1.1228">
        <ele>113.6</ele>
        <time>2015-09-20T07:47:19Z</time>
      </trkpt>
      <trkpt lat="49.27615" lon="1.12296">
        <ele>113.7</ele>
        <time>2015-09-20T07:47:21Z</time>
      </trkpt>
      <trkpt lat="49.27613" lon="1.12311">
        <ele>113.7</ele>
        <time>2015-09-20T07:47:23Z</time>
      </trkpt>
      <trkpt lat="49.27611" lon="1.12327">
        <ele>113.8</ele>
        <time>2015-09-20T07:47:25Z</time>
      </trkpt>
      <trkpt lat="49.2761" lon="1.12343">
        <ele>113.8</ele>
        <time>2015-09-20T07:47:27Z</time>
      </trkpt>
      <trkpt lat="49.27608" lon="1.12359">
        <ele>113.8</ele>
        <time>2015-09-20T07:47:29Z</time>
      </trkpt>
      <trkpt lat="49.27606" lon="1.12375">
        <ele>113.9</ele>
        <time>2015-09-20T07:47:31Z</time>
      </trkpt>
      <trkpt lat="49.27605" lon="1.12392">
        <ele>113.9</ele>
        <time>2015-09-20T07:47:33Z</time>
      </trkpt>
      <trkpt lat="49.27603" lon="1.12408">
        <ele>113.9</ele>
        <time>2015-09-20T07:47:35Z</time>
      </trkpt>
      <trkpt lat="49.27601" lon="1.12424">
        <ele>113.9</ele>
        <time>2015-09-20T07:47:37Z</time>
      </trkpt>
      <trkpt lat="49.27601" lon="1.12439">
        <ele>113.9</ele>
        <time>2015-09-20T07:47:39Z</time>
      </trkpt>
      <trkpt lat="49.27608" lon="1.12452">
        <ele>113.9</ele>
        <time>2015-09-20T07:47:42Z</time>
      </trkpt>
      <trkpt lat="49.27619" lon="1.12459">
        <ele>113.8</ele>
        <time>2015-09-20T07:47:45Z</time>
      </trkpt>
      <trkpt lat="49.27631" lon="1.12464">
        <ele>113.7</ele>
        <time>2015-09-20T07:47:48Z</time>
      </trkpt>
      <trkpt lat="49.27644" lon="1.12469">
        <ele>113.7</ele>
        <time>2015-09-20T07:47:51Z</time>
      </trkpt>
      <trkpt lat="49.27653" lon="1.12471">
        <ele>113.6</ele>
        <time>2015-09-20T07:47:53Z</time>
      </trkpt>
      <trkpt lat="49.27662" lon="1.12473">
        <ele>113.4</ele>
        <time>2015-09-20T07:47:55Z</time>
      </trkpt>
      <trkpt lat="49.27672" lon="1.12475">
        <ele>113.1</ele>
        <time>2015-09-20T07:47:57Z</time>
      </trkpt>
      <trkpt lat="49.27683" lon="1.12478">
        <ele>113</ele>
        <time>2015-09-20T07:47:59Z</time>
      </trkpt>
      <trkpt lat="49.27694" lon="1.12479">
        <ele>112.8</ele>
        <time>2015-09-20T07:48:01Z</time>
      </trkpt>
      <trkpt lat="49.27705" lon="1.12482">
        <ele>112.6</ele>
        <time>2015-09-20T07:48:03Z</time>
      </trkpt>
      <trkpt lat="49.27716" lon="1.12485">
        <ele>112.5</ele>
        <time>2015-09-20T07:48:05Z</time>
      </trkpt>
      <trkpt lat="49.27726" lon="1.12488">
        <ele>112.3</ele>
        <time>2015-09-20T07:48:07Z</time>
      </trkpt>
      <trkpt lat="49.27738" lon="1.12492">
        <ele>112</ele>
        <time>2015-09-20T07:48:09Z</time>
      </trkpt>
      <trkpt lat="49.2775" lon="1.12495">
        <ele>111.6</ele>
        <time>2015-09-20T07:48:11Z</time>
      </trkpt>
      <trkpt lat="49.27762" lon="1.12497">
        <ele>110.9</ele>
        <time>2015-09-20T07:48:13Z</time>
      </trkpt>
      <trkpt lat="49.27774" lon="1.12501">
        <ele>110.3</ele>
        <time>2015-09-20T07:48:15Z</time>
      </trkpt>
      <trkpt lat="49.27786" lon="1.12504">
        <ele>109.8</ele>
        <time>2015-09-20T07:48:17Z</time>
      </trkpt>
      <trkpt lat="49.27798" lon="1.12508">
        <ele>109.3</ele>
        <time>2015-09-20T07:48:19Z</time>
      </trkpt>
      <trkpt lat="49.27809" lon="1.12512">
        <ele>108.8</ele>
        <time>2015-09-20T07:48:21Z</time>
      </trkpt>
      <trkpt lat="49.2782" lon="1.12514">
        <ele>108.3</ele>
        <time>2015-09-20T07:48:23Z</time>
      </trkpt>
      <trkpt lat="49.27832" lon="1.12517">
        <ele>107.8</ele>
        <time>2015-09-20T07:48:25Z</time>
      </trkpt>
      <trkpt lat="49.27844" lon="1.12519">
        <ele>107.2</ele>
        <time>2015-09-20T07:48:27Z</time>
      </trkpt>
      <trkpt lat="49.27856" lon="1.12522">
        <ele>106.6</ele>
        <time>2015-09-20T07:48:29Z</time>
      </trkpt>
      <trkpt lat="49.27868" lon="1.12525">
        <ele>105.8</ele>
        <time>2015-09-20T07:48:31Z</time>
      </trkpt>
      <trkpt lat="49.27881" lon="1.12529">
        <ele>104.9</ele>
        <time>2015-09-20T07:48:33Z</time>
      </trkpt>
      <trkpt lat="49.27894" lon="1.12533">
        <ele>104</ele>
        <time>2015-09-20T07:48:35Z</time>
      </trkpt>
      <trkpt lat="49.27907" lon="1.12538">
        <ele>103</ele>
        <time>2015-09-20T07:48:37Z</time>
      </trkpt>
      <trkpt lat="49.27921" lon="1.12541">
        <ele>101.9</ele>
        <time>2015-09-20T07:48:39Z</time>
      </trkpt>
      <trkpt lat="49.27936" lon="1.12544">
        <ele>100.6</ele>
        <time>2015-09-20T07:48:41Z</time>
      </trkpt>
      <trkpt lat="49.27951" lon="1.12548">
        <ele>99.2</ele>
        <time>2015-09-20T07:48:43Z</time>
      </trkpt>
      <trkpt lat="49.27966" lon="1.12552">
        <ele>97.5</ele>
        <time>2015-09-20T07:48:45Z</time>
      </trkpt>
      <trkpt lat="49.27976" lon="1.12557">
        <ele>95.8</ele>
        <time>2015-09-20T07:48:47Z</time>
      </trkpt>
      <trkpt lat="49.27988" lon="1.12561">
        <ele>93.5</ele>
        <time>2015-09-20T07:48:50Z</time>
      </trkpt>
      <trkpt lat="49.27992" lon="1.12547">
        <ele>91.4</ele>
        <time>2015-09-20T07:48:53Z</time>
      </trkpt>
      <trkpt lat="49.27995" lon="1.12529">
        <ele>89.8</ele>
        <time>2015-09-20T07:48:56Z</time>
      </trkpt>
      <trkpt lat="49.27998" lon="1.1251">
        <ele>88.4</ele>
        <time>2015-09-20T07:48:59Z</time>
      </trkpt>
      <trkpt lat="49.27999" lon="1.12496">
        <ele>87.6</ele>
        <time>2015-09-20T07:49:01Z</time>
      </trkpt>
      <trkpt lat="49.28001" lon="1.12482">
        <ele>86.9</ele>
        <time>2015-09-20T07:49:03Z</time>
      </trkpt>
      <trkpt lat="49.28002" lon="1.12467">
        <ele>86.3</ele>
        <time>2015-09-20T07:49:05Z</time>
      </trkpt>
      <trkpt lat="49.28005" lon="1.12452">
        <ele>85.7</ele>
        <time>2015-09-20T07:49:07Z</time>
      </trkpt>
      <trkpt lat="49.28006" lon="1.12437">
        <ele>85.3</ele>
        <time>2015-09-20T07:49:09Z</time>
      </trkpt>
      <trkpt lat="49.28009" lon="1.12421">
        <ele>84.8</ele>
        <time>2015-09-20T07:49:11Z</time>
      </trkpt>
      <trkpt lat="49.2801" lon="1.12404">
        <ele>84.5</ele>
        <time>2015-09-20T07:49:13Z</time>
      </trkpt>
      <trkpt lat="49.28012" lon="1.12388">
        <ele>84.1</ele>
        <time>2015-09-20T07:49:15Z</time>
      </trkpt>
      <trkpt lat="49.28014" lon="1.12371">
        <ele>83.9</ele>
        <time>2015-09-20T07:49:17Z</time>
      </trkpt>
      <trkpt lat="49.28017" lon="1.12354">
        <ele>83.6</ele>
        <time>2015-09-20T07:49:19Z</time>
      </trkpt>
      <trkpt lat="49.28019" lon="1.12336">
        <ele>83.4</ele>
        <time>2015-09-20T07:49:21Z</time>
      </trkpt>
      <trkpt lat="49.28021" lon="1.12318">
        <ele>83.2</ele>
        <time>2015-09-20T07:49:23Z</time>
      </trkpt>
      <trkpt lat="49.28023" lon="1.123">
        <ele>83</ele>
        <time>2015-09-20T07:49:25Z</time>
      </trkpt>
      <trkpt lat="49.28025" lon="1.12281">
        <ele>82.8</ele>
        <time>2015-09-20T07:49:27Z</time>
      </trkpt>
      <trkpt lat="49.28027" lon="1.12262">
        <ele>82.6</ele>
        <time>2015-09-20T07:49:29Z</time>
      </trkpt>
      <trkpt lat="49.28029" lon="1.12244">
        <ele>82.4</ele>
        <time>2015-09-20T07:49:31Z</time>
      </trkpt>
      <trkpt lat="49.28031" lon="1.12226">
        <ele>82.2</ele>
        <time>2015-09-20T07:49:33Z</time>
      </trkpt>
      <trkpt lat="49.28032" lon="1.1221">
        <ele>82</ele>
        <time>2015-09-20T07:49:35Z</time>
      </trkpt>
      <trkpt lat="49.28034" lon="1.12194">
        <ele>81.8</ele>
        <time>2015-09-20T07:49:37Z</time>
      </trkpt>
      <trkpt lat="49.28035" lon="1.12179">
        <ele>81.8</ele>
        <time>2015-09-20T07:49:39Z</time>
      </trkpt>
      <trkpt lat="49.28037" lon="1.12164">
        <ele>81.7</ele>
        <time>2015-09-20T07:49:41Z</time>
      </trkpt>
      <trkpt lat="49.28041" lon="1.1215">
        <ele>81.6</ele>
        <time>2015-09-20T07:49:44Z</time>
      </trkpt>
      <trkpt lat="49.28052" lon="1.12151">
        <ele>81.5</ele>
        <time>2015-09-20T07:49:47Z</time>
      </trkpt>
      <trkpt lat="49.28062" lon="1.12154">
        <ele>81.3</ele>
        <time>2015-09-20T07:49:49Z</time>
      </trkpt>
      <trkpt lat="49.28074" lon="1.12158">
        <ele>80.8</ele>
        <time>2015-09-20T07:49:51Z</time>
      </trkpt>
      <trkpt lat="49.28086" lon="1.1216">
        <ele>80.3</ele>
        <time>2015-09-20T07:49:53Z</time>
      </trkpt>
      <trkpt lat="49.28098" lon="1.12163">
        <ele>79.8</ele>
        <time>2015-09-20T07:49:55Z</time>
      </trkpt>
      <trkpt lat="49.28111" lon="1.12165">
        <ele>79</ele>
        <time>2015-09-20T07:49:57Z</time>
      </trkpt>
      <trkpt lat="49.28125" lon="1.12168">
        <ele>78.4</ele>
        <time>2015-09-20T07:49:59Z</time>
      </trkpt>
      <trkpt lat="49.28139" lon="1.12171">
        <ele>77.5</ele>
        <time>2015-09-20T07:50:01Z</time>
      </trkpt>
      <trkpt lat="49.28153" lon="1.12175">
        <ele>76.8</ele>
        <time>2015-09-20T07:50:03Z</time>
      </trkpt>
      <trkpt lat="49.28167" lon="1.12177">
        <ele>75.9</ele>
        <time>2015-09-20T07:50:05Z</time>
      </trkpt>
      <trkpt lat="49.28182" lon="1.1218">
        <ele>75</ele>
        <time>2015-09-20T07:50:07Z</time>
      </trkpt>
      <trkpt lat="49.28198" lon="1.12185">
        <ele>74.1</ele>
        <time>2015-09-20T07:50:09Z</time>
      </trkpt>
      <trkpt lat="49.28214" lon="1.12189">
        <ele>73.1</ele>
        <time>2015-09-20T07:50:11Z</time>
      </trkpt>
      <trkpt lat="49.28231" lon="1.12193">
        <ele>72</ele>
        <time>2015-09-20T07:50:13Z</time>
      </trkpt>
      <trkpt lat="49.28246" lon="1.12197">
        <ele>70.8</ele>
        <time>2015-09-20T07:50:15Z</time>
      </trkpt>
      <trkpt lat="49.28258" lon="1.12197">
        <ele>69.6</ele>
        <time>2015-09-20T07:50:17Z</time>
      </trkpt>
      <trkpt lat="49.28263" lon="1.12181">
        <ele>68</ele>
        <time>2015-09-20T07:50:20Z</time>
      </trkpt>
      <trkpt lat="49.28263" lon="1.1216">
        <ele>66.6</ele>
        <time>2015-09-20T07:50:23Z</time>
      </trkpt>
      <trkpt lat="49.28266" lon="1.12145">
        <ele>65.7</ele>
        <time>2015-09-20T07:50:25Z</time>
      </trkpt>
      <trkpt lat="49.28269" lon="1.12128">
        <ele>64.8</ele>
        <time>2015-09-20T07:50:27Z</time>
      </trkpt>
      <trkpt lat="49.28271" lon="1.1211">
        <ele>64.1</ele>
        <time>2015-09-20T07:50:29Z</time>
      </trkpt>
      <trkpt lat="49.28273" lon="1.1209">
        <ele>63.3</ele>
        <time>2015-09-20T07:50:31Z</time>
      </trkpt>
      <trkpt lat="49.28276" lon="1.12067">
        <ele>62.4</ele>
        <time>2015-09-20T07:50:33Z</time>
      </trkpt>
      <trkpt lat="49.28279" lon="1.12042">
        <ele>61.5</ele>
        <time>2015-09-20T07:50:35Z</time>
      </trkpt>
      <trkpt lat="49.28281" lon="1.12015">
        <ele>60.3</ele>
        <time>2015-09-20T07:50:37Z</time>
      </trkpt>
      <trkpt lat="49.28282" lon="1.11989">
        <ele>59.2</ele>
        <time>2015-09-20T07:50:39Z</time>
      </trkpt>
      <trkpt lat="49.28284" lon="1.11968">
        <ele>58.1</ele>
        <time>2015-09-20T07:50:41Z</time>
      </trkpt>
      <trkpt lat="49.28285" lon="1.11952">
        <ele>57.2</ele>
        <time>2015-09-20T07:50:43Z</time>
      </trkpt>
      <trkpt lat="49.28292" lon="1.11941">
        <ele>55.3</ele>
        <time>2015-09-20T07:50:47Z</time>
      </trkpt>
      <trkpt lat="49.28301" lon="1.11945">
        <ele>54.3</ele>
        <time>2015-09-20T07:50:50Z</time>
      </trkpt>
      <trkpt lat="49.28311" lon="1.11942">
        <ele>53.4</ele>
        <time>2015-09-20T07:50:53Z</time>
      </trkpt>
      <trkpt lat="49.28321" lon="1.1194">
        <ele>52.7</ele>
        <time>2015-09-20T07:50:56Z</time>
      </trkpt>
      <trkpt lat="49.28331" lon="1.11933">
        <ele>52</ele>
        <time>2015-09-20T07:50:59Z</time>
      </trkpt>
      <trkpt lat="49.28333" lon="1.11919">
        <ele>51.1</ele>
        <time>2015-09-20T07:51:03Z</time>
      </trkpt>
      <trkpt lat="49.28338" lon="1.11902">
        <ele>50.5</ele>
        <time>2015-09-20T07:51:06Z</time>
      </trkpt>
      <trkpt lat="49.28341" lon="1.11884">
        <ele>50.3</ele>
        <time>2015-09-20T07:51:09Z</time>
      </trkpt>
      <trkpt lat="49.28338" lon="1.11867">
        <ele>50.1</ele>
        <time>2015-09-20T07:51:12Z</time>
      </trkpt>
      <trkpt lat="49.28336" lon="1.11847">
        <ele>50.2</ele>
        <time>2015-09-20T07:51:15Z</time>
      </trkpt>
      <trkpt lat="49.28334" lon="1.11828">
        <ele>50.4</ele>
        <time>2015-09-20T07:51:18Z</time>
      </trkpt>
      <trkpt lat="49.28336" lon="1.11814">
        <ele>50.5</ele>
        <time>2015-09-20T07:51:20Z</time>
      </trkpt>
      <trkpt lat="49.28335" lon="1.118">
        <ele>50.6</ele>
        <time>2015-09-20T07:51:22Z</time>
      </trkpt>
      <trkpt lat="49.28332" lon="1.11786">
        <ele>50.8</ele>
        <time>2015-09-20T07:51:24Z</time>
      </trkpt>
      <trkpt lat="49.28328" lon="1.11768">
        <ele>51</ele>
        <time>2015-09-20T07:51:27Z</time>
      </trkpt>
      <trkpt lat="49.28324" lon="1.11751">
        <ele>51.3</ele>
        <time>2015-09-20T07:51:30Z</time>
      </trkpt>
      <trkpt lat="49.28319" lon="1.11734">
        <ele>51.8</ele>
        <time>2015-09-20T07:51:33Z</time>
      </trkpt>
      <trkpt lat="49.28319" lon="1.11716">
        <ele>52.2</ele>
        <time>2015-09-20T07:51:36Z</time>
      </trkpt>
      <trkpt lat="49.28317" lon="1.11698">
        <ele>52.6</ele>
        <time>2015-09-20T07:51:39Z</time>
      </trkpt>
      <trkpt lat="49.28317" lon="1.11679">
        <ele>53</ele>
        <time>2015-09-20T07:51:42Z</time>
      </trkpt>
      <trkpt lat="49.28314" lon="1.11663">
        <ele>53.5</ele>
        <time>2015-09-20T07:51:45Z</time>
      </trkpt>
      <trkpt lat="49.28312" lon="1.11647">
        <ele>53.8</ele>
        <time>2015-09-20T07:51:48Z</time>
      </trkpt>
      <trkpt lat="49.2831" lon="1.1163">
        <ele>54.3</ele>
        <time>2015-09-20T07:51:51Z</time>
      </trkpt>
      <trkpt lat="49.28309" lon="1.11615">
        <ele>54.7</ele>
        <time>2015-09-20T07:51:54Z</time>
      </trkpt>
      <trkpt lat="49.28308" lon="1.11599">
        <ele>55.1</ele>
        <time>2015-09-20T07:51:57Z</time>
      </trkpt>
      <trkpt lat="49.2831" lon="1.11581">
        <ele>55.5</ele>
        <time>2015-09-20T07:52:00Z</time>
      </trkpt>
      <trkpt lat="49.28308" lon="1.11567">
        <ele>56</ele>
        <time>2015-09-20T07:52:03Z</time>
      </trkpt>
      <trkpt lat="49.28309" lon="1.11552">
        <ele>56.4</ele>
        <time>2015-09-20T07:52:06Z</time>
      </trkpt>
      <trkpt lat="49.28308" lon="1.11535">
        <ele>56.8</ele>
        <time>2015-09-20T07:52:09Z</time>
      </trkpt>
      <trkpt lat="49.28307" lon="1.11521">
        <ele>57</ele>
        <time>2015-09-20T07:52:12Z</time>
      </trkpt>
      <trkpt lat="49.28309" lon="1.11503">
        <ele>57.2</ele>
        <time>2015-09-20T07:52:15Z</time>
      </trkpt>
      <trkpt lat="49.28309" lon="1.11488">
        <ele>57.4</ele>
        <time>2015-09-20T07:52:18Z</time>
      </trkpt>
      <trkpt lat="49.28307" lon="1.11467">
        <ele>57.6</ele>
        <time>2015-09-20T07:52:21Z</time>
      </trkpt>
      <trkpt lat="49.28309" lon="1.11448">
        <ele>57.8</ele>
        <time>2015-09-20T07:52:24Z</time>
      </trkpt>
      <trkpt lat="49.28311" lon="1.11433">
        <ele>58</ele>
        <time>2015-09-20T07:52:26Z</time>
      </trkpt>
      <trkpt lat="49.28314" lon="1.11419">
        <ele>58.2</ele>
        <time>2015-09-20T07:52:28Z</time>
      </trkpt>
      <trkpt lat="49.28315" lon="1.114">
        <ele>58.4</ele>
        <time>2015-09-20T07:52:30Z</time>
      </trkpt>
      <trkpt lat="49.28315" lon="1.11381">
        <ele>58.8</ele>
        <time>2015-09-20T07:52:33Z</time>
      </trkpt>
      <trkpt lat="49.28314" lon="1.11367">
        <ele>58.9</ele>
        <time>2015-09-20T07:52:35Z</time>
      </trkpt>
      <trkpt lat="49.28319" lon="1.11354">
        <ele>59.1</ele>
        <time>2015-09-20T07:52:37Z</time>
      </trkpt>
      <trkpt lat="49.28328" lon="1.11343">
        <ele>59.1</ele>
        <time>2015-09-20T07:52:39Z</time>
      </trkpt>
      <trkpt lat="49.28338" lon="1.11331">
        <ele>59</ele>
        <time>2015-09-20T07:52:41Z</time>
      </trkpt>
      <trkpt lat="49.28346" lon="1.11323">
        <ele>58.9</ele>
        <time>2015-09-20T07:52:43Z</time>
      </trkpt>
      <trkpt lat="49.28354" lon="1.11313">
        <ele>58.6</ele>
        <time>2015-09-20T07:52:45Z</time>
      </trkpt>
      <trkpt lat="49.28361" lon="1.11302">
        <ele>58.2</ele>
        <time>2015-09-20T07:52:47Z</time>
      </trkpt>
      <trkpt lat="49.28363" lon="1.11287">
        <ele>57.7</ele>
        <time>2015-09-20T07:52:49Z</time>
      </trkpt>
      <trkpt lat="49.28364" lon="1.11269">
        <ele>57.1</ele>
        <time>2015-09-20T07:52:52Z</time>
      </trkpt>
      <trkpt lat="49.28366" lon="1.11254">
        <ele>56.7</ele>
        <time>2015-09-20T07:52:55Z</time>
      </trkpt>
      <trkpt lat="49.28366" lon="1.1124">
        <ele>56.3</ele>
        <time>2015-09-20T07:52:58Z</time>
      </trkpt>
      <trkpt lat="49.28368" lon="1.11222">
        <ele>56.1</ele>
        <time>2015-09-20T07:53:01Z</time>
      </trkpt>
      <trkpt lat="49.2837" lon="1.11208">
        <ele>56.1</ele>
        <time>2015-09-20T07:53:03Z</time>
      </trkpt>
      <trkpt lat="49.28373" lon="1.1119">
        <ele>56</ele>
        <time>2015-09-20T07:53:06Z</time>
      </trkpt>
      <trkpt lat="49.28371" lon="1.11175">
        <ele>56</ele>
        <time>2015-09-20T07:53:08Z</time>
      </trkpt>
      <trkpt lat="49.28373" lon="1.11161">
        <ele>56</ele>
        <time>2015-09-20T07:53:10Z</time>
      </trkpt>
      <trkpt lat="49.28374" lon="1.11146">
        <ele>56</ele>
        <time>2015-09-20T07:53:12Z</time>
      </trkpt>
      <trkpt lat="49.28375" lon="1.11131">
        <ele>56.1</ele>
        <time>2015-09-20T07:53:14Z</time>
      </trkpt>
      <trkpt lat="49.28376" lon="1.11114">
        <ele>56.1</ele>
        <time>2015-09-20T07:53:16Z</time>
      </trkpt>
      <trkpt lat="49.28378" lon="1.11096">
        <ele>56.1</ele>
        <time>2015-09-20T07:53:18Z</time>
      </trkpt>
      <trkpt lat="49.28386" lon="1.11075">
        <ele>56.1</ele>
        <time>2015-09-20T07:53:20Z</time>
      </trkpt>
      <trkpt lat="49.28393" lon="1.1106">
        <ele>56.1</ele>
        <time>2015-09-20T07:53:22Z</time>
      </trkpt>
      <trkpt lat="49.28407" lon="1.11061">
        <ele>56</ele>
        <time>2015-09-20T07:53:25Z</time>
      </trkpt>
      <trkpt lat="49.28416" lon="1.11062">
        <ele>55.8</ele>
        <time>2015-09-20T07:53:27Z</time>
      </trkpt>
      <trkpt lat="49.28427" lon="1.11065">
        <ele>55.4</ele>
        <time>2015-09-20T07:53:29Z</time>
      </trkpt>
      <trkpt lat="49.28436" lon="1.11069">
        <ele>55.1</ele>
        <time>2015-09-20T07:53:31Z</time>
      </trkpt>
      <trkpt lat="49.28449" lon="1.11071">
        <ele>54.7</ele>
        <time>2015-09-20T07:53:33Z</time>
      </trkpt>
      <trkpt lat="49.28462" lon="1.11072">
        <ele>54.3</ele>
        <time>2015-09-20T07:53:35Z</time>
      </trkpt>
      <trkpt lat="49.28475" lon="1.11075">
        <ele>53.9</ele>
        <time>2015-09-20T07:53:37Z</time>
      </trkpt>
      <trkpt lat="49.28488" lon="1.11075">
        <ele>53.4</ele>
        <time>2015-09-20T07:53:39Z</time>
      </trkpt>
      <trkpt lat="49.28495" lon="1.11066">
        <ele>52.8</ele>
        <time>2015-09-20T07:53:41Z</time>
      </trkpt>
      <trkpt lat="49.28502" lon="1.11049">
        <ele>52.3</ele>
        <time>2015-09-20T07:53:43Z</time>
      </trkpt>
      <trkpt lat="49.28506" lon="1.11031">
        <ele>51.8</ele>
        <time>2015-09-20T07:53:45Z</time>
      </trkpt>
      <trkpt lat="49.2851" lon="1.11013">
        <ele>51.4</ele>
        <time>2015-09-20T07:53:47Z</time>
      </trkpt>
      <trkpt lat="49.28512" lon="1.10995">
        <ele>51</ele>
        <time>2015-09-20T07:53:49Z</time>
      </trkpt>
      <trkpt lat="49.28514" lon="1.10977">
        <ele>50.7</ele>
        <time>2015-09-20T07:53:51Z</time>
      </trkpt>
      <trkpt lat="49.28517" lon="1.10959">
        <ele>50.4</ele>
        <time>2015-09-20T07:53:53Z</time>
      </trkpt>
      <trkpt lat="49.28519" lon="1.10941">
        <ele>50.1</ele>
        <time>2015-09-20T07:53:55Z</time>
      </trkpt>
      <trkpt lat="49.28521" lon="1.10922">
        <ele>49.9</ele>
        <time>2015-09-20T07:53:57Z</time>
      </trkpt>
      <trkpt lat="49.28523" lon="1.10904">
        <ele>49.7</ele>
        <time>2015-09-20T07:53:59Z</time>
      </trkpt>
      <trkpt lat="49.28519" lon="1.10888">
        <ele>49.4</ele>
        <time>2015-09-20T07:54:02Z</time>
      </trkpt>
      <trkpt lat="49.28509" lon="1.10884">
        <ele>49.1</ele>
        <time>2015-09-20T07:54:05Z</time>
      </trkpt>
      <trkpt lat="49.28498" lon="1.10879">
        <ele>48.8</ele>
        <time>2015-09-20T07:54:08Z</time>
      </trkpt>
      <trkpt lat="49.28488" lon="1.10876">
        <ele>48.6</ele>
        <time>2015-09-20T07:54:11Z</time>
      </trkpt>
      <trkpt lat="49.28479" lon="1.10873">
        <ele>48.6</ele>
        <time>2015-09-20T07:54:14Z</time>
      </trkpt>
      <trkpt lat="49.28468" lon="1.10868">
        <ele>48.6</ele>
        <time>2015-09-20T07:54:18Z</time>
      </trkpt>
      <trkpt lat="49.28459" lon="1.10863">
        <ele>48.8</ele>
        <time>2015-09-20T07:54:21Z</time>
      </trkpt>
      <trkpt lat="49.28448" lon="1.10858">
        <ele>49.1</ele>
        <time>2015-09-20T07:54:25Z</time>
      </trkpt>
      <trkpt lat="49.28438" lon="1.10854">
        <ele>49.4</ele>
        <time>2015-09-20T07:54:28Z</time>
      </trkpt>
      <trkpt lat="49.28427" lon="1.10851">
        <ele>49.8</ele>
        <time>2015-09-20T07:54:31Z</time>
      </trkpt>
      <trkpt lat="49.28416" lon="1.10847">
        <ele>50.2</ele>
        <time>2015-09-20T07:54:34Z</time>
      </trkpt>
      <trkpt lat="49.28407" lon="1.10845">
        <ele>50.6</ele>
        <time>2015-09-20T07:54:37Z</time>
      </trkpt>
      <trkpt lat="49.28396" lon="1.10843">
        <ele>51</ele>
        <time>2015-09-20T07:54:40Z</time>
      </trkpt>
      <trkpt lat="49.28384" lon="1.1084">
        <ele>51.5</ele>
        <time>2015-09-20T07:54:43Z</time>
      </trkpt>
      <trkpt lat="49.28374" lon="1.10838">
        <ele>51.9</ele>
        <time>2015-09-20T07:54:46Z</time>
      </trkpt>
      <trkpt lat="49.28364" lon="1.10836">
        <ele>52.4</ele>
        <time>2015-09-20T07:54:49Z</time>
      </trkpt>
      <trkpt lat="49.28354" lon="1.10833">
        <ele>52.9</ele>
        <time>2015-09-20T07:54:52Z</time>
      </trkpt>
      <trkpt lat="49.28343" lon="1.10831">
        <ele>53.4</ele>
        <time>2015-09-20T07:54:55Z</time>
      </trkpt>
      <trkpt lat="49.28332" lon="1.10829">
        <ele>53.9</ele>
        <time>2015-09-20T07:54:58Z</time>
      </trkpt>
      <trkpt lat="49.28322" lon="1.10828">
        <ele>54.5</ele>
        <time>2015-09-20T07:55:01Z</time>
      </trkpt>
      <trkpt lat="49.28313" lon="1.10825">
        <ele>55.1</ele>
        <time>2015-09-20T07:55:04Z</time>
      </trkpt>
      <trkpt lat="49.28302" lon="1.10824">
        <ele>55.6</ele>
        <time>2015-09-20T07:55:07Z</time>
      </trkpt>
      <trkpt lat="49.28292" lon="1.10821">
        <ele>56.4</ele>
        <time>2015-09-20T07:55:11Z</time>
      </trkpt>
      <trkpt lat="49.28283" lon="1.1082">
        <ele>56.9</ele>
        <time>2015-09-20T07:55:14Z</time>
      </trkpt>
      <trkpt lat="49.28271" lon="1.10817">
        <ele>57.7</ele>
        <time>2015-09-20T07:55:18Z</time>
      </trkpt>
      <trkpt lat="49.28262" lon="1.10816">
        <ele>58.2</ele>
        <time>2015-09-20T07:55:21Z</time>
      </trkpt>
      <trkpt lat="49.28251" lon="1.10813">
        <ele>59.1</ele>
        <time>2015-09-20T07:55:25Z</time>
      </trkpt>
      <trkpt lat="49.28241" lon="1.10811">
        <ele>59.9</ele>
        <time>2015-09-20T07:55:29Z</time>
      </trkpt>
      <trkpt lat="49.28231" lon="1.1081">
        <ele>60.6</ele>
        <time>2015-09-20T07:55:32Z</time>
      </trkpt>
      <trkpt lat="49.28219" lon="1.10806">
        <ele>61.5</ele>
        <time>2015-09-20T07:55:36Z</time>
      </trkpt>
      <trkpt lat="49.28209" lon="1.10802">
        <ele>62.3</ele>
        <time>2015-09-20T07:55:39Z</time>
      </trkpt>
      <trkpt lat="49.28209" lon="1.10784">
        <ele>63.1</ele>
        <time>2015-09-20T07:55:43Z</time>
      </trkpt>
      <trkpt lat="49.28208" lon="1.10769">
        <ele>63.6</ele>
        <time>2015-09-20T07:55:46Z</time>
      </trkpt>
      <trkpt lat="49.28209" lon="1.10749">
        <ele>64</ele>
        <time>2015-09-20T07:55:49Z</time>
      </trkpt>
      <trkpt lat="49.28208" lon="1.10731">
        <ele>64.4</ele>
        <time>2015-09-20T07:55:52Z</time>
      </trkpt>
      <trkpt lat="49.28209" lon="1.10712">
        <ele>64.6</ele>
        <time>2015-09-20T07:55:55Z</time>
      </trkpt>
      <trkpt lat="49.28209" lon="1.10692">
        <ele>64.7</ele>
        <time>2015-09-20T07:55:58Z</time>
      </trkpt>
      <trkpt lat="49.28203" lon="1.1068">
        <ele>64.6</ele>
        <time>2015-09-20T07:56:01Z</time>
      </trkpt>
      <trkpt lat="49.28194" lon="1.10676">
        <ele>64.6</ele>
        <time>2015-09-20T07:56:05Z</time>
      </trkpt>
      <trkpt lat="49.28184" lon="1.10671">
        <ele>64.6</ele>
        <time>2015-09-20T07:56:09Z</time>
      </trkpt>
      <trkpt lat="49.28174" lon="1.10667">
        <ele>64.8</ele>
        <time>2015-09-20T07:56:13Z</time>
      </trkpt>
      <trkpt lat="49.28163" lon="1.10663">
        <ele>65.2</ele>
        <time>2015-09-20T07:56:17Z</time>
      </trkpt>
      <trkpt lat="49.28153" lon="1.1066">
        <ele>65.7</ele>
        <time>2015-09-20T07:56:21Z</time>
      </trkpt>
      <trkpt lat="49.28143" lon="1.10657">
        <ele>66.3</ele>
        <time>2015-09-20T07:56:25Z</time>
      </trkpt>
      <trkpt lat="49.28134" lon="1.10654">
        <ele>67</ele>
        <time>2015-09-20T07:56:29Z</time>
      </trkpt>
      <trkpt lat="49.28124" lon="1.10651">
        <ele>67.9</ele>
        <time>2015-09-20T07:56:34Z</time>
      </trkpt>
      <trkpt lat="49.28114" lon="1.10648">
        <ele>68.8</ele>
        <time>2015-09-20T07:56:39Z</time>
      </trkpt>
      <trkpt lat="49.28104" lon="1.10644">
        <ele>69.8</ele>
        <time>2015-09-20T07:56:45Z</time>
      </trkpt>
      <trkpt lat="49.28095" lon="1.10641">
        <ele>70.8</ele>
        <time>2015-09-20T07:56:51Z</time>
      </trkpt>
      <trkpt lat="49.28085" lon="1.1064">
        <ele>71.8</ele>
        <time>2015-09-20T07:56:57Z</time>
      </trkpt>
      <trkpt lat="49.28075" lon="1.10636">
        <ele>73.2</ele>
        <time>2015-09-20T07:57:04Z</time>
      </trkpt>
      <trkpt lat="49.28065" lon="1.10632">
        <ele>74.6</ele>
        <time>2015-09-20T07:57:11Z</time>
      </trkpt>
      <trkpt lat="49.28056" lon="1.10629">
        <ele>75.7</ele>
        <time>2015-09-20T07:57:17Z</time>
      </trkpt>
      <trkpt lat="49.28047" lon="1.10627">
        <ele>76.9</ele>
        <time>2015-09-20T07:57:23Z</time>
      </trkpt>
      <trkpt lat="49.28038" lon="1.10625">
        <ele>78.1</ele>
        <time>2015-09-20T07:57:29Z</time>
      </trkpt>
      <trkpt lat="49.28028" lon="1.10623">
        <ele>79.3</ele>
        <time>2015-09-20T07:57:35Z</time>
      </trkpt>
      <trkpt lat="49.28019" lon="1.10621">
        <ele>80.6</ele>
        <time>2015-09-20T07:57:41Z</time>
      </trkpt>
      <trkpt lat="49.2801" lon="1.10619">
        <ele>81.9</ele>
        <time>2015-09-20T07:57:47Z</time>
      </trkpt>
      <trkpt lat="49.28" lon="1.10616">
        <ele>83.4</ele>
        <time>2015-09-20T07:57:54Z</time>
      </trkpt>
      <trkpt lat="49.27991" lon="1.10613">
        <ele>84.9</ele>
        <time>2015-09-20T07:58:00Z</time>
      </trkpt>
      <trkpt lat="49.27981" lon="1.10611">
        <ele>86.5</ele>
        <time>2015-09-20T07:58:07Z</time>
      </trkpt>
      <trkpt lat="49.27972" lon="1.10607">
        <ele>88.1</ele>
        <time>2015-09-20T07:58:14Z</time>
      </trkpt>
      <trkpt lat="49.27963" lon="1.10603">
        <ele>89.4</ele>
        <time>2015-09-20T07:58:20Z</time>
      </trkpt>
      <trkpt lat="49.27954" lon="1.10602">
        <ele>91</ele>
        <time>2015-09-20T07:58:27Z</time>
      </trkpt>
      <trkpt lat="49.27944" lon="1.10598">
        <ele>92.4</ele>
        <time>2015-09-20T07:58:34Z</time>
      </trkpt>
      <trkpt lat="49.27934" lon="1.10596">
        <ele>93.8</ele>
        <time>2015-09-20T07:58:41Z</time>
      </trkpt>
      <trkpt lat="49.27924" lon="1.10594">
        <ele>94.9</ele>
        <time>2015-09-20T07:58:47Z</time>
      </trkpt>
      <trkpt lat="49.27914" lon="1.10592">
        <ele>96</ele>
        <time>2015-09-20T07:58:53Z</time>
      </trkpt>
      <trkpt lat="49.27904" lon="1.10589">
        <ele>97</ele>
        <time>2015-09-20T07:58:59Z</time>
      </trkpt>
      <trkpt lat="49.27895" lon="1.10587">
        <ele>97.9</ele>
        <time>2015-09-20T07:59:04Z</time>
      </trkpt>
      <trkpt lat="49.27884" lon="1.10584">
        <ele>98.8</ele>
        <time>2015-09-20T07:59:09Z</time>
      </trkpt>
      <trkpt lat="49.27875" lon="1.10582">
        <ele>99.5</ele>
        <time>2015-09-20T07:59:13Z</time>
      </trkpt>
      <trkpt lat="49.27865" lon="1.10579">
        <ele>100.1</ele>
        <time>2015-09-20T07:59:17Z</time>
      </trkpt>
      <trkpt lat="49.27855" lon="1.10577">
        <ele>100.8</ele>
        <time>2015-09-20T07:59:21Z</time>
      </trkpt>
      <trkpt lat="49.27844" lon="1.10574">
        <ele>101.4</ele>
        <time>2015-09-20T07:59:25Z</time>
      </trkpt>
      <trkpt lat="49.27835" lon="1.10572">
        <ele>101.9</ele>
        <time>2015-09-20T07:59:28Z</time>
      </trkpt>
      <trkpt lat="49.27826" lon="1.10569">
        <ele>102.4</ele>
        <time>2015-09-20T07:59:31Z</time>
      </trkpt>
      <trkpt lat="49.27814" lon="1.10565">
        <ele>102.8</ele>
        <time>2015-09-20T07:59:35Z</time>
      </trkpt>
      <trkpt lat="49.27803" lon="1.10562">
        <ele>103.2</ele>
        <time>2015-09-20T07:59:39Z</time>
      </trkpt>
      <trkpt lat="49.278" lon="1.10548">
        <ele>103.6</ele>
        <time>2015-09-20T07:59:43Z</time>
      </trkpt>
      <trkpt lat="49.27802" lon="1.10532">
        <ele>103.8</ele>
        <time>2015-09-20T07:59:46Z</time>
      </trkpt>
      <trkpt lat="49.27802" lon="1.10515">
        <ele>104</ele>
        <time>2015-09-20T07:59:49Z</time>
      </trkpt>
      <trkpt lat="49.27805" lon="1.10496">
        <ele>104.2</ele>
        <time>2015-09-20T07:59:52Z</time>
      </trkpt>
      <trkpt lat="49.27806" lon="1.10482">
        <ele>104.4</ele>
        <time>2015-09-20T07:59:54Z</time>
      </trkpt>
      <trkpt lat="49.27808" lon="1.10468">
        <ele>104.5</ele>
        <time>2015-09-20T07:59:56Z</time>
      </trkpt>
      <trkpt lat="49.27809" lon="1.10453">
        <ele>104.6</ele>
        <time>2015-09-20T07:59:58Z</time>
      </trkpt>
      <trkpt lat="49.2781" lon="1.10437">
        <ele>104.7</ele>
        <time>2015-09-20T08:00:00Z</time>
      </trkpt>
      <trkpt lat="49.27812" lon="1.10422">
        <ele>104.8</ele>
        <time>2015-09-20T08:00:02Z</time>
      </trkpt>
      <trkpt lat="49.27814" lon="1.10405">
        <ele>104.8</ele>
        <time>2015-09-20T08:00:04Z</time>
      </trkpt>
      <trkpt lat="49.27815" lon="1.10387">
        <ele>104.7</ele>
        <time>2015-09-20T08:00:06Z</time>
      </trkpt>
      <trkpt lat="49.27817" lon="1.10369">
        <ele>104.5</ele>
        <time>2015-09-20T08:00:08Z</time>
      </trkpt>
      <trkpt lat="49.27819" lon="1.10351">
        <ele>104.4</ele>
        <time>2015-09-20T08:00:10Z</time>
      </trkpt>
      <trkpt lat="49.27821" lon="1.10331">
        <ele>104.2</ele>
        <time>2015-09-20T08:00:12Z</time>
      </trkpt>
      <trkpt lat="49.27823" lon="1.10309">
        <ele>103.9</ele>
        <time>2015-09-20T08:00:14Z</time>
      </trkpt>
      <trkpt lat="49.27826" lon="1.10285">
        <ele>103.5</ele>
        <time>2015-09-20T08:00:16Z</time>
      </trkpt>
      <trkpt lat="49.27829" lon="1.1026">
        <ele>102.9</ele>
        <time>2015-09-20T08:00:18Z</time>
      </trkpt>
      <trkpt lat="49.27831" lon="1.10234">
        <ele>102.3</ele>
        <time>2015-09-20T08:00:20Z</time>
      </trkpt>
      <trkpt lat="49.27834" lon="1.10207">
        <ele>101.4</ele>
        <time>2015-09-20T08:00:22Z</time>
      </trkpt>
      <trkpt lat="49.27836" lon="1.10192">
        <ele>100.9</ele>
        <time>2015-09-20T08:00:23Z</time>
      </trkpt>
      <trkpt lat="49.27838" lon="1.10177">
        <ele>100.4</ele>
        <time>2015-09-20T08:00:24Z</time>
      </trkpt>
      <trkpt lat="49.27839" lon="1.10162">
        <ele>99.9</ele>
        <time>2015-09-20T08:00:25Z</time>
      </trkpt>
      <trkpt lat="49.2784" lon="1.10146">
        <ele>99.3</ele>
        <time>2015-09-20T08:00:26Z</time>
      </trkpt>
      <trkpt lat="49.27842" lon="1.1013">
        <ele>98.7</ele>
        <time>2015-09-20T08:00:27Z</time>
      </trkpt>
      <trkpt lat="49.27843" lon="1.10113">
        <ele>98.1</ele>
        <time>2015-09-20T08:00:28Z</time>
      </trkpt>
      <trkpt lat="49.27845" lon="1.10096">
        <ele>97.4</ele>
        <time>2015-09-20T08:00:29Z</time>
      </trkpt>
      <trkpt lat="49.27847" lon="1.10079">
        <ele>96.7</ele>
        <time>2015-09-20T08:00:30Z</time>
      </trkpt>
      <trkpt lat="49.27849" lon="1.10062">
        <ele>95.9</ele>
        <time>2015-09-20T08:00:31Z</time>
      </trkpt>
      <trkpt lat="49.27851" lon="1.10044">
        <ele>95.2</ele>
        <time>2015-09-20T08:00:32Z</time>
      </trkpt>
      <trkpt lat="49.27853" lon="1.10026">
        <ele>94.3</ele>
        <time>2015-09-20T08:00:33Z</time>
      </trkpt>
      <trkpt lat="49.27855" lon="1.10008">
        <ele>93.5</ele>
        <time>2015-09-20T08:00:34Z</time>
      </trkpt>
      <trkpt lat="49.27857" lon="1.0999">
        <ele>92.6</ele>
        <time>2015-09-20T08:00:35Z</time>
      </trkpt>
      <trkpt lat="49.27859" lon="1.09973">
        <ele>91.7</ele>
        <time>2015-09-20T08:00:36Z</time>
      </trkpt>
      <trkpt lat="49.2786" lon="1.09955">
        <ele>90.8</ele>
        <time>2015-09-20T08:00:37Z</time>
      </trkpt>
      <trkpt lat="49.27862" lon="1.09937">
        <ele>89.9</ele>
        <time>2015-09-20T08:00:38Z</time>
      </trkpt>
      <trkpt lat="49.27863" lon="1.09919">
        <ele>88.9</ele>
        <time>2015-09-20T08:00:39Z</time>
      </trkpt>
      <trkpt lat="49.27865" lon="1.09902">
        <ele>87.9</ele>
        <time>2015-09-20T08:00:40Z</time>
      </trkpt>
      <trkpt lat="49.27867" lon="1.09884">
        <ele>86.9</ele>
        <time>2015-09-20T08:00:41Z</time>
      </trkpt>
      <trkpt lat="49.27869" lon="1.09866">
        <ele>86</ele>
        <time>2015-09-20T08:00:42Z</time>
      </trkpt>
      <trkpt lat="49.27871" lon="1.09849">
        <ele>85</ele>
        <time>2015-09-20T08:00:43Z</time>
      </trkpt>
      <trkpt lat="49.27873" lon="1.09833">
        <ele>83.9</ele>
        <time>2015-09-20T08:00:44Z</time>
      </trkpt>
      <trkpt lat="49.27874" lon="1.09817">
        <ele>83</ele>
        <time>2015-09-20T08:00:45Z</time>
      </trkpt>
      <trkpt lat="49.27876" lon="1.09801">
        <ele>82</ele>
        <time>2015-09-20T08:00:46Z</time>
      </trkpt>
      <trkpt lat="49.27878" lon="1.09786">
        <ele>81</ele>
        <time>2015-09-20T08:00:47Z</time>
      </trkpt>
      <trkpt lat="49.2788" lon="1.09772">
        <ele>80</ele>
        <time>2015-09-20T08:00:48Z</time>
      </trkpt>
      <trkpt lat="49.27881" lon="1.09757">
        <ele>79</ele>
        <time>2015-09-20T08:00:49Z</time>
      </trkpt>
      <trkpt lat="49.27883" lon="1.09742">
        <ele>78.1</ele>
        <time>2015-09-20T08:00:50Z</time>
      </trkpt>
      <trkpt lat="49.27884" lon="1.09727">
        <ele>77.2</ele>
        <time>2015-09-20T08:00:51Z</time>
      </trkpt>
      <trkpt lat="49.27885" lon="1.09712">
        <ele>76.3</ele>
        <time>2015-09-20T08:00:52Z</time>
      </trkpt>
      <trkpt lat="49.27885" lon="1.09687">
        <ele>74.5</ele>
        <time>2015-09-20T08:00:54Z</time>
      </trkpt>
      <trkpt lat="49.27887" lon="1.09663">
        <ele>72.9</ele>
        <time>2015-09-20T08:00:56Z</time>
      </trkpt>
      <trkpt lat="49.27886" lon="1.09639">
        <ele>71.2</ele>
        <time>2015-09-20T08:00:58Z</time>
      </trkpt>
      <trkpt lat="49.27885" lon="1.09623">
        <ele>70.4</ele>
        <time>2015-09-20T08:00:59Z</time>
      </trkpt>
      <trkpt lat="49.27886" lon="1.09603">
        <ele>69.6</ele>
        <time>2015-09-20T08:01:00Z</time>
      </trkpt>
      <trkpt lat="49.27888" lon="1.09589">
        <ele>68.7</ele>
        <time>2015-09-20T08:01:01Z</time>
      </trkpt>
      <trkpt lat="49.27891" lon="1.09574">
        <ele>67.9</ele>
        <time>2015-09-20T08:01:02Z</time>
      </trkpt>
      <trkpt lat="49.27894" lon="1.09558">
        <ele>67.1</ele>
        <time>2015-09-20T08:01:03Z</time>
      </trkpt>
      <trkpt lat="49.27895" lon="1.09543">
        <ele>66.3</ele>
        <time>2015-09-20T08:01:04Z</time>
      </trkpt>
      <trkpt lat="49.27898" lon="1.09528">
        <ele>65.5</ele>
        <time>2015-09-20T08:01:05Z</time>
      </trkpt>
      <trkpt lat="49.279" lon="1.09514">
        <ele>64.7</ele>
        <time>2015-09-20T08:01:06Z</time>
      </trkpt>
      <trkpt lat="49.27903" lon="1.0949">
        <ele>63.1</ele>
        <time>2015-09-20T08:01:08Z</time>
      </trkpt>
      <trkpt lat="49.27907" lon="1.09471">
        <ele>61.4</ele>
        <time>2015-09-20T08:01:10Z</time>
      </trkpt>
      <trkpt lat="49.27908" lon="1.09456">
        <ele>57.9</ele>
        <time>2015-09-20T08:01:15Z</time>
      </trkpt>
      <trkpt lat="49.27919" lon="1.09455">
        <ele>55.3</ele>
        <time>2015-09-20T08:01:20Z</time>
      </trkpt>
      <trkpt lat="49.27932" lon="1.0946">
        <ele>54</ele>
        <time>2015-09-20T08:01:23Z</time>
      </trkpt>
      <trkpt lat="49.2794" lon="1.09472">
        <ele>52.9</ele>
        <time>2015-09-20T08:01:26Z</time>
      </trkpt>
      <trkpt lat="49.27949" lon="1.09482">
        <ele>51.9</ele>
        <time>2015-09-20T08:01:29Z</time>
      </trkpt>
      <trkpt lat="49.2796" lon="1.09491">
        <ele>51.4</ele>
        <time>2015-09-20T08:01:31Z</time>
      </trkpt>
      <trkpt lat="49.27971" lon="1.09496">
        <ele>50.9</ele>
        <time>2015-09-20T08:01:33Z</time>
      </trkpt>
      <trkpt lat="49.27981" lon="1.09502">
        <ele>50.5</ele>
        <time>2015-09-20T08:01:35Z</time>
      </trkpt>
      <trkpt lat="49.27992" lon="1.09508">
        <ele>50.2</ele>
        <time>2015-09-20T08:01:37Z</time>
      </trkpt>
      <trkpt lat="49.28004" lon="1.09514">
        <ele>49.9</ele>
        <time>2015-09-20T08:01:39Z</time>
      </trkpt>
      <trkpt lat="49.28016" lon="1.09522">
        <ele>49.5</ele>
        <time>2015-09-20T08:01:41Z</time>
      </trkpt>
      <trkpt lat="49.28026" lon="1.09532">
        <ele>49.1</ele>
        <time>2015-09-20T08:01:44Z</time>
      </trkpt>
      <trkpt lat="49.28024" lon="1.09547">
        <ele>48.6</ele>
        <time>2015-09-20T08:01:48Z</time>
      </trkpt>
      <trkpt lat="49.28033" lon="1.09561">
        <ele>48.3</ele>
        <time>2015-09-20T08:01:51Z</time>
      </trkpt>
      <trkpt lat="49.2804" lon="1.09569">
        <ele>48.1</ele>
        <time>2015-09-20T08:01:53Z</time>
      </trkpt>
      <trkpt lat="49.28049" lon="1.0958">
        <ele>48</ele>
        <time>2015-09-20T08:01:55Z</time>
      </trkpt>
      <trkpt lat="49.28059" lon="1.09591">
        <ele>47.9</ele>
        <time>2015-09-20T08:01:57Z</time>
      </trkpt>
      <trkpt lat="49.28069" lon="1.09602">
        <ele>47.7</ele>
        <time>2015-09-20T08:01:59Z</time>
      </trkpt>
      <trkpt lat="49.28077" lon="1.09614">
        <ele>47.6</ele>
        <time>2015-09-20T08:02:01Z</time>
      </trkpt>
      <trkpt lat="49.28085" lon="1.09626">
        <ele>47.6</ele>
        <time>2015-09-20T08:02:03Z</time>
      </trkpt>
      <trkpt lat="49.28093" lon="1.09637">
        <ele>47.5</ele>
        <time>2015-09-20T08:02:05Z</time>
      </trkpt>
      <trkpt lat="49.28102" lon="1.0965">
        <ele>47.4</ele>
        <time>2015-09-20T08:02:07Z</time>
      </trkpt>
      <trkpt lat="49.28113" lon="1.09663">
        <ele>47.4</ele>
        <time>2015-09-20T08:02:09Z</time>
      </trkpt>
      <trkpt lat="49.28122" lon="1.09675">
        <ele>47.3</ele>
        <time>2015-09-20T08:02:11Z</time>
      </trkpt>
      <trkpt lat="49.28133" lon="1.09689">
        <ele>47.1</ele>
        <time>2015-09-20T08:02:13Z</time>
      </trkpt>
      <trkpt lat="49.28144" lon="1.09702">
        <ele>46.9</ele>
        <time>2015-09-20T08:02:15Z</time>
      </trkpt>
      <trkpt lat="49.28151" lon="1.09718">
        <ele>46.7</ele>
        <time>2015-09-20T08:02:17Z</time>
      </trkpt>
      <trkpt lat="49.28155" lon="1.09734">
        <ele>46.4</ele>
        <time>2015-09-20T08:02:19Z</time>
      </trkpt>
      <trkpt lat="49.28156" lon="1.09748">
        <ele>46.2</ele>
        <time>2015-09-20T08:02:21Z</time>
      </trkpt>
      <trkpt lat="49.28158" lon="1.09762">
        <ele>46.1</ele>
        <time>2015-09-20T08:02:23Z</time>
      </trkpt>
      <trkpt lat="49.28159" lon="1.09777">
        <ele>46</ele>
        <time>2015-09-20T08:02:25Z</time>
      </trkpt>
      <trkpt lat="49.28162" lon="1.09792">
        <ele>45.8</ele>
        <time>2015-09-20T08:02:27Z</time>
      </trkpt>
      <trkpt lat="49.28164" lon="1.09806">
        <ele>45.7</ele>
        <time>2015-09-20T08:02:29Z</time>
      </trkpt>
      <trkpt lat="49.28168" lon="1.09824">
        <ele>45.7</ele>
        <time>2015-09-20T08:02:32Z</time>
      </trkpt>
      <trkpt lat="49.28172" lon="1.09837">
        <ele>45.6</ele>
        <time>2015-09-20T08:02:34Z</time>
      </trkpt>
      <trkpt lat="49.28177" lon="1.09852">
        <ele>45.7</ele>
        <time>2015-09-20T08:02:37Z</time>
      </trkpt>
      <trkpt lat="49.28182" lon="1.09868">
        <ele>45.9</ele>
        <time>2015-09-20T08:02:40Z</time>
      </trkpt>
      <trkpt lat="49.28188" lon="1.09882">
        <ele>45.9</ele>
        <time>2015-09-20T08:02:42Z</time>
      </trkpt>
      <trkpt lat="49.28191" lon="1.09897">
        <ele>46</ele>
        <time>2015-09-20T08:02:44Z</time>
      </trkpt>
      <trkpt lat="49.28194" lon="1.09911">
        <ele>46.1</ele>
        <time>2015-09-20T08:02:46Z</time>
      </trkpt>
      <trkpt lat="49.282" lon="1.09929">
        <ele>46.2</ele>
        <time>2015-09-20T08:02:49Z</time>
      </trkpt>
      <trkpt lat="49.28203" lon="1.09949">
        <ele>46.2</ele>
        <time>2015-09-20T08:02:52Z</time>
      </trkpt>
      <trkpt lat="49.28205" lon="1.0997">
        <ele>46.3</ele>
        <time>2015-09-20T08:02:55Z</time>
      </trkpt>
      <trkpt lat="49.28207" lon="1.09985">
        <ele>46.3</ele>
        <time>2015-09-20T08:02:57Z</time>
      </trkpt>
      <trkpt lat="49.28204" lon="1.10003">
        <ele>46.3</ele>
        <time>2015-09-20T08:03:00Z</time>
      </trkpt>
      <trkpt lat="49.282" lon="1.10017">
        <ele>46.4</ele>
        <time>2015-09-20T08:03:03Z</time>
      </trkpt>
      <trkpt lat="49.28195" lon="1.10029">
        <ele>46.4</ele>
        <time>2015-09-20T08:03:05Z</time>
      </trkpt>
      <trkpt lat="49.28189" lon="1.10042">
        <ele>46.6</ele>
        <time>2015-09-20T08:03:08Z</time>
      </trkpt>
      <trkpt lat="49.28184" lon="1.10054">
        <ele>46.7</ele>
        <time>2015-09-20T08:03:11Z</time>
      </trkpt>
      <trkpt lat="49.28176" lon="1.10067">
        <ele>47.1</ele>
        <time>2015-09-20T08:03:15Z</time>
      </trkpt>
      <trkpt lat="49.28169" lon="1.10077">
        <ele>47.4</ele>
        <time>2015-09-20T08:03:18Z</time>
      </trkpt>
      <trkpt lat="49.28162" lon="1.10088">
        <ele>47.8</ele>
        <time>2015-09-20T08:03:21Z</time>
      </trkpt>
      <trkpt lat="49.28157" lon="1.10099">
        <ele>48.1</ele>
        <time>2015-09-20T08:03:23Z</time>
      </trkpt>
      <trkpt lat="49.28153" lon="1.10114">
        <ele>48.4</ele>
        <time>2015-09-20T08:03:25Z</time>
      </trkpt>
      <trkpt lat="49.28153" lon="1.1013">
        <ele>48.9</ele>
        <time>2015-09-20T08:03:28Z</time>
      </trkpt>
      <trkpt lat="49.2816" lon="1.10144">
        <ele>49.3</ele>
        <time>2015-09-20T08:03:31Z</time>
      </trkpt>
      <trkpt lat="49.28167" lon="1.10154">
        <ele>49.6</ele>
        <time>2015-09-20T08:03:33Z</time>
      </trkpt>
      <trkpt lat="49.28175" lon="1.10164">
        <ele>49.8</ele>
        <time>2015-09-20T08:03:35Z</time>
      </trkpt>
      <trkpt lat="49.28184" lon="1.10174">
        <ele>50</ele>
        <time>2015-09-20T08:03:37Z</time>
      </trkpt>
      <trkpt lat="49.28192" lon="1.10186">
        <ele>50.1</ele>
        <time>2015-09-20T08:03:39Z</time>
      </trkpt>
      <trkpt lat="49.28201" lon="1.10197">
        <ele>50.2</ele>
        <time>2015-09-20T08:03:41Z</time>
      </trkpt>
      <trkpt lat="49.28209" lon="1.10209">
        <ele>50.3</ele>
        <time>2015-09-20T08:03:43Z</time>
      </trkpt>
      <trkpt lat="49.28218" lon="1.10221">
        <ele>50.4</ele>
        <time>2015-09-20T08:03:45Z</time>
      </trkpt>
      <trkpt lat="49.28227" lon="1.10231">
        <ele>50.5</ele>
        <time>2015-09-20T08:03:47Z</time>
      </trkpt>
      <trkpt lat="49.28236" lon="1.10242">
        <ele>50.6</ele>
        <time>2015-09-20T08:03:49Z</time>
      </trkpt>
      <trkpt lat="49.28244" lon="1.10254">
        <ele>50.6</ele>
        <time>2015-09-20T08:03:51Z</time>
      </trkpt>
      <trkpt lat="49.28252" lon="1.10267">
        <ele>50.6</ele>
        <time>2015-09-20T08:03:53Z</time>
      </trkpt>
      <trkpt lat="49.28261" lon="1.10278">
        <ele>50.6</ele>
        <time>2015-09-20T08:03:55Z</time>
      </trkpt>
      <trkpt lat="49.28269" lon="1.1029">
        <ele>50.6</ele>
        <time>2015-09-20T08:03:57Z</time>
      </trkpt>
      <trkpt lat="49.28278" lon="1.103">
        <ele>50.6</ele>
        <time>2015-09-20T08:03:59Z</time>
      </trkpt>
      <trkpt lat="49.28286" lon="1.10311">
        <ele>50.6</ele>
        <time>2015-09-20T08:04:01Z</time>
      </trkpt>
      <trkpt lat="49.28296" lon="1.10322">
        <ele>50.6</ele>
        <time>2015-09-20T08:04:03Z</time>
      </trkpt>
      <trkpt lat="49.28307" lon="1.10333">
        <ele>50.6</ele>
        <time>2015-09-20T08:04:05Z</time>
      </trkpt>
      <trkpt lat="49.28316" lon="1.10345">
        <ele>50.5</ele>
        <time>2015-09-20T08:04:07Z</time>
      </trkpt>
      <trkpt lat="49.28324" lon="1.10358">
        <ele>50.4</ele>
        <time>2015-09-20T08:04:09Z</time>
      </trkpt>
      <trkpt lat="49.28334" lon="1.1037">
        <ele>50.2</ele>
        <time>2015-09-20T08:04:11Z</time>
      </trkpt>
      <trkpt lat="49.28345" lon="1.10382">
        <ele>50</ele>
        <time>2015-09-20T08:04:13Z</time>
      </trkpt>
      <trkpt lat="49.28355" lon="1.10396">
        <ele>49.8</ele>
        <time>2015-09-20T08:04:15Z</time>
      </trkpt>
      <trkpt lat="49.28365" lon="1.10409">
        <ele>49.6</ele>
        <time>2015-09-20T08:04:17Z</time>
      </trkpt>
      <trkpt lat="49.28377" lon="1.10422">
        <ele>49.4</ele>
        <time>2015-09-20T08:04:19Z</time>
      </trkpt>
      <trkpt lat="49.28387" lon="1.10436">
        <ele>49.2</ele>
        <time>2015-09-20T08:04:21Z</time>
      </trkpt>
      <trkpt lat="49.284" lon="1.10446">
        <ele>48.9</ele>
        <time>2015-09-20T08:04:23Z</time>
      </trkpt>
      <trkpt lat="49.2841" lon="1.10461">
        <ele>48.6</ele>
        <time>2015-09-20T08:04:25Z</time>
      </trkpt>
      <trkpt lat="49.28421" lon="1.10475">
        <ele>48.2</ele>
        <time>2015-09-20T08:04:27Z</time>
      </trkpt>
      <trkpt lat="49.2843" lon="1.10489">
        <ele>47.9</ele>
        <time>2015-09-20T08:04:29Z</time>
      </trkpt>
      <trkpt lat="49.28439" lon="1.10505">
        <ele>47.5</ele>
        <time>2015-09-20T08:04:31Z</time>
      </trkpt>
      <trkpt lat="49.2845" lon="1.10519">
        <ele>47.2</ele>
        <time>2015-09-20T08:04:33Z</time>
      </trkpt>
      <trkpt lat="49.28461" lon="1.10531">
        <ele>46.8</ele>
        <time>2015-09-20T08:04:35Z</time>
      </trkpt>
      <trkpt lat="49.28473" lon="1.10544">
        <ele>46.5</ele>
        <time>2015-09-20T08:04:37Z</time>
      </trkpt>
      <trkpt lat="49.28482" lon="1.10558">
        <ele>46.1</ele>
        <time>2015-09-20T08:04:39Z</time>
      </trkpt>
      <trkpt lat="49.28493" lon="1.10571">
        <ele>45.7</ele>
        <time>2015-09-20T08:04:41Z</time>
      </trkpt>
      <trkpt lat="49.28503" lon="1.10584">
        <ele>45.3</ele>
        <time>2015-09-20T08:04:43Z</time>
      </trkpt>
      <trkpt lat="49.28512" lon="1.10598">
        <ele>44.9</ele>
        <time>2015-09-20T08:04:45Z</time>
      </trkpt>
      <trkpt lat="49.28522" lon="1.10612">
        <ele>44.6</ele>
        <time>2015-09-20T08:04:47Z</time>
      </trkpt>
      <trkpt lat="49.28532" lon="1.10625">
        <ele>44.2</ele>
        <time>2015-09-20T08:04:49Z</time>
      </trkpt>
      <trkpt lat="49.28542" lon="1.1064">
        <ele>43.9</ele>
        <time>2015-09-20T08:04:51Z</time>
      </trkpt>
      <trkpt lat="49.28553" lon="1.10654">
        <ele>43.6</ele>
        <time>2015-09-20T08:04:53Z</time>
      </trkpt>
      <trkpt lat="49.28565" lon="1.10668">
        <ele>43.3</ele>
        <time>2015-09-20T08:04:55Z</time>
      </trkpt>
      <trkpt lat="49.28577" lon="1.10682">
        <ele>42.9</ele>
        <time>2015-09-20T08:04:57Z</time>
      </trkpt>
      <trkpt lat="49.28588" lon="1.10697">
        <ele>42.6</ele>
        <time>2015-09-20T08:04:59Z</time>
      </trkpt>
      <trkpt lat="49.28599" lon="1.10711">
        <ele>42.2</ele>
        <time>2015-09-20T08:05:01Z</time>
      </trkpt>
      <trkpt lat="49.2861" lon="1.10726">
        <ele>41.8</ele>
        <time>2015-09-20T08:05:03Z</time>
      </trkpt>
      <trkpt lat="49.28621" lon="1.1074">
        <ele>41.5</ele>
        <time>2015-09-20T08:05:05Z</time>
      </trkpt>
      <trkpt lat="49.28632" lon="1.10754">
        <ele>41.1</ele>
        <time>2015-09-20T08:05:07Z</time>
      </trkpt>
      <trkpt lat="49.28643" lon="1.10769">
        <ele>40.7</ele>
        <time>2015-09-20T08:05:09Z</time>
      </trkpt>
      <trkpt lat="49.28654" lon="1.10783">
        <ele>40.3</ele>
        <time>2015-09-20T08:05:11Z</time>
      </trkpt>
      <trkpt lat="49.28665" lon="1.10798">
        <ele>39.9</ele>
        <time>2015-09-20T08:05:13Z</time>
      </trkpt>
      <trkpt lat="49.28677" lon="1.10812">
        <ele>39.5</ele>
        <time>2015-09-20T08:05:15Z</time>
      </trkpt>
      <trkpt lat="49.28688" lon="1.10826">
        <ele>39.2</ele>
        <time>2015-09-20T08:05:17Z</time>
      </trkpt>
      <trkpt lat="49.287" lon="1.1084">
        <ele>38.9</ele>
        <time>2015-09-20T08:05:19Z</time>
      </trkpt>
      <trkpt lat="49.28711" lon="1.10855">
        <ele>38.5</ele>
        <time>2015-09-20T08:05:21Z</time>
      </trkpt>
      <trkpt lat="49.28723" lon="1.10869">
        <ele>38.2</ele>
        <time>2015-09-20T08:05:23Z</time>
      </trkpt>
      <trkpt lat="49.28735" lon="1.10884">
        <ele>37.8</ele>
        <time>2015-09-20T08:05:25Z</time>
      </trkpt>
      <trkpt lat="49.28747" lon="1.10899">
        <ele>37.4</ele>
        <time>2015-09-20T08:05:27Z</time>
      </trkpt>
      <trkpt lat="49.28758" lon="1.10914">
        <ele>37</ele>
        <time>2015-09-20T08:05:29Z</time>
      </trkpt>
      <trkpt lat="49.2877" lon="1.10929">
        <ele>36.5</ele>
        <time>2015-09-20T08:05:31Z</time>
      </trkpt>
      <trkpt lat="49.28781" lon="1.10944">
        <ele>36</ele>
        <time>2015-09-20T08:05:33Z</time>
      </trkpt>
      <trkpt lat="49.28793" lon="1.10959">
        <ele>35.6</ele>
        <time>2015-09-20T08:05:35Z</time>
      </trkpt>
      <trkpt lat="49.28805" lon="1.10974">
        <ele>35.1</ele>
        <time>2015-09-20T08:05:37Z</time>
      </trkpt>
      <trkpt lat="49.28817" lon="1.10989">
        <ele>34.5</ele>
        <time>2015-09-20T08:05:39Z</time>
      </trkpt>
      <trkpt lat="49.28829" lon="1.11004">
        <ele>34</ele>
        <time>2015-09-20T08:05:41Z</time>
      </trkpt>
      <trkpt lat="49.28841" lon="1.11019">
        <ele>33.6</ele>
        <time>2015-09-20T08:05:43Z</time>
      </trkpt>
      <trkpt lat="49.28852" lon="1.11034">
        <ele>33.2</ele>
        <time>2015-09-20T08:05:45Z</time>
      </trkpt>
      <trkpt lat="49.28863" lon="1.11047">
        <ele>32.7</ele>
        <time>2015-09-20T08:05:47Z</time>
      </trkpt>
      <trkpt lat="49.28871" lon="1.11059">
        <ele>32.2</ele>
        <time>2015-09-20T08:05:49Z</time>
      </trkpt>
      <trkpt lat="49.28873" lon="1.11074">
        <ele>31.4</ele>
        <time>2015-09-20T08:05:52Z</time>
      </trkpt>
      <trkpt lat="49.28868" lon="1.11087">
        <ele>30.5</ele>
        <time>2015-09-20T08:05:56Z</time>
      </trkpt>
      <trkpt lat="49.28862" lon="1.11098">
        <ele>29.9</ele>
        <time>2015-09-20T08:05:59Z</time>
      </trkpt>
      <trkpt lat="49.28854" lon="1.11112">
        <ele>29.5</ele>
        <time>2015-09-20T08:06:02Z</time>
      </trkpt>
      <trkpt lat="49.28846" lon="1.11127">
        <ele>29.1</ele>
        <time>2015-09-20T08:06:05Z</time>
      </trkpt>
      <trkpt lat="49.28839" lon="1.11142">
        <ele>28.8</ele>
        <time>2015-09-20T08:06:08Z</time>
      </trkpt>
      <trkpt lat="49.28831" lon="1.11156">
        <ele>28.7</ele>
        <time>2015-09-20T08:06:11Z</time>
      </trkpt>
      <trkpt lat="49.28822" lon="1.11171">
        <ele>28.6</ele>
        <time>2015-09-20T08:06:14Z</time>
      </trkpt>
      <trkpt lat="49.28814" lon="1.11185">
        <ele>28.7</ele>
        <time>2015-09-20T08:06:17Z</time>
      </trkpt>
      <trkpt lat="49.28806" lon="1.11201">
        <ele>28.8</ele>
        <time>2015-09-20T08:06:20Z</time>
      </trkpt>
      <trkpt lat="49.28797" lon="1.11216">
        <ele>29</ele>
        <time>2015-09-20T08:06:23Z</time>
      </trkpt>
      <trkpt lat="49.28789" lon="1.11231">
        <ele>29.3</ele>
        <time>2015-09-20T08:06:26Z</time>
      </trkpt>
      <trkpt lat="49.28782" lon="1.11244">
        <ele>29.6</ele>
        <time>2015-09-20T08:06:29Z</time>
      </trkpt>
      <trkpt lat="49.28776" lon="1.11258">
        <ele>29.9</ele>
        <time>2015-09-20T08:06:32Z</time>
      </trkpt>
      <trkpt lat="49.28767" lon="1.11274">
        <ele>30.1</ele>
        <time>2015-09-20T08:06:35Z</time>
      </trkpt>
      <trkpt lat="49.28761" lon="1.11284">
        <ele>30.3</ele>
        <time>2015-09-20T08:06:37Z</time>
      </trkpt>
      <trkpt lat="49.28753" lon="1.11299">
        <ele>30.5</ele>
        <time>2015-09-20T08:06:40Z</time>
      </trkpt>
      <trkpt lat="49.28747" lon="1.1131">
        <ele>30.6</ele>
        <time>2015-09-20T08:06:42Z</time>
      </trkpt>
      <trkpt lat="49.28738" lon="1.11325">
        <ele>30.7</ele>
        <time>2015-09-20T08:06:45Z</time>
      </trkpt>
      <trkpt lat="49.28733" lon="1.11341">
        <ele>30.9</ele>
        <time>2015-09-20T08:06:48Z</time>
      </trkpt>
      <trkpt lat="49.28737" lon="1.11358">
        <ele>31.1</ele>
        <time>2015-09-20T08:06:51Z</time>
      </trkpt>
      <trkpt lat="49.28745" lon="1.11369">
        <ele>31.2</ele>
        <time>2015-09-20T08:06:53Z</time>
      </trkpt>
      <trkpt lat="49.28752" lon="1.1138">
        <ele>31.2</ele>
        <time>2015-09-20T08:06:55Z</time>
      </trkpt>
      <trkpt lat="49.2876" lon="1.11392">
        <ele>31.2</ele>
        <time>2015-09-20T08:06:57Z</time>
      </trkpt>
      <trkpt lat="49.28769" lon="1.11404">
        <ele>31.3</ele>
        <time>2015-09-20T08:06:59Z</time>
      </trkpt>
      <trkpt lat="49.28778" lon="1.11417">
        <ele>31.2</ele>
        <time>2015-09-20T08:07:01Z</time>
      </trkpt>
      <trkpt lat="49.28788" lon="1.11429">
        <ele>31.2</ele>
        <time>2015-09-20T08:07:03Z</time>
      </trkpt>
      <trkpt lat="49.28798" lon="1.11443">
        <ele>31.1</ele>
        <time>2015-09-20T08:07:05Z</time>
      </trkpt>
      <trkpt lat="49.28806" lon="1.11455">
        <ele>31</ele>
        <time>2015-09-20T08:07:07Z</time>
      </trkpt>
      <trkpt lat="49.28816" lon="1.11468">
        <ele>30.9</ele>
        <time>2015-09-20T08:07:09Z</time>
      </trkpt>
      <trkpt lat="49.28828" lon="1.11481">
        <ele>30.7</ele>
        <time>2015-09-20T08:07:11Z</time>
      </trkpt>
      <trkpt lat="49.28839" lon="1.11493">
        <ele>30.4</ele>
        <time>2015-09-20T08:07:13Z</time>
      </trkpt>
      <trkpt lat="49.28849" lon="1.11506">
        <ele>30.1</ele>
        <time>2015-09-20T08:07:15Z</time>
      </trkpt>
      <trkpt lat="49.28859" lon="1.11518">
        <ele>29.8</ele>
        <time>2015-09-20T08:07:17Z</time>
      </trkpt>
      <trkpt lat="49.28869" lon="1.11532">
        <ele>29.4</ele>
        <time>2015-09-20T08:07:19Z</time>
      </trkpt>
      <trkpt lat="49.28881" lon="1.11545">
        <ele>28.8</ele>
        <time>2015-09-20T08:07:21Z</time>
      </trkpt>
      <trkpt lat="49.28892" lon="1.11559">
        <ele>28.3</ele>
        <time>2015-09-20T08:07:23Z</time>
      </trkpt>
      <trkpt lat="49.28903" lon="1.11571">
        <ele>27.8</ele>
        <time>2015-09-20T08:07:25Z</time>
      </trkpt>
      <trkpt lat="49.28913" lon="1.11584">
        <ele>27.3</ele>
        <time>2015-09-20T08:07:27Z</time>
      </trkpt>
      <trkpt lat="49.2892" lon="1.11595">
        <ele>26.9</ele>
        <time>2015-09-20T08:07:29Z</time>
      </trkpt>
      <trkpt lat="49.28923" lon="1.1161">
        <ele>26.4</ele>
        <time>2015-09-20T08:07:32Z</time>
      </trkpt>
      <trkpt lat="49.28916" lon="1.11621">
        <ele>26.2</ele>
        <time>2015-09-20T08:07:35Z</time>
      </trkpt>
      <trkpt lat="49.28911" lon="1.11634">
        <ele>26.2</ele>
        <time>2015-09-20T08:07:39Z</time>
      </trkpt>
      <trkpt lat="49.28903" lon="1.11648">
        <ele>26.3</ele>
        <time>2015-09-20T08:07:43Z</time>
      </trkpt>
      <trkpt lat="49.28897" lon="1.11659">
        <ele>26.4</ele>
        <time>2015-09-20T08:07:45Z</time>
      </trkpt>
      <trkpt lat="49.28892" lon="1.1167">
        <ele>26.6</ele>
        <time>2015-09-20T08:07:48Z</time>
      </trkpt>
      <trkpt lat="49.28886" lon="1.11683">
        <ele>27.1</ele>
        <time>2015-09-20T08:07:52Z</time>
      </trkpt>
      <trkpt lat="49.28877" lon="1.11696">
        <ele>27.5</ele>
        <time>2015-09-20T08:07:55Z</time>
      </trkpt>
      <trkpt lat="49.2887" lon="1.11708">
        <ele>27.9</ele>
        <time>2015-09-20T08:07:58Z</time>
      </trkpt>
      <trkpt lat="49.28864" lon="1.11721">
        <ele>28.4</ele>
        <time>2015-09-20T08:08:01Z</time>
      </trkpt>
      <trkpt lat="49.28855" lon="1.11735">
        <ele>28.9</ele>
        <time>2015-09-20T08:08:04Z</time>
      </trkpt>
      <trkpt lat="49.28847" lon="1.1175">
        <ele>29.5</ele>
        <time>2015-09-20T08:08:08Z</time>
      </trkpt>
      <trkpt lat="49.2884" lon="1.11762">
        <ele>30</ele>
        <time>2015-09-20T08:08:11Z</time>
      </trkpt>
      <trkpt lat="49.28834" lon="1.11773">
        <ele>30.6</ele>
        <time>2015-09-20T08:08:14Z</time>
      </trkpt>
      <trkpt lat="49.28827" lon="1.11786">
        <ele>31.1</ele>
        <time>2015-09-20T08:08:17Z</time>
      </trkpt>
      <trkpt lat="49.28819" lon="1.11799">
        <ele>31.5</ele>
        <time>2015-09-20T08:08:20Z</time>
      </trkpt>
      <trkpt lat="49.28814" lon="1.11811">
        <ele>32</ele>
        <time>2015-09-20T08:08:23Z</time>
      </trkpt>
      <trkpt lat="49.28807" lon="1.11825">
        <ele>32.6</ele>
        <time>2015-09-20T08:08:27Z</time>
      </trkpt>
      <trkpt lat="49.28801" lon="1.11838">
        <ele>33.1</ele>
        <time>2015-09-20T08:08:30Z</time>
      </trkpt>
      <trkpt lat="49.28794" lon="1.11852">
        <ele>33.6</ele>
        <time>2015-09-20T08:08:33Z</time>
      </trkpt>
      <trkpt lat="49.28789" lon="1.11865">
        <ele>34</ele>
        <time>2015-09-20T08:08:36Z</time>
      </trkpt>
      <trkpt lat="49.28784" lon="1.1188">
        <ele>34.6</ele>
        <time>2015-09-20T08:08:39Z</time>
      </trkpt>
      <trkpt lat="49.2879" lon="1.11894">
        <ele>35</ele>
        <time>2015-09-20T08:08:42Z</time>
      </trkpt>
      <trkpt lat="49.28799" lon="1.11907">
        <ele>35.4</ele>
        <time>2015-09-20T08:08:45Z</time>
      </trkpt>
      <trkpt lat="49.28809" lon="1.1192">
        <ele>35.7</ele>
        <time>2015-09-20T08:08:48Z</time>
      </trkpt>
      <trkpt lat="49.28819" lon="1.11933">
        <ele>35.9</ele>
        <time>2015-09-20T08:08:51Z</time>
      </trkpt>
      <trkpt lat="49.28818" lon="1.1195">
        <ele>36.1</ele>
        <time>2015-09-20T08:08:54Z</time>
      </trkpt>
      <trkpt lat="49.28811" lon="1.11967">
        <ele>36.4</ele>
        <time>2015-09-20T08:08:57Z</time>
      </trkpt>
      <trkpt lat="49.28804" lon="1.11981">
        <ele>36.6</ele>
        <time>2015-09-20T08:09:00Z</time>
      </trkpt>
      <trkpt lat="49.28797" lon="1.11996">
        <ele>36.8</ele>
        <time>2015-09-20T08:09:03Z</time>
      </trkpt>
      <trkpt lat="49.28789" lon="1.12012">
        <ele>37</ele>
        <time>2015-09-20T08:09:06Z</time>
      </trkpt>
      <trkpt lat="49.28782" lon="1.12028">
        <ele>37.2</ele>
        <time>2015-09-20T08:09:09Z</time>
      </trkpt>
      <trkpt lat="49.28774" lon="1.12045">
        <ele>37.5</ele>
        <time>2015-09-20T08:09:12Z</time>
      </trkpt>
      <trkpt lat="49.28769" lon="1.12056">
        <ele>37.7</ele>
        <time>2015-09-20T08:09:14Z</time>
      </trkpt>
      <trkpt lat="49.28763" lon="1.12068">
        <ele>37.9</ele>
        <time>2015-09-20T08:09:16Z</time>
      </trkpt>
      <trkpt lat="49.28758" lon="1.1208">
        <ele>38.2</ele>
        <time>2015-09-20T08:09:18Z</time>
      </trkpt>
      <trkpt lat="49.28754" lon="1.12092">
        <ele>38.4</ele>
        <time>2015-09-20T08:09:20Z</time>
      </trkpt>
      <trkpt lat="49.28746" lon="1.12107">
        <ele>38.7</ele>
        <time>2015-09-20T08:09:23Z</time>
      </trkpt>
      <trkpt lat="49.2874" lon="1.12121">
        <ele>39</ele>
        <time>2015-09-20T08:09:26Z</time>
      </trkpt>
      <trkpt lat="49.28733" lon="1.12133">
        <ele>39.2</ele>
        <time>2015-09-20T08:09:28Z</time>
      </trkpt>
      <trkpt lat="49.28728" lon="1.12145">
        <ele>39.3</ele>
        <time>2015-09-20T08:09:30Z</time>
      </trkpt>
      <trkpt lat="49.28723" lon="1.12157">
        <ele>39.4</ele>
        <time>2015-09-20T08:09:32Z</time>
      </trkpt>
      <trkpt lat="49.28715" lon="1.12171">
        <ele>39.5</ele>
        <time>2015-09-20T08:09:34Z</time>
      </trkpt>
      <trkpt lat="49.2871" lon="1.12183">
        <ele>39.7</ele>
        <time>2015-09-20T08:09:36Z</time>
      </trkpt>
      <trkpt lat="49.28702" lon="1.122">
        <ele>39.9</ele>
        <time>2015-09-20T08:09:39Z</time>
      </trkpt>
      <trkpt lat="49.28695" lon="1.12216">
        <ele>40</ele>
        <time>2015-09-20T08:09:42Z</time>
      </trkpt>
      <trkpt lat="49.28687" lon="1.12231">
        <ele>40.2</ele>
        <time>2015-09-20T08:09:45Z</time>
      </trkpt>
      <trkpt lat="49.28682" lon="1.12243">
        <ele>40.3</ele>
        <time>2015-09-20T08:09:47Z</time>
      </trkpt>
      <trkpt lat="49.28676" lon="1.12255">
        <ele>40.3</ele>
        <time>2015-09-20T08:09:49Z</time>
      </trkpt>
      <trkpt lat="49.2867" lon="1.12266">
        <ele>40.4</ele>
        <time>2015-09-20T08:09:51Z</time>
      </trkpt>
      <trkpt lat="49.28664" lon="1.12277">
        <ele>40.4</ele>
        <time>2015-09-20T08:09:53Z</time>
      </trkpt>
      <trkpt lat="49.28656" lon="1.12293">
        <ele>40.5</ele>
        <time>2015-09-20T08:09:56Z</time>
      </trkpt>
      <trkpt lat="49.28648" lon="1.12308">
        <ele>40.6</ele>
        <time>2015-09-20T08:09:58Z</time>
      </trkpt>
      <trkpt lat="49.28643" lon="1.12319">
        <ele>40.6</ele>
        <time>2015-09-20T08:10:00Z</time>
      </trkpt>
      <trkpt lat="49.28634" lon="1.12322">
        <ele>40.6</ele>
        <time>2015-09-20T08:10:02Z</time>
      </trkpt>
      <trkpt lat="49.28625" lon="1.1232">
        <ele>40.7</ele>
        <time>2015-09-20T08:10:04Z</time>
      </trkpt>
      <trkpt lat="49.28616" lon="1.12313">
        <ele>40.7</ele>
        <time>2015-09-20T08:10:06Z</time>
      </trkpt>
      <trkpt lat="49.28606" lon="1.12307">
        <ele>40.7</ele>
        <time>2015-09-20T08:10:08Z</time>
      </trkpt>
      <trkpt lat="49.28598" lon="1.123">
        <ele>40.8</ele>
        <time>2015-09-20T08:10:10Z</time>
      </trkpt>
      <trkpt lat="49.28589" lon="1.12292">
        <ele>40.8</ele>
        <time>2015-09-20T08:10:12Z</time>
      </trkpt>
      <trkpt lat="49.2858" lon="1.12283">
        <ele>40.9</ele>
        <time>2015-09-20T08:10:14Z</time>
      </trkpt>
      <trkpt lat="49.28571" lon="1.12275">
        <ele>40.9</ele>
        <time>2015-09-20T08:10:16Z</time>
      </trkpt>
      <trkpt lat="49.28562" lon="1.12267">
        <ele>41</ele>
        <time>2015-09-20T08:10:18Z</time>
      </trkpt>
      <trkpt lat="49.28554" lon="1.12258">
        <ele>41.1</ele>
        <time>2015-09-20T08:10:20Z</time>
      </trkpt>
      <trkpt lat="49.28545" lon="1.12251">
        <ele>41.1</ele>
        <time>2015-09-20T08:10:22Z</time>
      </trkpt>
      <trkpt lat="49.28536" lon="1.12243">
        <ele>41.2</ele>
        <time>2015-09-20T08:10:24Z</time>
      </trkpt>
      <trkpt lat="49.28529" lon="1.12234">
        <ele>41.2</ele>
        <time>2015-09-20T08:10:26Z</time>
      </trkpt>
      <trkpt lat="49.2852" lon="1.12226">
        <ele>41.3</ele>
        <time>2015-09-20T08:10:28Z</time>
      </trkpt>
      <trkpt lat="49.28512" lon="1.12217">
        <ele>41.3</ele>
        <time>2015-09-20T08:10:30Z</time>
      </trkpt>
      <trkpt lat="49.28504" lon="1.12207">
        <ele>41.4</ele>
        <time>2015-09-20T08:10:32Z</time>
      </trkpt>
      <trkpt lat="49.28496" lon="1.12198">
        <ele>41.5</ele>
        <time>2015-09-20T08:10:34Z</time>
      </trkpt>
      <trkpt lat="49.28487" lon="1.12189">
        <ele>41.6</ele>
        <time>2015-09-20T08:10:36Z</time>
      </trkpt>
      <trkpt lat="49.28478" lon="1.1218">
        <ele>41.7</ele>
        <time>2015-09-20T08:10:38Z</time>
      </trkpt>
      <trkpt lat="49.2847" lon="1.1217">
        <ele>41.8</ele>
        <time>2015-09-20T08:10:40Z</time>
      </trkpt>
      <trkpt lat="49.28461" lon="1.12161">
        <ele>41.9</ele>
        <time>2015-09-20T08:10:42Z</time>
      </trkpt>
      <trkpt lat="49.28452" lon="1.12151">
        <ele>42.1</ele>
        <time>2015-09-20T08:10:44Z</time>
      </trkpt>
      <trkpt lat="49.28443" lon="1.12142">
        <ele>42.2</ele>
        <time>2015-09-20T08:10:46Z</time>
      </trkpt>
      <trkpt lat="49.28434" lon="1.12141">
        <ele>42.2</ele>
        <time>2015-09-20T08:10:48Z</time>
      </trkpt>
      <trkpt lat="49.28427" lon="1.12156">
        <ele>42.4</ele>
        <time>2015-09-20T08:10:51Z</time>
      </trkpt>
      <trkpt lat="49.28425" lon="1.12176">
        <ele>42.5</ele>
        <time>2015-09-20T08:10:54Z</time>
      </trkpt>
      <trkpt lat="49.28424" lon="1.12196">
        <ele>42.5</ele>
        <time>2015-09-20T08:10:57Z</time>
      </trkpt>
      <trkpt lat="49.28422" lon="1.12216">
        <ele>42.7</ele>
        <time>2015-09-20T08:11:00Z</time>
      </trkpt>
      <trkpt lat="49.28421" lon="1.12236">
        <ele>42.8</ele>
        <time>2015-09-20T08:11:03Z</time>
      </trkpt>
      <trkpt lat="49.2842" lon="1.12255">
        <ele>43</ele>
        <time>2015-09-20T08:11:06Z</time>
      </trkpt>
      <trkpt lat="49.28419" lon="1.12274">
        <ele>43.4</ele>
        <time>2015-09-20T08:11:09Z</time>
      </trkpt>
      <trkpt lat="49.28417" lon="1.12294">
        <ele>43.7</ele>
        <time>2015-09-20T08:11:12Z</time>
      </trkpt>
      <trkpt lat="49.28414" lon="1.12313">
        <ele>44</ele>
        <time>2015-09-20T08:11:15Z</time>
      </trkpt>
      <trkpt lat="49.28413" lon="1.12327">
        <ele>44.2</ele>
        <time>2015-09-20T08:11:17Z</time>
      </trkpt>
      <trkpt lat="49.28412" lon="1.12341">
        <ele>44.3</ele>
        <time>2015-09-20T08:11:19Z</time>
      </trkpt>
      <trkpt lat="49.28411" lon="1.12356">
        <ele>44.5</ele>
        <time>2015-09-20T08:11:21Z</time>
      </trkpt>
      <trkpt lat="49.2841" lon="1.12371">
        <ele>44.6</ele>
        <time>2015-09-20T08:11:23Z</time>
      </trkpt>
      <trkpt lat="49.28409" lon="1.12385">
        <ele>44.8</ele>
        <time>2015-09-20T08:11:25Z</time>
      </trkpt>
      <trkpt lat="49.28407" lon="1.124">
        <ele>44.9</ele>
        <time>2015-09-20T08:11:27Z</time>
      </trkpt>
      <trkpt lat="49.28405" lon="1.12414">
        <ele>45.1</ele>
        <time>2015-09-20T08:11:29Z</time>
      </trkpt>
      <trkpt lat="49.28403" lon="1.12432">
        <ele>45.4</ele>
        <time>2015-09-20T08:11:32Z</time>
      </trkpt>
      <trkpt lat="49.28403" lon="1.12447">
        <ele>45.6</ele>
        <time>2015-09-20T08:11:34Z</time>
      </trkpt>
      <trkpt lat="49.28403" lon="1.12468">
        <ele>45.9</ele>
        <time>2015-09-20T08:11:37Z</time>
      </trkpt>
      <trkpt lat="49.28405" lon="1.12485">
        <ele>46.1</ele>
        <time>2015-09-20T08:11:39Z</time>
      </trkpt>
      <trkpt lat="49.28407" lon="1.12502">
        <ele>46.2</ele>
        <time>2015-09-20T08:11:41Z</time>
      </trkpt>
      <trkpt lat="49.2841" lon="1.1252">
        <ele>46.4</ele>
        <time>2015-09-20T08:11:43Z</time>
      </trkpt>
      <trkpt lat="49.28414" lon="1.12533">
        <ele>46.5</ele>
        <time>2015-09-20T08:11:45Z</time>
      </trkpt>
      <trkpt lat="49.28417" lon="1.12551">
        <ele>46.6</ele>
        <time>2015-09-20T08:11:47Z</time>
      </trkpt>
      <trkpt lat="49.28421" lon="1.1257">
        <ele>46.7</ele>
        <time>2015-09-20T08:11:49Z</time>
      </trkpt>
      <trkpt lat="49.28423" lon="1.12588">
        <ele>46.7</ele>
        <time>2015-09-20T08:11:51Z</time>
      </trkpt>
      <trkpt lat="49.28426" lon="1.12606">
        <ele>46.8</ele>
        <time>2015-09-20T08:11:53Z</time>
      </trkpt>
      <trkpt lat="49.28432" lon="1.12622">
        <ele>46.9</ele>
        <time>2015-09-20T08:11:55Z</time>
      </trkpt>
      <trkpt lat="49.28438" lon="1.12635">
        <ele>46.9</ele>
        <time>2015-09-20T08:11:57Z</time>
      </trkpt>
      <trkpt lat="49.28439" lon="1.12657">
        <ele>46.9</ele>
        <time>2015-09-20T08:11:59Z</time>
      </trkpt>
      <trkpt lat="49.28441" lon="1.12678">
        <ele>46.9</ele>
        <time>2015-09-20T08:12:01Z</time>
      </trkpt>
      <trkpt lat="49.28444" lon="1.12696">
        <ele>46.9</ele>
        <time>2015-09-20T08:12:03Z</time>
      </trkpt>
      <trkpt lat="49.28443" lon="1.12715">
        <ele>46.9</ele>
        <time>2015-09-20T08:12:05Z</time>
      </trkpt>
      <trkpt lat="49.2844" lon="1.12732">
        <ele>46.9</ele>
        <time>2015-09-20T08:12:07Z</time>
      </trkpt>
      <trkpt lat="49.28433" lon="1.12747">
        <ele>46.9</ele>
        <time>2015-09-20T08:12:09Z</time>
      </trkpt>
      <trkpt lat="49.28426" lon="1.12759">
        <ele>46.9</ele>
        <time>2015-09-20T08:12:11Z</time>
      </trkpt>
      <trkpt lat="49.28417" lon="1.1277">
        <ele>46.9</ele>
        <time>2015-09-20T08:12:13Z</time>
      </trkpt>
      <trkpt lat="49.28409" lon="1.12781">
        <ele>46.9</ele>
        <time>2015-09-20T08:12:15Z</time>
      </trkpt>
      <trkpt lat="49.28402" lon="1.12791">
        <ele>46.9</ele>
        <time>2015-09-20T08:12:17Z</time>
      </trkpt>
      <trkpt lat="49.28394" lon="1.12801">
        <ele>46.9</ele>
        <time>2015-09-20T08:12:19Z</time>
      </trkpt>
      <trkpt lat="49.28386" lon="1.12814">
        <ele>46.9</ele>
        <time>2015-09-20T08:12:21Z</time>
      </trkpt>
      <trkpt lat="49.2838" lon="1.12826">
        <ele>47</ele>
        <time>2015-09-20T08:12:23Z</time>
      </trkpt>
      <trkpt lat="49.28376" lon="1.12842">
        <ele>47.1</ele>
        <time>2015-09-20T08:12:25Z</time>
      </trkpt>
      <trkpt lat="49.28372" lon="1.12859">
        <ele>47.3</ele>
        <time>2015-09-20T08:12:27Z</time>
      </trkpt>
      <trkpt lat="49.2837" lon="1.12874">
        <ele>47.4</ele>
        <time>2015-09-20T08:12:29Z</time>
      </trkpt>
      <trkpt lat="49.28369" lon="1.1289">
        <ele>47.5</ele>
        <time>2015-09-20T08:12:31Z</time>
      </trkpt>
      <trkpt lat="49.28368" lon="1.12905">
        <ele>47.7</ele>
        <time>2015-09-20T08:12:33Z</time>
      </trkpt>
      <trkpt lat="49.28365" lon="1.12922">
        <ele>47.9</ele>
        <time>2015-09-20T08:12:35Z</time>
      </trkpt>
      <trkpt lat="49.28364" lon="1.12936">
        <ele>48</ele>
        <time>2015-09-20T08:12:37Z</time>
      </trkpt>
      <trkpt lat="49.28362" lon="1.12952">
        <ele>48.1</ele>
        <time>2015-09-20T08:12:39Z</time>
      </trkpt>
      <trkpt lat="49.2836" lon="1.12969">
        <ele>48.2</ele>
        <time>2015-09-20T08:12:41Z</time>
      </trkpt>
      <trkpt lat="49.28359" lon="1.12987">
        <ele>48.3</ele>
        <time>2015-09-20T08:12:43Z</time>
      </trkpt>
      <trkpt lat="49.28358" lon="1.13002">
        <ele>48.4</ele>
        <time>2015-09-20T08:12:45Z</time>
      </trkpt>
      <trkpt lat="49.28365" lon="1.13013">
        <ele>48.5</ele>
        <time>2015-09-20T08:12:47Z</time>
      </trkpt>
      <trkpt lat="49.28372" lon="1.13023">
        <ele>48.5</ele>
        <time>2015-09-20T08:12:49Z</time>
      </trkpt>
      <trkpt lat="49.2838" lon="1.13035">
        <ele>48.5</ele>
        <time>2015-09-20T08:12:51Z</time>
      </trkpt>
      <trkpt lat="49.28389" lon="1.13047">
        <ele>48.5</ele>
        <time>2015-09-20T08:12:53Z</time>
      </trkpt>
      <trkpt lat="49.28397" lon="1.13057">
        <ele>48.4</ele>
        <time>2015-09-20T08:12:55Z</time>
      </trkpt>
      <trkpt lat="49.28405" lon="1.1307">
        <ele>48.3</ele>
        <time>2015-09-20T08:12:57Z</time>
      </trkpt>
      <trkpt lat="49.28414" lon="1.13083">
        <ele>48.2</ele>
        <time>2015-09-20T08:12:59Z</time>
      </trkpt>
      <trkpt lat="49.28422" lon="1.13095">
        <ele>48.1</ele>
        <time>2015-09-20T08:13:01Z</time>
      </trkpt>
      <trkpt lat="49.2843" lon="1.13107">
        <ele>47.9</ele>
        <time>2015-09-20T08:13:03Z</time>
      </trkpt>
      <trkpt lat="49.28439" lon="1.1312">
        <ele>47.8</ele>
        <time>2015-09-20T08:13:05Z</time>
      </trkpt>
      <trkpt lat="49.28448" lon="1.13131">
        <ele>47.5</ele>
        <time>2015-09-20T08:13:07Z</time>
      </trkpt>
      <trkpt lat="49.2846" lon="1.13145">
        <ele>47.2</ele>
        <time>2015-09-20T08:13:09Z</time>
      </trkpt>
      <trkpt lat="49.2847" lon="1.13158">
        <ele>46.8</ele>
        <time>2015-09-20T08:13:11Z</time>
      </trkpt>
      <trkpt lat="49.2848" lon="1.13172">
        <ele>46.4</ele>
        <time>2015-09-20T08:13:13Z</time>
      </trkpt>
      <trkpt lat="49.28492" lon="1.13184">
        <ele>46</ele>
        <time>2015-09-20T08:13:15Z</time>
      </trkpt>
      <trkpt lat="49.28502" lon="1.13195">
        <ele>45.5</ele>
        <time>2015-09-20T08:13:17Z</time>
      </trkpt>
      <trkpt lat="49.28513" lon="1.13207">
        <ele>45.1</ele>
        <time>2015-09-20T08:13:19Z</time>
      </trkpt>
      <trkpt lat="49.28525" lon="1.13225">
        <ele>44.8</ele>
        <time>2015-09-20T08:13:21Z</time>
      </trkpt>
      <trkpt lat="49.28538" lon="1.13236">
        <ele>44.5</ele>
        <time>2015-09-20T08:13:23Z</time>
      </trkpt>
      <trkpt lat="49.28549" lon="1.1325">
        <ele>44.1</ele>
        <time>2015-09-20T08:13:25Z</time>
      </trkpt>
      <trkpt lat="49.28561" lon="1.13264">
        <ele>43.8</ele>
        <time>2015-09-20T08:13:27Z</time>
      </trkpt>
      <trkpt lat="49.28573" lon="1.13276">
        <ele>43.4</ele>
        <time>2015-09-20T08:13:29Z</time>
      </trkpt>
      <trkpt lat="49.28581" lon="1.13289">
        <ele>43.1</ele>
        <time>2015-09-20T08:13:31Z</time>
      </trkpt>
      <trkpt lat="49.28594" lon="1.13304">
        <ele>42.7</ele>
        <time>2015-09-20T08:13:33Z</time>
      </trkpt>
      <trkpt lat="49.28603" lon="1.13317">
        <ele>42.4</ele>
        <time>2015-09-20T08:13:35Z</time>
      </trkpt>
      <trkpt lat="49.28612" lon="1.13329">
        <ele>42.2</ele>
        <time>2015-09-20T08:13:37Z</time>
      </trkpt>
      <trkpt lat="49.28622" lon="1.13339">
        <ele>41.9</ele>
        <time>2015-09-20T08:13:39Z</time>
      </trkpt>
      <trkpt lat="49.28631" lon="1.13351">
        <ele>41.6</ele>
        <time>2015-09-20T08:13:41Z</time>
      </trkpt>
      <trkpt lat="49.28639" lon="1.13361">
        <ele>41.2</ele>
        <time>2015-09-20T08:13:43Z</time>
      </trkpt>
      <trkpt lat="49.28649" lon="1.1337">
        <ele>40.9</ele>
        <time>2015-09-20T08:13:45Z</time>
      </trkpt>
      <trkpt lat="49.28658" lon="1.13381">
        <ele>40.5</ele>
        <time>2015-09-20T08:13:47Z</time>
      </trkpt>
      <trkpt lat="49.28668" lon="1.13392">
        <ele>40.3</ele>
        <time>2015-09-20T08:13:49Z</time>
      </trkpt>
      <trkpt lat="49.28677" lon="1.13405">
        <ele>40</ele>
        <time>2015-09-20T08:13:51Z</time>
      </trkpt>
      <trkpt lat="49.28687" lon="1.13417">
        <ele>39.8</ele>
        <time>2015-09-20T08:13:53Z</time>
      </trkpt>
      <trkpt lat="49.28697" lon="1.13426">
        <ele>39.7</ele>
        <time>2015-09-20T08:13:55Z</time>
      </trkpt>
      <trkpt lat="49.28705" lon="1.13435">
        <ele>39.5</ele>
        <time>2015-09-20T08:13:57Z</time>
      </trkpt>
      <trkpt lat="49.28712" lon="1.13444">
        <ele>39.4</ele>
        <time>2015-09-20T08:13:59Z</time>
      </trkpt>
      <trkpt lat="49.28725" lon="1.13457">
        <ele>39.2</ele>
        <time>2015-09-20T08:14:01Z</time>
      </trkpt>
      <trkpt lat="49.28734" lon="1.13469">
        <ele>39.1</ele>
        <time>2015-09-20T08:14:03Z</time>
      </trkpt>
      <trkpt lat="49.28745" lon="1.13481">
        <ele>39</ele>
        <time>2015-09-20T08:14:05Z</time>
      </trkpt>
      <trkpt lat="49.28752" lon="1.13494">
        <ele>38.8</ele>
        <time>2015-09-20T08:14:07Z</time>
      </trkpt>
      <trkpt lat="49.28761" lon="1.13503">
        <ele>38.7</ele>
        <time>2015-09-20T08:14:09Z</time>
      </trkpt>
      <trkpt lat="49.2877" lon="1.13514">
        <ele>38.5</ele>
        <time>2015-09-20T08:14:11Z</time>
      </trkpt>
      <trkpt lat="49.28781" lon="1.13528">
        <ele>38.3</ele>
        <time>2015-09-20T08:14:13Z</time>
      </trkpt>
      <trkpt lat="49.2879" lon="1.13539">
        <ele>38.1</ele>
        <time>2015-09-20T08:14:15Z</time>
      </trkpt>
      <trkpt lat="49.28797" lon="1.1355">
        <ele>37.9</ele>
        <time>2015-09-20T08:14:17Z</time>
      </trkpt>
      <trkpt lat="49.28808" lon="1.13564">
        <ele>37.6</ele>
        <time>2015-09-20T08:14:19Z</time>
      </trkpt>
      <trkpt lat="49.2882" lon="1.13578">
        <ele>37.1</ele>
        <time>2015-09-20T08:14:21Z</time>
      </trkpt>
      <trkpt lat="49.2883" lon="1.1359">
        <ele>36.6</ele>
        <time>2015-09-20T08:14:23Z</time>
      </trkpt>
      <trkpt lat="49.28845" lon="1.13606">
        <ele>36.2</ele>
        <time>2015-09-20T08:14:25Z</time>
      </trkpt>
      <trkpt lat="49.28857" lon="1.13617">
        <ele>35.8</ele>
        <time>2015-09-20T08:14:27Z</time>
      </trkpt>
      <trkpt lat="49.28867" lon="1.13628">
        <ele>35.4</ele>
        <time>2015-09-20T08:14:29Z</time>
      </trkpt>
      <trkpt lat="49.28876" lon="1.13638">
        <ele>35.1</ele>
        <time>2015-09-20T08:14:31Z</time>
      </trkpt>
      <trkpt lat="49.28884" lon="1.13646">
        <ele>34.8</ele>
        <time>2015-09-20T08:14:33Z</time>
      </trkpt>
      <trkpt lat="49.28892" lon="1.13659">
        <ele>34.7</ele>
        <time>2015-09-20T08:14:36Z</time>
      </trkpt>
      <trkpt lat="49.28899" lon="1.13671">
        <ele>34.7</ele>
        <time>2015-09-20T08:14:39Z</time>
      </trkpt>
      <trkpt lat="49.28907" lon="1.13685">
        <ele>34.7</ele>
        <time>2015-09-20T08:14:42Z</time>
      </trkpt>
      <trkpt lat="49.28917" lon="1.13696">
        <ele>34.6</ele>
        <time>2015-09-20T08:14:44Z</time>
      </trkpt>
      <trkpt lat="49.28925" lon="1.13706">
        <ele>34.7</ele>
        <time>2015-09-20T08:14:46Z</time>
      </trkpt>
      <trkpt lat="49.28934" lon="1.13715">
        <ele>34.7</ele>
        <time>2015-09-20T08:14:48Z</time>
      </trkpt>
      <trkpt lat="49.28943" lon="1.13722">
        <ele>34.8</ele>
        <time>2015-09-20T08:14:50Z</time>
      </trkpt>
      <trkpt lat="49.28953" lon="1.13732">
        <ele>34.9</ele>
        <time>2015-09-20T08:14:52Z</time>
      </trkpt>
      <trkpt lat="49.28963" lon="1.13741">
        <ele>35</ele>
        <time>2015-09-20T08:14:54Z</time>
      </trkpt>
      <trkpt lat="49.28972" lon="1.1375">
        <ele>35.1</ele>
        <time>2015-09-20T08:14:56Z</time>
      </trkpt>
      <trkpt lat="49.28981" lon="1.13762">
        <ele>35.2</ele>
        <time>2015-09-20T08:14:58Z</time>
      </trkpt>
      <trkpt lat="49.2899" lon="1.13773">
        <ele>35.3</ele>
        <time>2015-09-20T08:15:00Z</time>
      </trkpt>
      <trkpt lat="49.28999" lon="1.13784">
        <ele>35.3</ele>
        <time>2015-09-20T08:15:02Z</time>
      </trkpt>
      <trkpt lat="49.29007" lon="1.13795">
        <ele>35.3</ele>
        <time>2015-09-20T08:15:04Z</time>
      </trkpt>
      <trkpt lat="49.29018" lon="1.13808">
        <ele>35.3</ele>
        <time>2015-09-20T08:15:06Z</time>
      </trkpt>
      <trkpt lat="49.29027" lon="1.1382">
        <ele>35.2</ele>
        <time>2015-09-20T08:15:08Z</time>
      </trkpt>
      <trkpt lat="49.29037" lon="1.13832">
        <ele>35.1</ele>
        <time>2015-09-20T08:15:10Z</time>
      </trkpt>
      <trkpt lat="49.29047" lon="1.13843">
        <ele>35</ele>
        <time>2015-09-20T08:15:12Z</time>
      </trkpt>
      <trkpt lat="49.29057" lon="1.13855">
        <ele>34.9</ele>
        <time>2015-09-20T08:15:14Z</time>
      </trkpt>
      <trkpt lat="49.29064" lon="1.13865">
        <ele>34.8</ele>
        <time>2015-09-20T08:15:16Z</time>
      </trkpt>
      <trkpt lat="49.29075" lon="1.13875">
        <ele>34.7</ele>
        <time>2015-09-20T08:15:18Z</time>
      </trkpt>
      <trkpt lat="49.29084" lon="1.13887">
        <ele>34.5</ele>
        <time>2015-09-20T08:15:20Z</time>
      </trkpt>
      <trkpt lat="49.29092" lon="1.13898">
        <ele>34.4</ele>
        <time>2015-09-20T08:15:22Z</time>
      </trkpt>
      <trkpt lat="49.29103" lon="1.13911">
        <ele>34.3</ele>
        <time>2015-09-20T08:15:24Z</time>
      </trkpt>
      <trkpt lat="49.29114" lon="1.13922">
        <ele>34.2</ele>
        <time>2015-09-20T08:15:26Z</time>
      </trkpt>
      <trkpt lat="49.29123" lon="1.13935">
        <ele>34</ele>
        <time>2015-09-20T08:15:28Z</time>
      </trkpt>
      <trkpt lat="49.29131" lon="1.13949">
        <ele>33.9</ele>
        <time>2015-09-20T08:15:30Z</time>
      </trkpt>
      <trkpt lat="49.29134" lon="1.13965">
        <ele>33.7</ele>
        <time>2015-09-20T08:15:32Z</time>
      </trkpt>
      <trkpt lat="49.29133" lon="1.13984">
        <ele>33.6</ele>
        <time>2015-09-20T08:15:34Z</time>
      </trkpt>
      <trkpt lat="49.29132" lon="1.14004">
        <ele>33.4</ele>
        <time>2015-09-20T08:15:36Z</time>
      </trkpt>
      <trkpt lat="49.29129" lon="1.14022">
        <ele>33.3</ele>
        <time>2015-09-20T08:15:38Z</time>
      </trkpt>
      <trkpt lat="49.29128" lon="1.14039">
        <ele>33.1</ele>
        <time>2015-09-20T08:15:40Z</time>
      </trkpt>
      <trkpt lat="49.29126" lon="1.14061">
        <ele>32.9</ele>
        <time>2015-09-20T08:15:42Z</time>
      </trkpt>
      <trkpt lat="49.29124" lon="1.14081">
        <ele>32.6</ele>
        <time>2015-09-20T08:15:44Z</time>
      </trkpt>
      <trkpt lat="49.29121" lon="1.14102">
        <ele>32.4</ele>
        <time>2015-09-20T08:15:46Z</time>
      </trkpt>
      <trkpt lat="49.29119" lon="1.14124">
        <ele>32</ele>
        <time>2015-09-20T08:15:48Z</time>
      </trkpt>
      <trkpt lat="49.29116" lon="1.14145">
        <ele>31.6</ele>
        <time>2015-09-20T08:15:50Z</time>
      </trkpt>
      <trkpt lat="49.29114" lon="1.14168">
        <ele>31.2</ele>
        <time>2015-09-20T08:15:52Z</time>
      </trkpt>
      <trkpt lat="49.29111" lon="1.14189">
        <ele>30.7</ele>
        <time>2015-09-20T08:15:54Z</time>
      </trkpt>
      <trkpt lat="49.29109" lon="1.14214">
        <ele>30.2</ele>
        <time>2015-09-20T08:15:56Z</time>
      </trkpt>
      <trkpt lat="49.29107" lon="1.1424">
        <ele>29.7</ele>
        <time>2015-09-20T08:15:58Z</time>
      </trkpt>
      <trkpt lat="49.29105" lon="1.14263">
        <ele>29.1</ele>
        <time>2015-09-20T08:16:00Z</time>
      </trkpt>
      <trkpt lat="49.29103" lon="1.14285">
        <ele>28.7</ele>
        <time>2015-09-20T08:16:02Z</time>
      </trkpt>
      <trkpt lat="49.29098" lon="1.14304">
        <ele>28.2</ele>
        <time>2015-09-20T08:16:04Z</time>
      </trkpt>
      <trkpt lat="49.29095" lon="1.14323">
        <ele>27.7</ele>
        <time>2015-09-20T08:16:06Z</time>
      </trkpt>
      <trkpt lat="49.29094" lon="1.14343">
        <ele>27.3</ele>
        <time>2015-09-20T08:16:08Z</time>
      </trkpt>
      <trkpt lat="49.29092" lon="1.1436">
        <ele>26.9</ele>
        <time>2015-09-20T08:16:10Z</time>
      </trkpt>
      <trkpt lat="49.29091" lon="1.14377">
        <ele>26.6</ele>
        <time>2015-09-20T08:16:12Z</time>
      </trkpt>
      <trkpt lat="49.29089" lon="1.14393">
        <ele>26.3</ele>
        <time>2015-09-20T08:16:14Z</time>
      </trkpt>
      <trkpt lat="49.29087" lon="1.1441">
        <ele>26.1</ele>
        <time>2015-09-20T08:16:16Z</time>
      </trkpt>
      <trkpt lat="49.29085" lon="1.14425">
        <ele>25.9</ele>
        <time>2015-09-20T08:16:18Z</time>
      </trkpt>
      <trkpt lat="49.29083" lon="1.14442">
        <ele>25.7</ele>
        <time>2015-09-20T08:16:20Z</time>
      </trkpt>
      <trkpt lat="49.29081" lon="1.14459">
        <ele>25.6</ele>
        <time>2015-09-20T08:16:22Z</time>
      </trkpt>
      <trkpt lat="49.29079" lon="1.14472">
        <ele>25.5</ele>
        <time>2015-09-20T08:16:24Z</time>
      </trkpt>
      <trkpt lat="49.29077" lon="1.14489">
        <ele>25.3</ele>
        <time>2015-09-20T08:16:27Z</time>
      </trkpt>
      <trkpt lat="49.29075" lon="1.14504">
        <ele>25.1</ele>
        <time>2015-09-20T08:16:31Z</time>
      </trkpt>
      <trkpt lat="49.29074" lon="1.14522">
        <ele>25</ele>
        <time>2015-09-20T08:16:35Z</time>
      </trkpt>
      <trkpt lat="49.29073" lon="1.14536">
        <ele>25</ele>
        <time>2015-09-20T08:16:37Z</time>
      </trkpt>
      <trkpt lat="49.29072" lon="1.14551">
        <ele>25.1</ele>
        <time>2015-09-20T08:16:39Z</time>
      </trkpt>
      <trkpt lat="49.29069" lon="1.14567">
        <ele>25.2</ele>
        <time>2015-09-20T08:16:41Z</time>
      </trkpt>
      <trkpt lat="49.29067" lon="1.14583">
        <ele>25.2</ele>
        <time>2015-09-20T08:16:43Z</time>
      </trkpt>
      <trkpt lat="49.29066" lon="1.14601">
        <ele>25.4</ele>
        <time>2015-09-20T08:16:45Z</time>
      </trkpt>
      <trkpt lat="49.29065" lon="1.14616">
        <ele>25.6</ele>
        <time>2015-09-20T08:16:47Z</time>
      </trkpt>
      <trkpt lat="49.29063" lon="1.14631">
        <ele>25.8</ele>
        <time>2015-09-20T08:16:49Z</time>
      </trkpt>
      <trkpt lat="49.29062" lon="1.14646">
        <ele>26</ele>
        <time>2015-09-20T08:16:51Z</time>
      </trkpt>
      <trkpt lat="49.2906" lon="1.1466">
        <ele>26.3</ele>
        <time>2015-09-20T08:16:53Z</time>
      </trkpt>
      <trkpt lat="49.29058" lon="1.14681">
        <ele>26.8</ele>
        <time>2015-09-20T08:16:56Z</time>
      </trkpt>
      <trkpt lat="49.29051" lon="1.14698">
        <ele>27.2</ele>
        <time>2015-09-20T08:16:59Z</time>
      </trkpt>
      <trkpt lat="49.29042" lon="1.14706">
        <ele>27.7</ele>
        <time>2015-09-20T08:17:02Z</time>
      </trkpt>
      <trkpt lat="49.29032" lon="1.1471">
        <ele>28.3</ele>
        <time>2015-09-20T08:17:05Z</time>
      </trkpt>
      <trkpt lat="49.29021" lon="1.14715">
        <ele>28.7</ele>
        <time>2015-09-20T08:17:08Z</time>
      </trkpt>
      <trkpt lat="49.2901" lon="1.14719">
        <ele>29.3</ele>
        <time>2015-09-20T08:17:11Z</time>
      </trkpt>
      <trkpt lat="49.28999" lon="1.14721">
        <ele>29.9</ele>
        <time>2015-09-20T08:17:14Z</time>
      </trkpt>
      <trkpt lat="49.28987" lon="1.14721">
        <ele>30.3</ele>
        <time>2015-09-20T08:17:17Z</time>
      </trkpt>
      <trkpt lat="49.28975" lon="1.14722">
        <ele>30.7</ele>
        <time>2015-09-20T08:17:20Z</time>
      </trkpt>
      <trkpt lat="49.28964" lon="1.14722">
        <ele>31.2</ele>
        <time>2015-09-20T08:17:23Z</time>
      </trkpt>
      <trkpt lat="49.28952" lon="1.14723">
        <ele>31.6</ele>
        <time>2015-09-20T08:17:26Z</time>
      </trkpt>
      <trkpt lat="49.28939" lon="1.14723">
        <ele>32.1</ele>
        <time>2015-09-20T08:17:29Z</time>
      </trkpt>
      <trkpt lat="49.28927" lon="1.1472">
        <ele>32.5</ele>
        <time>2015-09-20T08:17:32Z</time>
      </trkpt>
      <trkpt lat="49.28918" lon="1.14715">
        <ele>32.8</ele>
        <time>2015-09-20T08:17:34Z</time>
      </trkpt>
      <trkpt lat="49.28908" lon="1.14713">
        <ele>33.1</ele>
        <time>2015-09-20T08:17:36Z</time>
      </trkpt>
      <trkpt lat="49.28898" lon="1.14714">
        <ele>33.4</ele>
        <time>2015-09-20T08:17:38Z</time>
      </trkpt>
      <trkpt lat="49.28888" lon="1.1472">
        <ele>33.6</ele>
        <time>2015-09-20T08:17:40Z</time>
      </trkpt>
      <trkpt lat="49.28881" lon="1.14727">
        <ele>33.8</ele>
        <time>2015-09-20T08:17:42Z</time>
      </trkpt>
      <trkpt lat="49.28873" lon="1.14737">
        <ele>34</ele>
        <time>2015-09-20T08:17:44Z</time>
      </trkpt>
      <trkpt lat="49.28862" lon="1.14747">
        <ele>34.3</ele>
        <time>2015-09-20T08:17:47Z</time>
      </trkpt>
      <trkpt lat="49.2885" lon="1.14754">
        <ele>34.7</ele>
        <time>2015-09-20T08:17:50Z</time>
      </trkpt>
      <trkpt lat="49.28841" lon="1.14759">
        <ele>34.9</ele>
        <time>2015-09-20T08:17:52Z</time>
      </trkpt>
      <trkpt lat="49.28832" lon="1.14765">
        <ele>35</ele>
        <time>2015-09-20T08:17:54Z</time>
      </trkpt>
      <trkpt lat="49.28824" lon="1.14774">
        <ele>35.2</ele>
        <time>2015-09-20T08:17:56Z</time>
      </trkpt>
      <trkpt lat="49.28816" lon="1.14784">
        <ele>35.4</ele>
        <time>2015-09-20T08:17:58Z</time>
      </trkpt>
      <trkpt lat="49.28809" lon="1.14794">
        <ele>35.5</ele>
        <time>2015-09-20T08:18:00Z</time>
      </trkpt>
      <trkpt lat="49.28798" lon="1.14806">
        <ele>35.7</ele>
        <time>2015-09-20T08:18:03Z</time>
      </trkpt>
      <trkpt lat="49.28789" lon="1.14811">
        <ele>35.8</ele>
        <time>2015-09-20T08:18:05Z</time>
      </trkpt>
      <trkpt lat="49.2878" lon="1.14814">
        <ele>36</ele>
        <time>2015-09-20T08:18:07Z</time>
      </trkpt>
      <trkpt lat="49.28771" lon="1.14817">
        <ele>36.2</ele>
        <time>2015-09-20T08:18:09Z</time>
      </trkpt>
      <trkpt lat="49.28761" lon="1.14819">
        <ele>36.4</ele>
        <time>2015-09-20T08:18:11Z</time>
      </trkpt>
      <trkpt lat="49.28752" lon="1.14823">
        <ele>36.5</ele>
        <time>2015-09-20T08:18:13Z</time>
      </trkpt>
      <trkpt lat="49.28742" lon="1.14827">
        <ele>36.6</ele>
        <time>2015-09-20T08:18:15Z</time>
      </trkpt>
      <trkpt lat="49.28733" lon="1.1483">
        <ele>36.8</ele>
        <time>2015-09-20T08:18:17Z</time>
      </trkpt>
      <trkpt lat="49.28723" lon="1.14833">
        <ele>37</ele>
        <time>2015-09-20T08:18:19Z</time>
      </trkpt>
      <trkpt lat="49.2871" lon="1.14836">
        <ele>37.3</ele>
        <time>2015-09-20T08:18:22Z</time>
      </trkpt>
      <trkpt lat="49.28701" lon="1.14837">
        <ele>37.5</ele>
        <time>2015-09-20T08:18:24Z</time>
      </trkpt>
      <trkpt lat="49.28692" lon="1.14838">
        <ele>37.7</ele>
        <time>2015-09-20T08:18:26Z</time>
      </trkpt>
      <trkpt lat="49.28682" lon="1.14836">
        <ele>37.9</ele>
        <time>2015-09-20T08:18:28Z</time>
      </trkpt>
      <trkpt lat="49.28673" lon="1.14834">
        <ele>38</ele>
        <time>2015-09-20T08:18:30Z</time>
      </trkpt>
      <trkpt lat="49.28664" lon="1.1483">
        <ele>38.2</ele>
        <time>2015-09-20T08:18:32Z</time>
      </trkpt>
      <trkpt lat="49.28655" lon="1.14826">
        <ele>38.3</ele>
        <time>2015-09-20T08:18:34Z</time>
      </trkpt>
      <trkpt lat="49.28645" lon="1.14822">
        <ele>38.5</ele>
        <time>2015-09-20T08:18:36Z</time>
      </trkpt>
      <trkpt lat="49.28636" lon="1.14817">
        <ele>38.6</ele>
        <time>2015-09-20T08:18:38Z</time>
      </trkpt>
      <trkpt lat="49.28627" lon="1.14812">
        <ele>38.8</ele>
        <time>2015-09-20T08:18:40Z</time>
      </trkpt>
      <trkpt lat="49.28617" lon="1.14808">
        <ele>39</ele>
        <time>2015-09-20T08:18:42Z</time>
      </trkpt>
      <trkpt lat="49.28608" lon="1.14804">
        <ele>39.2</ele>
        <time>2015-09-20T08:18:44Z</time>
      </trkpt>
      <trkpt lat="49.28599" lon="1.14799">
        <ele>39.4</ele>
        <time>2015-09-20T08:18:46Z</time>
      </trkpt>
      <trkpt lat="49.2859" lon="1.14795">
        <ele>39.6</ele>
        <time>2015-09-20T08:18:48Z</time>
      </trkpt>
      <trkpt lat="49.28581" lon="1.14792">
        <ele>39.8</ele>
        <time>2015-09-20T08:18:50Z</time>
      </trkpt>
      <trkpt lat="49.28571" lon="1.14788">
        <ele>40.1</ele>
        <time>2015-09-20T08:18:52Z</time>
      </trkpt>
      <trkpt lat="49.28562" lon="1.14784">
        <ele>40.4</ele>
        <time>2015-09-20T08:18:54Z</time>
      </trkpt>
      <trkpt lat="49.28554" lon="1.14781">
        <ele>40.6</ele>
        <time>2015-09-20T08:18:56Z</time>
      </trkpt>
      <trkpt lat="49.28541" lon="1.14775">
        <ele>41</ele>
        <time>2015-09-20T08:18:59Z</time>
      </trkpt>
      <trkpt lat="49.2853" lon="1.14767">
        <ele>41.4</ele>
        <time>2015-09-20T08:19:02Z</time>
      </trkpt>
      <trkpt lat="49.28518" lon="1.14758">
        <ele>41.9</ele>
        <time>2015-09-20T08:19:05Z</time>
      </trkpt>
      <trkpt lat="49.28507" lon="1.14749">
        <ele>42.4</ele>
        <time>2015-09-20T08:19:08Z</time>
      </trkpt>
      <trkpt lat="49.28495" lon="1.1474">
        <ele>42.9</ele>
        <time>2015-09-20T08:19:11Z</time>
      </trkpt>
      <trkpt lat="49.28483" lon="1.14731">
        <ele>43.2</ele>
        <time>2015-09-20T08:19:14Z</time>
      </trkpt>
      <trkpt lat="49.28472" lon="1.14723">
        <ele>43.6</ele>
        <time>2015-09-20T08:19:17Z</time>
      </trkpt>
      <trkpt lat="49.2846" lon="1.14714">
        <ele>44</ele>
        <time>2015-09-20T08:19:20Z</time>
      </trkpt>
      <trkpt lat="49.28449" lon="1.14706">
        <ele>44.4</ele>
        <time>2015-09-20T08:19:23Z</time>
      </trkpt>
      <trkpt lat="49.28438" lon="1.14699">
        <ele>44.8</ele>
        <time>2015-09-20T08:19:26Z</time>
      </trkpt>
      <trkpt lat="49.28428" lon="1.14691">
        <ele>45.3</ele>
        <time>2015-09-20T08:19:29Z</time>
      </trkpt>
      <trkpt lat="49.28418" lon="1.14681">
        <ele>45.7</ele>
        <time>2015-09-20T08:19:32Z</time>
      </trkpt>
      <trkpt lat="49.28409" lon="1.1467">
        <ele>46.1</ele>
        <time>2015-09-20T08:19:35Z</time>
      </trkpt>
      <trkpt lat="49.28401" lon="1.14657">
        <ele>46.7</ele>
        <time>2015-09-20T08:19:38Z</time>
      </trkpt>
      <trkpt lat="49.28394" lon="1.14645">
        <ele>47.2</ele>
        <time>2015-09-20T08:19:41Z</time>
      </trkpt>
      <trkpt lat="49.28387" lon="1.14632">
        <ele>47.7</ele>
        <time>2015-09-20T08:19:44Z</time>
      </trkpt>
      <trkpt lat="49.28379" lon="1.1462">
        <ele>48.2</ele>
        <time>2015-09-20T08:19:47Z</time>
      </trkpt>
      <trkpt lat="49.28373" lon="1.14609">
        <ele>48.7</ele>
        <time>2015-09-20T08:19:50Z</time>
      </trkpt>
      <trkpt lat="49.28365" lon="1.14598">
        <ele>49.2</ele>
        <time>2015-09-20T08:19:53Z</time>
      </trkpt>
      <trkpt lat="49.28359" lon="1.14587">
        <ele>49.7</ele>
        <time>2015-09-20T08:19:56Z</time>
      </trkpt>
      <trkpt lat="49.28352" lon="1.14573">
        <ele>50.1</ele>
        <time>2015-09-20T08:19:59Z</time>
      </trkpt>
      <trkpt lat="49.28345" lon="1.14563">
        <ele>50.4</ele>
        <time>2015-09-20T08:20:01Z</time>
      </trkpt>
      <trkpt lat="49.28338" lon="1.14551">
        <ele>50.8</ele>
        <time>2015-09-20T08:20:04Z</time>
      </trkpt>
      <trkpt lat="49.2833" lon="1.1454">
        <ele>51.2</ele>
        <time>2015-09-20T08:20:07Z</time>
      </trkpt>
      <trkpt lat="49.28321" lon="1.14527">
        <ele>51.7</ele>
        <time>2015-09-20T08:20:10Z</time>
      </trkpt>
      <trkpt lat="49.28312" lon="1.14515">
        <ele>52.1</ele>
        <time>2015-09-20T08:20:13Z</time>
      </trkpt>
      <trkpt lat="49.28305" lon="1.14502">
        <ele>52.6</ele>
        <time>2015-09-20T08:20:16Z</time>
      </trkpt>
      <trkpt lat="49.28296" lon="1.1449">
        <ele>53.2</ele>
        <time>2015-09-20T08:20:20Z</time>
      </trkpt>
      <trkpt lat="49.28289" lon="1.1448">
        <ele>53.5</ele>
        <time>2015-09-20T08:20:22Z</time>
      </trkpt>
      <trkpt lat="49.2828" lon="1.14469">
        <ele>53.9</ele>
        <time>2015-09-20T08:20:25Z</time>
      </trkpt>
      <trkpt lat="49.28269" lon="1.14458">
        <ele>54.3</ele>
        <time>2015-09-20T08:20:28Z</time>
      </trkpt>
      <trkpt lat="49.28261" lon="1.14447">
        <ele>54.7</ele>
        <time>2015-09-20T08:20:31Z</time>
      </trkpt>
      <trkpt lat="49.28253" lon="1.14436">
        <ele>55.1</ele>
        <time>2015-09-20T08:20:34Z</time>
      </trkpt>
      <trkpt lat="49.28243" lon="1.14426">
        <ele>55.4</ele>
        <time>2015-09-20T08:20:37Z</time>
      </trkpt>
      <trkpt lat="49.28236" lon="1.14435">
        <ele>56.9</ele>
        <time>2015-09-20T08:20:47Z</time>
      </trkpt>
      <trkpt lat="49.28236" lon="1.14449">
        <ele>59.1</ele>
        <time>2015-09-20T08:20:56Z</time>
      </trkpt>
      <trkpt lat="49.28234" lon="1.14462">
        <ele>62.2</ele>
        <time>2015-09-20T08:21:08Z</time>
      </trkpt>
      <trkpt lat="49.28233" lon="1.14477">
        <ele>65.3</ele>
        <time>2015-09-20T08:21:20Z</time>
      </trkpt>
      <trkpt lat="49.28233" lon="1.14492">
        <ele>68.4</ele>
        <time>2015-09-20T08:21:33Z</time>
      </trkpt>
      <trkpt lat="49.28232" lon="1.14506">
        <ele>70.5</ele>
        <time>2015-09-20T08:21:42Z</time>
      </trkpt>
      <trkpt lat="49.28228" lon="1.14519">
        <ele>72.8</ele>
        <time>2015-09-20T08:21:52Z</time>
      </trkpt>
      <trkpt lat="49.28227" lon="1.14533">
        <ele>75.6</ele>
        <time>2015-09-20T08:22:07Z</time>
      </trkpt>
      <trkpt lat="49.28225" lon="1.14548">
        <ele>76.8</ele>
        <time>2015-09-20T08:22:15Z</time>
      </trkpt>
      <trkpt lat="49.28226" lon="1.14563">
        <ele>78.6</ele>
        <time>2015-09-20T08:22:24Z</time>
      </trkpt>
      <trkpt lat="49.28225" lon="1.14578">
        <ele>79.7</ele>
        <time>2015-09-20T08:22:30Z</time>
      </trkpt>
      <trkpt lat="49.28225" lon="1.14593">
        <ele>80.5</ele>
        <time>2015-09-20T08:22:35Z</time>
      </trkpt>
      <trkpt lat="49.28221" lon="1.14609">
        <ele>81.1</ele>
        <time>2015-09-20T08:22:39Z</time>
      </trkpt>
      <trkpt lat="49.28219" lon="1.14625">
        <ele>81.7</ele>
        <time>2015-09-20T08:22:43Z</time>
      </trkpt>
      <trkpt lat="49.28217" lon="1.14642">
        <ele>82.6</ele>
        <time>2015-09-20T08:22:48Z</time>
      </trkpt>
      <trkpt lat="49.28216" lon="1.14659">
        <ele>83.2</ele>
        <time>2015-09-20T08:22:52Z</time>
      </trkpt>
      <trkpt lat="49.28213" lon="1.14676">
        <ele>83.7</ele>
        <time>2015-09-20T08:22:55Z</time>
      </trkpt>
      <trkpt lat="49.28211" lon="1.14691">
        <ele>84.3</ele>
        <time>2015-09-20T08:22:59Z</time>
      </trkpt>
      <trkpt lat="49.28211" lon="1.14709">
        <ele>85.1</ele>
        <time>2015-09-20T08:23:03Z</time>
      </trkpt>
      <trkpt lat="49.28208" lon="1.14722">
        <ele>85.8</ele>
        <time>2015-09-20T08:23:07Z</time>
      </trkpt>
      <trkpt lat="49.28207" lon="1.1474">
        <ele>86.2</ele>
        <time>2015-09-20T08:23:10Z</time>
      </trkpt>
      <trkpt lat="49.28206" lon="1.14758">
        <ele>86.7</ele>
        <time>2015-09-20T08:23:13Z</time>
      </trkpt>
      <trkpt lat="49.28204" lon="1.14775">
        <ele>87.1</ele>
        <time>2015-09-20T08:23:16Z</time>
      </trkpt>
      <trkpt lat="49.28202" lon="1.14791">
        <ele>87.3</ele>
        <time>2015-09-20T08:23:18Z</time>
      </trkpt>
      <trkpt lat="49.28201" lon="1.14809">
        <ele>87.6</ele>
        <time>2015-09-20T08:23:21Z</time>
      </trkpt>
      <trkpt lat="49.28201" lon="1.14826">
        <ele>87.9</ele>
        <time>2015-09-20T08:23:24Z</time>
      </trkpt>
      <trkpt lat="49.28198" lon="1.14843">
        <ele>88.3</ele>
        <time>2015-09-20T08:23:27Z</time>
      </trkpt>
      <trkpt lat="49.28198" lon="1.14859">
        <ele>88.7</ele>
        <time>2015-09-20T08:23:30Z</time>
      </trkpt>
      <trkpt lat="49.28196" lon="1.14876">
        <ele>89</ele>
        <time>2015-09-20T08:23:33Z</time>
      </trkpt>
      <trkpt lat="49.28195" lon="1.14892">
        <ele>89.3</ele>
        <time>2015-09-20T08:23:36Z</time>
      </trkpt>
      <trkpt lat="49.28196" lon="1.1491">
        <ele>89.5</ele>
        <time>2015-09-20T08:23:39Z</time>
      </trkpt>
      <trkpt lat="49.28193" lon="1.14924">
        <ele>89.7</ele>
        <time>2015-09-20T08:23:42Z</time>
      </trkpt>
      <trkpt lat="49.2819" lon="1.1494">
        <ele>89.9</ele>
        <time>2015-09-20T08:23:44Z</time>
      </trkpt>
      <trkpt lat="49.28191" lon="1.14955">
        <ele>89.6</ele>
        <time>2015-09-20T08:23:46Z</time>
      </trkpt>
      <trkpt lat="49.28187" lon="1.14977">
        <ele>89.2</ele>
        <time>2015-09-20T08:23:49Z</time>
      </trkpt>
      <trkpt lat="49.28186" lon="1.14994">
        <ele>88.9</ele>
        <time>2015-09-20T08:23:51Z</time>
      </trkpt>
      <trkpt lat="49.28186" lon="1.15011">
        <ele>88.5</ele>
        <time>2015-09-20T08:23:54Z</time>
      </trkpt>
      <trkpt lat="49.28185" lon="1.15026">
        <ele>88.4</ele>
        <time>2015-09-20T08:23:56Z</time>
      </trkpt>
      <trkpt lat="49.28183" lon="1.15049">
        <ele>88.3</ele>
        <time>2015-09-20T08:23:59Z</time>
      </trkpt>
      <trkpt lat="49.28181" lon="1.15065">
        <ele>88.3</ele>
        <time>2015-09-20T08:24:01Z</time>
      </trkpt>
      <trkpt lat="49.2818" lon="1.15083">
        <ele>88.4</ele>
        <time>2015-09-20T08:24:03Z</time>
      </trkpt>
      <trkpt lat="49.28176" lon="1.15103">
        <ele>88.7</ele>
        <time>2015-09-20T08:24:06Z</time>
      </trkpt>
      <trkpt lat="49.28174" lon="1.15118">
        <ele>89</ele>
        <time>2015-09-20T08:24:09Z</time>
      </trkpt>
      <trkpt lat="49.28173" lon="1.15132">
        <ele>89.2</ele>
        <time>2015-09-20T08:24:11Z</time>
      </trkpt>
      <trkpt lat="49.2817" lon="1.15149">
        <ele>89.5</ele>
        <time>2015-09-20T08:24:14Z</time>
      </trkpt>
      <trkpt lat="49.2817" lon="1.15163">
        <ele>89.8</ele>
        <time>2015-09-20T08:24:16Z</time>
      </trkpt>
      <trkpt lat="49.28168" lon="1.15178">
        <ele>90</ele>
        <time>2015-09-20T08:24:18Z</time>
      </trkpt>
      <trkpt lat="49.28167" lon="1.15196">
        <ele>90.3</ele>
        <time>2015-09-20T08:24:21Z</time>
      </trkpt>
      <trkpt lat="49.28165" lon="1.15213">
        <ele>90.5</ele>
        <time>2015-09-20T08:24:24Z</time>
      </trkpt>
      <trkpt lat="49.28163" lon="1.15232">
        <ele>90.8</ele>
        <time>2015-09-20T08:24:27Z</time>
      </trkpt>
      <trkpt lat="49.28162" lon="1.15251">
        <ele>91.1</ele>
        <time>2015-09-20T08:24:30Z</time>
      </trkpt>
      <trkpt lat="49.28161" lon="1.1527">
        <ele>91.2</ele>
        <time>2015-09-20T08:24:33Z</time>
      </trkpt>
      <trkpt lat="49.2816" lon="1.15284">
        <ele>91.4</ele>
        <time>2015-09-20T08:24:35Z</time>
      </trkpt>
      <trkpt lat="49.28159" lon="1.15303">
        <ele>91.6</ele>
        <time>2015-09-20T08:24:38Z</time>
      </trkpt>
      <trkpt lat="49.28157" lon="1.15317">
        <ele>91.7</ele>
        <time>2015-09-20T08:24:40Z</time>
      </trkpt>
      <trkpt lat="49.28155" lon="1.15335">
        <ele>91.8</ele>
        <time>2015-09-20T08:24:43Z</time>
      </trkpt>
      <trkpt lat="49.28147" lon="1.15346">
        <ele>92</ele>
        <time>2015-09-20T08:24:46Z</time>
      </trkpt>
      <trkpt lat="49.28136" lon="1.15343">
        <ele>92.2</ele>
        <time>2015-09-20T08:24:50Z</time>
      </trkpt>
      <trkpt lat="49.28126" lon="1.15339">
        <ele>92.7</ele>
        <time>2015-09-20T08:24:54Z</time>
      </trkpt>
      <trkpt lat="49.28116" lon="1.15335">
        <ele>93.3</ele>
        <time>2015-09-20T08:24:58Z</time>
      </trkpt>
      <trkpt lat="49.28106" lon="1.15331">
        <ele>94.1</ele>
        <time>2015-09-20T08:25:02Z</time>
      </trkpt>
      <trkpt lat="49.28096" lon="1.15328">
        <ele>94.9</ele>
        <time>2015-09-20T08:25:06Z</time>
      </trkpt>
      <trkpt lat="49.28086" lon="1.15324">
        <ele>95.8</ele>
        <time>2015-09-20T08:25:10Z</time>
      </trkpt>
      <trkpt lat="49.28076" lon="1.1532">
        <ele>96.6</ele>
        <time>2015-09-20T08:25:14Z</time>
      </trkpt>
      <trkpt lat="49.28066" lon="1.15315">
        <ele>97.5</ele>
        <time>2015-09-20T08:25:18Z</time>
      </trkpt>
      <trkpt lat="49.28056" lon="1.1531">
        <ele>98.4</ele>
        <time>2015-09-20T08:25:22Z</time>
      </trkpt>
      <trkpt lat="49.28045" lon="1.15306">
        <ele>99.3</ele>
        <time>2015-09-20T08:25:26Z</time>
      </trkpt>
      <trkpt lat="49.28035" lon="1.15301">
        <ele>100.2</ele>
        <time>2015-09-20T08:25:30Z</time>
      </trkpt>
      <trkpt lat="49.28024" lon="1.15296">
        <ele>101</ele>
        <time>2015-09-20T08:25:34Z</time>
      </trkpt>
      <trkpt lat="49.28013" lon="1.15291">
        <ele>101.8</ele>
        <time>2015-09-20T08:25:38Z</time>
      </trkpt>
      <trkpt lat="49.28004" lon="1.15287">
        <ele>102.4</ele>
        <time>2015-09-20T08:25:41Z</time>
      </trkpt>
      <trkpt lat="49.27994" lon="1.15283">
        <ele>102.9</ele>
        <time>2015-09-20T08:25:44Z</time>
      </trkpt>
      <trkpt lat="49.27985" lon="1.15278">
        <ele>103.6</ele>
        <time>2015-09-20T08:25:47Z</time>
      </trkpt>
      <trkpt lat="49.27976" lon="1.15274">
        <ele>104.1</ele>
        <time>2015-09-20T08:25:50Z</time>
      </trkpt>
      <trkpt lat="49.27966" lon="1.1527">
        <ele>104.7</ele>
        <time>2015-09-20T08:25:53Z</time>
      </trkpt>
      <trkpt lat="49.27956" lon="1.15265">
        <ele>105.3</ele>
        <time>2015-09-20T08:25:56Z</time>
      </trkpt>
      <trkpt lat="49.27947" lon="1.15261">
        <ele>105.9</ele>
        <time>2015-09-20T08:25:59Z</time>
      </trkpt>
      <trkpt lat="49.27937" lon="1.15257">
        <ele>106.5</ele>
        <time>2015-09-20T08:26:02Z</time>
      </trkpt>
      <trkpt lat="49.27937" lon="1.15241">
        <ele>107.4</ele>
        <time>2015-09-20T08:26:07Z</time>
      </trkpt>
      <trkpt lat="49.27939" lon="1.15227">
        <ele>107.8</ele>
        <time>2015-09-20T08:26:10Z</time>
      </trkpt>
      <trkpt lat="49.27941" lon="1.15211">
        <ele>108.2</ele>
        <time>2015-09-20T08:26:13Z</time>
      </trkpt>
      <trkpt lat="49.27943" lon="1.15194">
        <ele>108.5</ele>
        <time>2015-09-20T08:26:16Z</time>
      </trkpt>
      <trkpt lat="49.27945" lon="1.15178">
        <ele>108.8</ele>
        <time>2015-09-20T08:26:19Z</time>
      </trkpt>
      <trkpt lat="49.27948" lon="1.15163">
        <ele>109.1</ele>
        <time>2015-09-20T08:26:22Z</time>
      </trkpt>
      <trkpt lat="49.27948" lon="1.15147">
        <ele>109.2</ele>
        <time>2015-09-20T08:26:24Z</time>
      </trkpt>
      <trkpt lat="49.2795" lon="1.15133">
        <ele>109.4</ele>
        <time>2015-09-20T08:26:26Z</time>
      </trkpt>
      <trkpt lat="49.27952" lon="1.15113">
        <ele>109.6</ele>
        <time>2015-09-20T08:26:29Z</time>
      </trkpt>
      <trkpt lat="49.27952" lon="1.15099">
        <ele>109.7</ele>
        <time>2015-09-20T08:26:31Z</time>
      </trkpt>
      <trkpt lat="49.27952" lon="1.15079">
        <ele>109.8</ele>
        <time>2015-09-20T08:26:34Z</time>
      </trkpt>
      <trkpt lat="49.27953" lon="1.15061">
        <ele>109.9</ele>
        <time>2015-09-20T08:26:37Z</time>
      </trkpt>
      <trkpt lat="49.27957" lon="1.15047">
        <ele>110</ele>
        <time>2015-09-20T08:26:40Z</time>
      </trkpt>
      <trkpt lat="49.27957" lon="1.1503">
        <ele>110.1</ele>
        <time>2015-09-20T08:26:44Z</time>
      </trkpt>
      <trkpt lat="49.27957" lon="1.15012">
        <ele>110.1</ele>
        <time>2015-09-20T08:26:47Z</time>
      </trkpt>
      <trkpt lat="49.2796" lon="1.14998">
        <ele>110.2</ele>
        <time>2015-09-20T08:26:50Z</time>
      </trkpt>
      <trkpt lat="49.27963" lon="1.14984">
        <ele>110.2</ele>
        <time>2015-09-20T08:26:53Z</time>
      </trkpt>
      <trkpt lat="49.27965" lon="1.1497">
        <ele>110.2</ele>
        <time>2015-09-20T08:26:55Z</time>
      </trkpt>
      <trkpt lat="49.27967" lon="1.1495">
        <ele>110.2</ele>
        <time>2015-09-20T08:26:57Z</time>
      </trkpt>
      <trkpt lat="49.27969" lon="1.14932">
        <ele>110.3</ele>
        <time>2015-09-20T08:27:00Z</time>
      </trkpt>
      <trkpt lat="49.27971" lon="1.14917">
        <ele>110.3</ele>
        <time>2015-09-20T08:27:03Z</time>
      </trkpt>
      <trkpt lat="49.27973" lon="1.14901">
        <ele>110.3</ele>
        <time>2015-09-20T08:27:06Z</time>
      </trkpt>
      <trkpt lat="49.27973" lon="1.14884">
        <ele>110.3</ele>
        <time>2015-09-20T08:27:08Z</time>
      </trkpt>
      <trkpt lat="49.27975" lon="1.14865">
        <ele>110.3</ele>
        <time>2015-09-20T08:27:11Z</time>
      </trkpt>
      <trkpt lat="49.27976" lon="1.1485">
        <ele>110.3</ele>
        <time>2015-09-20T08:27:14Z</time>
      </trkpt>
      <trkpt lat="49.2798" lon="1.14836">
        <ele>110.3</ele>
        <time>2015-09-20T08:27:17Z</time>
      </trkpt>
      <trkpt lat="49.27984" lon="1.14817">
        <ele>110.2</ele>
        <time>2015-09-20T08:27:20Z</time>
      </trkpt>
      <trkpt lat="49.27986" lon="1.14798">
        <ele>110.1</ele>
        <time>2015-09-20T08:27:23Z</time>
      </trkpt>
      <trkpt lat="49.27988" lon="1.14781">
        <ele>110.1</ele>
        <time>2015-09-20T08:27:26Z</time>
      </trkpt>
      <trkpt lat="49.2799" lon="1.14766">
        <ele>110</ele>
        <time>2015-09-20T08:27:29Z</time>
      </trkpt>
      <trkpt lat="49.2799" lon="1.14751">
        <ele>109.8</ele>
        <time>2015-09-20T08:27:32Z</time>
      </trkpt>
      <trkpt lat="49.27993" lon="1.14733">
        <ele>109.7</ele>
        <time>2015-09-20T08:27:35Z</time>
      </trkpt>
      <trkpt lat="49.27995" lon="1.14718">
        <ele>109.6</ele>
        <time>2015-09-20T08:27:37Z</time>
      </trkpt>
      <trkpt lat="49.27998" lon="1.147">
        <ele>109.5</ele>
        <time>2015-09-20T08:27:40Z</time>
      </trkpt>
      <trkpt lat="49.28002" lon="1.14683">
        <ele>109.3</ele>
        <time>2015-09-20T08:27:43Z</time>
      </trkpt>
      <trkpt lat="49.28006" lon="1.14667">
        <ele>109.1</ele>
        <time>2015-09-20T08:27:45Z</time>
      </trkpt>
      <trkpt lat="49.2801" lon="1.14655">
        <ele>108.9</ele>
        <time>2015-09-20T08:27:47Z</time>
      </trkpt>
      <trkpt lat="49.28013" lon="1.14636">
        <ele>108.6</ele>
        <time>2015-09-20T08:27:49Z</time>
      </trkpt>
      <trkpt lat="49.28016" lon="1.1462">
        <ele>108.4</ele>
        <time>2015-09-20T08:27:51Z</time>
      </trkpt>
      <trkpt lat="49.28019" lon="1.14604">
        <ele>108.1</ele>
        <time>2015-09-20T08:27:53Z</time>
      </trkpt>
      <trkpt lat="49.28021" lon="1.14586">
        <ele>107.8</ele>
        <time>2015-09-20T08:27:55Z</time>
      </trkpt>
      <trkpt lat="49.28024" lon="1.14569">
        <ele>107.3</ele>
        <time>2015-09-20T08:27:57Z</time>
      </trkpt>
      <trkpt lat="49.28026" lon="1.14549">
        <ele>106.7</ele>
        <time>2015-09-20T08:27:59Z</time>
      </trkpt>
      <trkpt lat="49.28028" lon="1.14527">
        <ele>106</ele>
        <time>2015-09-20T08:28:01Z</time>
      </trkpt>
      <trkpt lat="49.2803" lon="1.14506">
        <ele>105.1</ele>
        <time>2015-09-20T08:28:03Z</time>
      </trkpt>
      <trkpt lat="49.2803" lon="1.14491">
        <ele>104.2</ele>
        <time>2015-09-20T08:28:05Z</time>
      </trkpt>
      <trkpt lat="49.2803" lon="1.14472">
        <ele>102.7</ele>
        <time>2015-09-20T08:28:08Z</time>
      </trkpt>
      <trkpt lat="49.28031" lon="1.14453">
        <ele>100.7</ele>
        <time>2015-09-20T08:28:12Z</time>
      </trkpt>
      <trkpt lat="49.28028" lon="1.14439">
        <ele>99.6</ele>
        <time>2015-09-20T08:28:14Z</time>
      </trkpt>
      <trkpt lat="49.28029" lon="1.14419">
        <ele>98</ele>
        <time>2015-09-20T08:28:17Z</time>
      </trkpt>
      <trkpt lat="49.2803" lon="1.14404">
        <ele>96.5</ele>
        <time>2015-09-20T08:28:20Z</time>
      </trkpt>
      <trkpt lat="49.28029" lon="1.14388">
        <ele>94.9</ele>
        <time>2015-09-20T08:28:23Z</time>
      </trkpt>
      <trkpt lat="49.28032" lon="1.14373">
        <ele>93</ele>
        <time>2015-09-20T08:28:27Z</time>
      </trkpt>
      <trkpt lat="49.28035" lon="1.14355">
        <ele>91</ele>
        <time>2015-09-20T08:28:31Z</time>
      </trkpt>
      <trkpt lat="49.28036" lon="1.1434">
        <ele>89.9</ele>
        <time>2015-09-20T08:28:33Z</time>
      </trkpt>
      <trkpt lat="49.28037" lon="1.14323">
        <ele>88.6</ele>
        <time>2015-09-20T08:28:35Z</time>
      </trkpt>
      <trkpt lat="49.28038" lon="1.14305">
        <ele>86.7</ele>
        <time>2015-09-20T08:28:38Z</time>
      </trkpt>
      <trkpt lat="49.2804" lon="1.14291">
        <ele>85.4</ele>
        <time>2015-09-20T08:28:40Z</time>
      </trkpt>
      <trkpt lat="49.28042" lon="1.1427">
        <ele>83.2</ele>
        <time>2015-09-20T08:28:43Z</time>
      </trkpt>
      <trkpt lat="49.28041" lon="1.14251">
        <ele>81.1</ele>
        <time>2015-09-20T08:28:46Z</time>
      </trkpt>
      <trkpt lat="49.28044" lon="1.14232">
        <ele>79.2</ele>
        <time>2015-09-20T08:28:49Z</time>
      </trkpt>
      <trkpt lat="49.28039" lon="1.14216">
        <ele>77.4</ele>
        <time>2015-09-20T08:28:52Z</time>
      </trkpt>
      <trkpt lat="49.28032" lon="1.14205">
        <ele>75.9</ele>
        <time>2015-09-20T08:28:55Z</time>
      </trkpt>
      <trkpt lat="49.28024" lon="1.14193">
        <ele>74.7</ele>
        <time>2015-09-20T08:28:58Z</time>
      </trkpt>
      <trkpt lat="49.28016" lon="1.14182">
        <ele>73.8</ele>
        <time>2015-09-20T08:29:01Z</time>
      </trkpt>
      <trkpt lat="49.28007" lon="1.14171">
        <ele>73.1</ele>
        <time>2015-09-20T08:29:04Z</time>
      </trkpt>
      <trkpt lat="49.27999" lon="1.1416">
        <ele>72.6</ele>
        <time>2015-09-20T08:29:07Z</time>
      </trkpt>
      <trkpt lat="49.2799" lon="1.14148">
        <ele>72.3</ele>
        <time>2015-09-20T08:29:10Z</time>
      </trkpt>
      <trkpt lat="49.27981" lon="1.14137">
        <ele>72.1</ele>
        <time>2015-09-20T08:29:13Z</time>
      </trkpt>
      <trkpt lat="49.27971" lon="1.14128">
        <ele>71.9</ele>
        <time>2015-09-20T08:29:16Z</time>
      </trkpt>
      <trkpt lat="49.27962" lon="1.14119">
        <ele>72</ele>
        <time>2015-09-20T08:29:19Z</time>
      </trkpt>
      <trkpt lat="49.27952" lon="1.14113">
        <ele>72</ele>
        <time>2015-09-20T08:29:22Z</time>
      </trkpt>
      <trkpt lat="49.27944" lon="1.14108">
        <ele>72.2</ele>
        <time>2015-09-20T08:29:25Z</time>
      </trkpt>
      <trkpt lat="49.27934" lon="1.14105">
        <ele>72.4</ele>
        <time>2015-09-20T08:29:28Z</time>
      </trkpt>
      <trkpt lat="49.27924" lon="1.14103">
        <ele>72.8</ele>
        <time>2015-09-20T08:29:31Z</time>
      </trkpt>
      <trkpt lat="49.27915" lon="1.14101">
        <ele>73</ele>
        <time>2015-09-20T08:29:34Z</time>
      </trkpt>
      <trkpt lat="49.27905" lon="1.14099">
        <ele>73.3</ele>
        <time>2015-09-20T08:29:37Z</time>
      </trkpt>
      <trkpt lat="49.27895" lon="1.14096">
        <ele>73.7</ele>
        <time>2015-09-20T08:29:40Z</time>
      </trkpt>
      <trkpt lat="49.27886" lon="1.14093">
        <ele>74</ele>
        <time>2015-09-20T08:29:43Z</time>
      </trkpt>
      <trkpt lat="49.27876" lon="1.1409">
        <ele>74.3</ele>
        <time>2015-09-20T08:29:46Z</time>
      </trkpt>
      <trkpt lat="49.27867" lon="1.14088">
        <ele>74.6</ele>
        <time>2015-09-20T08:29:49Z</time>
      </trkpt>
      <trkpt lat="49.27858" lon="1.14086">
        <ele>74.9</ele>
        <time>2015-09-20T08:29:52Z</time>
      </trkpt>
      <trkpt lat="49.27848" lon="1.14084">
        <ele>75.3</ele>
        <time>2015-09-20T08:29:55Z</time>
      </trkpt>
      <trkpt lat="49.27837" lon="1.14083">
        <ele>75.7</ele>
        <time>2015-09-20T08:29:58Z</time>
      </trkpt>
      <trkpt lat="49.2783" lon="1.14072">
        <ele>76.1</ele>
        <time>2015-09-20T08:30:02Z</time>
      </trkpt>
      <trkpt lat="49.27834" lon="1.14058">
        <ele>76.5</ele>
        <time>2015-09-20T08:30:06Z</time>
      </trkpt>
      <trkpt lat="49.27835" lon="1.14042">
        <ele>77</ele>
        <time>2015-09-20T08:30:11Z</time>
      </trkpt>
      <trkpt lat="49.27837" lon="1.14027">
        <ele>77.9</ele>
        <time>2015-09-20T08:30:17Z</time>
      </trkpt>
      <trkpt lat="49.27838" lon="1.14012">
        <ele>79.1</ele>
        <time>2015-09-20T08:30:23Z</time>
      </trkpt>
      <trkpt lat="49.2784" lon="1.13997">
        <ele>80.5</ele>
        <time>2015-09-20T08:30:30Z</time>
      </trkpt>
      <trkpt lat="49.27841" lon="1.13982">
        <ele>82</ele>
        <time>2015-09-20T08:30:36Z</time>
      </trkpt>
      <trkpt lat="49.27842" lon="1.13966">
        <ele>83.5</ele>
        <time>2015-09-20T08:30:42Z</time>
      </trkpt>
      <trkpt lat="49.27843" lon="1.1395">
        <ele>85</ele>
        <time>2015-09-20T08:30:48Z</time>
      </trkpt>
      <trkpt lat="49.27844" lon="1.13936">
        <ele>86.2</ele>
        <time>2015-09-20T08:30:53Z</time>
      </trkpt>
      <trkpt lat="49.27846" lon="1.13921">
        <ele>87.2</ele>
        <time>2015-09-20T08:30:58Z</time>
      </trkpt>
      <trkpt lat="49.27848" lon="1.13905">
        <ele>88.2</ele>
        <time>2015-09-20T08:31:03Z</time>
      </trkpt>
      <trkpt lat="49.27849" lon="1.13889">
        <ele>89.2</ele>
        <time>2015-09-20T08:31:08Z</time>
      </trkpt>
      <trkpt lat="49.27851" lon="1.13874">
        <ele>89.9</ele>
        <time>2015-09-20T08:31:12Z</time>
      </trkpt>
      <trkpt lat="49.27852" lon="1.13859">
        <ele>90.5</ele>
        <time>2015-09-20T08:31:16Z</time>
      </trkpt>
      <trkpt lat="49.27854" lon="1.13842">
        <ele>91.3</ele>
        <time>2015-09-20T08:31:21Z</time>
      </trkpt>
      <trkpt lat="49.27855" lon="1.13828">
        <ele>92.1</ele>
        <time>2015-09-20T08:31:25Z</time>
      </trkpt>
      <trkpt lat="49.27857" lon="1.13812">
        <ele>93</ele>
        <time>2015-09-20T08:31:30Z</time>
      </trkpt>
      <trkpt lat="49.27858" lon="1.13798">
        <ele>93.6</ele>
        <time>2015-09-20T08:31:34Z</time>
      </trkpt>
      <trkpt lat="49.27852" lon="1.13786">
        <ele>94.4</ele>
        <time>2015-09-20T08:31:40Z</time>
      </trkpt>
      <trkpt lat="49.27842" lon="1.13784">
        <ele>94.9</ele>
        <time>2015-09-20T08:31:44Z</time>
      </trkpt>
      <trkpt lat="49.27832" lon="1.13779">
        <ele>95.5</ele>
        <time>2015-09-20T08:31:49Z</time>
      </trkpt>
      <trkpt lat="49.27823" lon="1.13776">
        <ele>96.1</ele>
        <time>2015-09-20T08:31:53Z</time>
      </trkpt>
      <trkpt lat="49.27813" lon="1.13772">
        <ele>96.7</ele>
        <time>2015-09-20T08:31:57Z</time>
      </trkpt>
      <trkpt lat="49.27804" lon="1.13767">
        <ele>97.3</ele>
        <time>2015-09-20T08:32:01Z</time>
      </trkpt>
      <trkpt lat="49.27795" lon="1.13763">
        <ele>98</ele>
        <time>2015-09-20T08:32:05Z</time>
      </trkpt>
      <trkpt lat="49.27787" lon="1.1376">
        <ele>98.7</ele>
        <time>2015-09-20T08:32:09Z</time>
      </trkpt>
      <trkpt lat="49.27777" lon="1.13757">
        <ele>99.2</ele>
        <time>2015-09-20T08:32:13Z</time>
      </trkpt>
      <trkpt lat="49.27768" lon="1.13753">
        <ele>99.7</ele>
        <time>2015-09-20T08:32:17Z</time>
      </trkpt>
      <trkpt lat="49.27758" lon="1.13751">
        <ele>100.2</ele>
        <time>2015-09-20T08:32:21Z</time>
      </trkpt>
      <trkpt lat="49.27746" lon="1.13747">
        <ele>100.7</ele>
        <time>2015-09-20T08:32:25Z</time>
      </trkpt>
      <trkpt lat="49.27734" lon="1.13744">
        <ele>101.2</ele>
        <time>2015-09-20T08:32:29Z</time>
      </trkpt>
      <trkpt lat="49.27725" lon="1.13741">
        <ele>101.6</ele>
        <time>2015-09-20T08:32:32Z</time>
      </trkpt>
      <trkpt lat="49.27716" lon="1.13738">
        <ele>101.9</ele>
        <time>2015-09-20T08:32:35Z</time>
      </trkpt>
      <trkpt lat="49.27706" lon="1.13736">
        <ele>102.2</ele>
        <time>2015-09-20T08:32:38Z</time>
      </trkpt>
      <trkpt lat="49.27696" lon="1.13733">
        <ele>102.5</ele>
        <time>2015-09-20T08:32:41Z</time>
      </trkpt>
      <trkpt lat="49.27686" lon="1.13731">
        <ele>102.9</ele>
        <time>2015-09-20T08:32:44Z</time>
      </trkpt>
      <trkpt lat="49.27676" lon="1.13728">
        <ele>103.2</ele>
        <time>2015-09-20T08:32:47Z</time>
      </trkpt>
      <trkpt lat="49.27666" lon="1.13726">
        <ele>103.6</ele>
        <time>2015-09-20T08:32:50Z</time>
      </trkpt>
      <trkpt lat="49.27656" lon="1.13723">
        <ele>103.9</ele>
        <time>2015-09-20T08:32:53Z</time>
      </trkpt>
      <trkpt lat="49.27645" lon="1.13721">
        <ele>104.1</ele>
        <time>2015-09-20T08:32:56Z</time>
      </trkpt>
      <trkpt lat="49.27634" lon="1.13719">
        <ele>104.3</ele>
        <time>2015-09-20T08:32:59Z</time>
      </trkpt>
      <trkpt lat="49.27624" lon="1.13716">
        <ele>104.5</ele>
        <time>2015-09-20T08:33:02Z</time>
      </trkpt>
      <trkpt lat="49.27614" lon="1.13714">
        <ele>104.7</ele>
        <time>2015-09-20T08:33:05Z</time>
      </trkpt>
      <trkpt lat="49.27604" lon="1.13712">
        <ele>104.8</ele>
        <time>2015-09-20T08:33:08Z</time>
      </trkpt>
      <trkpt lat="49.27594" lon="1.13708">
        <ele>105</ele>
        <time>2015-09-20T08:33:11Z</time>
      </trkpt>
      <trkpt lat="49.27584" lon="1.13706">
        <ele>105.2</ele>
        <time>2015-09-20T08:33:14Z</time>
      </trkpt>
      <trkpt lat="49.27574" lon="1.13703">
        <ele>105.4</ele>
        <time>2015-09-20T08:33:17Z</time>
      </trkpt>
      <trkpt lat="49.27564" lon="1.13701">
        <ele>105.7</ele>
        <time>2015-09-20T08:33:20Z</time>
      </trkpt>
      <trkpt lat="49.27553" lon="1.13699">
        <ele>105.8</ele>
        <time>2015-09-20T08:33:23Z</time>
      </trkpt>
      <trkpt lat="49.27544" lon="1.13695">
        <ele>106</ele>
        <time>2015-09-20T08:33:26Z</time>
      </trkpt>
      <trkpt lat="49.27533" lon="1.13693">
        <ele>106.1</ele>
        <time>2015-09-20T08:33:29Z</time>
      </trkpt>
      <trkpt lat="49.27523" lon="1.13691">
        <ele>106.3</ele>
        <time>2015-09-20T08:33:32Z</time>
      </trkpt>
      <trkpt lat="49.27512" lon="1.13689">
        <ele>106.4</ele>
        <time>2015-09-20T08:33:35Z</time>
      </trkpt>
      <trkpt lat="49.27502" lon="1.13685">
        <ele>106.5</ele>
        <time>2015-09-20T08:33:38Z</time>
      </trkpt>
      <trkpt lat="49.27491" lon="1.13681">
        <ele>106.6</ele>
        <time>2015-09-20T08:33:41Z</time>
      </trkpt>
      <trkpt lat="49.27482" lon="1.13674">
        <ele>106.7</ele>
        <time>2015-09-20T08:33:44Z</time>
      </trkpt>
      <trkpt lat="49.27473" lon="1.13682">
        <ele>106.8</ele>
        <time>2015-09-20T08:33:49Z</time>
      </trkpt>
      <trkpt lat="49.27472" lon="1.13698">
        <ele>106.9</ele>
        <time>2015-09-20T08:33:52Z</time>
      </trkpt>
      <trkpt lat="49.2747" lon="1.13716">
        <ele>107</ele>
        <time>2015-09-20T08:33:55Z</time>
      </trkpt>
      <trkpt lat="49.27469" lon="1.1373">
        <ele>107.1</ele>
        <time>2015-09-20T08:33:57Z</time>
      </trkpt>
      <trkpt lat="49.27467" lon="1.13745">
        <ele>107.2</ele>
        <time>2015-09-20T08:33:59Z</time>
      </trkpt>
      <trkpt lat="49.27467" lon="1.1376">
        <ele>107.3</ele>
        <time>2015-09-20T08:34:01Z</time>
      </trkpt>
      <trkpt lat="49.27466" lon="1.13776">
        <ele>107.3</ele>
        <time>2015-09-20T08:34:03Z</time>
      </trkpt>
      <trkpt lat="49.27465" lon="1.13793">
        <ele>107.4</ele>
        <time>2015-09-20T08:34:05Z</time>
      </trkpt>
      <trkpt lat="49.27463" lon="1.13811">
        <ele>107.4</ele>
        <time>2015-09-20T08:34:07Z</time>
      </trkpt>
      <trkpt lat="49.27461" lon="1.1383">
        <ele>107.4</ele>
        <time>2015-09-20T08:34:09Z</time>
      </trkpt>
      <trkpt lat="49.2746" lon="1.13849">
        <ele>107.3</ele>
        <time>2015-09-20T08:34:11Z</time>
      </trkpt>
      <trkpt lat="49.27457" lon="1.13867">
        <ele>107.2</ele>
        <time>2015-09-20T08:34:13Z</time>
      </trkpt>
      <trkpt lat="49.27455" lon="1.13887">
        <ele>107.1</ele>
        <time>2015-09-20T08:34:15Z</time>
      </trkpt>
      <trkpt lat="49.27453" lon="1.13908">
        <ele>106.9</ele>
        <time>2015-09-20T08:34:17Z</time>
      </trkpt>
      <trkpt lat="49.27449" lon="1.13929">
        <ele>106.7</ele>
        <time>2015-09-20T08:34:19Z</time>
      </trkpt>
      <trkpt lat="49.27445" lon="1.13949">
        <ele>106.5</ele>
        <time>2015-09-20T08:34:21Z</time>
      </trkpt>
      <trkpt lat="49.27443" lon="1.13968">
        <ele>106.3</ele>
        <time>2015-09-20T08:34:23Z</time>
      </trkpt>
      <trkpt lat="49.2744" lon="1.13986">
        <ele>106.1</ele>
        <time>2015-09-20T08:34:25Z</time>
      </trkpt>
      <trkpt lat="49.27438" lon="1.14003">
        <ele>105.9</ele>
        <time>2015-09-20T08:34:27Z</time>
      </trkpt>
      <trkpt lat="49.27436" lon="1.14018">
        <ele>105.8</ele>
        <time>2015-09-20T08:34:29Z</time>
      </trkpt>
      <trkpt lat="49.27435" lon="1.14033">
        <ele>105.7</ele>
        <time>2015-09-20T08:34:31Z</time>
      </trkpt>
      <trkpt lat="49.27433" lon="1.14047">
        <ele>105.6</ele>
        <time>2015-09-20T08:34:33Z</time>
      </trkpt>
      <trkpt lat="49.27432" lon="1.14061">
        <ele>105.5</ele>
        <time>2015-09-20T08:34:35Z</time>
      </trkpt>
      <trkpt lat="49.2743" lon="1.14075">
        <ele>105.5</ele>
        <time>2015-09-20T08:34:37Z</time>
      </trkpt>
      <trkpt lat="49.27428" lon="1.14088">
        <ele>105.5</ele>
        <time>2015-09-20T08:34:39Z</time>
      </trkpt>
      <trkpt lat="49.27426" lon="1.14103">
        <ele>105.6</ele>
        <time>2015-09-20T08:34:41Z</time>
      </trkpt>
      <trkpt lat="49.27425" lon="1.14117">
        <ele>105.6</ele>
        <time>2015-09-20T08:34:43Z</time>
      </trkpt>
      <trkpt lat="49.27424" lon="1.14131">
        <ele>105.7</ele>
        <time>2015-09-20T08:34:45Z</time>
      </trkpt>
      <trkpt lat="49.27413" lon="1.14138">
        <ele>105.8</ele>
        <time>2015-09-20T08:34:48Z</time>
      </trkpt>
      <trkpt lat="49.27402" lon="1.14133">
        <ele>105.8</ele>
        <time>2015-09-20T08:34:51Z</time>
      </trkpt>
      <trkpt lat="49.27392" lon="1.14128">
        <ele>106</ele>
        <time>2015-09-20T08:34:54Z</time>
      </trkpt>
      <trkpt lat="49.27383" lon="1.14124">
        <ele>106</ele>
        <time>2015-09-20T08:34:56Z</time>
      </trkpt>
      <trkpt lat="49.27372" lon="1.14119">
        <ele>106.2</ele>
        <time>2015-09-20T08:34:58Z</time>
      </trkpt>
      <trkpt lat="49.27362" lon="1.14116">
        <ele>106.4</ele>
        <time>2015-09-20T08:35:00Z</time>
      </trkpt>
      <trkpt lat="49.27353" lon="1.14111">
        <ele>106.5</ele>
        <time>2015-09-20T08:35:02Z</time>
      </trkpt>
      <trkpt lat="49.27344" lon="1.14106">
        <ele>106.7</ele>
        <time>2015-09-20T08:35:04Z</time>
      </trkpt>
      <trkpt lat="49.27333" lon="1.141">
        <ele>106.9</ele>
        <time>2015-09-20T08:35:07Z</time>
      </trkpt>
      <trkpt lat="49.27323" lon="1.14097">
        <ele>107</ele>
        <time>2015-09-20T08:35:09Z</time>
      </trkpt>
      <trkpt lat="49.27313" lon="1.1409">
        <ele>107.1</ele>
        <time>2015-09-20T08:35:11Z</time>
      </trkpt>
      <trkpt lat="49.27304" lon="1.14088">
        <ele>107.2</ele>
        <time>2015-09-20T08:35:13Z</time>
      </trkpt>
      <trkpt lat="49.27295" lon="1.14085">
        <ele>107.3</ele>
        <time>2015-09-20T08:35:15Z</time>
      </trkpt>
      <trkpt lat="49.27283" lon="1.1408">
        <ele>107.4</ele>
        <time>2015-09-20T08:35:17Z</time>
      </trkpt>
      <trkpt lat="49.27272" lon="1.14076">
        <ele>107.5</ele>
        <time>2015-09-20T08:35:19Z</time>
      </trkpt>
      <trkpt lat="49.27261" lon="1.14069">
        <ele>107.6</ele>
        <time>2015-09-20T08:35:21Z</time>
      </trkpt>
      <trkpt lat="49.27253" lon="1.14063">
        <ele>107.7</ele>
        <time>2015-09-20T08:35:23Z</time>
      </trkpt>
      <trkpt lat="49.27242" lon="1.14056">
        <ele>107.8</ele>
        <time>2015-09-20T08:35:25Z</time>
      </trkpt>
      <trkpt lat="49.27232" lon="1.14053">
        <ele>107.9</ele>
        <time>2015-09-20T08:35:27Z</time>
      </trkpt>
      <trkpt lat="49.27221" lon="1.14047">
        <ele>108</ele>
        <time>2015-09-20T08:35:29Z</time>
      </trkpt>
      <trkpt lat="49.27207" lon="1.1404">
        <ele>108.1</ele>
        <time>2015-09-20T08:35:32Z</time>
      </trkpt>
      <trkpt lat="49.27198" lon="1.14038">
        <ele>108.2</ele>
        <time>2015-09-20T08:35:34Z</time>
      </trkpt>
      <trkpt lat="49.27186" lon="1.14034">
        <ele>108.4</ele>
        <time>2015-09-20T08:35:36Z</time>
      </trkpt>
      <trkpt lat="49.27177" lon="1.14029">
        <ele>108.5</ele>
        <time>2015-09-20T08:35:38Z</time>
      </trkpt>
      <trkpt lat="49.27167" lon="1.14026">
        <ele>108.6</ele>
        <time>2015-09-20T08:35:40Z</time>
      </trkpt>
      <trkpt lat="49.27158" lon="1.14021">
        <ele>108.7</ele>
        <time>2015-09-20T08:35:42Z</time>
      </trkpt>
      <trkpt lat="49.27145" lon="1.14017">
        <ele>108.9</ele>
        <time>2015-09-20T08:35:45Z</time>
      </trkpt>
      <trkpt lat="49.27132" lon="1.14011">
        <ele>109</ele>
        <time>2015-09-20T08:35:48Z</time>
      </trkpt>
      <trkpt lat="49.27123" lon="1.14007">
        <ele>109.1</ele>
        <time>2015-09-20T08:35:50Z</time>
      </trkpt>
      <trkpt lat="49.27113" lon="1.14002">
        <ele>109.3</ele>
        <time>2015-09-20T08:35:52Z</time>
      </trkpt>
      <trkpt lat="49.27104" lon="1.13999">
        <ele>109.4</ele>
        <time>2015-09-20T08:35:54Z</time>
      </trkpt>
      <trkpt lat="49.27096" lon="1.13996">
        <ele>109.6</ele>
        <time>2015-09-20T08:35:56Z</time>
      </trkpt>
      <trkpt lat="49.27086" lon="1.13991">
        <ele>109.7</ele>
        <time>2015-09-20T08:35:58Z</time>
      </trkpt>
      <trkpt lat="49.27077" lon="1.13987">
        <ele>109.8</ele>
        <time>2015-09-20T08:36:00Z</time>
      </trkpt>
      <trkpt lat="49.27068" lon="1.13982">
        <ele>109.9</ele>
        <time>2015-09-20T08:36:02Z</time>
      </trkpt>
      <trkpt lat="49.27059" lon="1.13978">
        <ele>110</ele>
        <time>2015-09-20T08:36:04Z</time>
      </trkpt>
      <trkpt lat="49.2705" lon="1.13975">
        <ele>110.2</ele>
        <time>2015-09-20T08:36:06Z</time>
      </trkpt>
      <trkpt lat="49.27037" lon="1.13971">
        <ele>110.4</ele>
        <time>2015-09-20T08:36:09Z</time>
      </trkpt>
      <trkpt lat="49.27025" lon="1.13967">
        <ele>110.6</ele>
        <time>2015-09-20T08:36:12Z</time>
      </trkpt>
      <trkpt lat="49.27013" lon="1.13961">
        <ele>110.9</ele>
        <time>2015-09-20T08:36:15Z</time>
      </trkpt>
      <trkpt lat="49.27005" lon="1.13956">
        <ele>111</ele>
        <time>2015-09-20T08:36:17Z</time>
      </trkpt>
      <trkpt lat="49.26992" lon="1.13951">
        <ele>111.2</ele>
        <time>2015-09-20T08:36:20Z</time>
      </trkpt>
      <trkpt lat="49.26979" lon="1.13943">
        <ele>111.4</ele>
        <time>2015-09-20T08:36:23Z</time>
      </trkpt>
      <trkpt lat="49.26969" lon="1.13938">
        <ele>111.5</ele>
        <time>2015-09-20T08:36:25Z</time>
      </trkpt>
      <trkpt lat="49.26959" lon="1.13934">
        <ele>111.6</ele>
        <time>2015-09-20T08:36:27Z</time>
      </trkpt>
      <trkpt lat="49.2695" lon="1.13932">
        <ele>111.7</ele>
        <time>2015-09-20T08:36:29Z</time>
      </trkpt>
      <trkpt lat="49.26938" lon="1.13929">
        <ele>111.8</ele>
        <time>2015-09-20T08:36:32Z</time>
      </trkpt>
      <trkpt lat="49.26929" lon="1.13926">
        <ele>111.9</ele>
        <time>2015-09-20T08:36:34Z</time>
      </trkpt>
      <trkpt lat="49.26919" lon="1.13923">
        <ele>112.1</ele>
        <time>2015-09-20T08:36:36Z</time>
      </trkpt>
      <trkpt lat="49.2691" lon="1.1392">
        <ele>112.2</ele>
        <time>2015-09-20T08:36:38Z</time>
      </trkpt>
      <trkpt lat="49.26898" lon="1.13913">
        <ele>112.4</ele>
        <time>2015-09-20T08:36:41Z</time>
      </trkpt>
      <trkpt lat="49.26885" lon="1.13906">
        <ele>112.5</ele>
        <time>2015-09-20T08:36:44Z</time>
      </trkpt>
      <trkpt lat="49.26875" lon="1.13905">
        <ele>112.6</ele>
        <time>2015-09-20T08:36:46Z</time>
      </trkpt>
      <trkpt lat="49.26864" lon="1.13915">
        <ele>112.7</ele>
        <time>2015-09-20T08:36:49Z</time>
      </trkpt>
      <trkpt lat="49.26855" lon="1.13917">
        <ele>112.8</ele>
        <time>2015-09-20T08:36:52Z</time>
      </trkpt>
      <trkpt lat="49.26844" lon="1.13924">
        <ele>112.8</ele>
        <time>2015-09-20T08:36:55Z</time>
      </trkpt>
      <trkpt lat="49.26834" lon="1.13932">
        <ele>112.9</ele>
        <time>2015-09-20T08:36:58Z</time>
      </trkpt>
      <trkpt lat="49.26824" lon="1.13937">
        <ele>113</ele>
        <time>2015-09-20T08:37:01Z</time>
      </trkpt>
      <trkpt lat="49.26818" lon="1.13952">
        <ele>113</ele>
        <time>2015-09-20T08:37:05Z</time>
      </trkpt>
      <trkpt lat="49.26812" lon="1.13964">
        <ele>113.1</ele>
        <time>2015-09-20T08:37:08Z</time>
      </trkpt>
      <trkpt lat="49.26805" lon="1.13974">
        <ele>113.1</ele>
        <time>2015-09-20T08:37:11Z</time>
      </trkpt>
      <trkpt lat="49.26798" lon="1.13988">
        <ele>113.1</ele>
        <time>2015-09-20T08:37:14Z</time>
      </trkpt>
      <trkpt lat="49.26789" lon="1.14003">
        <ele>113.1</ele>
        <time>2015-09-20T08:37:17Z</time>
      </trkpt>
      <trkpt lat="49.26786" lon="1.14018">
        <ele>113.2</ele>
        <time>2015-09-20T08:37:20Z</time>
      </trkpt>
      <trkpt lat="49.26784" lon="1.14037">
        <ele>113.2</ele>
        <time>2015-09-20T08:37:23Z</time>
      </trkpt>
      <trkpt lat="49.26781" lon="1.1405">
        <ele>113.2</ele>
        <time>2015-09-20T08:37:25Z</time>
      </trkpt>
      <trkpt lat="49.26776" lon="1.14068">
        <ele>113.2</ele>
        <time>2015-09-20T08:37:28Z</time>
      </trkpt>
      <trkpt lat="49.26771" lon="1.14081">
        <ele>113.2</ele>
        <time>2015-09-20T08:37:31Z</time>
      </trkpt>
      <trkpt lat="49.26762" lon="1.14093">
        <ele>113.3</ele>
        <time>2015-09-20T08:37:34Z</time>
      </trkpt>
      <trkpt lat="49.26752" lon="1.14108">
        <ele>113.3</ele>
        <time>2015-09-20T08:37:37Z</time>
      </trkpt>
      <trkpt lat="49.26739" lon="1.14116">
        <ele>113.3</ele>
        <time>2015-09-20T08:37:40Z</time>
      </trkpt>
      <trkpt lat="49.26731" lon="1.14125">
        <ele>113.1</ele>
        <time>2015-09-20T08:37:43Z</time>
      </trkpt>
      <trkpt lat="49.26731" lon="1.14142">
        <ele>113</ele>
        <time>2015-09-20T08:37:46Z</time>
      </trkpt>
      <trkpt lat="49.26726" lon="1.14161">
        <ele>112.8</ele>
        <time>2015-09-20T08:37:49Z</time>
      </trkpt>
      <trkpt lat="49.26723" lon="1.14179">
        <ele>112.6</ele>
        <time>2015-09-20T08:37:52Z</time>
      </trkpt>
      <trkpt lat="49.26721" lon="1.14199">
        <ele>112.5</ele>
        <time>2015-09-20T08:37:55Z</time>
      </trkpt>
      <trkpt lat="49.2672" lon="1.14213">
        <ele>112.3</ele>
        <time>2015-09-20T08:37:57Z</time>
      </trkpt>
      <trkpt lat="49.26716" lon="1.14231">
        <ele>112.2</ele>
        <time>2015-09-20T08:38:00Z</time>
      </trkpt>
      <trkpt lat="49.26705" lon="1.14238">
        <ele>111.9</ele>
        <time>2015-09-20T08:38:04Z</time>
      </trkpt>
      <trkpt lat="49.26695" lon="1.14239">
        <ele>111.8</ele>
        <time>2015-09-20T08:38:07Z</time>
      </trkpt>
      <trkpt lat="49.26681" lon="1.14233">
        <ele>111.6</ele>
        <time>2015-09-20T08:38:10Z</time>
      </trkpt>
      <trkpt lat="49.26671" lon="1.1423">
        <ele>111.5</ele>
        <time>2015-09-20T08:38:12Z</time>
      </trkpt>
      <trkpt lat="49.2666" lon="1.14228">
        <ele>111.3</ele>
        <time>2015-09-20T08:38:14Z</time>
      </trkpt>
      <trkpt lat="49.26649" lon="1.14225">
        <ele>111.2</ele>
        <time>2015-09-20T08:38:16Z</time>
      </trkpt>
      <trkpt lat="49.26638" lon="1.14222">
        <ele>111.1</ele>
        <time>2015-09-20T08:38:18Z</time>
      </trkpt>
      <trkpt lat="49.26628" lon="1.14218">
        <ele>111</ele>
        <time>2015-09-20T08:38:20Z</time>
      </trkpt>
      <trkpt lat="49.26619" lon="1.14214">
        <ele>110.8</ele>
        <time>2015-09-20T08:38:22Z</time>
      </trkpt>
      <trkpt lat="49.2661" lon="1.1421">
        <ele>110.6</ele>
        <time>2015-09-20T08:38:24Z</time>
      </trkpt>
      <trkpt lat="49.26598" lon="1.14204">
        <ele>110.4</ele>
        <time>2015-09-20T08:38:26Z</time>
      </trkpt>
      <trkpt lat="49.26586" lon="1.14198">
        <ele>110.2</ele>
        <time>2015-09-20T08:38:28Z</time>
      </trkpt>
      <trkpt lat="49.26576" lon="1.14194">
        <ele>110</ele>
        <time>2015-09-20T08:38:30Z</time>
      </trkpt>
      <trkpt lat="49.26566" lon="1.1419">
        <ele>109.8</ele>
        <time>2015-09-20T08:38:32Z</time>
      </trkpt>
      <trkpt lat="49.26557" lon="1.14184">
        <ele>109.6</ele>
        <time>2015-09-20T08:38:34Z</time>
      </trkpt>
      <trkpt lat="49.26548" lon="1.14181">
        <ele>109.3</ele>
        <time>2015-09-20T08:38:36Z</time>
      </trkpt>
      <trkpt lat="49.26539" lon="1.14177">
        <ele>109.1</ele>
        <time>2015-09-20T08:38:38Z</time>
      </trkpt>
      <trkpt lat="49.26529" lon="1.14175">
        <ele>108.9</ele>
        <time>2015-09-20T08:38:40Z</time>
      </trkpt>
      <trkpt lat="49.26519" lon="1.1417">
        <ele>108.7</ele>
        <time>2015-09-20T08:38:42Z</time>
      </trkpt>
      <trkpt lat="49.26509" lon="1.14161">
        <ele>108.2</ele>
        <time>2015-09-20T08:38:46Z</time>
      </trkpt>
      <trkpt lat="49.26501" lon="1.14155">
        <ele>107.8</ele>
        <time>2015-09-20T08:38:50Z</time>
      </trkpt>
      <trkpt lat="49.26493" lon="1.14148">
        <ele>107</ele>
        <time>2015-09-20T08:38:56Z</time>
      </trkpt>
      <trkpt lat="49.26483" lon="1.14144">
        <ele>106.7</ele>
        <time>2015-09-20T08:39:00Z</time>
      </trkpt>
      <trkpt lat="49.26475" lon="1.14136">
        <ele>106.5</ele>
        <time>2015-09-20T08:39:06Z</time>
      </trkpt>
      <trkpt lat="49.26468" lon="1.1412">
        <ele>106.4</ele>
        <time>2015-09-20T08:39:08Z</time>
      </trkpt>
      <trkpt lat="49.26462" lon="1.1411">
        <ele>106.4</ele>
        <time>2015-09-20T08:39:10Z</time>
      </trkpt>
      <trkpt lat="49.26454" lon="1.14099">
        <ele>106.4</ele>
        <time>2015-09-20T08:39:13Z</time>
      </trkpt>
      <trkpt lat="49.26442" lon="1.14095">
        <ele>106.3</ele>
        <time>2015-09-20T08:39:17Z</time>
      </trkpt>
      <trkpt lat="49.2643" lon="1.141">
        <ele>106.3</ele>
        <time>2015-09-20T08:39:20Z</time>
      </trkpt>
      <trkpt lat="49.26418" lon="1.14102">
        <ele>106.3</ele>
        <time>2015-09-20T08:39:23Z</time>
      </trkpt>
      <trkpt lat="49.26406" lon="1.141">
        <ele>106.3</ele>
        <time>2015-09-20T08:39:26Z</time>
      </trkpt>
      <trkpt lat="49.26398" lon="1.14108">
        <ele>106.2</ele>
        <time>2015-09-20T08:39:29Z</time>
      </trkpt>
      <trkpt lat="49.26387" lon="1.14111">
        <ele>106.1</ele>
        <time>2015-09-20T08:39:33Z</time>
      </trkpt>
      <trkpt lat="49.26375" lon="1.14107">
        <ele>106</ele>
        <time>2015-09-20T08:39:37Z</time>
      </trkpt>
      <trkpt lat="49.26366" lon="1.14101">
        <ele>106</ele>
        <time>2015-09-20T08:39:40Z</time>
      </trkpt>
      <trkpt lat="49.26355" lon="1.14096">
        <ele>105.9</ele>
        <time>2015-09-20T08:39:44Z</time>
      </trkpt>
      <trkpt lat="49.26342" lon="1.14091">
        <ele>105.9</ele>
        <time>2015-09-20T08:39:48Z</time>
      </trkpt>
      <trkpt lat="49.26331" lon="1.14089">
        <ele>105.9</ele>
        <time>2015-09-20T08:39:51Z</time>
      </trkpt>
      <trkpt lat="49.26321" lon="1.14085">
        <ele>105.9</ele>
        <time>2015-09-20T08:39:54Z</time>
      </trkpt>
      <trkpt lat="49.26312" lon="1.14077">
        <ele>105.8</ele>
        <time>2015-09-20T08:39:57Z</time>
      </trkpt>
      <trkpt lat="49.26303" lon="1.14075">
        <ele>105.8</ele>
        <time>2015-09-20T08:40:00Z</time>
      </trkpt>
      <trkpt lat="49.26293" lon="1.14075">
        <ele>105.8</ele>
        <time>2015-09-20T08:40:03Z</time>
      </trkpt>
      <trkpt lat="49.26281" lon="1.14074">
        <ele>105.8</ele>
        <time>2015-09-20T08:40:06Z</time>
      </trkpt>
      <trkpt lat="49.26273" lon="1.14079">
        <ele>105.8</ele>
        <time>2015-09-20T08:40:09Z</time>
      </trkpt>
      <trkpt lat="49.26261" lon="1.14072">
        <ele>105.7</ele>
        <time>2015-09-20T08:40:14Z</time>
      </trkpt>
      <trkpt lat="49.26251" lon="1.14066">
        <ele>105.7</ele>
        <time>2015-09-20T08:40:17Z</time>
      </trkpt>
      <trkpt lat="49.26242" lon="1.14059">
        <ele>105.7</ele>
        <time>2015-09-20T08:40:19Z</time>
      </trkpt>
      <trkpt lat="49.26231" lon="1.14054">
        <ele>105.6</ele>
        <time>2015-09-20T08:40:21Z</time>
      </trkpt>
      <trkpt lat="49.26222" lon="1.14048">
        <ele>105.5</ele>
        <time>2015-09-20T08:40:23Z</time>
      </trkpt>
      <trkpt lat="49.26213" lon="1.14042">
        <ele>105.4</ele>
        <time>2015-09-20T08:40:25Z</time>
      </trkpt>
      <trkpt lat="49.26203" lon="1.14039">
        <ele>105.3</ele>
        <time>2015-09-20T08:40:27Z</time>
      </trkpt>
      <trkpt lat="49.26194" lon="1.14033">
        <ele>105.3</ele>
        <time>2015-09-20T08:40:29Z</time>
      </trkpt>
      <trkpt lat="49.26184" lon="1.14028">
        <ele>105.2</ele>
        <time>2015-09-20T08:40:31Z</time>
      </trkpt>
      <trkpt lat="49.26173" lon="1.14022">
        <ele>104.9</ele>
        <time>2015-09-20T08:40:33Z</time>
      </trkpt>
      <trkpt lat="49.26162" lon="1.14016">
        <ele>104.7</ele>
        <time>2015-09-20T08:40:35Z</time>
      </trkpt>
      <trkpt lat="49.26151" lon="1.14009">
        <ele>104.5</ele>
        <time>2015-09-20T08:40:37Z</time>
      </trkpt>
      <trkpt lat="49.26136" lon="1.14004">
        <ele>104</ele>
        <time>2015-09-20T08:40:40Z</time>
      </trkpt>
      <trkpt lat="49.26124" lon="1.14001">
        <ele>103.7</ele>
        <time>2015-09-20T08:40:42Z</time>
      </trkpt>
      <trkpt lat="49.26114" lon="1.13995">
        <ele>103.5</ele>
        <time>2015-09-20T08:40:44Z</time>
      </trkpt>
      <trkpt lat="49.26104" lon="1.1399">
        <ele>103.2</ele>
        <time>2015-09-20T08:40:46Z</time>
      </trkpt>
      <trkpt lat="49.26092" lon="1.13986">
        <ele>103</ele>
        <time>2015-09-20T08:40:49Z</time>
      </trkpt>
      <trkpt lat="49.26083" lon="1.13977">
        <ele>102.9</ele>
        <time>2015-09-20T08:40:51Z</time>
      </trkpt>
      <trkpt lat="49.26074" lon="1.13972">
        <ele>102.8</ele>
        <time>2015-09-20T08:40:53Z</time>
      </trkpt>
      <trkpt lat="49.26064" lon="1.13969">
        <ele>102.8</ele>
        <time>2015-09-20T08:40:55Z</time>
      </trkpt>
      <trkpt lat="49.26055" lon="1.13965">
        <ele>102.7</ele>
        <time>2015-09-20T08:40:57Z</time>
      </trkpt>
      <trkpt lat="49.26045" lon="1.1396">
        <ele>102.7</ele>
        <time>2015-09-20T08:40:59Z</time>
      </trkpt>
      <trkpt lat="49.26035" lon="1.13958">
        <ele>102.7</ele>
        <time>2015-09-20T08:41:01Z</time>
      </trkpt>
      <trkpt lat="49.26023" lon="1.13955">
        <ele>102.6</ele>
        <time>2015-09-20T08:41:04Z</time>
      </trkpt>
      <trkpt lat="49.26013" lon="1.13946">
        <ele>102.6</ele>
        <time>2015-09-20T08:41:07Z</time>
      </trkpt>
      <trkpt lat="49.26001" lon="1.13939">
        <ele>102.6</ele>
        <time>2015-09-20T08:41:10Z</time>
      </trkpt>
      <trkpt lat="49.25988" lon="1.13934">
        <ele>102.6</ele>
        <time>2015-09-20T08:41:13Z</time>
      </trkpt>
      <trkpt lat="49.25975" lon="1.13931">
        <ele>102.6</ele>
        <time>2015-09-20T08:41:16Z</time>
      </trkpt>
      <trkpt lat="49.25963" lon="1.13926">
        <ele>102.6</ele>
        <time>2015-09-20T08:41:19Z</time>
      </trkpt>
      <trkpt lat="49.25951" lon="1.13922">
        <ele>102.6</ele>
        <time>2015-09-20T08:41:22Z</time>
      </trkpt>
      <trkpt lat="49.25941" lon="1.13916">
        <ele>102.6</ele>
        <time>2015-09-20T08:41:25Z</time>
      </trkpt>
      <trkpt lat="49.25931" lon="1.13913">
        <ele>102.6</ele>
        <time>2015-09-20T08:41:28Z</time>
      </trkpt>
      <trkpt lat="49.2592" lon="1.13908">
        <ele>102.6</ele>
        <time>2015-09-20T08:41:32Z</time>
      </trkpt>
      <trkpt lat="49.2592" lon="1.13891">
        <ele>102.6</ele>
        <time>2015-09-20T08:41:37Z</time>
      </trkpt>
      <trkpt lat="49.25922" lon="1.13875">
        <ele>102.6</ele>
        <time>2015-09-20T08:41:41Z</time>
      </trkpt>
      <trkpt lat="49.25924" lon="1.1386">
        <ele>102.6</ele>
        <time>2015-09-20T08:41:44Z</time>
      </trkpt>
      <trkpt lat="49.25928" lon="1.13847">
        <ele>102.7</ele>
        <time>2015-09-20T08:41:47Z</time>
      </trkpt>
      <trkpt lat="49.25931" lon="1.1383">
        <ele>102.7</ele>
        <time>2015-09-20T08:41:50Z</time>
      </trkpt>
      <trkpt lat="49.25935" lon="1.13815">
        <ele>102.7</ele>
        <time>2015-09-20T08:41:53Z</time>
      </trkpt>
      <trkpt lat="49.25938" lon="1.13801">
        <ele>102.7</ele>
        <time>2015-09-20T08:41:56Z</time>
      </trkpt>
      <trkpt lat="49.25943" lon="1.13788">
        <ele>102.7</ele>
        <time>2015-09-20T08:42:00Z</time>
      </trkpt>
      <trkpt lat="49.25942" lon="1.13773">
        <ele>102.8</ele>
        <time>2015-09-20T08:42:07Z</time>
      </trkpt>
      <trkpt lat="49.25945" lon="1.1376">
        <ele>102.8</ele>
        <time>2015-09-20T08:42:13Z</time>
      </trkpt>
      <trkpt lat="49.25948" lon="1.13746">
        <ele>102.8</ele>
        <time>2015-09-20T08:42:17Z</time>
      </trkpt>
      <trkpt lat="49.25951" lon="1.13733">
        <ele>102.9</ele>
        <time>2015-09-20T08:42:20Z</time>
      </trkpt>
      <trkpt lat="49.25953" lon="1.13716">
        <ele>103</ele>
        <time>2015-09-20T08:42:24Z</time>
      </trkpt>
      <trkpt lat="49.25956" lon="1.13702">
        <ele>103.1</ele>
        <time>2015-09-20T08:42:28Z</time>
      </trkpt>
      <trkpt lat="49.25959" lon="1.13689">
        <ele>103.2</ele>
        <time>2015-09-20T08:42:31Z</time>
      </trkpt>
      <trkpt lat="49.25961" lon="1.13671">
        <ele>103.2</ele>
        <time>2015-09-20T08:42:34Z</time>
      </trkpt>
      <trkpt lat="49.25964" lon="1.13657">
        <ele>103.2</ele>
        <time>2015-09-20T08:42:37Z</time>
      </trkpt>
      <trkpt lat="49.25967" lon="1.13639">
        <ele>103.2</ele>
        <time>2015-09-20T08:42:40Z</time>
      </trkpt>
      <trkpt lat="49.2597" lon="1.13626">
        <ele>103.3</ele>
        <time>2015-09-20T08:42:43Z</time>
      </trkpt>
      <trkpt lat="49.25973" lon="1.13612">
        <ele>103.4</ele>
        <time>2015-09-20T08:42:48Z</time>
      </trkpt>
      <trkpt lat="49.25976" lon="1.13595">
        <ele>103.4</ele>
        <time>2015-09-20T08:42:52Z</time>
      </trkpt>
      <trkpt lat="49.2598" lon="1.13581">
        <ele>103.5</ele>
        <time>2015-09-20T08:42:56Z</time>
      </trkpt>
      <trkpt lat="49.25981" lon="1.13567">
        <ele>103.5</ele>
        <time>2015-09-20T08:43:01Z</time>
      </trkpt>
      <trkpt lat="49.25985" lon="1.13551">
        <ele>103.6</ele>
        <time>2015-09-20T08:43:05Z</time>
      </trkpt>
      <trkpt lat="49.25986" lon="1.13534">
        <ele>103.6</ele>
        <time>2015-09-20T08:43:09Z</time>
      </trkpt>
      <trkpt lat="49.25989" lon="1.13518">
        <ele>103.8</ele>
        <time>2015-09-20T08:43:13Z</time>
      </trkpt>
      <trkpt lat="49.25985" lon="1.13505">
        <ele>103.8</ele>
        <time>2015-09-20T08:43:17Z</time>
      </trkpt>
      <trkpt lat="49.25977" lon="1.13495">
        <ele>104</ele>
        <time>2015-09-20T08:43:21Z</time>
      </trkpt>
      <trkpt lat="49.2598" lon="1.1348">
        <ele>104.1</ele>
        <time>2015-09-20T08:43:25Z</time>
      </trkpt>
      <trkpt lat="49.25983" lon="1.13466">
        <ele>104.2</ele>
        <time>2015-09-20T08:43:28Z</time>
      </trkpt>
      <trkpt lat="49.25986" lon="1.13448">
        <ele>104.2</ele>
        <time>2015-09-20T08:43:32Z</time>
      </trkpt>
      <trkpt lat="49.25988" lon="1.13432">
        <ele>104.4</ele>
        <time>2015-09-20T08:43:36Z</time>
      </trkpt>
      <trkpt lat="49.2599" lon="1.13418">
        <ele>104.4</ele>
        <time>2015-09-20T08:43:39Z</time>
      </trkpt>
      <trkpt lat="49.25994" lon="1.13401">
        <ele>104.5</ele>
        <time>2015-09-20T08:43:43Z</time>
      </trkpt>
      <trkpt lat="49.25998" lon="1.13387">
        <ele>104.6</ele>
        <time>2015-09-20T08:43:46Z</time>
      </trkpt>
      <trkpt lat="49.26001" lon="1.13372">
        <ele>104.7</ele>
        <time>2015-09-20T08:43:49Z</time>
      </trkpt>
      <trkpt lat="49.26004" lon="1.13358">
        <ele>104.8</ele>
        <time>2015-09-20T08:43:52Z</time>
      </trkpt>
      <trkpt lat="49.26007" lon="1.13343">
        <ele>105</ele>
        <time>2015-09-20T08:43:55Z</time>
      </trkpt>
      <trkpt lat="49.26009" lon="1.13327">
        <ele>105.1</ele>
        <time>2015-09-20T08:43:58Z</time>
      </trkpt>
      <trkpt lat="49.26011" lon="1.13312">
        <ele>105.2</ele>
        <time>2015-09-20T08:44:01Z</time>
      </trkpt>
      <trkpt lat="49.26014" lon="1.13295">
        <ele>105.3</ele>
        <time>2015-09-20T08:44:05Z</time>
      </trkpt>
      <trkpt lat="49.26018" lon="1.13281">
        <ele>105.4</ele>
        <time>2015-09-20T08:44:09Z</time>
      </trkpt>
      <trkpt lat="49.26023" lon="1.13265">
        <ele>105.5</ele>
        <time>2015-09-20T08:44:13Z</time>
      </trkpt>
      <trkpt lat="49.26027" lon="1.13251">
        <ele>105.5</ele>
        <time>2015-09-20T08:44:16Z</time>
      </trkpt>
      <trkpt lat="49.2603" lon="1.13236">
        <ele>105.5</ele>
        <time>2015-09-20T08:44:19Z</time>
      </trkpt>
      <trkpt lat="49.26033" lon="1.1322">
        <ele>105.6</ele>
        <time>2015-09-20T08:44:22Z</time>
      </trkpt>
      <trkpt lat="49.26035" lon="1.13204">
        <ele>105.6</ele>
        <time>2015-09-20T08:44:25Z</time>
      </trkpt>
      <trkpt lat="49.26038" lon="1.13188">
        <ele>105.6</ele>
        <time>2015-09-20T08:44:28Z</time>
      </trkpt>
      <trkpt lat="49.26041" lon="1.13171">
        <ele>105.6</ele>
        <time>2015-09-20T08:44:31Z</time>
      </trkpt>
      <trkpt lat="49.26045" lon="1.13155">
        <ele>105.6</ele>
        <time>2015-09-20T08:44:34Z</time>
      </trkpt>
      <trkpt lat="49.26048" lon="1.13138">
        <ele>105.5</ele>
        <time>2015-09-20T08:44:37Z</time>
      </trkpt>
      <trkpt lat="49.26052" lon="1.1312">
        <ele>105.3</ele>
        <time>2015-09-20T08:44:40Z</time>
      </trkpt>
      <trkpt lat="49.26056" lon="1.13105">
        <ele>105.2</ele>
        <time>2015-09-20T08:44:43Z</time>
      </trkpt>
      <trkpt lat="49.26057" lon="1.1309">
        <ele>105.1</ele>
        <time>2015-09-20T08:44:46Z</time>
      </trkpt>
      <trkpt lat="49.26047" lon="1.13081">
        <ele>105</ele>
        <time>2015-09-20T08:44:50Z</time>
      </trkpt>
      <trkpt lat="49.26038" lon="1.13075">
        <ele>104.9</ele>
        <time>2015-09-20T08:44:53Z</time>
      </trkpt>
      <trkpt lat="49.26028" lon="1.1307">
        <ele>104.9</ele>
        <time>2015-09-20T08:44:56Z</time>
      </trkpt>
      <trkpt lat="49.26017" lon="1.13067">
        <ele>104.9</ele>
        <time>2015-09-20T08:44:59Z</time>
      </trkpt>
      <trkpt lat="49.26007" lon="1.13064">
        <ele>104.8</ele>
        <time>2015-09-20T08:45:02Z</time>
      </trkpt>
      <trkpt lat="49.25997" lon="1.13059">
        <ele>104.8</ele>
        <time>2015-09-20T08:45:05Z</time>
      </trkpt>
      <trkpt lat="49.25986" lon="1.13054">
        <ele>104.8</ele>
        <time>2015-09-20T08:45:08Z</time>
      </trkpt>
      <trkpt lat="49.25976" lon="1.13048">
        <ele>104.8</ele>
        <time>2015-09-20T08:45:11Z</time>
      </trkpt>
      <trkpt lat="49.25965" lon="1.13041">
        <ele>104.8</ele>
        <time>2015-09-20T08:45:14Z</time>
      </trkpt>
      <trkpt lat="49.25955" lon="1.13032">
        <ele>104.8</ele>
        <time>2015-09-20T08:45:17Z</time>
      </trkpt>
      <trkpt lat="49.25945" lon="1.13027">
        <ele>104.8</ele>
        <time>2015-09-20T08:45:20Z</time>
      </trkpt>
      <trkpt lat="49.25936" lon="1.13025">
        <ele>104.8</ele>
        <time>2015-09-20T08:45:23Z</time>
      </trkpt>
      <trkpt lat="49.25927" lon="1.13026">
        <ele>104.8</ele>
        <time>2015-09-20T08:45:26Z</time>
      </trkpt>
      <trkpt lat="49.25917" lon="1.13024">
        <ele>104.8</ele>
        <time>2015-09-20T08:45:29Z</time>
      </trkpt>
      <trkpt lat="49.25908" lon="1.13018">
        <ele>104.8</ele>
        <time>2015-09-20T08:45:32Z</time>
      </trkpt>
      <trkpt lat="49.25898" lon="1.13013">
        <ele>104.8</ele>
        <time>2015-09-20T08:45:35Z</time>
      </trkpt>
      <trkpt lat="49.25887" lon="1.13008">
        <ele>104.8</ele>
        <time>2015-09-20T08:45:38Z</time>
      </trkpt>
      <trkpt lat="49.25877" lon="1.13001">
        <ele>104.8</ele>
        <time>2015-09-20T08:45:41Z</time>
      </trkpt>
      <trkpt lat="49.25868" lon="1.12996">
        <ele>104.7</ele>
        <time>2015-09-20T08:45:44Z</time>
      </trkpt>
      <trkpt lat="49.25859" lon="1.12994">
        <ele>104.6</ele>
        <time>2015-09-20T08:45:47Z</time>
      </trkpt>
      <trkpt lat="49.25847" lon="1.12991">
        <ele>104.5</ele>
        <time>2015-09-20T08:45:51Z</time>
      </trkpt>
      <trkpt lat="49.25838" lon="1.12988">
        <ele>104.4</ele>
        <time>2015-09-20T08:45:54Z</time>
      </trkpt>
      <trkpt lat="49.25831" lon="1.12978">
        <ele>104.3</ele>
        <time>2015-09-20T08:45:58Z</time>
      </trkpt>
      <trkpt lat="49.25823" lon="1.12971">
        <ele>104.1</ele>
        <time>2015-09-20T08:46:04Z</time>
      </trkpt>
      <trkpt lat="49.25812" lon="1.12968">
        <ele>103.9</ele>
        <time>2015-09-20T08:46:08Z</time>
      </trkpt>
      <trkpt lat="49.25803" lon="1.12964">
        <ele>103.7</ele>
        <time>2015-09-20T08:46:11Z</time>
      </trkpt>
      <trkpt lat="49.25793" lon="1.12964">
        <ele>103.6</ele>
        <time>2015-09-20T08:46:14Z</time>
      </trkpt>
      <trkpt lat="49.25782" lon="1.12961">
        <ele>103.5</ele>
        <time>2015-09-20T08:46:17Z</time>
      </trkpt>
      <trkpt lat="49.25773" lon="1.12954">
        <ele>103.4</ele>
        <time>2015-09-20T08:46:20Z</time>
      </trkpt>
      <trkpt lat="49.25763" lon="1.12948">
        <ele>103.4</ele>
        <time>2015-09-20T08:46:23Z</time>
      </trkpt>
      <trkpt lat="49.25753" lon="1.12944">
        <ele>103.4</ele>
        <time>2015-09-20T08:46:26Z</time>
      </trkpt>
      <trkpt lat="49.25743" lon="1.12937">
        <ele>103.4</ele>
        <time>2015-09-20T08:46:29Z</time>
      </trkpt>
      <trkpt lat="49.25733" lon="1.1293">
        <ele>103.4</ele>
        <time>2015-09-20T08:46:32Z</time>
      </trkpt>
      <trkpt lat="49.25721" lon="1.12924">
        <ele>103.4</ele>
        <time>2015-09-20T08:46:35Z</time>
      </trkpt>
      <trkpt lat="49.25711" lon="1.12918">
        <ele>103.4</ele>
        <time>2015-09-20T08:46:38Z</time>
      </trkpt>
      <trkpt lat="49.257" lon="1.12913">
        <ele>103.3</ele>
        <time>2015-09-20T08:46:41Z</time>
      </trkpt>
      <trkpt lat="49.25688" lon="1.12907">
        <ele>103.2</ele>
        <time>2015-09-20T08:46:44Z</time>
      </trkpt>
      <trkpt lat="49.25677" lon="1.12902">
        <ele>103</ele>
        <time>2015-09-20T08:46:47Z</time>
      </trkpt>
      <trkpt lat="49.25665" lon="1.12895">
        <ele>102.7</ele>
        <time>2015-09-20T08:46:50Z</time>
      </trkpt>
      <trkpt lat="49.25656" lon="1.12891">
        <ele>102.5</ele>
        <time>2015-09-20T08:46:52Z</time>
      </trkpt>
      <trkpt lat="49.25643" lon="1.12887">
        <ele>102.1</ele>
        <time>2015-09-20T08:46:55Z</time>
      </trkpt>
      <trkpt lat="49.25631" lon="1.1288">
        <ele>102</ele>
        <time>2015-09-20T08:46:58Z</time>
      </trkpt>
      <trkpt lat="49.25619" lon="1.12874">
        <ele>101.9</ele>
        <time>2015-09-20T08:47:01Z</time>
      </trkpt>
      <trkpt lat="49.2561" lon="1.12872">
        <ele>101.9</ele>
        <time>2015-09-20T08:47:03Z</time>
      </trkpt>
      <trkpt lat="49.25601" lon="1.12872">
        <ele>101.8</ele>
        <time>2015-09-20T08:47:05Z</time>
      </trkpt>
      <trkpt lat="49.25592" lon="1.12886">
        <ele>101.6</ele>
        <time>2015-09-20T08:47:08Z</time>
      </trkpt>
      <trkpt lat="49.2559" lon="1.129">
        <ele>101.4</ele>
        <time>2015-09-20T08:47:10Z</time>
      </trkpt>
      <trkpt lat="49.25585" lon="1.1292">
        <ele>101.2</ele>
        <time>2015-09-20T08:47:13Z</time>
      </trkpt>
      <trkpt lat="49.25582" lon="1.12934">
        <ele>101</ele>
        <time>2015-09-20T08:47:15Z</time>
      </trkpt>
      <trkpt lat="49.25579" lon="1.12948">
        <ele>100.9</ele>
        <time>2015-09-20T08:47:17Z</time>
      </trkpt>
      <trkpt lat="49.25576" lon="1.12962">
        <ele>100.9</ele>
        <time>2015-09-20T08:47:19Z</time>
      </trkpt>
      <trkpt lat="49.25573" lon="1.12976">
        <ele>100.9</ele>
        <time>2015-09-20T08:47:21Z</time>
      </trkpt>
      <trkpt lat="49.2557" lon="1.12991">
        <ele>100.9</ele>
        <time>2015-09-20T08:47:23Z</time>
      </trkpt>
      <trkpt lat="49.25567" lon="1.13004">
        <ele>100.8</ele>
        <time>2015-09-20T08:47:25Z</time>
      </trkpt>
      <trkpt lat="49.25564" lon="1.13018">
        <ele>100.8</ele>
        <time>2015-09-20T08:47:27Z</time>
      </trkpt>
      <trkpt lat="49.25561" lon="1.13032">
        <ele>100.8</ele>
        <time>2015-09-20T08:47:29Z</time>
      </trkpt>
      <trkpt lat="49.25558" lon="1.13046">
        <ele>100.8</ele>
        <time>2015-09-20T08:47:31Z</time>
      </trkpt>
      <trkpt lat="49.25555" lon="1.13062">
        <ele>100.9</ele>
        <time>2015-09-20T08:47:33Z</time>
      </trkpt>
      <trkpt lat="49.25552" lon="1.13078">
        <ele>101</ele>
        <time>2015-09-20T08:47:35Z</time>
      </trkpt>
      <trkpt lat="49.25549" lon="1.13093">
        <ele>101.1</ele>
        <time>2015-09-20T08:47:37Z</time>
      </trkpt>
      <trkpt lat="49.25546" lon="1.13108">
        <ele>101.2</ele>
        <time>2015-09-20T08:47:39Z</time>
      </trkpt>
      <trkpt lat="49.25543" lon="1.13123">
        <ele>101.2</ele>
        <time>2015-09-20T08:47:41Z</time>
      </trkpt>
      <trkpt lat="49.2554" lon="1.13137">
        <ele>101.3</ele>
        <time>2015-09-20T08:47:43Z</time>
      </trkpt>
      <trkpt lat="49.25537" lon="1.13152">
        <ele>101.3</ele>
        <time>2015-09-20T08:47:45Z</time>
      </trkpt>
      <trkpt lat="49.25534" lon="1.13166">
        <ele>101.4</ele>
        <time>2015-09-20T08:47:47Z</time>
      </trkpt>
      <trkpt lat="49.25531" lon="1.1318">
        <ele>101.4</ele>
        <time>2015-09-20T08:47:49Z</time>
      </trkpt>
      <trkpt lat="49.25528" lon="1.13195">
        <ele>101.5</ele>
        <time>2015-09-20T08:47:51Z</time>
      </trkpt>
      <trkpt lat="49.25526" lon="1.13208">
        <ele>101.5</ele>
        <time>2015-09-20T08:47:53Z</time>
      </trkpt>
      <trkpt lat="49.25523" lon="1.13227">
        <ele>101.6</ele>
        <time>2015-09-20T08:47:56Z</time>
      </trkpt>
      <trkpt lat="49.2552" lon="1.13242">
        <ele>101.7</ele>
        <time>2015-09-20T08:48:00Z</time>
      </trkpt>
      <trkpt lat="49.25517" lon="1.13256">
        <ele>101.9</ele>
        <time>2015-09-20T08:48:07Z</time>
      </trkpt>
      <trkpt lat="49.25517" lon="1.1327">
        <ele>102.1</ele>
        <time>2015-09-20T08:48:23Z</time>
      </trkpt>
      <trkpt lat="49.25508" lon="1.13272">
        <ele>102.6</ele>
        <time>2015-09-20T08:50:14Z</time>
      </trkpt>
      <trkpt lat="49.255" lon="1.1328">
        <ele>104</ele>
        <time>2015-09-20T08:51:54Z</time>
      </trkpt>
      <trkpt lat="49.2549" lon="1.13277">
        <ele>104.1</ele>
        <time>2015-09-20T08:51:59Z</time>
      </trkpt>
      <trkpt lat="49.2548" lon="1.13276">
        <ele>104.1</ele>
        <time>2015-09-20T08:52:03Z</time>
      </trkpt>
      <trkpt lat="49.25471" lon="1.13274">
        <ele>104</ele>
        <time>2015-09-20T08:52:06Z</time>
      </trkpt>
      <trkpt lat="49.2546" lon="1.13269">
        <ele>103.9</ele>
        <time>2015-09-20T08:52:09Z</time>
      </trkpt>
      <trkpt lat="49.2545" lon="1.13265">
        <ele>103.9</ele>
        <time>2015-09-20T08:52:11Z</time>
      </trkpt>
      <trkpt lat="49.25438" lon="1.1326">
        <ele>103.9</ele>
        <time>2015-09-20T08:52:14Z</time>
      </trkpt>
      <trkpt lat="49.25425" lon="1.13255">
        <ele>103.9</ele>
        <time>2015-09-20T08:52:17Z</time>
      </trkpt>
      <trkpt lat="49.25416" lon="1.13252">
        <ele>103.8</ele>
        <time>2015-09-20T08:52:19Z</time>
      </trkpt>
      <trkpt lat="49.25404" lon="1.13247">
        <ele>103.7</ele>
        <time>2015-09-20T08:52:22Z</time>
      </trkpt>
      <trkpt lat="49.25394" lon="1.13242">
        <ele>103.5</ele>
        <time>2015-09-20T08:52:24Z</time>
      </trkpt>
      <trkpt lat="49.25384" lon="1.13237">
        <ele>103.3</ele>
        <time>2015-09-20T08:52:26Z</time>
      </trkpt>
      <trkpt lat="49.25373" lon="1.13232">
        <ele>103.2</ele>
        <time>2015-09-20T08:52:28Z</time>
      </trkpt>
      <trkpt lat="49.25364" lon="1.13226">
        <ele>103</ele>
        <time>2015-09-20T08:52:30Z</time>
      </trkpt>
      <trkpt lat="49.25353" lon="1.13218">
        <ele>102.7</ele>
        <time>2015-09-20T08:52:32Z</time>
      </trkpt>
      <trkpt lat="49.25342" lon="1.13221">
        <ele>102.2</ele>
        <time>2015-09-20T08:52:36Z</time>
      </trkpt>
      <trkpt lat="49.25337" lon="1.13234">
        <ele>101.8</ele>
        <time>2015-09-20T08:52:39Z</time>
      </trkpt>
      <trkpt lat="49.2533" lon="1.13249">
        <ele>101.4</ele>
        <time>2015-09-20T08:52:43Z</time>
      </trkpt>
      <trkpt lat="49.25328" lon="1.13264">
        <ele>101.1</ele>
        <time>2015-09-20T08:52:47Z</time>
      </trkpt>
      <trkpt lat="49.25326" lon="1.13277">
        <ele>100.8</ele>
        <time>2015-09-20T08:52:51Z</time>
      </trkpt>
      <trkpt lat="49.25322" lon="1.13292">
        <ele>100.6</ele>
        <time>2015-09-20T08:52:56Z</time>
      </trkpt>
      <trkpt lat="49.25322" lon="1.13306">
        <ele>100.5</ele>
        <time>2015-09-20T08:53:00Z</time>
      </trkpt>
      <trkpt lat="49.2532" lon="1.1332">
        <ele>100.5</ele>
        <time>2015-09-20T08:53:03Z</time>
      </trkpt>
      <trkpt lat="49.2532" lon="1.13333">
        <ele>100.4</ele>
        <time>2015-09-20T08:53:07Z</time>
      </trkpt>
      <trkpt lat="49.25316" lon="1.13353">
        <ele>100.4</ele>
        <time>2015-09-20T08:53:13Z</time>
      </trkpt>
      <trkpt lat="49.2531" lon="1.13366">
        <ele>100.5</ele>
        <time>2015-09-20T08:53:18Z</time>
      </trkpt>
      <trkpt lat="49.25308" lon="1.1338">
        <ele>100.6</ele>
        <time>2015-09-20T08:53:21Z</time>
      </trkpt>
      <trkpt lat="49.25306" lon="1.13394">
        <ele>100.7</ele>
        <time>2015-09-20T08:53:25Z</time>
      </trkpt>
      <trkpt lat="49.25304" lon="1.13408">
        <ele>101</ele>
        <time>2015-09-20T08:53:30Z</time>
      </trkpt>
      <trkpt lat="49.25302" lon="1.13422">
        <ele>101.2</ele>
        <time>2015-09-20T08:53:34Z</time>
      </trkpt>
      <trkpt lat="49.25298" lon="1.13436">
        <ele>101.4</ele>
        <time>2015-09-20T08:53:39Z</time>
      </trkpt>
      <trkpt lat="49.25297" lon="1.1345">
        <ele>101.7</ele>
        <time>2015-09-20T08:53:46Z</time>
      </trkpt>
      <trkpt lat="49.25292" lon="1.13464">
        <ele>102</ele>
        <time>2015-09-20T08:53:51Z</time>
      </trkpt>
      <trkpt lat="49.2529" lon="1.13479">
        <ele>102.2</ele>
        <time>2015-09-20T08:53:57Z</time>
      </trkpt>
      <trkpt lat="49.25285" lon="1.13492">
        <ele>102.4</ele>
        <time>2015-09-20T08:54:02Z</time>
      </trkpt>
      <trkpt lat="49.25281" lon="1.13509">
        <ele>102.6</ele>
        <time>2015-09-20T08:54:07Z</time>
      </trkpt>
      <trkpt lat="49.2528" lon="1.13524">
        <ele>102.7</ele>
        <time>2015-09-20T08:54:11Z</time>
      </trkpt>
      <trkpt lat="49.25276" lon="1.13539">
        <ele>102.8</ele>
        <time>2015-09-20T08:54:15Z</time>
      </trkpt>
      <trkpt lat="49.25274" lon="1.13553">
        <ele>102.9</ele>
        <time>2015-09-20T08:54:19Z</time>
      </trkpt>
      <trkpt lat="49.2527" lon="1.13569">
        <ele>103</ele>
        <time>2015-09-20T08:54:23Z</time>
      </trkpt>
      <trkpt lat="49.25266" lon="1.13581">
        <ele>103.2</ele>
        <time>2015-09-20T08:54:27Z</time>
      </trkpt>
      <trkpt lat="49.25266" lon="1.13595">
        <ele>103.3</ele>
        <time>2015-09-20T08:54:30Z</time>
      </trkpt>
      <trkpt lat="49.25264" lon="1.13609">
        <ele>103.4</ele>
        <time>2015-09-20T08:54:35Z</time>
      </trkpt>
      <trkpt lat="49.25258" lon="1.13625">
        <ele>103.5</ele>
        <time>2015-09-20T08:54:39Z</time>
      </trkpt>
      <trkpt lat="49.25256" lon="1.1364">
        <ele>103.4</ele>
        <time>2015-09-20T08:54:42Z</time>
      </trkpt>
      <trkpt lat="49.25253" lon="1.13657">
        <ele>103.3</ele>
        <time>2015-09-20T08:54:45Z</time>
      </trkpt>
      <trkpt lat="49.2525" lon="1.1367">
        <ele>103.2</ele>
        <time>2015-09-20T08:54:48Z</time>
      </trkpt>
      <trkpt lat="49.25247" lon="1.13683">
        <ele>103.1</ele>
        <time>2015-09-20T08:54:51Z</time>
      </trkpt>
      <trkpt lat="49.25244" lon="1.13698">
        <ele>103.1</ele>
        <time>2015-09-20T08:54:54Z</time>
      </trkpt>
      <trkpt lat="49.25243" lon="1.13713">
        <ele>103</ele>
        <time>2015-09-20T08:54:57Z</time>
      </trkpt>
      <trkpt lat="49.25241" lon="1.1373">
        <ele>103</ele>
        <time>2015-09-20T08:55:00Z</time>
      </trkpt>
      <trkpt lat="49.2524" lon="1.13746">
        <ele>103</ele>
        <time>2015-09-20T08:55:03Z</time>
      </trkpt>
      <trkpt lat="49.2524" lon="1.1376">
        <ele>102.9</ele>
        <time>2015-09-20T08:55:06Z</time>
      </trkpt>
      <trkpt lat="49.2524" lon="1.13777">
        <ele>102.8</ele>
        <time>2015-09-20T08:55:09Z</time>
      </trkpt>
      <trkpt lat="49.25236" lon="1.13795">
        <ele>102.6</ele>
        <time>2015-09-20T08:55:11Z</time>
      </trkpt>
      <trkpt lat="49.25233" lon="1.13809">
        <ele>102.4</ele>
        <time>2015-09-20T08:55:13Z</time>
      </trkpt>
      <trkpt lat="49.25231" lon="1.13826">
        <ele>102.1</ele>
        <time>2015-09-20T08:55:16Z</time>
      </trkpt>
      <trkpt lat="49.25229" lon="1.13842">
        <ele>101.9</ele>
        <time>2015-09-20T08:55:18Z</time>
      </trkpt>
      <trkpt lat="49.25228" lon="1.13856">
        <ele>101.7</ele>
        <time>2015-09-20T08:55:20Z</time>
      </trkpt>
      <trkpt lat="49.25222" lon="1.13873">
        <ele>101.5</ele>
        <time>2015-09-20T08:55:23Z</time>
      </trkpt>
      <trkpt lat="49.25217" lon="1.13887">
        <ele>101.4</ele>
        <time>2015-09-20T08:55:26Z</time>
      </trkpt>
      <trkpt lat="49.25213" lon="1.13903">
        <ele>101.3</ele>
        <time>2015-09-20T08:55:30Z</time>
      </trkpt>
      <trkpt lat="49.25212" lon="1.13918">
        <ele>101.3</ele>
        <time>2015-09-20T08:55:33Z</time>
      </trkpt>
      <trkpt lat="49.25209" lon="1.13933">
        <ele>101.3</ele>
        <time>2015-09-20T08:55:36Z</time>
      </trkpt>
      <trkpt lat="49.25205" lon="1.13948">
        <ele>101.3</ele>
        <time>2015-09-20T08:55:39Z</time>
      </trkpt>
      <trkpt lat="49.25201" lon="1.13961">
        <ele>101.3</ele>
        <time>2015-09-20T08:55:42Z</time>
      </trkpt>
      <trkpt lat="49.25194" lon="1.13978">
        <ele>101.1</ele>
        <time>2015-09-20T08:55:47Z</time>
      </trkpt>
      <trkpt lat="49.25186" lon="1.1399">
        <ele>100.8</ele>
        <time>2015-09-20T08:55:50Z</time>
      </trkpt>
      <trkpt lat="49.25176" lon="1.14001">
        <ele>100.6</ele>
        <time>2015-09-20T08:55:53Z</time>
      </trkpt>
      <trkpt lat="49.25167" lon="1.14017">
        <ele>100.2</ele>
        <time>2015-09-20T08:55:57Z</time>
      </trkpt>
      <trkpt lat="49.25157" lon="1.1403">
        <ele>100</ele>
        <time>2015-09-20T08:56:00Z</time>
      </trkpt>
      <trkpt lat="49.25149" lon="1.14044">
        <ele>99.8</ele>
        <time>2015-09-20T08:56:02Z</time>
      </trkpt>
      <trkpt lat="49.25141" lon="1.14055">
        <ele>99.6</ele>
        <time>2015-09-20T08:56:04Z</time>
      </trkpt>
      <trkpt lat="49.25131" lon="1.14071">
        <ele>99.2</ele>
        <time>2015-09-20T08:56:07Z</time>
      </trkpt>
      <trkpt lat="49.25124" lon="1.14082">
        <ele>99</ele>
        <time>2015-09-20T08:56:09Z</time>
      </trkpt>
      <trkpt lat="49.25117" lon="1.14095">
        <ele>98.8</ele>
        <time>2015-09-20T08:56:11Z</time>
      </trkpt>
      <trkpt lat="49.25111" lon="1.14109">
        <ele>98.7</ele>
        <time>2015-09-20T08:56:13Z</time>
      </trkpt>
      <trkpt lat="49.25105" lon="1.14121">
        <ele>98.3</ele>
        <time>2015-09-20T08:56:15Z</time>
      </trkpt>
      <trkpt lat="49.251" lon="1.14134">
        <ele>97.9</ele>
        <time>2015-09-20T08:56:17Z</time>
      </trkpt>
      <trkpt lat="49.25096" lon="1.14147">
        <ele>97.6</ele>
        <time>2015-09-20T08:56:19Z</time>
      </trkpt>
      <trkpt lat="49.25093" lon="1.14161">
        <ele>97.3</ele>
        <time>2015-09-20T08:56:21Z</time>
      </trkpt>
      <trkpt lat="49.25089" lon="1.14179">
        <ele>96.9</ele>
        <time>2015-09-20T08:56:24Z</time>
      </trkpt>
      <trkpt lat="49.25088" lon="1.14195">
        <ele>96.7</ele>
        <time>2015-09-20T08:56:26Z</time>
      </trkpt>
      <trkpt lat="49.25087" lon="1.1421">
        <ele>96.4</ele>
        <time>2015-09-20T08:56:28Z</time>
      </trkpt>
      <trkpt lat="49.25088" lon="1.1423">
        <ele>96.2</ele>
        <time>2015-09-20T08:56:31Z</time>
      </trkpt>
      <trkpt lat="49.25088" lon="1.14247">
        <ele>96</ele>
        <time>2015-09-20T08:56:33Z</time>
      </trkpt>
      <trkpt lat="49.25091" lon="1.14267">
        <ele>95.7</ele>
        <time>2015-09-20T08:56:36Z</time>
      </trkpt>
      <trkpt lat="49.25093" lon="1.14281">
        <ele>95.5</ele>
        <time>2015-09-20T08:56:38Z</time>
      </trkpt>
      <trkpt lat="49.25094" lon="1.14295">
        <ele>95.4</ele>
        <time>2015-09-20T08:56:40Z</time>
      </trkpt>
      <trkpt lat="49.25097" lon="1.14313">
        <ele>95.2</ele>
        <time>2015-09-20T08:56:43Z</time>
      </trkpt>
      <trkpt lat="49.251" lon="1.14331">
        <ele>95.1</ele>
        <time>2015-09-20T08:56:46Z</time>
      </trkpt>
      <trkpt lat="49.25105" lon="1.14349">
        <ele>95</ele>
        <time>2015-09-20T08:56:49Z</time>
      </trkpt>
      <trkpt lat="49.25106" lon="1.14369">
        <ele>95</ele>
        <time>2015-09-20T08:56:52Z</time>
      </trkpt>
      <trkpt lat="49.25105" lon="1.14384">
        <ele>95</ele>
        <time>2015-09-20T08:56:55Z</time>
      </trkpt>
      <trkpt lat="49.25107" lon="1.14404">
        <ele>95</ele>
        <time>2015-09-20T08:56:58Z</time>
      </trkpt>
      <trkpt lat="49.25107" lon="1.14426">
        <ele>95</ele>
        <time>2015-09-20T08:57:01Z</time>
      </trkpt>
      <trkpt lat="49.25108" lon="1.14441">
        <ele>95</ele>
        <time>2015-09-20T08:57:03Z</time>
      </trkpt>
      <trkpt lat="49.25109" lon="1.14455">
        <ele>95</ele>
        <time>2015-09-20T08:57:05Z</time>
      </trkpt>
      <trkpt lat="49.25109" lon="1.14474">
        <ele>95.1</ele>
        <time>2015-09-20T08:57:08Z</time>
      </trkpt>
      <trkpt lat="49.25108" lon="1.14489">
        <ele>95.1</ele>
        <time>2015-09-20T08:57:10Z</time>
      </trkpt>
      <trkpt lat="49.25108" lon="1.14504">
        <ele>95.2</ele>
        <time>2015-09-20T08:57:12Z</time>
      </trkpt>
      <trkpt lat="49.25107" lon="1.1452">
        <ele>95.2</ele>
        <time>2015-09-20T08:57:14Z</time>
      </trkpt>
      <trkpt lat="49.25106" lon="1.14538">
        <ele>95.3</ele>
        <time>2015-09-20T08:57:17Z</time>
      </trkpt>
      <trkpt lat="49.25105" lon="1.14556">
        <ele>95.3</ele>
        <time>2015-09-20T08:57:20Z</time>
      </trkpt>
      <trkpt lat="49.25104" lon="1.14571">
        <ele>95.3</ele>
        <time>2015-09-20T08:57:22Z</time>
      </trkpt>
      <trkpt lat="49.25102" lon="1.14586">
        <ele>95.2</ele>
        <time>2015-09-20T08:57:24Z</time>
      </trkpt>
      <trkpt lat="49.251" lon="1.14603">
        <ele>95.1</ele>
        <time>2015-09-20T08:57:26Z</time>
      </trkpt>
      <trkpt lat="49.251" lon="1.14619">
        <ele>95.1</ele>
        <time>2015-09-20T08:57:28Z</time>
      </trkpt>
      <trkpt lat="49.25099" lon="1.14635">
        <ele>95</ele>
        <time>2015-09-20T08:57:30Z</time>
      </trkpt>
      <trkpt lat="49.25095" lon="1.1465">
        <ele>95</ele>
        <time>2015-09-20T08:57:32Z</time>
      </trkpt>
      <trkpt lat="49.25085" lon="1.14651">
        <ele>94.8</ele>
        <time>2015-09-20T08:57:36Z</time>
      </trkpt>
      <trkpt lat="49.25074" lon="1.14644">
        <ele>94.1</ele>
        <time>2015-09-20T08:57:40Z</time>
      </trkpt>
      <trkpt lat="49.25063" lon="1.14639">
        <ele>92.8</ele>
        <time>2015-09-20T08:57:44Z</time>
      </trkpt>
      <trkpt lat="49.25054" lon="1.14636">
        <ele>90.7</ele>
        <time>2015-09-20T08:57:49Z</time>
      </trkpt>
      <trkpt lat="49.25045" lon="1.1463">
        <ele>88.4</ele>
        <time>2015-09-20T08:57:53Z</time>
      </trkpt>
      <trkpt lat="49.25037" lon="1.14626">
        <ele>85.9</ele>
        <time>2015-09-20T08:57:57Z</time>
      </trkpt>
      <trkpt lat="49.25025" lon="1.14623">
        <ele>82.7</ele>
        <time>2015-09-20T08:58:02Z</time>
      </trkpt>
      <trkpt lat="49.25016" lon="1.1462">
        <ele>80.5</ele>
        <time>2015-09-20T08:58:05Z</time>
      </trkpt>
      <trkpt lat="49.25007" lon="1.14616">
        <ele>78.4</ele>
        <time>2015-09-20T08:58:08Z</time>
      </trkpt>
      <trkpt lat="49.24994" lon="1.14612">
        <ele>75.5</ele>
        <time>2015-09-20T08:58:12Z</time>
      </trkpt>
      <trkpt lat="49.24984" lon="1.14608">
        <ele>73.1</ele>
        <time>2015-09-20T08:58:15Z</time>
      </trkpt>
      <trkpt lat="49.24975" lon="1.14604">
        <ele>70.6</ele>
        <time>2015-09-20T08:58:18Z</time>
      </trkpt>
      <trkpt lat="49.24965" lon="1.14599">
        <ele>67.3</ele>
        <time>2015-09-20T08:58:22Z</time>
      </trkpt>
      <trkpt lat="49.24955" lon="1.14593">
        <ele>63.5</ele>
        <time>2015-09-20T08:58:27Z</time>
      </trkpt>
      <trkpt lat="49.24945" lon="1.14593">
        <ele>61.3</ele>
        <time>2015-09-20T08:58:30Z</time>
      </trkpt>
      <trkpt lat="49.24936" lon="1.14592">
        <ele>59.2</ele>
        <time>2015-09-20T08:58:33Z</time>
      </trkpt>
      <trkpt lat="49.24927" lon="1.14586">
        <ele>56.5</ele>
        <time>2015-09-20T08:58:37Z</time>
      </trkpt>
      <trkpt lat="49.2492" lon="1.14578">
        <ele>54.1</ele>
        <time>2015-09-20T08:58:41Z</time>
      </trkpt>
      <trkpt lat="49.2491" lon="1.14574">
        <ele>52.5</ele>
        <time>2015-09-20T08:58:44Z</time>
      </trkpt>
      <trkpt lat="49.24899" lon="1.14571">
        <ele>50.7</ele>
        <time>2015-09-20T08:58:48Z</time>
      </trkpt>
      <trkpt lat="49.24888" lon="1.14567">
        <ele>49</ele>
        <time>2015-09-20T08:58:53Z</time>
      </trkpt>
      <trkpt lat="49.24877" lon="1.14564">
        <ele>48</ele>
        <time>2015-09-20T08:58:57Z</time>
      </trkpt>
      <trkpt lat="49.24867" lon="1.14561">
        <ele>47.3</ele>
        <time>2015-09-20T08:59:01Z</time>
      </trkpt>
      <trkpt lat="49.24858" lon="1.14558">
        <ele>46.7</ele>
        <time>2015-09-20T08:59:05Z</time>
      </trkpt>
      <trkpt lat="49.24849" lon="1.14553">
        <ele>46.1</ele>
        <time>2015-09-20T08:59:10Z</time>
      </trkpt>
      <trkpt lat="49.2484" lon="1.14545">
        <ele>45.9</ele>
        <time>2015-09-20T08:59:14Z</time>
      </trkpt>
      <trkpt lat="49.2483" lon="1.14541">
        <ele>46</ele>
        <time>2015-09-20T08:59:18Z</time>
      </trkpt>
      <trkpt lat="49.24821" lon="1.14537">
        <ele>46.3</ele>
        <time>2015-09-20T08:59:22Z</time>
      </trkpt>
      <trkpt lat="49.24811" lon="1.14532">
        <ele>46.7</ele>
        <time>2015-09-20T08:59:26Z</time>
      </trkpt>
      <trkpt lat="49.24802" lon="1.14527">
        <ele>47.2</ele>
        <time>2015-09-20T08:59:30Z</time>
      </trkpt>
      <trkpt lat="49.24792" lon="1.14524">
        <ele>48</ele>
        <time>2015-09-20T08:59:35Z</time>
      </trkpt>
      <trkpt lat="49.24781" lon="1.14518">
        <ele>49</ele>
        <time>2015-09-20T08:59:40Z</time>
      </trkpt>
      <trkpt lat="49.24772" lon="1.14515">
        <ele>50.2</ele>
        <time>2015-09-20T08:59:45Z</time>
      </trkpt>
      <trkpt lat="49.24762" lon="1.1451">
        <ele>51.7</ele>
        <time>2015-09-20T08:59:51Z</time>
      </trkpt>
      <trkpt lat="49.24757" lon="1.14499">
        <ele>53.8</ele>
        <time>2015-09-20T08:59:59Z</time>
      </trkpt>
      <trkpt lat="49.24757" lon="1.14484">
        <ele>55.7</ele>
        <time>2015-09-20T09:00:08Z</time>
      </trkpt>
      <trkpt lat="49.24753" lon="1.1447">
        <ele>57.1</ele>
        <time>2015-09-20T09:00:15Z</time>
      </trkpt>
      <trkpt lat="49.24745" lon="1.14462">
        <ele>58.2</ele>
        <time>2015-09-20T09:00:20Z</time>
      </trkpt>
      <trkpt lat="49.24739" lon="1.14475">
        <ele>61.3</ele>
        <time>2015-09-20T09:00:34Z</time>
      </trkpt>
      <trkpt lat="49.2474" lon="1.14491">
        <ele>61.8</ele>
        <time>2015-09-20T09:00:38Z</time>
      </trkpt>
      <trkpt lat="49.24741" lon="1.14507">
        <ele>62.1</ele>
        <time>2015-09-20T09:00:41Z</time>
      </trkpt>
      <trkpt lat="49.24742" lon="1.14525">
        <ele>62.4</ele>
        <time>2015-09-20T09:00:44Z</time>
      </trkpt>
      <trkpt lat="49.24743" lon="1.14544">
        <ele>62.7</ele>
        <time>2015-09-20T09:00:47Z</time>
      </trkpt>
      <trkpt lat="49.24744" lon="1.14564">
        <ele>62.9</ele>
        <time>2015-09-20T09:00:50Z</time>
      </trkpt>
      <trkpt lat="49.24745" lon="1.14579">
        <ele>63</ele>
        <time>2015-09-20T09:00:52Z</time>
      </trkpt>
      <trkpt lat="49.24746" lon="1.14593">
        <ele>63.1</ele>
        <time>2015-09-20T09:00:54Z</time>
      </trkpt>
      <trkpt lat="49.24746" lon="1.14607">
        <ele>63.1</ele>
        <time>2015-09-20T09:00:56Z</time>
      </trkpt>
      <trkpt lat="49.24747" lon="1.14622">
        <ele>63.1</ele>
        <time>2015-09-20T09:00:58Z</time>
      </trkpt>
      <trkpt lat="49.24748" lon="1.14637">
        <ele>63.1</ele>
        <time>2015-09-20T09:01:00Z</time>
      </trkpt>
      <trkpt lat="49.24749" lon="1.14652">
        <ele>63.1</ele>
        <time>2015-09-20T09:01:02Z</time>
      </trkpt>
      <trkpt lat="49.2475" lon="1.14668">
        <ele>63.1</ele>
        <time>2015-09-20T09:01:04Z</time>
      </trkpt>
      <trkpt lat="49.24751" lon="1.14684">
        <ele>63.1</ele>
        <time>2015-09-20T09:01:06Z</time>
      </trkpt>
      <trkpt lat="49.24752" lon="1.147">
        <ele>63.1</ele>
        <time>2015-09-20T09:01:08Z</time>
      </trkpt>
      <trkpt lat="49.24753" lon="1.14715">
        <ele>63.2</ele>
        <time>2015-09-20T09:01:10Z</time>
      </trkpt>
      <trkpt lat="49.24754" lon="1.14732">
        <ele>63.2</ele>
        <time>2015-09-20T09:01:12Z</time>
      </trkpt>
      <trkpt lat="49.24754" lon="1.14748">
        <ele>63</ele>
        <time>2015-09-20T09:01:14Z</time>
      </trkpt>
      <trkpt lat="49.24754" lon="1.14764">
        <ele>63</ele>
        <time>2015-09-20T09:01:16Z</time>
      </trkpt>
      <trkpt lat="49.24754" lon="1.1478">
        <ele>62.9</ele>
        <time>2015-09-20T09:01:18Z</time>
      </trkpt>
      <trkpt lat="49.24754" lon="1.14796">
        <ele>62.8</ele>
        <time>2015-09-20T09:01:20Z</time>
      </trkpt>
      <trkpt lat="49.24753" lon="1.14813">
        <ele>62.8</ele>
        <time>2015-09-20T09:01:22Z</time>
      </trkpt>
      <trkpt lat="49.24751" lon="1.1483">
        <ele>62.7</ele>
        <time>2015-09-20T09:01:24Z</time>
      </trkpt>
      <trkpt lat="49.2475" lon="1.14846">
        <ele>62.5</ele>
        <time>2015-09-20T09:01:26Z</time>
      </trkpt>
      <trkpt lat="49.24749" lon="1.14863">
        <ele>62.4</ele>
        <time>2015-09-20T09:01:28Z</time>
      </trkpt>
      <trkpt lat="49.24746" lon="1.1488">
        <ele>62.3</ele>
        <time>2015-09-20T09:01:30Z</time>
      </trkpt>
      <trkpt lat="49.24744" lon="1.14897">
        <ele>62.2</ele>
        <time>2015-09-20T09:01:32Z</time>
      </trkpt>
      <trkpt lat="49.24741" lon="1.14913">
        <ele>62.1</ele>
        <time>2015-09-20T09:01:34Z</time>
      </trkpt>
      <trkpt lat="49.24738" lon="1.1493">
        <ele>62</ele>
        <time>2015-09-20T09:01:36Z</time>
      </trkpt>
      <trkpt lat="49.24736" lon="1.14947">
        <ele>62</ele>
        <time>2015-09-20T09:01:38Z</time>
      </trkpt>
      <trkpt lat="49.24733" lon="1.14963">
        <ele>61.9</ele>
        <time>2015-09-20T09:01:40Z</time>
      </trkpt>
      <trkpt lat="49.2473" lon="1.14978">
        <ele>61.9</ele>
        <time>2015-09-20T09:01:42Z</time>
      </trkpt>
      <trkpt lat="49.24725" lon="1.14993">
        <ele>61.8</ele>
        <time>2015-09-20T09:01:44Z</time>
      </trkpt>
      <trkpt lat="49.24721" lon="1.15007">
        <ele>61.6</ele>
        <time>2015-09-20T09:01:46Z</time>
      </trkpt>
      <trkpt lat="49.24716" lon="1.15023">
        <ele>61.5</ele>
        <time>2015-09-20T09:01:48Z</time>
      </trkpt>
      <trkpt lat="49.24712" lon="1.15038">
        <ele>61.4</ele>
        <time>2015-09-20T09:01:50Z</time>
      </trkpt>
      <trkpt lat="49.24706" lon="1.15054">
        <ele>61.2</ele>
        <time>2015-09-20T09:01:52Z</time>
      </trkpt>
      <trkpt lat="49.24701" lon="1.1507">
        <ele>61.1</ele>
        <time>2015-09-20T09:01:54Z</time>
      </trkpt>
      <trkpt lat="49.24696" lon="1.15086">
        <ele>60.9</ele>
        <time>2015-09-20T09:01:56Z</time>
      </trkpt>
      <trkpt lat="49.2469" lon="1.15101">
        <ele>60.8</ele>
        <time>2015-09-20T09:01:58Z</time>
      </trkpt>
      <trkpt lat="49.24685" lon="1.15115">
        <ele>60.7</ele>
        <time>2015-09-20T09:02:00Z</time>
      </trkpt>
      <trkpt lat="49.24679" lon="1.15129">
        <ele>60.6</ele>
        <time>2015-09-20T09:02:02Z</time>
      </trkpt>
      <trkpt lat="49.24673" lon="1.15144">
        <ele>60.5</ele>
        <time>2015-09-20T09:02:04Z</time>
      </trkpt>
      <trkpt lat="49.24667" lon="1.15159">
        <ele>60.4</ele>
        <time>2015-09-20T09:02:06Z</time>
      </trkpt>
      <trkpt lat="49.24661" lon="1.15173">
        <ele>60.2</ele>
        <time>2015-09-20T09:02:08Z</time>
      </trkpt>
      <trkpt lat="49.24655" lon="1.15185">
        <ele>60.1</ele>
        <time>2015-09-20T09:02:10Z</time>
      </trkpt>
      <trkpt lat="49.24648" lon="1.15197">
        <ele>59.9</ele>
        <time>2015-09-20T09:02:12Z</time>
      </trkpt>
      <trkpt lat="49.24642" lon="1.15208">
        <ele>59.7</ele>
        <time>2015-09-20T09:02:15Z</time>
      </trkpt>
      <trkpt lat="49.24633" lon="1.15198">
        <ele>59.2</ele>
        <time>2015-09-20T09:02:19Z</time>
      </trkpt>
      <trkpt lat="49.24624" lon="1.15194">
        <ele>58.6</ele>
        <time>2015-09-20T09:02:23Z</time>
      </trkpt>
      <trkpt lat="49.24614" lon="1.15188">
        <ele>58.4</ele>
        <time>2015-09-20T09:02:28Z</time>
      </trkpt>
      <trkpt lat="49.24604" lon="1.15184">
        <ele>58.8</ele>
        <time>2015-09-20T09:02:32Z</time>
      </trkpt>
      <trkpt lat="49.24595" lon="1.15179">
        <ele>59.4</ele>
        <time>2015-09-20T09:02:36Z</time>
      </trkpt>
      <trkpt lat="49.24586" lon="1.15175">
        <ele>60</ele>
        <time>2015-09-20T09:02:40Z</time>
      </trkpt>
      <trkpt lat="49.24575" lon="1.15171">
        <ele>60.6</ele>
        <time>2015-09-20T09:02:44Z</time>
      </trkpt>
      <trkpt lat="49.24566" lon="1.15168">
        <ele>61.2</ele>
        <time>2015-09-20T09:02:48Z</time>
      </trkpt>
      <trkpt lat="49.24555" lon="1.15162">
        <ele>61.9</ele>
        <time>2015-09-20T09:02:52Z</time>
      </trkpt>
      <trkpt lat="49.24545" lon="1.15156">
        <ele>62.5</ele>
        <time>2015-09-20T09:02:56Z</time>
      </trkpt>
      <trkpt lat="49.24537" lon="1.15152">
        <ele>63.7</ele>
        <time>2015-09-20T09:03:01Z</time>
      </trkpt>
      <trkpt lat="49.24528" lon="1.15145">
        <ele>64.9</ele>
        <time>2015-09-20T09:03:06Z</time>
      </trkpt>
      <trkpt lat="49.24519" lon="1.15142">
        <ele>66.5</ele>
        <time>2015-09-20T09:03:12Z</time>
      </trkpt>
      <trkpt lat="49.24509" lon="1.15136">
        <ele>68.3</ele>
        <time>2015-09-20T09:03:19Z</time>
      </trkpt>
      <trkpt lat="49.245" lon="1.15131">
        <ele>70.2</ele>
        <time>2015-09-20T09:03:26Z</time>
      </trkpt>
      <trkpt lat="49.24491" lon="1.15128">
        <ele>71.9</ele>
        <time>2015-09-20T09:03:32Z</time>
      </trkpt>
      <trkpt lat="49.24481" lon="1.15124">
        <ele>74</ele>
        <time>2015-09-20T09:03:40Z</time>
      </trkpt>
      <trkpt lat="49.24471" lon="1.1512">
        <ele>75.7</ele>
        <time>2015-09-20T09:03:47Z</time>
      </trkpt>
      <trkpt lat="49.24463" lon="1.15116">
        <ele>77.4</ele>
        <time>2015-09-20T09:03:54Z</time>
      </trkpt>
      <trkpt lat="49.24453" lon="1.15111">
        <ele>79.3</ele>
        <time>2015-09-20T09:04:02Z</time>
      </trkpt>
      <trkpt lat="49.24444" lon="1.15107">
        <ele>81</ele>
        <time>2015-09-20T09:04:09Z</time>
      </trkpt>
      <trkpt lat="49.24434" lon="1.15103">
        <ele>83</ele>
        <time>2015-09-20T09:04:17Z</time>
      </trkpt>
      <trkpt lat="49.24425" lon="1.15098">
        <ele>84.6</ele>
        <time>2015-09-20T09:04:24Z</time>
      </trkpt>
      <trkpt lat="49.24416" lon="1.15093">
        <ele>85.9</ele>
        <time>2015-09-20T09:04:30Z</time>
      </trkpt>
      <trkpt lat="49.24406" lon="1.15087">
        <ele>87.4</ele>
        <time>2015-09-20T09:04:36Z</time>
      </trkpt>
      <trkpt lat="49.24397" lon="1.15082">
        <ele>88.7</ele>
        <time>2015-09-20T09:04:42Z</time>
      </trkpt>
      <trkpt lat="49.24387" lon="1.15077">
        <ele>90</ele>
        <time>2015-09-20T09:04:48Z</time>
      </trkpt>
      <trkpt lat="49.24378" lon="1.15072">
        <ele>91</ele>
        <time>2015-09-20T09:04:53Z</time>
      </trkpt>
      <trkpt lat="49.24367" lon="1.15067">
        <ele>92.2</ele>
        <time>2015-09-20T09:04:58Z</time>
      </trkpt>
      <trkpt lat="49.24358" lon="1.15062">
        <ele>93.1</ele>
        <time>2015-09-20T09:05:02Z</time>
      </trkpt>
      <trkpt lat="49.24349" lon="1.15056">
        <ele>93.8</ele>
        <time>2015-09-20T09:05:06Z</time>
      </trkpt>
      <trkpt lat="49.24339" lon="1.15051">
        <ele>94.7</ele>
        <time>2015-09-20T09:05:10Z</time>
      </trkpt>
      <trkpt lat="49.2433" lon="1.15043">
        <ele>95.5</ele>
        <time>2015-09-20T09:05:14Z</time>
      </trkpt>
      <trkpt lat="49.24318" lon="1.15037">
        <ele>96.2</ele>
        <time>2015-09-20T09:05:18Z</time>
      </trkpt>
      <trkpt lat="49.24308" lon="1.15031">
        <ele>97.1</ele>
        <time>2015-09-20T09:05:22Z</time>
      </trkpt>
      <trkpt lat="49.24298" lon="1.15023">
        <ele>97.8</ele>
        <time>2015-09-20T09:05:26Z</time>
      </trkpt>
      <trkpt lat="49.24289" lon="1.15017">
        <ele>98.4</ele>
        <time>2015-09-20T09:05:29Z</time>
      </trkpt>
      <trkpt lat="49.24281" lon="1.15012">
        <ele>98.8</ele>
        <time>2015-09-20T09:05:32Z</time>
      </trkpt>
      <trkpt lat="49.24272" lon="1.15006">
        <ele>99.3</ele>
        <time>2015-09-20T09:05:35Z</time>
      </trkpt>
      <trkpt lat="49.24262" lon="1.14999">
        <ele>99.8</ele>
        <time>2015-09-20T09:05:38Z</time>
      </trkpt>
      <trkpt lat="49.24251" lon="1.14993">
        <ele>100.3</ele>
        <time>2015-09-20T09:05:41Z</time>
      </trkpt>
      <trkpt lat="49.2424" lon="1.14986">
        <ele>100.8</ele>
        <time>2015-09-20T09:05:44Z</time>
      </trkpt>
      <trkpt lat="49.24228" lon="1.1498">
        <ele>101.1</ele>
        <time>2015-09-20T09:05:47Z</time>
      </trkpt>
      <trkpt lat="49.24217" lon="1.14974">
        <ele>101.3</ele>
        <time>2015-09-20T09:05:50Z</time>
      </trkpt>
      <trkpt lat="49.24206" lon="1.14968">
        <ele>101.6</ele>
        <time>2015-09-20T09:05:53Z</time>
      </trkpt>
      <trkpt lat="49.24194" lon="1.14962">
        <ele>101.9</ele>
        <time>2015-09-20T09:05:56Z</time>
      </trkpt>
      <trkpt lat="49.24184" lon="1.14955">
        <ele>102.2</ele>
        <time>2015-09-20T09:05:59Z</time>
      </trkpt>
      <trkpt lat="49.24173" lon="1.1495">
        <ele>102.4</ele>
        <time>2015-09-20T09:06:02Z</time>
      </trkpt>
      <trkpt lat="49.24164" lon="1.14946">
        <ele>102.6</ele>
        <time>2015-09-20T09:06:05Z</time>
      </trkpt>
      <trkpt lat="49.24154" lon="1.14941">
        <ele>102.8</ele>
        <time>2015-09-20T09:06:08Z</time>
      </trkpt>
      <trkpt lat="49.24146" lon="1.14931">
        <ele>103</ele>
        <time>2015-09-20T09:06:11Z</time>
      </trkpt>
      <trkpt lat="49.24145" lon="1.14914">
        <ele>103.3</ele>
        <time>2015-09-20T09:06:15Z</time>
      </trkpt>
      <trkpt lat="49.24149" lon="1.14901">
        <ele>103.5</ele>
        <time>2015-09-20T09:06:18Z</time>
      </trkpt>
      <trkpt lat="49.24151" lon="1.14886">
        <ele>103.9</ele>
        <time>2015-09-20T09:06:21Z</time>
      </trkpt>
      <trkpt lat="49.24154" lon="1.14871">
        <ele>104.2</ele>
        <time>2015-09-20T09:06:24Z</time>
      </trkpt>
      <trkpt lat="49.24158" lon="1.14854">
        <ele>104.6</ele>
        <time>2015-09-20T09:06:28Z</time>
      </trkpt>
      <trkpt lat="49.2416" lon="1.14837">
        <ele>105</ele>
        <time>2015-09-20T09:06:31Z</time>
      </trkpt>
      <trkpt lat="49.24164" lon="1.14819">
        <ele>105.3</ele>
        <time>2015-09-20T09:06:34Z</time>
      </trkpt>
      <trkpt lat="49.24167" lon="1.14804">
        <ele>105.7</ele>
        <time>2015-09-20T09:06:37Z</time>
      </trkpt>
      <trkpt lat="49.24171" lon="1.14789">
        <ele>106.2</ele>
        <time>2015-09-20T09:06:40Z</time>
      </trkpt>
      <trkpt lat="49.24173" lon="1.14772">
        <ele>106.6</ele>
        <time>2015-09-20T09:06:43Z</time>
      </trkpt>
      <trkpt lat="49.24175" lon="1.14755">
        <ele>107</ele>
        <time>2015-09-20T09:06:46Z</time>
      </trkpt>
      <trkpt lat="49.24178" lon="1.14738">
        <ele>107.4</ele>
        <time>2015-09-20T09:06:49Z</time>
      </trkpt>
      <trkpt lat="49.2418" lon="1.14721">
        <ele>107.8</ele>
        <time>2015-09-20T09:06:52Z</time>
      </trkpt>
      <trkpt lat="49.24183" lon="1.14707">
        <ele>108.2</ele>
        <time>2015-09-20T09:06:55Z</time>
      </trkpt>
      <trkpt lat="49.24185" lon="1.14693">
        <ele>108.4</ele>
        <time>2015-09-20T09:06:57Z</time>
      </trkpt>
      <trkpt lat="49.24188" lon="1.14674">
        <ele>108.8</ele>
        <time>2015-09-20T09:07:00Z</time>
      </trkpt>
      <trkpt lat="49.24191" lon="1.1466">
        <ele>109.1</ele>
        <time>2015-09-20T09:07:02Z</time>
      </trkpt>
      <trkpt lat="49.24194" lon="1.14642">
        <ele>109.4</ele>
        <time>2015-09-20T09:07:05Z</time>
      </trkpt>
      <trkpt lat="49.24197" lon="1.14624">
        <ele>109.8</ele>
        <time>2015-09-20T09:07:08Z</time>
      </trkpt>
      <trkpt lat="49.24197" lon="1.14609">
        <ele>110.1</ele>
        <time>2015-09-20T09:07:10Z</time>
      </trkpt>
      <trkpt lat="49.24191" lon="1.14595">
        <ele>110.5</ele>
        <time>2015-09-20T09:07:14Z</time>
      </trkpt>
      <trkpt lat="49.24181" lon="1.14586">
        <ele>110.9</ele>
        <time>2015-09-20T09:07:19Z</time>
      </trkpt>
      <trkpt lat="49.24171" lon="1.14579">
        <ele>111.2</ele>
        <time>2015-09-20T09:07:23Z</time>
      </trkpt>
      <trkpt lat="49.24162" lon="1.14572">
        <ele>111.5</ele>
        <time>2015-09-20T09:07:26Z</time>
      </trkpt>
      <trkpt lat="49.24149" lon="1.14563">
        <ele>111.7</ele>
        <time>2015-09-20T09:07:29Z</time>
      </trkpt>
      <trkpt lat="49.24137" lon="1.14555">
        <ele>112</ele>
        <time>2015-09-20T09:07:32Z</time>
      </trkpt>
      <trkpt lat="49.24125" lon="1.14546">
        <ele>112.1</ele>
        <time>2015-09-20T09:07:35Z</time>
      </trkpt>
      <trkpt lat="49.24115" lon="1.14542">
        <ele>112.3</ele>
        <time>2015-09-20T09:07:38Z</time>
      </trkpt>
      <trkpt lat="49.24103" lon="1.14537">
        <ele>112.4</ele>
        <time>2015-09-20T09:07:41Z</time>
      </trkpt>
      <trkpt lat="49.24091" lon="1.14532">
        <ele>112.7</ele>
        <time>2015-09-20T09:07:44Z</time>
      </trkpt>
      <trkpt lat="49.2408" lon="1.14527">
        <ele>112.9</ele>
        <time>2015-09-20T09:07:47Z</time>
      </trkpt>
      <trkpt lat="49.24069" lon="1.14521">
        <ele>113.1</ele>
        <time>2015-09-20T09:07:50Z</time>
      </trkpt>
      <trkpt lat="49.24058" lon="1.14516">
        <ele>113.3</ele>
        <time>2015-09-20T09:07:53Z</time>
      </trkpt>
      <trkpt lat="49.24048" lon="1.14513">
        <ele>113.5</ele>
        <time>2015-09-20T09:07:56Z</time>
      </trkpt>
      <trkpt lat="49.24037" lon="1.14508">
        <ele>113.6</ele>
        <time>2015-09-20T09:07:58Z</time>
      </trkpt>
      <trkpt lat="49.24027" lon="1.14502">
        <ele>113.6</ele>
        <time>2015-09-20T09:08:00Z</time>
      </trkpt>
      <trkpt lat="49.24017" lon="1.14499">
        <ele>113.7</ele>
        <time>2015-09-20T09:08:02Z</time>
      </trkpt>
      <trkpt lat="49.24009" lon="1.14493">
        <ele>113.8</ele>
        <time>2015-09-20T09:08:04Z</time>
      </trkpt>
      <trkpt lat="49.23997" lon="1.14487">
        <ele>113.8</ele>
        <time>2015-09-20T09:08:07Z</time>
      </trkpt>
      <trkpt lat="49.23989" lon="1.14482">
        <ele>113.8</ele>
        <time>2015-09-20T09:08:09Z</time>
      </trkpt>
      <trkpt lat="49.23977" lon="1.14474">
        <ele>113.8</ele>
        <time>2015-09-20T09:08:12Z</time>
      </trkpt>
      <trkpt lat="49.23968" lon="1.14469">
        <ele>113.8</ele>
        <time>2015-09-20T09:08:14Z</time>
      </trkpt>
      <trkpt lat="49.23956" lon="1.14466">
        <ele>113.7</ele>
        <time>2015-09-20T09:08:17Z</time>
      </trkpt>
      <trkpt lat="49.23944" lon="1.14459">
        <ele>113.5</ele>
        <time>2015-09-20T09:08:20Z</time>
      </trkpt>
      <trkpt lat="49.23932" lon="1.14453">
        <ele>113.5</ele>
        <time>2015-09-20T09:08:23Z</time>
      </trkpt>
      <trkpt lat="49.23921" lon="1.14449">
        <ele>113.4</ele>
        <time>2015-09-20T09:08:25Z</time>
      </trkpt>
      <trkpt lat="49.23911" lon="1.14445">
        <ele>113.3</ele>
        <time>2015-09-20T09:08:27Z</time>
      </trkpt>
      <trkpt lat="49.23901" lon="1.14442">
        <ele>113.2</ele>
        <time>2015-09-20T09:08:29Z</time>
      </trkpt>
      <trkpt lat="49.23892" lon="1.14437">
        <ele>113.1</ele>
        <time>2015-09-20T09:08:31Z</time>
      </trkpt>
      <trkpt lat="49.23883" lon="1.14432">
        <ele>113.1</ele>
        <time>2015-09-20T09:08:33Z</time>
      </trkpt>
      <trkpt lat="49.23873" lon="1.14427">
        <ele>113</ele>
        <time>2015-09-20T09:08:35Z</time>
      </trkpt>
      <trkpt lat="49.23863" lon="1.14423">
        <ele>112.9</ele>
        <time>2015-09-20T09:08:37Z</time>
      </trkpt>
      <trkpt lat="49.23854" lon="1.14419">
        <ele>112.8</ele>
        <time>2015-09-20T09:08:39Z</time>
      </trkpt>
      <trkpt lat="49.23844" lon="1.14414">
        <ele>112.7</ele>
        <time>2015-09-20T09:08:41Z</time>
      </trkpt>
      <trkpt lat="49.23835" lon="1.1441">
        <ele>112.6</ele>
        <time>2015-09-20T09:08:43Z</time>
      </trkpt>
      <trkpt lat="49.23826" lon="1.14406">
        <ele>112.4</ele>
        <time>2015-09-20T09:08:45Z</time>
      </trkpt>
      <trkpt lat="49.23816" lon="1.144">
        <ele>112.2</ele>
        <time>2015-09-20T09:08:47Z</time>
      </trkpt>
      <trkpt lat="49.23804" lon="1.14395">
        <ele>112</ele>
        <time>2015-09-20T09:08:50Z</time>
      </trkpt>
      <trkpt lat="49.23791" lon="1.14391">
        <ele>111.8</ele>
        <time>2015-09-20T09:08:53Z</time>
      </trkpt>
      <trkpt lat="49.23782" lon="1.14386">
        <ele>111.7</ele>
        <time>2015-09-20T09:08:55Z</time>
      </trkpt>
      <trkpt lat="49.23773" lon="1.14381">
        <ele>111.6</ele>
        <time>2015-09-20T09:08:57Z</time>
      </trkpt>
      <trkpt lat="49.23762" lon="1.14375">
        <ele>111.5</ele>
        <time>2015-09-20T09:09:00Z</time>
      </trkpt>
      <trkpt lat="49.23751" lon="1.1437">
        <ele>111.3</ele>
        <time>2015-09-20T09:09:03Z</time>
      </trkpt>
      <trkpt lat="49.2374" lon="1.14366">
        <ele>111.2</ele>
        <time>2015-09-20T09:09:06Z</time>
      </trkpt>
      <trkpt lat="49.23726" lon="1.1436">
        <ele>111.1</ele>
        <time>2015-09-20T09:09:09Z</time>
      </trkpt>
      <trkpt lat="49.23715" lon="1.14357">
        <ele>111.1</ele>
        <time>2015-09-20T09:09:11Z</time>
      </trkpt>
      <trkpt lat="49.23706" lon="1.14353">
        <ele>111</ele>
        <time>2015-09-20T09:09:13Z</time>
      </trkpt>
      <trkpt lat="49.23697" lon="1.14349">
        <ele>110.9</ele>
        <time>2015-09-20T09:09:15Z</time>
      </trkpt>
      <trkpt lat="49.23685" lon="1.14344">
        <ele>110.8</ele>
        <time>2015-09-20T09:09:18Z</time>
      </trkpt>
      <trkpt lat="49.23676" lon="1.14339">
        <ele>110.7</ele>
        <time>2015-09-20T09:09:20Z</time>
      </trkpt>
      <trkpt lat="49.23665" lon="1.1433">
        <ele>110.6</ele>
        <time>2015-09-20T09:09:23Z</time>
      </trkpt>
      <trkpt lat="49.23653" lon="1.14324">
        <ele>110.5</ele>
        <time>2015-09-20T09:09:26Z</time>
      </trkpt>
      <trkpt lat="49.23644" lon="1.14318">
        <ele>110.5</ele>
        <time>2015-09-20T09:09:28Z</time>
      </trkpt>
      <trkpt lat="49.23634" lon="1.14318">
        <ele>110.5</ele>
        <time>2015-09-20T09:09:30Z</time>
      </trkpt>
      <trkpt lat="49.23622" lon="1.14313">
        <ele>110.5</ele>
        <time>2015-09-20T09:09:33Z</time>
      </trkpt>
      <trkpt lat="49.2361" lon="1.14309">
        <ele>110.5</ele>
        <time>2015-09-20T09:09:35Z</time>
      </trkpt>
      <trkpt lat="49.236" lon="1.14302">
        <ele>110.4</ele>
        <time>2015-09-20T09:09:37Z</time>
      </trkpt>
      <trkpt lat="49.23587" lon="1.14295">
        <ele>110.4</ele>
        <time>2015-09-20T09:09:40Z</time>
      </trkpt>
      <trkpt lat="49.23577" lon="1.1429">
        <ele>110.5</ele>
        <time>2015-09-20T09:09:42Z</time>
      </trkpt>
      <trkpt lat="49.23566" lon="1.14283">
        <ele>110.5</ele>
        <time>2015-09-20T09:09:45Z</time>
      </trkpt>
      <trkpt lat="49.23555" lon="1.14278">
        <ele>110.5</ele>
        <time>2015-09-20T09:09:47Z</time>
      </trkpt>
      <trkpt lat="49.23544" lon="1.14275">
        <ele>110.5</ele>
        <time>2015-09-20T09:09:50Z</time>
      </trkpt>
      <trkpt lat="49.23533" lon="1.14269">
        <ele>110.6</ele>
        <time>2015-09-20T09:09:53Z</time>
      </trkpt>
      <trkpt lat="49.23524" lon="1.14267">
        <ele>110.7</ele>
        <time>2015-09-20T09:09:55Z</time>
      </trkpt>
      <trkpt lat="49.23515" lon="1.14264">
        <ele>110.8</ele>
        <time>2015-09-20T09:09:57Z</time>
      </trkpt>
      <trkpt lat="49.23507" lon="1.14257">
        <ele>111.1</ele>
        <time>2015-09-20T09:10:02Z</time>
      </trkpt>
      <trkpt lat="49.23504" lon="1.14243">
        <ele>111.7</ele>
        <time>2015-09-20T09:10:13Z</time>
      </trkpt>
      <trkpt lat="49.2351" lon="1.14229">
        <ele>111.9</ele>
        <time>2015-09-20T09:10:16Z</time>
      </trkpt>
      <trkpt lat="49.23515" lon="1.14209">
        <ele>112.1</ele>
        <time>2015-09-20T09:10:19Z</time>
      </trkpt>
      <trkpt lat="49.23518" lon="1.14195">
        <ele>112.2</ele>
        <time>2015-09-20T09:10:21Z</time>
      </trkpt>
      <trkpt lat="49.23522" lon="1.14179">
        <ele>112.3</ele>
        <time>2015-09-20T09:10:23Z</time>
      </trkpt>
      <trkpt lat="49.23525" lon="1.14164">
        <ele>112.4</ele>
        <time>2015-09-20T09:10:25Z</time>
      </trkpt>
      <trkpt lat="49.2353" lon="1.14149">
        <ele>112.5</ele>
        <time>2015-09-20T09:10:27Z</time>
      </trkpt>
      <trkpt lat="49.23533" lon="1.14134">
        <ele>112.6</ele>
        <time>2015-09-20T09:10:29Z</time>
      </trkpt>
      <trkpt lat="49.23536" lon="1.14116">
        <ele>112.7</ele>
        <time>2015-09-20T09:10:31Z</time>
      </trkpt>
      <trkpt lat="49.2354" lon="1.141">
        <ele>112.7</ele>
        <time>2015-09-20T09:10:33Z</time>
      </trkpt>
      <trkpt lat="49.23544" lon="1.14084">
        <ele>112.8</ele>
        <time>2015-09-20T09:10:35Z</time>
      </trkpt>
      <trkpt lat="49.23548" lon="1.14067">
        <ele>112.8</ele>
        <time>2015-09-20T09:10:37Z</time>
      </trkpt>
      <trkpt lat="49.23552" lon="1.1405">
        <ele>112.9</ele>
        <time>2015-09-20T09:10:39Z</time>
      </trkpt>
      <trkpt lat="49.23555" lon="1.14033">
        <ele>112.9</ele>
        <time>2015-09-20T09:10:41Z</time>
      </trkpt>
      <trkpt lat="49.23558" lon="1.14016">
        <ele>112.9</ele>
        <time>2015-09-20T09:10:43Z</time>
      </trkpt>
      <trkpt lat="49.23561" lon="1.13999">
        <ele>112.9</ele>
        <time>2015-09-20T09:10:45Z</time>
      </trkpt>
      <trkpt lat="49.23564" lon="1.13983">
        <ele>113</ele>
        <time>2015-09-20T09:10:47Z</time>
      </trkpt>
      <trkpt lat="49.23566" lon="1.13963">
        <ele>113</ele>
        <time>2015-09-20T09:10:49Z</time>
      </trkpt>
      <trkpt lat="49.23567" lon="1.13942">
        <ele>113</ele>
        <time>2015-09-20T09:10:51Z</time>
      </trkpt>
      <trkpt lat="49.23571" lon="1.13925">
        <ele>113.1</ele>
        <time>2015-09-20T09:10:53Z</time>
      </trkpt>
      <trkpt lat="49.23574" lon="1.13907">
        <ele>113.1</ele>
        <time>2015-09-20T09:10:55Z</time>
      </trkpt>
      <trkpt lat="49.23576" lon="1.13886">
        <ele>113.1</ele>
        <time>2015-09-20T09:10:57Z</time>
      </trkpt>
      <trkpt lat="49.2358" lon="1.1387">
        <ele>113.1</ele>
        <time>2015-09-20T09:10:59Z</time>
      </trkpt>
      <trkpt lat="49.23583" lon="1.13853">
        <ele>113.1</ele>
        <time>2015-09-20T09:11:01Z</time>
      </trkpt>
      <trkpt lat="49.23586" lon="1.13836">
        <ele>113.1</ele>
        <time>2015-09-20T09:11:03Z</time>
      </trkpt>
      <trkpt lat="49.2359" lon="1.1382">
        <ele>113.1</ele>
        <time>2015-09-20T09:11:05Z</time>
      </trkpt>
      <trkpt lat="49.23594" lon="1.13805">
        <ele>113.2</ele>
        <time>2015-09-20T09:11:07Z</time>
      </trkpt>
      <trkpt lat="49.23599" lon="1.13784">
        <ele>113.2</ele>
        <time>2015-09-20T09:11:10Z</time>
      </trkpt>
      <trkpt lat="49.23602" lon="1.1377">
        <ele>113.2</ele>
        <time>2015-09-20T09:11:12Z</time>
      </trkpt>
      <trkpt lat="49.23604" lon="1.13755">
        <ele>113.2</ele>
        <time>2015-09-20T09:11:14Z</time>
      </trkpt>
      <trkpt lat="49.23608" lon="1.13741">
        <ele>113.2</ele>
        <time>2015-09-20T09:11:16Z</time>
      </trkpt>
      <trkpt lat="49.23612" lon="1.13725">
        <ele>113.3</ele>
        <time>2015-09-20T09:11:18Z</time>
      </trkpt>
      <trkpt lat="49.23616" lon="1.1371">
        <ele>113.3</ele>
        <time>2015-09-20T09:11:20Z</time>
      </trkpt>
      <trkpt lat="49.2362" lon="1.13695">
        <ele>113.4</ele>
        <time>2015-09-20T09:11:22Z</time>
      </trkpt>
      <trkpt lat="49.23623" lon="1.13677">
        <ele>113.4</ele>
        <time>2015-09-20T09:11:24Z</time>
      </trkpt>
      <trkpt lat="49.23628" lon="1.13662">
        <ele>113.5</ele>
        <time>2015-09-20T09:11:26Z</time>
      </trkpt>
      <trkpt lat="49.23631" lon="1.13644">
        <ele>113.6</ele>
        <time>2015-09-20T09:11:28Z</time>
      </trkpt>
      <trkpt lat="49.23637" lon="1.13629">
        <ele>113.8</ele>
        <time>2015-09-20T09:11:30Z</time>
      </trkpt>
      <trkpt lat="49.23639" lon="1.1361">
        <ele>113.9</ele>
        <time>2015-09-20T09:11:32Z</time>
      </trkpt>
      <trkpt lat="49.23641" lon="1.13591">
        <ele>114</ele>
        <time>2015-09-20T09:11:34Z</time>
      </trkpt>
      <trkpt lat="49.23643" lon="1.13573">
        <ele>114.1</ele>
        <time>2015-09-20T09:11:36Z</time>
      </trkpt>
      <trkpt lat="49.23647" lon="1.13557">
        <ele>114.1</ele>
        <time>2015-09-20T09:11:38Z</time>
      </trkpt>
      <trkpt lat="49.23652" lon="1.13543">
        <ele>114.2</ele>
        <time>2015-09-20T09:11:40Z</time>
      </trkpt>
      <trkpt lat="49.23655" lon="1.13527">
        <ele>114.3</ele>
        <time>2015-09-20T09:11:42Z</time>
      </trkpt>
      <trkpt lat="49.23659" lon="1.13512">
        <ele>114.3</ele>
        <time>2015-09-20T09:11:44Z</time>
      </trkpt>
      <trkpt lat="49.23663" lon="1.13498">
        <ele>114.4</ele>
        <time>2015-09-20T09:11:46Z</time>
      </trkpt>
      <trkpt lat="49.23664" lon="1.13479">
        <ele>114.5</ele>
        <time>2015-09-20T09:11:48Z</time>
      </trkpt>
      <trkpt lat="49.23665" lon="1.13461">
        <ele>114.5</ele>
        <time>2015-09-20T09:11:50Z</time>
      </trkpt>
      <trkpt lat="49.23667" lon="1.13442">
        <ele>114.6</ele>
        <time>2015-09-20T09:11:52Z</time>
      </trkpt>
      <trkpt lat="49.2367" lon="1.13427">
        <ele>114.7</ele>
        <time>2015-09-20T09:11:54Z</time>
      </trkpt>
      <trkpt lat="49.23672" lon="1.13412">
        <ele>114.8</ele>
        <time>2015-09-20T09:11:56Z</time>
      </trkpt>
      <trkpt lat="49.23674" lon="1.13396">
        <ele>114.9</ele>
        <time>2015-09-20T09:11:58Z</time>
      </trkpt>
      <trkpt lat="49.23674" lon="1.13381">
        <ele>115</ele>
        <time>2015-09-20T09:12:00Z</time>
      </trkpt>
      <trkpt lat="49.23672" lon="1.13363">
        <ele>115.2</ele>
        <time>2015-09-20T09:12:02Z</time>
      </trkpt>
      <trkpt lat="49.23665" lon="1.13345">
        <ele>115.3</ele>
        <time>2015-09-20T09:12:04Z</time>
      </trkpt>
      <trkpt lat="49.23655" lon="1.13337">
        <ele>115.5</ele>
        <time>2015-09-20T09:12:06Z</time>
      </trkpt>
      <trkpt lat="49.23643" lon="1.1333">
        <ele>115.6</ele>
        <time>2015-09-20T09:12:08Z</time>
      </trkpt>
      <trkpt lat="49.2363" lon="1.13323">
        <ele>115.7</ele>
        <time>2015-09-20T09:12:10Z</time>
      </trkpt>
      <trkpt lat="49.23618" lon="1.13317">
        <ele>115.9</ele>
        <time>2015-09-20T09:12:12Z</time>
      </trkpt>
      <trkpt lat="49.23605" lon="1.1331">
        <ele>115.9</ele>
        <time>2015-09-20T09:12:14Z</time>
      </trkpt>
      <trkpt lat="49.23592" lon="1.13302">
        <ele>115.9</ele>
        <time>2015-09-20T09:12:16Z</time>
      </trkpt>
      <trkpt lat="49.23579" lon="1.13296">
        <ele>115.9</ele>
        <time>2015-09-20T09:12:18Z</time>
      </trkpt>
      <trkpt lat="49.23565" lon="1.1329">
        <ele>115.8</ele>
        <time>2015-09-20T09:12:20Z</time>
      </trkpt>
      <trkpt lat="49.23551" lon="1.13284">
        <ele>115.8</ele>
        <time>2015-09-20T09:12:22Z</time>
      </trkpt>
      <trkpt lat="49.23537" lon="1.13277">
        <ele>115.6</ele>
        <time>2015-09-20T09:12:24Z</time>
      </trkpt>
      <trkpt lat="49.23522" lon="1.13268">
        <ele>115.4</ele>
        <time>2015-09-20T09:12:26Z</time>
      </trkpt>
      <trkpt lat="49.23506" lon="1.13259">
        <ele>115.1</ele>
        <time>2015-09-20T09:12:28Z</time>
      </trkpt>
      <trkpt lat="49.23492" lon="1.13252">
        <ele>114.7</ele>
        <time>2015-09-20T09:12:30Z</time>
      </trkpt>
      <trkpt lat="49.2348" lon="1.13244">
        <ele>114.2</ele>
        <time>2015-09-20T09:12:32Z</time>
      </trkpt>
      <trkpt lat="49.2347" lon="1.13237">
        <ele>113.2</ele>
        <time>2015-09-20T09:12:35Z</time>
      </trkpt>
      <trkpt lat="49.2346" lon="1.13229">
        <ele>110.3</ele>
        <time>2015-09-20T09:12:47Z</time>
      </trkpt>
      <trkpt lat="49.2345" lon="1.13224">
        <ele>109.4</ele>
        <time>2015-09-20T09:12:52Z</time>
      </trkpt>
      <trkpt lat="49.23438" lon="1.13219">
        <ele>108.9</ele>
        <time>2015-09-20T09:12:55Z</time>
      </trkpt>
      <trkpt lat="49.23429" lon="1.13216">
        <ele>108.4</ele>
        <time>2015-09-20T09:12:57Z</time>
      </trkpt>
      <trkpt lat="49.23418" lon="1.13208">
        <ele>107.4</ele>
        <time>2015-09-20T09:13:00Z</time>
      </trkpt>
      <trkpt lat="49.23408" lon="1.13204">
        <ele>106.5</ele>
        <time>2015-09-20T09:13:02Z</time>
      </trkpt>
      <trkpt lat="49.23399" lon="1.13199">
        <ele>105.6</ele>
        <time>2015-09-20T09:13:04Z</time>
      </trkpt>
      <trkpt lat="49.23389" lon="1.13196">
        <ele>104.4</ele>
        <time>2015-09-20T09:13:06Z</time>
      </trkpt>
      <trkpt lat="49.23377" lon="1.1319">
        <ele>102.4</ele>
        <time>2015-09-20T09:13:09Z</time>
      </trkpt>
      <trkpt lat="49.23366" lon="1.13183">
        <ele>99.9</ele>
        <time>2015-09-20T09:13:12Z</time>
      </trkpt>
      <trkpt lat="49.23356" lon="1.13177">
        <ele>97.4</ele>
        <time>2015-09-20T09:13:15Z</time>
      </trkpt>
      <trkpt lat="49.23344" lon="1.13172">
        <ele>95.6</ele>
        <time>2015-09-20T09:13:17Z</time>
      </trkpt>
      <trkpt lat="49.23334" lon="1.13166">
        <ele>93.9</ele>
        <time>2015-09-20T09:13:19Z</time>
      </trkpt>
      <trkpt lat="49.23325" lon="1.1316">
        <ele>92</ele>
        <time>2015-09-20T09:13:21Z</time>
      </trkpt>
      <trkpt lat="49.23315" lon="1.13156">
        <ele>90.1</ele>
        <time>2015-09-20T09:13:23Z</time>
      </trkpt>
      <trkpt lat="49.23301" lon="1.13153">
        <ele>86.8</ele>
        <time>2015-09-20T09:13:26Z</time>
      </trkpt>
      <trkpt lat="49.23291" lon="1.13151">
        <ele>83.8</ele>
        <time>2015-09-20T09:13:29Z</time>
      </trkpt>
      <trkpt lat="49.23282" lon="1.13149">
        <ele>80</ele>
        <time>2015-09-20T09:13:33Z</time>
      </trkpt>
      <trkpt lat="49.23274" lon="1.13142">
        <ele>77.4</ele>
        <time>2015-09-20T09:13:36Z</time>
      </trkpt>
      <trkpt lat="49.23264" lon="1.1314">
        <ele>75</ele>
        <time>2015-09-20T09:13:39Z</time>
      </trkpt>
      <trkpt lat="49.23256" lon="1.13136">
        <ele>71.7</ele>
        <time>2015-09-20T09:13:44Z</time>
      </trkpt>
      <trkpt lat="49.23247" lon="1.1313">
        <ele>67.4</ele>
        <time>2015-09-20T09:13:55Z</time>
      </trkpt>
      <trkpt lat="49.23238" lon="1.13125">
        <ele>66.3</ele>
        <time>2015-09-20T09:14:02Z</time>
      </trkpt>
      <trkpt lat="49.23229" lon="1.1312">
        <ele>66.3</ele>
        <time>2015-09-20T09:14:12Z</time>
      </trkpt>
      <trkpt lat="49.2322" lon="1.13116">
        <ele>66.9</ele>
        <time>2015-09-20T09:14:19Z</time>
      </trkpt>
      <trkpt lat="49.2321" lon="1.13112">
        <ele>67.2</ele>
        <time>2015-09-20T09:14:24Z</time>
      </trkpt>
      <trkpt lat="49.23201" lon="1.13107">
        <ele>67.2</ele>
        <time>2015-09-20T09:14:28Z</time>
      </trkpt>
      <trkpt lat="49.2319" lon="1.13101">
        <ele>66.1</ele>
        <time>2015-09-20T09:14:34Z</time>
      </trkpt>
      <trkpt lat="49.23179" lon="1.13095">
        <ele>65.1</ele>
        <time>2015-09-20T09:14:38Z</time>
      </trkpt>
      <trkpt lat="49.2317" lon="1.13094">
        <ele>63.6</ele>
        <time>2015-09-20T09:14:43Z</time>
      </trkpt>
      <trkpt lat="49.23161" lon="1.13092">
        <ele>61.7</ele>
        <time>2015-09-20T09:14:53Z</time>
      </trkpt>
      <trkpt lat="49.23152" lon="1.13087">
        <ele>61.2</ele>
        <time>2015-09-20T09:14:58Z</time>
      </trkpt>
      <trkpt lat="49.23143" lon="1.13083">
        <ele>60.8</ele>
        <time>2015-09-20T09:15:03Z</time>
      </trkpt>
      <trkpt lat="49.23134" lon="1.13076">
        <ele>60.3</ele>
        <time>2015-09-20T09:15:09Z</time>
      </trkpt>
      <trkpt lat="49.23124" lon="1.13074">
        <ele>60.1</ele>
        <time>2015-09-20T09:15:14Z</time>
      </trkpt>
      <trkpt lat="49.23113" lon="1.13076">
        <ele>60</ele>
        <time>2015-09-20T09:15:19Z</time>
      </trkpt>
      <trkpt lat="49.23102" lon="1.13073">
        <ele>60</ele>
        <time>2015-09-20T09:15:24Z</time>
      </trkpt>
      <trkpt lat="49.23092" lon="1.13068">
        <ele>60.3</ele>
        <time>2015-09-20T09:15:34Z</time>
      </trkpt>
      <trkpt lat="49.23081" lon="1.13064">
        <ele>60.4</ele>
        <time>2015-09-20T09:15:38Z</time>
      </trkpt>
      <trkpt lat="49.23072" lon="1.1306">
        <ele>60.6</ele>
        <time>2015-09-20T09:15:41Z</time>
      </trkpt>
      <trkpt lat="49.23062" lon="1.13055">
        <ele>60.7</ele>
        <time>2015-09-20T09:15:44Z</time>
      </trkpt>
      <trkpt lat="49.2305" lon="1.13051">
        <ele>61</ele>
        <time>2015-09-20T09:15:48Z</time>
      </trkpt>
      <trkpt lat="49.2304" lon="1.13042">
        <ele>61.1</ele>
        <time>2015-09-20T09:15:51Z</time>
      </trkpt>
      <trkpt lat="49.23033" lon="1.13031">
        <ele>61.3</ele>
        <time>2015-09-20T09:15:54Z</time>
      </trkpt>
      <trkpt lat="49.23027" lon="1.13018">
        <ele>61.5</ele>
        <time>2015-09-20T09:15:57Z</time>
      </trkpt>
      <trkpt lat="49.2302" lon="1.13003">
        <ele>61.7</ele>
        <time>2015-09-20T09:16:00Z</time>
      </trkpt>
      <trkpt lat="49.23014" lon="1.12989">
        <ele>61.8</ele>
        <time>2015-09-20T09:16:03Z</time>
      </trkpt>
      <trkpt lat="49.23005" lon="1.12974">
        <ele>62</ele>
        <time>2015-09-20T09:16:06Z</time>
      </trkpt>
      <trkpt lat="49.22999" lon="1.12959">
        <ele>62.2</ele>
        <time>2015-09-20T09:16:10Z</time>
      </trkpt>
      <trkpt lat="49.22993" lon="1.12948">
        <ele>62.6</ele>
        <time>2015-09-20T09:16:17Z</time>
      </trkpt>
      <trkpt lat="49.22986" lon="1.12938">
        <ele>63.2</ele>
        <time>2015-09-20T09:16:29Z</time>
      </trkpt>
      <trkpt lat="49.22979" lon="1.12926">
        <ele>64</ele>
        <time>2015-09-20T09:16:36Z</time>
      </trkpt>
      <trkpt lat="49.22972" lon="1.12914">
        <ele>64.8</ele>
        <time>2015-09-20T09:16:41Z</time>
      </trkpt>
      <trkpt lat="49.22966" lon="1.12903">
        <ele>65.6</ele>
        <time>2015-09-20T09:16:46Z</time>
      </trkpt>
      <trkpt lat="49.22959" lon="1.12891">
        <ele>66.6</ele>
        <time>2015-09-20T09:16:52Z</time>
      </trkpt>
      <trkpt lat="49.22953" lon="1.12878">
        <ele>67.8</ele>
        <time>2015-09-20T09:16:59Z</time>
      </trkpt>
      <trkpt lat="49.22946" lon="1.12865">
        <ele>68.7</ele>
        <time>2015-09-20T09:17:04Z</time>
      </trkpt>
      <trkpt lat="49.22941" lon="1.12854">
        <ele>69.5</ele>
        <time>2015-09-20T09:17:09Z</time>
      </trkpt>
      <trkpt lat="49.22934" lon="1.12841">
        <ele>70.2</ele>
        <time>2015-09-20T09:17:14Z</time>
      </trkpt>
      <trkpt lat="49.22929" lon="1.12828">
        <ele>71.2</ele>
        <time>2015-09-20T09:17:20Z</time>
      </trkpt>
      <trkpt lat="49.22923" lon="1.12815">
        <ele>72.2</ele>
        <time>2015-09-20T09:17:26Z</time>
      </trkpt>
      <trkpt lat="49.22917" lon="1.12803">
        <ele>73.1</ele>
        <time>2015-09-20T09:17:31Z</time>
      </trkpt>
      <trkpt lat="49.2291" lon="1.1279">
        <ele>74</ele>
        <time>2015-09-20T09:17:36Z</time>
      </trkpt>
      <trkpt lat="49.22904" lon="1.12778">
        <ele>74.8</ele>
        <time>2015-09-20T09:17:41Z</time>
      </trkpt>
      <trkpt lat="49.22898" lon="1.12766">
        <ele>75.6</ele>
        <time>2015-09-20T09:17:46Z</time>
      </trkpt>
      <trkpt lat="49.22892" lon="1.12754">
        <ele>76.4</ele>
        <time>2015-09-20T09:17:51Z</time>
      </trkpt>
      <trkpt lat="49.22886" lon="1.12742">
        <ele>77.1</ele>
        <time>2015-09-20T09:17:56Z</time>
      </trkpt>
      <trkpt lat="49.22881" lon="1.12731">
        <ele>77.9</ele>
        <time>2015-09-20T09:18:01Z</time>
      </trkpt>
      <trkpt lat="49.22875" lon="1.12718">
        <ele>78.7</ele>
        <time>2015-09-20T09:18:06Z</time>
      </trkpt>
      <trkpt lat="49.2287" lon="1.12706">
        <ele>79.6</ele>
        <time>2015-09-20T09:18:12Z</time>
      </trkpt>
      <trkpt lat="49.22864" lon="1.12694">
        <ele>80.5</ele>
        <time>2015-09-20T09:18:18Z</time>
      </trkpt>
      <trkpt lat="49.22856" lon="1.12687">
        <ele>81.9</ele>
        <time>2015-09-20T09:18:27Z</time>
      </trkpt>
      <trkpt lat="49.22848" lon="1.12697">
        <ele>83.7</ele>
        <time>2015-09-20T09:18:36Z</time>
      </trkpt>
      <trkpt lat="49.22847" lon="1.12712">
        <ele>85.4</ele>
        <time>2015-09-20T09:18:42Z</time>
      </trkpt>
      <trkpt lat="49.22846" lon="1.12727">
        <ele>87.3</ele>
        <time>2015-09-20T09:18:49Z</time>
      </trkpt>
      <trkpt lat="49.22845" lon="1.12742">
        <ele>88.5</ele>
        <time>2015-09-20T09:18:55Z</time>
      </trkpt>
      <trkpt lat="49.22846" lon="1.12757">
        <ele>89.5</ele>
        <time>2015-09-20T09:19:00Z</time>
      </trkpt>
      <trkpt lat="49.22844" lon="1.12772">
        <ele>90.2</ele>
        <time>2015-09-20T09:19:04Z</time>
      </trkpt>
      <trkpt lat="49.22844" lon="1.12788">
        <ele>91.1</ele>
        <time>2015-09-20T09:19:09Z</time>
      </trkpt>
      <trkpt lat="49.22845" lon="1.12803">
        <ele>92</ele>
        <time>2015-09-20T09:19:14Z</time>
      </trkpt>
      <trkpt lat="49.22844" lon="1.12817">
        <ele>93.2</ele>
        <time>2015-09-20T09:19:20Z</time>
      </trkpt>
      <trkpt lat="49.22845" lon="1.12833">
        <ele>93.9</ele>
        <time>2015-09-20T09:19:24Z</time>
      </trkpt>
      <trkpt lat="49.22847" lon="1.12847">
        <ele>94.7</ele>
        <time>2015-09-20T09:19:29Z</time>
      </trkpt>
      <trkpt lat="49.22848" lon="1.12863">
        <ele>95.7</ele>
        <time>2015-09-20T09:19:35Z</time>
      </trkpt>
      <trkpt lat="49.22848" lon="1.12878">
        <ele>96.5</ele>
        <time>2015-09-20T09:19:42Z</time>
      </trkpt>
      <trkpt lat="49.22847" lon="1.12892">
        <ele>97.4</ele>
        <time>2015-09-20T09:19:49Z</time>
      </trkpt>
      <trkpt lat="49.22847" lon="1.12908">
        <ele>98.3</ele>
        <time>2015-09-20T09:19:55Z</time>
      </trkpt>
      <trkpt lat="49.22845" lon="1.12922">
        <ele>98.9</ele>
        <time>2015-09-20T09:20:00Z</time>
      </trkpt>
      <trkpt lat="49.22842" lon="1.12936">
        <ele>99.7</ele>
        <time>2015-09-20T09:20:06Z</time>
      </trkpt>
      <trkpt lat="49.22832" lon="1.12938">
        <ele>100.8</ele>
        <time>2015-09-20T09:20:12Z</time>
      </trkpt>
      <trkpt lat="49.2282" lon="1.12938">
        <ele>101.4</ele>
        <time>2015-09-20T09:20:16Z</time>
      </trkpt>
      <trkpt lat="49.22812" lon="1.12932">
        <ele>102.2</ele>
        <time>2015-09-20T09:20:20Z</time>
      </trkpt>
      <trkpt lat="49.22803" lon="1.12926">
        <ele>102.9</ele>
        <time>2015-09-20T09:20:24Z</time>
      </trkpt>
      <trkpt lat="49.22794" lon="1.12922">
        <ele>103.6</ele>
        <time>2015-09-20T09:20:28Z</time>
      </trkpt>
      <trkpt lat="49.22785" lon="1.12924">
        <ele>104.4</ele>
        <time>2015-09-20T09:20:32Z</time>
      </trkpt>
      <trkpt lat="49.22781" lon="1.12941">
        <ele>105.1</ele>
        <time>2015-09-20T09:20:36Z</time>
      </trkpt>
      <trkpt lat="49.2278" lon="1.12957">
        <ele>105.6</ele>
        <time>2015-09-20T09:20:39Z</time>
      </trkpt>
      <trkpt lat="49.22778" lon="1.12976">
        <ele>106.1</ele>
        <time>2015-09-20T09:20:42Z</time>
      </trkpt>
      <trkpt lat="49.22777" lon="1.12995">
        <ele>106.5</ele>
        <time>2015-09-20T09:20:45Z</time>
      </trkpt>
      <trkpt lat="49.22777" lon="1.13015">
        <ele>106.9</ele>
        <time>2015-09-20T09:20:48Z</time>
      </trkpt>
      <trkpt lat="49.22776" lon="1.13029">
        <ele>107</ele>
        <time>2015-09-20T09:20:50Z</time>
      </trkpt>
      <trkpt lat="49.22774" lon="1.1305">
        <ele>107.3</ele>
        <time>2015-09-20T09:20:53Z</time>
      </trkpt>
      <trkpt lat="49.22773" lon="1.13065">
        <ele>107.4</ele>
        <time>2015-09-20T09:20:55Z</time>
      </trkpt>
      <trkpt lat="49.22771" lon="1.1308">
        <ele>107.5</ele>
        <time>2015-09-20T09:20:57Z</time>
      </trkpt>
      <trkpt lat="49.2277" lon="1.13097">
        <ele>107.5</ele>
        <time>2015-09-20T09:20:59Z</time>
      </trkpt>
      <trkpt lat="49.22769" lon="1.13115">
        <ele>107.6</ele>
        <time>2015-09-20T09:21:01Z</time>
      </trkpt>
      <trkpt lat="49.22767" lon="1.13131">
        <ele>107.7</ele>
        <time>2015-09-20T09:21:03Z</time>
      </trkpt>
      <trkpt lat="49.22766" lon="1.13148">
        <ele>107.6</ele>
        <time>2015-09-20T09:21:05Z</time>
      </trkpt>
      <trkpt lat="49.22764" lon="1.13165">
        <ele>107.5</ele>
        <time>2015-09-20T09:21:07Z</time>
      </trkpt>
      <trkpt lat="49.22757" lon="1.13179">
        <ele>107.3</ele>
        <time>2015-09-20T09:21:10Z</time>
      </trkpt>
      <trkpt lat="49.22746" lon="1.13175">
        <ele>107.1</ele>
        <time>2015-09-20T09:21:13Z</time>
      </trkpt>
      <trkpt lat="49.22734" lon="1.13173">
        <ele>106.9</ele>
        <time>2015-09-20T09:21:16Z</time>
      </trkpt>
      <trkpt lat="49.22724" lon="1.13171">
        <ele>106.7</ele>
        <time>2015-09-20T09:21:19Z</time>
      </trkpt>
      <trkpt lat="49.22714" lon="1.13163">
        <ele>106.6</ele>
        <time>2015-09-20T09:21:22Z</time>
      </trkpt>
      <trkpt lat="49.22703" lon="1.13157">
        <ele>106.6</ele>
        <time>2015-09-20T09:21:25Z</time>
      </trkpt>
      <trkpt lat="49.22692" lon="1.1315">
        <ele>106.7</ele>
        <time>2015-09-20T09:21:28Z</time>
      </trkpt>
      <trkpt lat="49.22681" lon="1.13148">
        <ele>106.8</ele>
        <time>2015-09-20T09:21:32Z</time>
      </trkpt>
      <trkpt lat="49.2267" lon="1.13143">
        <ele>107</ele>
        <time>2015-09-20T09:21:36Z</time>
      </trkpt>
      <trkpt lat="49.2266" lon="1.13135">
        <ele>107.4</ele>
        <time>2015-09-20T09:21:40Z</time>
      </trkpt>
      <trkpt lat="49.2265" lon="1.13132">
        <ele>107.7</ele>
        <time>2015-09-20T09:21:44Z</time>
      </trkpt>
      <trkpt lat="49.22638" lon="1.13124">
        <ele>108.2</ele>
        <time>2015-09-20T09:21:48Z</time>
      </trkpt>
      <trkpt lat="49.22629" lon="1.13119">
        <ele>108.7</ele>
        <time>2015-09-20T09:21:52Z</time>
      </trkpt>
      <trkpt lat="49.22619" lon="1.13117">
        <ele>109.4</ele>
        <time>2015-09-20T09:21:57Z</time>
      </trkpt>
      <trkpt lat="49.2261" lon="1.13114">
        <ele>110.1</ele>
        <time>2015-09-20T09:22:01Z</time>
      </trkpt>
      <trkpt lat="49.22602" lon="1.13108">
        <ele>110.7</ele>
        <time>2015-09-20T09:22:05Z</time>
      </trkpt>
      <trkpt lat="49.22591" lon="1.13103">
        <ele>111.6</ele>
        <time>2015-09-20T09:22:10Z</time>
      </trkpt>
      <trkpt lat="49.22583" lon="1.13097">
        <ele>112.1</ele>
        <time>2015-09-20T09:22:13Z</time>
      </trkpt>
      <trkpt lat="49.22573" lon="1.13093">
        <ele>112.7</ele>
        <time>2015-09-20T09:22:17Z</time>
      </trkpt>
      <trkpt lat="49.22563" lon="1.13085">
        <ele>113.4</ele>
        <time>2015-09-20T09:22:21Z</time>
      </trkpt>
      <trkpt lat="49.22554" lon="1.13082">
        <ele>114.2</ele>
        <time>2015-09-20T09:22:25Z</time>
      </trkpt>
      <trkpt lat="49.22546" lon="1.13076">
        <ele>114.9</ele>
        <time>2015-09-20T09:22:29Z</time>
      </trkpt>
      <trkpt lat="49.22537" lon="1.13072">
        <ele>115.6</ele>
        <time>2015-09-20T09:22:32Z</time>
      </trkpt>
      <trkpt lat="49.22527" lon="1.13067">
        <ele>116.7</ele>
        <time>2015-09-20T09:22:37Z</time>
      </trkpt>
      <trkpt lat="49.22517" lon="1.13063">
        <ele>117.5</ele>
        <time>2015-09-20T09:22:41Z</time>
      </trkpt>
      <trkpt lat="49.22508" lon="1.13059">
        <ele>118.1</ele>
        <time>2015-09-20T09:22:44Z</time>
      </trkpt>
      <trkpt lat="49.22498" lon="1.13053">
        <ele>118.9</ele>
        <time>2015-09-20T09:22:48Z</time>
      </trkpt>
      <trkpt lat="49.22487" lon="1.13046">
        <ele>119.5</ele>
        <time>2015-09-20T09:22:51Z</time>
      </trkpt>
      <trkpt lat="49.22478" lon="1.1304">
        <ele>120.1</ele>
        <time>2015-09-20T09:22:54Z</time>
      </trkpt>
      <trkpt lat="49.22468" lon="1.13036">
        <ele>120.6</ele>
        <time>2015-09-20T09:22:57Z</time>
      </trkpt>
      <trkpt lat="49.22458" lon="1.13032">
        <ele>121.2</ele>
        <time>2015-09-20T09:23:01Z</time>
      </trkpt>
      <trkpt lat="49.22447" lon="1.13027">
        <ele>121.7</ele>
        <time>2015-09-20T09:23:04Z</time>
      </trkpt>
      <trkpt lat="49.22436" lon="1.13021">
        <ele>122.2</ele>
        <time>2015-09-20T09:23:07Z</time>
      </trkpt>
      <trkpt lat="49.22426" lon="1.13015">
        <ele>122.6</ele>
        <time>2015-09-20T09:23:10Z</time>
      </trkpt>
      <trkpt lat="49.22416" lon="1.1301">
        <ele>123</ele>
        <time>2015-09-20T09:23:13Z</time>
      </trkpt>
      <trkpt lat="49.22407" lon="1.13004">
        <ele>123.3</ele>
        <time>2015-09-20T09:23:16Z</time>
      </trkpt>
      <trkpt lat="49.22397" lon="1.12999">
        <ele>123.5</ele>
        <time>2015-09-20T09:23:18Z</time>
      </trkpt>
      <trkpt lat="49.22385" lon="1.12993">
        <ele>123.8</ele>
        <time>2015-09-20T09:23:21Z</time>
      </trkpt>
      <trkpt lat="49.22373" lon="1.12986">
        <ele>124</ele>
        <time>2015-09-20T09:23:24Z</time>
      </trkpt>
      <trkpt lat="49.22365" lon="1.12981">
        <ele>124.1</ele>
        <time>2015-09-20T09:23:26Z</time>
      </trkpt>
      <trkpt lat="49.22355" lon="1.12975">
        <ele>124.2</ele>
        <time>2015-09-20T09:23:28Z</time>
      </trkpt>
      <trkpt lat="49.22345" lon="1.12968">
        <ele>124.3</ele>
        <time>2015-09-20T09:23:30Z</time>
      </trkpt>
      <trkpt lat="49.22334" lon="1.12962">
        <ele>124.3</ele>
        <time>2015-09-20T09:23:32Z</time>
      </trkpt>
      <trkpt lat="49.22326" lon="1.12958">
        <ele>124.4</ele>
        <time>2015-09-20T09:23:34Z</time>
      </trkpt>
      <trkpt lat="49.22313" lon="1.12953">
        <ele>124.2</ele>
        <time>2015-09-20T09:23:37Z</time>
      </trkpt>
      <trkpt lat="49.22299" lon="1.12945">
        <ele>123.9</ele>
        <time>2015-09-20T09:23:40Z</time>
      </trkpt>
      <trkpt lat="49.22287" lon="1.12939">
        <ele>123.4</ele>
        <time>2015-09-20T09:23:42Z</time>
      </trkpt>
      <trkpt lat="49.22274" lon="1.12932">
        <ele>122.8</ele>
        <time>2015-09-20T09:23:44Z</time>
      </trkpt>
      <trkpt lat="49.2226" lon="1.12926">
        <ele>121.9</ele>
        <time>2015-09-20T09:23:46Z</time>
      </trkpt>
      <trkpt lat="49.2225" lon="1.12918">
        <ele>121</ele>
        <time>2015-09-20T09:23:48Z</time>
      </trkpt>
      <trkpt lat="49.2224" lon="1.12916">
        <ele>120.3</ele>
        <time>2015-09-20T09:23:50Z</time>
      </trkpt>
      <trkpt lat="49.22231" lon="1.12911">
        <ele>119.3</ele>
        <time>2015-09-20T09:23:53Z</time>
      </trkpt>
      <trkpt lat="49.22221" lon="1.12908">
        <ele>118.5</ele>
        <time>2015-09-20T09:23:56Z</time>
      </trkpt>
      <trkpt lat="49.22212" lon="1.12906">
        <ele>117.8</ele>
        <time>2015-09-20T09:24:01Z</time>
      </trkpt>
      <trkpt lat="49.22203" lon="1.12906">
        <ele>117.9</ele>
        <time>2015-09-20T09:24:06Z</time>
      </trkpt>
      <trkpt lat="49.22194" lon="1.12908">
        <ele>118.5</ele>
        <time>2015-09-20T09:24:11Z</time>
      </trkpt>
      <trkpt lat="49.22195" lon="1.12925">
        <ele>119.1</ele>
        <time>2015-09-20T09:24:16Z</time>
      </trkpt>
      <trkpt lat="49.22196" lon="1.1294">
        <ele>119.5</ele>
        <time>2015-09-20T09:24:20Z</time>
      </trkpt>
      <trkpt lat="49.222" lon="1.12956">
        <ele>119.8</ele>
        <time>2015-09-20T09:24:23Z</time>
      </trkpt>
      <trkpt lat="49.22203" lon="1.12971">
        <ele>120</ele>
        <time>2015-09-20T09:24:26Z</time>
      </trkpt>
      <trkpt lat="49.22205" lon="1.12984">
        <ele>120.1</ele>
        <time>2015-09-20T09:24:28Z</time>
      </trkpt>
      <trkpt lat="49.22208" lon="1.12999">
        <ele>120.2</ele>
        <time>2015-09-20T09:24:30Z</time>
      </trkpt>
      <trkpt lat="49.22213" lon="1.13013">
        <ele>120.3</ele>
        <time>2015-09-20T09:24:32Z</time>
      </trkpt>
      <trkpt lat="49.22218" lon="1.13029">
        <ele>120.3</ele>
        <time>2015-09-20T09:24:34Z</time>
      </trkpt>
      <trkpt lat="49.22222" lon="1.13044">
        <ele>120.4</ele>
        <time>2015-09-20T09:24:36Z</time>
      </trkpt>
      <trkpt lat="49.22224" lon="1.13058">
        <ele>120.4</ele>
        <time>2015-09-20T09:24:38Z</time>
      </trkpt>
      <trkpt lat="49.22228" lon="1.13072">
        <ele>120.4</ele>
        <time>2015-09-20T09:24:40Z</time>
      </trkpt>
      <trkpt lat="49.2223" lon="1.13087">
        <ele>120.4</ele>
        <time>2015-09-20T09:24:42Z</time>
      </trkpt>
      <trkpt lat="49.22229" lon="1.13107">
        <ele>120.3</ele>
        <time>2015-09-20T09:24:45Z</time>
      </trkpt>
      <trkpt lat="49.22228" lon="1.13121">
        <ele>120.3</ele>
        <time>2015-09-20T09:24:47Z</time>
      </trkpt>
      <trkpt lat="49.22225" lon="1.13136">
        <ele>120.2</ele>
        <time>2015-09-20T09:24:50Z</time>
      </trkpt>
      <trkpt lat="49.22217" lon="1.13145">
        <ele>120.2</ele>
        <time>2015-09-20T09:24:54Z</time>
      </trkpt>
      <trkpt lat="49.2221" lon="1.13158">
        <ele>120</ele>
        <time>2015-09-20T09:24:58Z</time>
      </trkpt>
      <trkpt lat="49.22202" lon="1.13167">
        <ele>119.8</ele>
        <time>2015-09-20T09:25:01Z</time>
      </trkpt>
      <trkpt lat="49.22192" lon="1.13175">
        <ele>119.8</ele>
        <time>2015-09-20T09:25:04Z</time>
      </trkpt>
      <trkpt lat="49.22181" lon="1.13184">
        <ele>119.8</ele>
        <time>2015-09-20T09:25:07Z</time>
      </trkpt>
      <trkpt lat="49.2217" lon="1.13193">
        <ele>119.8</ele>
        <time>2015-09-20T09:25:10Z</time>
      </trkpt>
      <trkpt lat="49.22159" lon="1.13202">
        <ele>119.8</ele>
        <time>2015-09-20T09:25:13Z</time>
      </trkpt>
      <trkpt lat="49.22148" lon="1.13211">
        <ele>119.9</ele>
        <time>2015-09-20T09:25:16Z</time>
      </trkpt>
      <trkpt lat="49.22138" lon="1.1322">
        <ele>120.1</ele>
        <time>2015-09-20T09:25:19Z</time>
      </trkpt>
      <trkpt lat="49.22128" lon="1.13227">
        <ele>120.3</ele>
        <time>2015-09-20T09:25:22Z</time>
      </trkpt>
      <trkpt lat="49.22119" lon="1.13235">
        <ele>120.6</ele>
        <time>2015-09-20T09:25:25Z</time>
      </trkpt>
      <trkpt lat="49.22109" lon="1.13242">
        <ele>121</ele>
        <time>2015-09-20T09:25:28Z</time>
      </trkpt>
      <trkpt lat="49.221" lon="1.13249">
        <ele>121.5</ele>
        <time>2015-09-20T09:25:31Z</time>
      </trkpt>
      <trkpt lat="49.2209" lon="1.13257">
        <ele>122</ele>
        <time>2015-09-20T09:25:34Z</time>
      </trkpt>
      <trkpt lat="49.2208" lon="1.13265">
        <ele>122.6</ele>
        <time>2015-09-20T09:25:37Z</time>
      </trkpt>
      <trkpt lat="49.2207" lon="1.13273">
        <ele>123.1</ele>
        <time>2015-09-20T09:25:40Z</time>
      </trkpt>
      <trkpt lat="49.22059" lon="1.13282">
        <ele>123.6</ele>
        <time>2015-09-20T09:25:43Z</time>
      </trkpt>
      <trkpt lat="49.22049" lon="1.1329">
        <ele>124.1</ele>
        <time>2015-09-20T09:25:46Z</time>
      </trkpt>
      <trkpt lat="49.2204" lon="1.133">
        <ele>124.6</ele>
        <time>2015-09-20T09:25:49Z</time>
      </trkpt>
      <trkpt lat="49.22031" lon="1.13311">
        <ele>125.1</ele>
        <time>2015-09-20T09:25:52Z</time>
      </trkpt>
      <trkpt lat="49.22022" lon="1.13324">
        <ele>125.6</ele>
        <time>2015-09-20T09:25:55Z</time>
      </trkpt>
      <trkpt lat="49.22012" lon="1.13337">
        <ele>126</ele>
        <time>2015-09-20T09:25:58Z</time>
      </trkpt>
      <trkpt lat="49.22003" lon="1.1335">
        <ele>126.4</ele>
        <time>2015-09-20T09:26:01Z</time>
      </trkpt>
      <trkpt lat="49.21993" lon="1.13363">
        <ele>126.7</ele>
        <time>2015-09-20T09:26:04Z</time>
      </trkpt>
      <trkpt lat="49.21984" lon="1.13376">
        <ele>127.1</ele>
        <time>2015-09-20T09:26:07Z</time>
      </trkpt>
      <trkpt lat="49.21974" lon="1.1339">
        <ele>127.4</ele>
        <time>2015-09-20T09:26:10Z</time>
      </trkpt>
      <trkpt lat="49.21963" lon="1.13403">
        <ele>127.7</ele>
        <time>2015-09-20T09:26:13Z</time>
      </trkpt>
      <trkpt lat="49.21956" lon="1.13412">
        <ele>127.9</ele>
        <time>2015-09-20T09:26:15Z</time>
      </trkpt>
      <trkpt lat="49.21946" lon="1.13426">
        <ele>128.2</ele>
        <time>2015-09-20T09:26:18Z</time>
      </trkpt>
      <trkpt lat="49.21939" lon="1.13436">
        <ele>128.3</ele>
        <time>2015-09-20T09:26:20Z</time>
      </trkpt>
      <trkpt lat="49.21932" lon="1.13447">
        <ele>128.5</ele>
        <time>2015-09-20T09:26:22Z</time>
      </trkpt>
      <trkpt lat="49.21924" lon="1.13457">
        <ele>128.6</ele>
        <time>2015-09-20T09:26:24Z</time>
      </trkpt>
      <trkpt lat="49.21916" lon="1.13467">
        <ele>128.8</ele>
        <time>2015-09-20T09:26:26Z</time>
      </trkpt>
      <trkpt lat="49.21909" lon="1.13477">
        <ele>128.9</ele>
        <time>2015-09-20T09:26:28Z</time>
      </trkpt>
      <trkpt lat="49.21901" lon="1.13488">
        <ele>129.1</ele>
        <time>2015-09-20T09:26:30Z</time>
      </trkpt>
      <trkpt lat="49.21894" lon="1.13499">
        <ele>129.2</ele>
        <time>2015-09-20T09:26:32Z</time>
      </trkpt>
      <trkpt lat="49.21886" lon="1.13509">
        <ele>129.4</ele>
        <time>2015-09-20T09:26:34Z</time>
      </trkpt>
      <trkpt lat="49.21878" lon="1.1352">
        <ele>129.5</ele>
        <time>2015-09-20T09:26:36Z</time>
      </trkpt>
      <trkpt lat="49.2187" lon="1.1353">
        <ele>129.7</ele>
        <time>2015-09-20T09:26:38Z</time>
      </trkpt>
      <trkpt lat="49.21862" lon="1.13541">
        <ele>129.9</ele>
        <time>2015-09-20T09:26:40Z</time>
      </trkpt>
      <trkpt lat="49.21853" lon="1.13551">
        <ele>130</ele>
        <time>2015-09-20T09:26:42Z</time>
      </trkpt>
      <trkpt lat="49.21844" lon="1.13562">
        <ele>130.1</ele>
        <time>2015-09-20T09:26:44Z</time>
      </trkpt>
      <trkpt lat="49.21834" lon="1.13573">
        <ele>130.2</ele>
        <time>2015-09-20T09:26:46Z</time>
      </trkpt>
      <trkpt lat="49.21824" lon="1.13584">
        <ele>130.3</ele>
        <time>2015-09-20T09:26:48Z</time>
      </trkpt>
      <trkpt lat="49.21814" lon="1.13596">
        <ele>130.4</ele>
        <time>2015-09-20T09:26:50Z</time>
      </trkpt>
      <trkpt lat="49.21804" lon="1.13607">
        <ele>130.4</ele>
        <time>2015-09-20T09:26:52Z</time>
      </trkpt>
      <trkpt lat="49.21793" lon="1.1362">
        <ele>130.4</ele>
        <time>2015-09-20T09:26:54Z</time>
      </trkpt>
      <trkpt lat="49.21783" lon="1.13631">
        <ele>130.4</ele>
        <time>2015-09-20T09:26:56Z</time>
      </trkpt>
      <trkpt lat="49.21772" lon="1.13643">
        <ele>130.4</ele>
        <time>2015-09-20T09:26:58Z</time>
      </trkpt>
      <trkpt lat="49.21761" lon="1.13653">
        <ele>130.4</ele>
        <time>2015-09-20T09:27:00Z</time>
      </trkpt>
      <trkpt lat="49.21751" lon="1.13664">
        <ele>130.3</ele>
        <time>2015-09-20T09:27:02Z</time>
      </trkpt>
      <trkpt lat="49.21741" lon="1.13674">
        <ele>130.2</ele>
        <time>2015-09-20T09:27:04Z</time>
      </trkpt>
      <trkpt lat="49.21731" lon="1.13684">
        <ele>130</ele>
        <time>2015-09-20T09:27:06Z</time>
      </trkpt>
      <trkpt lat="49.2172" lon="1.13685">
        <ele>129.7</ele>
        <time>2015-09-20T09:27:09Z</time>
      </trkpt>
      <trkpt lat="49.2171" lon="1.13673">
        <ele>129.4</ele>
        <time>2015-09-20T09:27:12Z</time>
      </trkpt>
      <trkpt lat="49.21703" lon="1.13659">
        <ele>129</ele>
        <time>2015-09-20T09:27:15Z</time>
      </trkpt>
      <trkpt lat="49.21694" lon="1.13645">
        <ele>128.7</ele>
        <time>2015-09-20T09:27:18Z</time>
      </trkpt>
      <trkpt lat="49.21686" lon="1.13631">
        <ele>128.5</ele>
        <time>2015-09-20T09:27:21Z</time>
      </trkpt>
      <trkpt lat="49.21678" lon="1.13618">
        <ele>128.5</ele>
        <time>2015-09-20T09:27:24Z</time>
      </trkpt>
      <trkpt lat="49.2167" lon="1.13605">
        <ele>128.7</ele>
        <time>2015-09-20T09:27:27Z</time>
      </trkpt>
      <trkpt lat="49.21663" lon="1.13591">
        <ele>128.8</ele>
        <time>2015-09-20T09:27:30Z</time>
      </trkpt>
      <trkpt lat="49.21656" lon="1.13579">
        <ele>128.9</ele>
        <time>2015-09-20T09:27:33Z</time>
      </trkpt>
      <trkpt lat="49.21648" lon="1.13566">
        <ele>129</ele>
        <time>2015-09-20T09:27:36Z</time>
      </trkpt>
      <trkpt lat="49.2164" lon="1.13553">
        <ele>129.2</ele>
        <time>2015-09-20T09:27:39Z</time>
      </trkpt>
      <trkpt lat="49.21632" lon="1.13541">
        <ele>129.4</ele>
        <time>2015-09-20T09:27:42Z</time>
      </trkpt>
      <trkpt lat="49.21626" lon="1.13531">
        <ele>129.6</ele>
        <time>2015-09-20T09:27:45Z</time>
      </trkpt>
      <trkpt lat="49.21619" lon="1.13522">
        <ele>129.9</ele>
        <time>2015-09-20T09:27:48Z</time>
      </trkpt>
      <trkpt lat="49.21612" lon="1.1351">
        <ele>130.1</ele>
        <time>2015-09-20T09:27:51Z</time>
      </trkpt>
      <trkpt lat="49.21605" lon="1.13497">
        <ele>130.4</ele>
        <time>2015-09-20T09:27:54Z</time>
      </trkpt>
      <trkpt lat="49.21597" lon="1.13486">
        <ele>130.7</ele>
        <time>2015-09-20T09:27:57Z</time>
      </trkpt>
      <trkpt lat="49.2159" lon="1.13476">
        <ele>131.1</ele>
        <time>2015-09-20T09:28:01Z</time>
      </trkpt>
      <trkpt lat="49.21582" lon="1.13465">
        <ele>131.4</ele>
        <time>2015-09-20T09:28:05Z</time>
      </trkpt>
      <trkpt lat="49.21575" lon="1.13455">
        <ele>131.6</ele>
        <time>2015-09-20T09:28:10Z</time>
      </trkpt>
      <trkpt lat="49.21568" lon="1.13444">
        <ele>131.8</ele>
        <time>2015-09-20T09:28:15Z</time>
      </trkpt>
      <trkpt lat="49.21561" lon="1.13433">
        <ele>132</ele>
        <time>2015-09-20T09:28:19Z</time>
      </trkpt>
      <trkpt lat="49.21554" lon="1.13423">
        <ele>132.1</ele>
        <time>2015-09-20T09:28:23Z</time>
      </trkpt>
      <trkpt lat="49.21547" lon="1.13413">
        <ele>132.3</ele>
        <time>2015-09-20T09:28:27Z</time>
      </trkpt>
      <trkpt lat="49.2154" lon="1.13402">
        <ele>132.5</ele>
        <time>2015-09-20T09:28:31Z</time>
      </trkpt>
      <trkpt lat="49.21532" lon="1.1339">
        <ele>132.6</ele>
        <time>2015-09-20T09:28:35Z</time>
      </trkpt>
      <trkpt lat="49.21525" lon="1.13378">
        <ele>132.8</ele>
        <time>2015-09-20T09:28:39Z</time>
      </trkpt>
      <trkpt lat="49.21518" lon="1.13367">
        <ele>132.9</ele>
        <time>2015-09-20T09:28:43Z</time>
      </trkpt>
      <trkpt lat="49.21512" lon="1.13357">
        <ele>133</ele>
        <time>2015-09-20T09:28:49Z</time>
      </trkpt>
      <trkpt lat="49.21506" lon="1.13346">
        <ele>133.2</ele>
        <time>2015-09-20T09:28:53Z</time>
      </trkpt>
      <trkpt lat="49.21499" lon="1.13335">
        <ele>133.3</ele>
        <time>2015-09-20T09:28:56Z</time>
      </trkpt>
      <trkpt lat="49.21492" lon="1.13325">
        <ele>133.4</ele>
        <time>2015-09-20T09:28:59Z</time>
      </trkpt>
      <trkpt lat="49.21482" lon="1.13315">
        <ele>133.5</ele>
        <time>2015-09-20T09:29:02Z</time>
      </trkpt>
      <trkpt lat="49.21469" lon="1.13319">
        <ele>133.6</ele>
        <time>2015-09-20T09:29:05Z</time>
      </trkpt>
      <trkpt lat="49.21461" lon="1.13328">
        <ele>133.7</ele>
        <time>2015-09-20T09:29:07Z</time>
      </trkpt>
      <trkpt lat="49.21454" lon="1.13338">
        <ele>133.8</ele>
        <time>2015-09-20T09:29:09Z</time>
      </trkpt>
      <trkpt lat="49.21446" lon="1.13348">
        <ele>133.8</ele>
        <time>2015-09-20T09:29:11Z</time>
      </trkpt>
      <trkpt lat="49.21438" lon="1.13358">
        <ele>133.9</ele>
        <time>2015-09-20T09:29:13Z</time>
      </trkpt>
      <trkpt lat="49.21431" lon="1.13367">
        <ele>133.9</ele>
        <time>2015-09-20T09:29:15Z</time>
      </trkpt>
      <trkpt lat="49.21424" lon="1.13376">
        <ele>133.9</ele>
        <time>2015-09-20T09:29:17Z</time>
      </trkpt>
      <trkpt lat="49.21413" lon="1.13389">
        <ele>134</ele>
        <time>2015-09-20T09:29:20Z</time>
      </trkpt>
      <trkpt lat="49.21406" lon="1.13398">
        <ele>134</ele>
        <time>2015-09-20T09:29:22Z</time>
      </trkpt>
      <trkpt lat="49.21398" lon="1.13408">
        <ele>133.9</ele>
        <time>2015-09-20T09:29:25Z</time>
      </trkpt>
      <trkpt lat="49.21389" lon="1.1342">
        <ele>133.8</ele>
        <time>2015-09-20T09:29:29Z</time>
      </trkpt>
      <trkpt lat="49.21378" lon="1.13429">
        <ele>133.7</ele>
        <time>2015-09-20T09:29:32Z</time>
      </trkpt>
      <trkpt lat="49.2137" lon="1.13437">
        <ele>133.7</ele>
        <time>2015-09-20T09:29:34Z</time>
      </trkpt>
      <trkpt lat="49.21361" lon="1.13446">
        <ele>133.6</ele>
        <time>2015-09-20T09:29:37Z</time>
      </trkpt>
      <trkpt lat="49.2135" lon="1.13452">
        <ele>133.6</ele>
        <time>2015-09-20T09:29:41Z</time>
      </trkpt>
      <trkpt lat="49.2134" lon="1.13457">
        <ele>133.5</ele>
        <time>2015-09-20T09:29:44Z</time>
      </trkpt>
      <trkpt lat="49.21329" lon="1.13463">
        <ele>133.5</ele>
        <time>2015-09-20T09:29:47Z</time>
      </trkpt>
      <trkpt lat="49.2132" lon="1.13464">
        <ele>133.4</ele>
        <time>2015-09-20T09:29:50Z</time>
      </trkpt>
      <trkpt lat="49.21307" lon="1.13467">
        <ele>133.4</ele>
        <time>2015-09-20T09:29:55Z</time>
      </trkpt>
      <trkpt lat="49.21297" lon="1.13466">
        <ele>133.3</ele>
        <time>2015-09-20T09:29:59Z</time>
      </trkpt>
      <trkpt lat="49.21288" lon="1.13465">
        <ele>133.3</ele>
        <time>2015-09-20T09:30:02Z</time>
      </trkpt>
      <trkpt lat="49.21279" lon="1.13462">
        <ele>133.2</ele>
        <time>2015-09-20T09:30:04Z</time>
      </trkpt>
      <trkpt lat="49.21269" lon="1.13459">
        <ele>133.1</ele>
        <time>2015-09-20T09:30:06Z</time>
      </trkpt>
      <trkpt lat="49.2126" lon="1.13455">
        <ele>133</ele>
        <time>2015-09-20T09:30:08Z</time>
      </trkpt>
      <trkpt lat="49.2125" lon="1.13452">
        <ele>132.9</ele>
        <time>2015-09-20T09:30:10Z</time>
      </trkpt>
      <trkpt lat="49.21241" lon="1.13446">
        <ele>132.8</ele>
        <time>2015-09-20T09:30:12Z</time>
      </trkpt>
      <trkpt lat="49.21232" lon="1.13438">
        <ele>132.7</ele>
        <time>2015-09-20T09:30:14Z</time>
      </trkpt>
      <trkpt lat="49.21223" lon="1.13429">
        <ele>132.7</ele>
        <time>2015-09-20T09:30:16Z</time>
      </trkpt>
      <trkpt lat="49.21215" lon="1.13423">
        <ele>132.6</ele>
        <time>2015-09-20T09:30:18Z</time>
      </trkpt>
      <trkpt lat="49.21206" lon="1.13417">
        <ele>132.5</ele>
        <time>2015-09-20T09:30:20Z</time>
      </trkpt>
      <trkpt lat="49.21196" lon="1.13409">
        <ele>132.4</ele>
        <time>2015-09-20T09:30:23Z</time>
      </trkpt>
      <trkpt lat="49.2119" lon="1.13424">
        <ele>132.3</ele>
        <time>2015-09-20T09:30:27Z</time>
      </trkpt>
      <trkpt lat="49.21185" lon="1.13439">
        <ele>132.2</ele>
        <time>2015-09-20T09:30:30Z</time>
      </trkpt>
      <trkpt lat="49.21182" lon="1.13456">
        <ele>132</ele>
        <time>2015-09-20T09:30:33Z</time>
      </trkpt>
      <trkpt lat="49.21179" lon="1.13472">
        <ele>131.9</ele>
        <time>2015-09-20T09:30:35Z</time>
      </trkpt>
      <trkpt lat="49.21175" lon="1.13487">
        <ele>131.7</ele>
        <time>2015-09-20T09:30:37Z</time>
      </trkpt>
      <trkpt lat="49.2117" lon="1.13508">
        <ele>131.6</ele>
        <time>2015-09-20T09:30:40Z</time>
      </trkpt>
      <trkpt lat="49.21167" lon="1.13527">
        <ele>131.5</ele>
        <time>2015-09-20T09:30:42Z</time>
      </trkpt>
      <trkpt lat="49.21161" lon="1.13545">
        <ele>131.4</ele>
        <time>2015-09-20T09:30:44Z</time>
      </trkpt>
      <trkpt lat="49.21159" lon="1.13565">
        <ele>131.4</ele>
        <time>2015-09-20T09:30:46Z</time>
      </trkpt>
      <trkpt lat="49.21157" lon="1.13587">
        <ele>131.3</ele>
        <time>2015-09-20T09:30:48Z</time>
      </trkpt>
      <trkpt lat="49.21154" lon="1.13608">
        <ele>131.2</ele>
        <time>2015-09-20T09:30:51Z</time>
      </trkpt>
      <trkpt lat="49.21152" lon="1.13628">
        <ele>131.2</ele>
        <time>2015-09-20T09:30:53Z</time>
      </trkpt>
      <trkpt lat="49.2115" lon="1.13643">
        <ele>131.1</ele>
        <time>2015-09-20T09:30:55Z</time>
      </trkpt>
      <trkpt lat="49.21148" lon="1.13659">
        <ele>131.1</ele>
        <time>2015-09-20T09:30:57Z</time>
      </trkpt>
      <trkpt lat="49.21147" lon="1.13679">
        <ele>131</ele>
        <time>2015-09-20T09:30:59Z</time>
      </trkpt>
      <trkpt lat="49.21144" lon="1.13693">
        <ele>131</ele>
        <time>2015-09-20T09:31:00Z</time>
      </trkpt>
      <trkpt lat="49.2114" lon="1.13714">
        <ele>131</ele>
        <time>2015-09-20T09:31:02Z</time>
      </trkpt>
      <trkpt lat="49.21135" lon="1.13736">
        <ele>130.9</ele>
        <time>2015-09-20T09:31:04Z</time>
      </trkpt>
      <trkpt lat="49.2113" lon="1.13758">
        <ele>130.9</ele>
        <time>2015-09-20T09:31:06Z</time>
      </trkpt>
      <trkpt lat="49.21128" lon="1.13779">
        <ele>130.9</ele>
        <time>2015-09-20T09:31:08Z</time>
      </trkpt>
      <trkpt lat="49.21128" lon="1.13795">
        <ele>130.8</ele>
        <time>2015-09-20T09:31:10Z</time>
      </trkpt>
      <trkpt lat="49.21123" lon="1.13815">
        <ele>130.7</ele>
        <time>2015-09-20T09:31:12Z</time>
      </trkpt>
      <trkpt lat="49.21123" lon="1.13833">
        <ele>130.6</ele>
        <time>2015-09-20T09:31:14Z</time>
      </trkpt>
      <trkpt lat="49.21124" lon="1.13849">
        <ele>130.5</ele>
        <time>2015-09-20T09:31:16Z</time>
      </trkpt>
      <trkpt lat="49.21122" lon="1.13866">
        <ele>130.3</ele>
        <time>2015-09-20T09:31:18Z</time>
      </trkpt>
      <trkpt lat="49.21119" lon="1.13884">
        <ele>130.1</ele>
        <time>2015-09-20T09:31:21Z</time>
      </trkpt>
      <trkpt lat="49.21118" lon="1.13901">
        <ele>129.9</ele>
        <time>2015-09-20T09:31:23Z</time>
      </trkpt>
      <trkpt lat="49.21115" lon="1.13914">
        <ele>129.8</ele>
        <time>2015-09-20T09:31:25Z</time>
      </trkpt>
      <trkpt lat="49.21111" lon="1.1393">
        <ele>129.6</ele>
        <time>2015-09-20T09:31:27Z</time>
      </trkpt>
      <trkpt lat="49.21109" lon="1.13946">
        <ele>129.5</ele>
        <time>2015-09-20T09:31:29Z</time>
      </trkpt>
      <trkpt lat="49.21106" lon="1.13962">
        <ele>129.4</ele>
        <time>2015-09-20T09:31:31Z</time>
      </trkpt>
      <trkpt lat="49.211" lon="1.13979">
        <ele>129.3</ele>
        <time>2015-09-20T09:31:33Z</time>
      </trkpt>
      <trkpt lat="49.21095" lon="1.13998">
        <ele>129.2</ele>
        <time>2015-09-20T09:31:35Z</time>
      </trkpt>
      <trkpt lat="49.21092" lon="1.14016">
        <ele>129.2</ele>
        <time>2015-09-20T09:31:37Z</time>
      </trkpt>
      <trkpt lat="49.21089" lon="1.14036">
        <ele>129.1</ele>
        <time>2015-09-20T09:31:39Z</time>
      </trkpt>
      <trkpt lat="49.21088" lon="1.14056">
        <ele>129</ele>
        <time>2015-09-20T09:31:41Z</time>
      </trkpt>
      <trkpt lat="49.21089" lon="1.14077">
        <ele>129</ele>
        <time>2015-09-20T09:31:43Z</time>
      </trkpt>
      <trkpt lat="49.2109" lon="1.14094">
        <ele>128.9</ele>
        <time>2015-09-20T09:31:45Z</time>
      </trkpt>
      <trkpt lat="49.21094" lon="1.14112">
        <ele>128.9</ele>
        <time>2015-09-20T09:31:47Z</time>
      </trkpt>
      <trkpt lat="49.21099" lon="1.14125">
        <ele>128.8</ele>
        <time>2015-09-20T09:31:49Z</time>
      </trkpt>
      <trkpt lat="49.21107" lon="1.14133">
        <ele>128.7</ele>
        <time>2015-09-20T09:31:51Z</time>
      </trkpt>
      <trkpt lat="49.21118" lon="1.1414">
        <ele>128.6</ele>
        <time>2015-09-20T09:31:53Z</time>
      </trkpt>
      <trkpt lat="49.21131" lon="1.14147">
        <ele>128.4</ele>
        <time>2015-09-20T09:31:55Z</time>
      </trkpt>
      <trkpt lat="49.21145" lon="1.14155">
        <ele>128.1</ele>
        <time>2015-09-20T09:31:57Z</time>
      </trkpt>
      <trkpt lat="49.21155" lon="1.14161">
        <ele>127.8</ele>
        <time>2015-09-20T09:31:59Z</time>
      </trkpt>
      <trkpt lat="49.21159" lon="1.1418">
        <ele>127.2</ele>
        <time>2015-09-20T09:32:02Z</time>
      </trkpt>
      <trkpt lat="49.2116" lon="1.14197">
        <ele>126.3</ele>
        <time>2015-09-20T09:32:05Z</time>
      </trkpt>
      <trkpt lat="49.21162" lon="1.14212">
        <ele>124.7</ele>
        <time>2015-09-20T09:32:10Z</time>
      </trkpt>
      <trkpt lat="49.21164" lon="1.14231">
        <ele>123.7</ele>
        <time>2015-09-20T09:32:13Z</time>
      </trkpt>
      <trkpt lat="49.21164" lon="1.14248">
        <ele>123.2</ele>
        <time>2015-09-20T09:32:15Z</time>
      </trkpt>
      <trkpt lat="49.21165" lon="1.14262">
        <ele>122.7</ele>
        <time>2015-09-20T09:32:17Z</time>
      </trkpt>
      <trkpt lat="49.21167" lon="1.14278">
        <ele>122.1</ele>
        <time>2015-09-20T09:32:19Z</time>
      </trkpt>
      <trkpt lat="49.21163" lon="1.14292">
        <ele>121.4</ele>
        <time>2015-09-20T09:32:21Z</time>
      </trkpt>
      <trkpt lat="49.21162" lon="1.14307">
        <ele>120.7</ele>
        <time>2015-09-20T09:32:23Z</time>
      </trkpt>
      <trkpt lat="49.21164" lon="1.14323">
        <ele>120.1</ele>
        <time>2015-09-20T09:32:25Z</time>
      </trkpt>
      <trkpt lat="49.21166" lon="1.14338">
        <ele>119.5</ele>
        <time>2015-09-20T09:32:27Z</time>
      </trkpt>
      <trkpt lat="49.21171" lon="1.14359">
        <ele>118.9</ele>
        <time>2015-09-20T09:32:29Z</time>
      </trkpt>
      <trkpt lat="49.21175" lon="1.1438">
        <ele>118.2</ele>
        <time>2015-09-20T09:32:31Z</time>
      </trkpt>
      <trkpt lat="49.21176" lon="1.14399">
        <ele>117.5</ele>
        <time>2015-09-20T09:32:33Z</time>
      </trkpt>
      <trkpt lat="49.21176" lon="1.14419">
        <ele>116.6</ele>
        <time>2015-09-20T09:32:35Z</time>
      </trkpt>
      <trkpt lat="49.21172" lon="1.14442">
        <ele>115.7</ele>
        <time>2015-09-20T09:32:37Z</time>
      </trkpt>
      <trkpt lat="49.21169" lon="1.14465">
        <ele>114.6</ele>
        <time>2015-09-20T09:32:39Z</time>
      </trkpt>
      <trkpt lat="49.21164" lon="1.14488">
        <ele>113.6</ele>
        <time>2015-09-20T09:32:41Z</time>
      </trkpt>
      <trkpt lat="49.21157" lon="1.14511">
        <ele>112.7</ele>
        <time>2015-09-20T09:32:43Z</time>
      </trkpt>
      <trkpt lat="49.2115" lon="1.14533">
        <ele>111.8</ele>
        <time>2015-09-20T09:32:45Z</time>
      </trkpt>
      <trkpt lat="49.21145" lon="1.14555">
        <ele>110.8</ele>
        <time>2015-09-20T09:32:47Z</time>
      </trkpt>
      <trkpt lat="49.21138" lon="1.14578">
        <ele>109.9</ele>
        <time>2015-09-20T09:32:49Z</time>
      </trkpt>
      <trkpt lat="49.21129" lon="1.14593">
        <ele>108.8</ele>
        <time>2015-09-20T09:32:51Z</time>
      </trkpt>
      <trkpt lat="49.21118" lon="1.14608">
        <ele>107.7</ele>
        <time>2015-09-20T09:32:53Z</time>
      </trkpt>
      <trkpt lat="49.21109" lon="1.14626">
        <ele>106.4</ele>
        <time>2015-09-20T09:32:55Z</time>
      </trkpt>
      <trkpt lat="49.21104" lon="1.14645">
        <ele>105.2</ele>
        <time>2015-09-20T09:32:57Z</time>
      </trkpt>
      <trkpt lat="49.21103" lon="1.14664">
        <ele>104.1</ele>
        <time>2015-09-20T09:32:59Z</time>
      </trkpt>
      <trkpt lat="49.21102" lon="1.14687">
        <ele>102.9</ele>
        <time>2015-09-20T09:33:01Z</time>
      </trkpt>
      <trkpt lat="49.21099" lon="1.14707">
        <ele>101.5</ele>
        <time>2015-09-20T09:33:03Z</time>
      </trkpt>
      <trkpt lat="49.21095" lon="1.14727">
        <ele>100.2</ele>
        <time>2015-09-20T09:33:05Z</time>
      </trkpt>
      <trkpt lat="49.21088" lon="1.14741">
        <ele>99.6</ele>
        <time>2015-09-20T09:33:06Z</time>
      </trkpt>
      <trkpt lat="49.21077" lon="1.1476">
        <ele>98.5</ele>
        <time>2015-09-20T09:33:08Z</time>
      </trkpt>
      <trkpt lat="49.21067" lon="1.1478">
        <ele>97.1</ele>
        <time>2015-09-20T09:33:10Z</time>
      </trkpt>
      <trkpt lat="49.2106" lon="1.14791">
        <ele>96.4</ele>
        <time>2015-09-20T09:33:11Z</time>
      </trkpt>
      <trkpt lat="49.21054" lon="1.14804">
        <ele>95.8</ele>
        <time>2015-09-20T09:33:12Z</time>
      </trkpt>
      <trkpt lat="49.21047" lon="1.1482">
        <ele>95.2</ele>
        <time>2015-09-20T09:33:13Z</time>
      </trkpt>
      <trkpt lat="49.21041" lon="1.14834">
        <ele>94.5</ele>
        <time>2015-09-20T09:33:14Z</time>
      </trkpt>
      <trkpt lat="49.21037" lon="1.14846">
        <ele>93.9</ele>
        <time>2015-09-20T09:33:15Z</time>
      </trkpt>
      <trkpt lat="49.21029" lon="1.14871">
        <ele>92.6</ele>
        <time>2015-09-20T09:33:17Z</time>
      </trkpt>
      <trkpt lat="49.21025" lon="1.14884">
        <ele>91.9</ele>
        <time>2015-09-20T09:33:18Z</time>
      </trkpt>
      <trkpt lat="49.21018" lon="1.14903">
        <ele>90.4</ele>
        <time>2015-09-20T09:33:20Z</time>
      </trkpt>
      <trkpt lat="49.21014" lon="1.14916">
        <ele>88.8</ele>
        <time>2015-09-20T09:33:22Z</time>
      </trkpt>
      <trkpt lat="49.21007" lon="1.14924">
        <ele>86.7</ele>
        <time>2015-09-20T09:33:25Z</time>
      </trkpt>
      <trkpt lat="49.20993" lon="1.1493">
        <ele>84.8</ele>
        <time>2015-09-20T09:33:28Z</time>
      </trkpt>
      <trkpt lat="49.2098" lon="1.14932">
        <ele>83.2</ele>
        <time>2015-09-20T09:33:30Z</time>
      </trkpt>
      <trkpt lat="49.20961" lon="1.14935">
        <ele>81.3</ele>
        <time>2015-09-20T09:33:32Z</time>
      </trkpt>
      <trkpt lat="49.20951" lon="1.14936">
        <ele>80.3</ele>
        <time>2015-09-20T09:33:33Z</time>
      </trkpt>
      <trkpt lat="49.2094" lon="1.14936">
        <ele>79.4</ele>
        <time>2015-09-20T09:33:34Z</time>
      </trkpt>
      <trkpt lat="49.2093" lon="1.14934">
        <ele>78.5</ele>
        <time>2015-09-20T09:33:35Z</time>
      </trkpt>
      <trkpt lat="49.2092" lon="1.14932">
        <ele>77.6</ele>
        <time>2015-09-20T09:33:36Z</time>
      </trkpt>
      <trkpt lat="49.2091" lon="1.1493">
        <ele>76.8</ele>
        <time>2015-09-20T09:33:37Z</time>
      </trkpt>
      <trkpt lat="49.20899" lon="1.14927">
        <ele>75.9</ele>
        <time>2015-09-20T09:33:38Z</time>
      </trkpt>
      <trkpt lat="49.20889" lon="1.14924">
        <ele>75</ele>
        <time>2015-09-20T09:33:39Z</time>
      </trkpt>
      <trkpt lat="49.20879" lon="1.14923">
        <ele>74.1</ele>
        <time>2015-09-20T09:33:40Z</time>
      </trkpt>
      <trkpt lat="49.20869" lon="1.14922">
        <ele>73.2</ele>
        <time>2015-09-20T09:33:41Z</time>
      </trkpt>
      <trkpt lat="49.20859" lon="1.14921">
        <ele>72.3</ele>
        <time>2015-09-20T09:33:42Z</time>
      </trkpt>
      <trkpt lat="49.20848" lon="1.14922">
        <ele>71.5</ele>
        <time>2015-09-20T09:33:43Z</time>
      </trkpt>
      <trkpt lat="49.20838" lon="1.14924">
        <ele>70.7</ele>
        <time>2015-09-20T09:33:44Z</time>
      </trkpt>
      <trkpt lat="49.20827" lon="1.14927">
        <ele>69.8</ele>
        <time>2015-09-20T09:33:45Z</time>
      </trkpt>
      <trkpt lat="49.20817" lon="1.1493">
        <ele>69</ele>
        <time>2015-09-20T09:33:46Z</time>
      </trkpt>
      <trkpt lat="49.20807" lon="1.14934">
        <ele>68.2</ele>
        <time>2015-09-20T09:33:47Z</time>
      </trkpt>
      <trkpt lat="49.20797" lon="1.14938">
        <ele>67.4</ele>
        <time>2015-09-20T09:33:48Z</time>
      </trkpt>
      <trkpt lat="49.20786" lon="1.14943">
        <ele>66.5</ele>
        <time>2015-09-20T09:33:49Z</time>
      </trkpt>
      <trkpt lat="49.20776" lon="1.14949">
        <ele>65.7</ele>
        <time>2015-09-20T09:33:50Z</time>
      </trkpt>
      <trkpt lat="49.20766" lon="1.14952">
        <ele>64.8</ele>
        <time>2015-09-20T09:33:51Z</time>
      </trkpt>
      <trkpt lat="49.20755" lon="1.14954">
        <ele>64</ele>
        <time>2015-09-20T09:33:52Z</time>
      </trkpt>
      <trkpt lat="49.20745" lon="1.14955">
        <ele>63.1</ele>
        <time>2015-09-20T09:33:53Z</time>
      </trkpt>
      <trkpt lat="49.20728" lon="1.14961">
        <ele>61.5</ele>
        <time>2015-09-20T09:33:55Z</time>
      </trkpt>
      <trkpt lat="49.20714" lon="1.14974">
        <ele>60</ele>
        <time>2015-09-20T09:33:57Z</time>
      </trkpt>
      <trkpt lat="49.20699" lon="1.14985">
        <ele>58.6</ele>
        <time>2015-09-20T09:33:59Z</time>
      </trkpt>
      <trkpt lat="49.20682" lon="1.14993">
        <ele>57.2</ele>
        <time>2015-09-20T09:34:01Z</time>
      </trkpt>
      <trkpt lat="49.20673" lon="1.14997">
        <ele>56.6</ele>
        <time>2015-09-20T09:34:02Z</time>
      </trkpt>
      <trkpt lat="49.20664" lon="1.15001">
        <ele>56</ele>
        <time>2015-09-20T09:34:03Z</time>
      </trkpt>
      <trkpt lat="49.20655" lon="1.15005">
        <ele>55.4</ele>
        <time>2015-09-20T09:34:04Z</time>
      </trkpt>
      <trkpt lat="49.20645" lon="1.1501">
        <ele>54.8</ele>
        <time>2015-09-20T09:34:05Z</time>
      </trkpt>
      <trkpt lat="49.20636" lon="1.15014">
        <ele>54.3</ele>
        <time>2015-09-20T09:34:06Z</time>
      </trkpt>
      <trkpt lat="49.20627" lon="1.15018">
        <ele>53.7</ele>
        <time>2015-09-20T09:34:07Z</time>
      </trkpt>
      <trkpt lat="49.20619" lon="1.15023">
        <ele>53.1</ele>
        <time>2015-09-20T09:34:08Z</time>
      </trkpt>
      <trkpt lat="49.20602" lon="1.15031">
        <ele>52.1</ele>
        <time>2015-09-20T09:34:10Z</time>
      </trkpt>
      <trkpt lat="49.20585" lon="1.15038">
        <ele>51.2</ele>
        <time>2015-09-20T09:34:12Z</time>
      </trkpt>
      <trkpt lat="49.20569" lon="1.15046">
        <ele>50.3</ele>
        <time>2015-09-20T09:34:14Z</time>
      </trkpt>
      <trkpt lat="49.20553" lon="1.15054">
        <ele>49.5</ele>
        <time>2015-09-20T09:34:16Z</time>
      </trkpt>
      <trkpt lat="49.20537" lon="1.15061">
        <ele>48.8</ele>
        <time>2015-09-20T09:34:18Z</time>
      </trkpt>
      <trkpt lat="49.20522" lon="1.15071">
        <ele>48.1</ele>
        <time>2015-09-20T09:34:20Z</time>
      </trkpt>
      <trkpt lat="49.20513" lon="1.15089">
        <ele>47.4</ele>
        <time>2015-09-20T09:34:22Z</time>
      </trkpt>
      <trkpt lat="49.20511" lon="1.15112">
        <ele>46.8</ele>
        <time>2015-09-20T09:34:24Z</time>
      </trkpt>
      <trkpt lat="49.20515" lon="1.15135">
        <ele>46.2</ele>
        <time>2015-09-20T09:34:26Z</time>
      </trkpt>
      <trkpt lat="49.20519" lon="1.15158">
        <ele>45.7</ele>
        <time>2015-09-20T09:34:28Z</time>
      </trkpt>
      <trkpt lat="49.20523" lon="1.15182">
        <ele>45.3</ele>
        <time>2015-09-20T09:34:30Z</time>
      </trkpt>
      <trkpt lat="49.20525" lon="1.15205">
        <ele>44.9</ele>
        <time>2015-09-20T09:34:32Z</time>
      </trkpt>
      <trkpt lat="49.20527" lon="1.15229">
        <ele>44.6</ele>
        <time>2015-09-20T09:34:34Z</time>
      </trkpt>
      <trkpt lat="49.20528" lon="1.15253">
        <ele>44.3</ele>
        <time>2015-09-20T09:34:36Z</time>
      </trkpt>
      <trkpt lat="49.20529" lon="1.15277">
        <ele>44.1</ele>
        <time>2015-09-20T09:34:38Z</time>
      </trkpt>
      <trkpt lat="49.20529" lon="1.153">
        <ele>43.8</ele>
        <time>2015-09-20T09:34:40Z</time>
      </trkpt>
      <trkpt lat="49.20529" lon="1.15321">
        <ele>43.6</ele>
        <time>2015-09-20T09:34:42Z</time>
      </trkpt>
      <trkpt lat="49.2053" lon="1.15342">
        <ele>43.4</ele>
        <time>2015-09-20T09:34:44Z</time>
      </trkpt>
      <trkpt lat="49.2053" lon="1.15362">
        <ele>43.3</ele>
        <time>2015-09-20T09:34:46Z</time>
      </trkpt>
      <trkpt lat="49.20531" lon="1.15381">
        <ele>43.4</ele>
        <time>2015-09-20T09:34:48Z</time>
      </trkpt>
      <trkpt lat="49.20531" lon="1.15401">
        <ele>43.4</ele>
        <time>2015-09-20T09:34:50Z</time>
      </trkpt>
      <trkpt lat="49.20532" lon="1.1542">
        <ele>43.4</ele>
        <time>2015-09-20T09:34:52Z</time>
      </trkpt>
      <trkpt lat="49.20534" lon="1.15439">
        <ele>43.5</ele>
        <time>2015-09-20T09:34:54Z</time>
      </trkpt>
      <trkpt lat="49.20536" lon="1.15459">
        <ele>43.5</ele>
        <time>2015-09-20T09:34:56Z</time>
      </trkpt>
      <trkpt lat="49.2054" lon="1.15477">
        <ele>43.6</ele>
        <time>2015-09-20T09:34:58Z</time>
      </trkpt>
      <trkpt lat="49.20546" lon="1.15495">
        <ele>43.7</ele>
        <time>2015-09-20T09:35:00Z</time>
      </trkpt>
      <trkpt lat="49.20554" lon="1.15512">
        <ele>43.7</ele>
        <time>2015-09-20T09:35:02Z</time>
      </trkpt>
      <trkpt lat="49.20564" lon="1.15527">
        <ele>43.8</ele>
        <time>2015-09-20T09:35:04Z</time>
      </trkpt>
      <trkpt lat="49.20574" lon="1.15542">
        <ele>43.8</ele>
        <time>2015-09-20T09:35:06Z</time>
      </trkpt>
      <trkpt lat="49.20585" lon="1.15558">
        <ele>43.9</ele>
        <time>2015-09-20T09:35:08Z</time>
      </trkpt>
      <trkpt lat="49.20596" lon="1.15572">
        <ele>43.9</ele>
        <time>2015-09-20T09:35:10Z</time>
      </trkpt>
      <trkpt lat="49.20607" lon="1.15588">
        <ele>43.9</ele>
        <time>2015-09-20T09:35:12Z</time>
      </trkpt>
      <trkpt lat="49.20618" lon="1.15604">
        <ele>43.8</ele>
        <time>2015-09-20T09:35:14Z</time>
      </trkpt>
      <trkpt lat="49.20628" lon="1.15622">
        <ele>43.7</ele>
        <time>2015-09-20T09:35:16Z</time>
      </trkpt>
      <trkpt lat="49.20638" lon="1.1564">
        <ele>43.6</ele>
        <time>2015-09-20T09:35:18Z</time>
      </trkpt>
      <trkpt lat="49.20648" lon="1.15658">
        <ele>43.5</ele>
        <time>2015-09-20T09:35:20Z</time>
      </trkpt>
      <trkpt lat="49.20658" lon="1.15677">
        <ele>43.3</ele>
        <time>2015-09-20T09:35:22Z</time>
      </trkpt>
      <trkpt lat="49.20668" lon="1.15695">
        <ele>43.1</ele>
        <time>2015-09-20T09:35:24Z</time>
      </trkpt>
      <trkpt lat="49.20678" lon="1.15714">
        <ele>42.9</ele>
        <time>2015-09-20T09:35:26Z</time>
      </trkpt>
      <trkpt lat="49.20689" lon="1.15733">
        <ele>42.7</ele>
        <time>2015-09-20T09:35:28Z</time>
      </trkpt>
      <trkpt lat="49.207" lon="1.15753">
        <ele>42.4</ele>
        <time>2015-09-20T09:35:30Z</time>
      </trkpt>
      <trkpt lat="49.20712" lon="1.15773">
        <ele>42</ele>
        <time>2015-09-20T09:35:32Z</time>
      </trkpt>
      <trkpt lat="49.20723" lon="1.15794">
        <ele>41.6</ele>
        <time>2015-09-20T09:35:34Z</time>
      </trkpt>
      <trkpt lat="49.20727" lon="1.15806">
        <ele>41.5</ele>
        <time>2015-09-20T09:35:35Z</time>
      </trkpt>
      <trkpt lat="49.20734" lon="1.15831">
        <ele>41</ele>
        <time>2015-09-20T09:35:37Z</time>
      </trkpt>
      <trkpt lat="49.20741" lon="1.15855">
        <ele>40.6</ele>
        <time>2015-09-20T09:35:39Z</time>
      </trkpt>
      <trkpt lat="49.20746" lon="1.15878">
        <ele>40.3</ele>
        <time>2015-09-20T09:35:41Z</time>
      </trkpt>
      <trkpt lat="49.2075" lon="1.159">
        <ele>40</ele>
        <time>2015-09-20T09:35:43Z</time>
      </trkpt>
      <trkpt lat="49.20751" lon="1.15923">
        <ele>39.8</ele>
        <time>2015-09-20T09:35:45Z</time>
      </trkpt>
      <trkpt lat="49.20753" lon="1.15946">
        <ele>39.6</ele>
        <time>2015-09-20T09:35:47Z</time>
      </trkpt>
      <trkpt lat="49.20757" lon="1.15968">
        <ele>39.4</ele>
        <time>2015-09-20T09:35:49Z</time>
      </trkpt>
      <trkpt lat="49.2076" lon="1.15989">
        <ele>39.3</ele>
        <time>2015-09-20T09:35:51Z</time>
      </trkpt>
      <trkpt lat="49.20763" lon="1.16011">
        <ele>39.3</ele>
        <time>2015-09-20T09:35:53Z</time>
      </trkpt>
      <trkpt lat="49.20765" lon="1.16032">
        <ele>39.2</ele>
        <time>2015-09-20T09:35:55Z</time>
      </trkpt>
      <trkpt lat="49.20769" lon="1.16053">
        <ele>39.1</ele>
        <time>2015-09-20T09:35:57Z</time>
      </trkpt>
      <trkpt lat="49.20772" lon="1.16074">
        <ele>39.1</ele>
        <time>2015-09-20T09:35:59Z</time>
      </trkpt>
      <trkpt lat="49.20776" lon="1.16096">
        <ele>39.1</ele>
        <time>2015-09-20T09:36:01Z</time>
      </trkpt>
      <trkpt lat="49.2078" lon="1.16117">
        <ele>39</ele>
        <time>2015-09-20T09:36:03Z</time>
      </trkpt>
      <trkpt lat="49.20783" lon="1.16139">
        <ele>39</ele>
        <time>2015-09-20T09:36:05Z</time>
      </trkpt>
      <trkpt lat="49.20785" lon="1.16161">
        <ele>39</ele>
        <time>2015-09-20T09:36:07Z</time>
      </trkpt>
      <trkpt lat="49.20789" lon="1.16183">
        <ele>38.9</ele>
        <time>2015-09-20T09:36:09Z</time>
      </trkpt>
      <trkpt lat="49.20793" lon="1.16205">
        <ele>38.9</ele>
        <time>2015-09-20T09:36:11Z</time>
      </trkpt>
      <trkpt lat="49.20795" lon="1.16227">
        <ele>38.9</ele>
        <time>2015-09-20T09:36:13Z</time>
      </trkpt>
      <trkpt lat="49.20799" lon="1.16249">
        <ele>38.9</ele>
        <time>2015-09-20T09:36:15Z</time>
      </trkpt>
      <trkpt lat="49.20802" lon="1.16271">
        <ele>38.8</ele>
        <time>2015-09-20T09:36:17Z</time>
      </trkpt>
      <trkpt lat="49.20805" lon="1.16294">
        <ele>38.8</ele>
        <time>2015-09-20T09:36:19Z</time>
      </trkpt>
      <trkpt lat="49.20809" lon="1.16317">
        <ele>38.8</ele>
        <time>2015-09-20T09:36:21Z</time>
      </trkpt>
      <trkpt lat="49.20812" lon="1.16339">
        <ele>38.7</ele>
        <time>2015-09-20T09:36:23Z</time>
      </trkpt>
      <trkpt lat="49.20815" lon="1.16361">
        <ele>38.7</ele>
        <time>2015-09-20T09:36:25Z</time>
      </trkpt>
      <trkpt lat="49.20819" lon="1.16384">
        <ele>38.7</ele>
        <time>2015-09-20T09:36:27Z</time>
      </trkpt>
      <trkpt lat="49.20821" lon="1.16405">
        <ele>38.7</ele>
        <time>2015-09-20T09:36:29Z</time>
      </trkpt>
      <trkpt lat="49.20825" lon="1.16429">
        <ele>38.7</ele>
        <time>2015-09-20T09:36:31Z</time>
      </trkpt>
      <trkpt lat="49.20829" lon="1.16451">
        <ele>38.6</ele>
        <time>2015-09-20T09:36:33Z</time>
      </trkpt>
      <trkpt lat="49.20832" lon="1.16472">
        <ele>38.5</ele>
        <time>2015-09-20T09:36:35Z</time>
      </trkpt>
      <trkpt lat="49.20835" lon="1.16493">
        <ele>38.4</ele>
        <time>2015-09-20T09:36:37Z</time>
      </trkpt>
      <trkpt lat="49.20838" lon="1.16513">
        <ele>38.3</ele>
        <time>2015-09-20T09:36:39Z</time>
      </trkpt>
      <trkpt lat="49.20842" lon="1.16534">
        <ele>38.2</ele>
        <time>2015-09-20T09:36:41Z</time>
      </trkpt>
      <trkpt lat="49.20845" lon="1.16554">
        <ele>38.1</ele>
        <time>2015-09-20T09:36:43Z</time>
      </trkpt>
      <trkpt lat="49.20848" lon="1.16575">
        <ele>38</ele>
        <time>2015-09-20T09:36:45Z</time>
      </trkpt>
      <trkpt lat="49.20852" lon="1.16595">
        <ele>37.9</ele>
        <time>2015-09-20T09:36:47Z</time>
      </trkpt>
      <trkpt lat="49.20854" lon="1.16616">
        <ele>37.9</ele>
        <time>2015-09-20T09:36:49Z</time>
      </trkpt>
      <trkpt lat="49.20857" lon="1.16636">
        <ele>37.8</ele>
        <time>2015-09-20T09:36:51Z</time>
      </trkpt>
      <trkpt lat="49.2086" lon="1.16655">
        <ele>37.7</ele>
        <time>2015-09-20T09:36:53Z</time>
      </trkpt>
      <trkpt lat="49.20859" lon="1.16671">
        <ele>37.7</ele>
        <time>2015-09-20T09:36:55Z</time>
      </trkpt>
      <trkpt lat="49.20851" lon="1.16676">
        <ele>37.6</ele>
        <time>2015-09-20T09:36:57Z</time>
      </trkpt>
      <trkpt lat="49.2084" lon="1.16678">
        <ele>37.6</ele>
        <time>2015-09-20T09:36:59Z</time>
      </trkpt>
      <trkpt lat="49.20829" lon="1.16677">
        <ele>37.5</ele>
        <time>2015-09-20T09:37:01Z</time>
      </trkpt>
      <trkpt lat="49.20817" lon="1.16675">
        <ele>37.5</ele>
        <time>2015-09-20T09:37:03Z</time>
      </trkpt>
      <trkpt lat="49.20805" lon="1.16674">
        <ele>37.4</ele>
        <time>2015-09-20T09:37:05Z</time>
      </trkpt>
      <trkpt lat="49.20793" lon="1.16674">
        <ele>37.4</ele>
        <time>2015-09-20T09:37:07Z</time>
      </trkpt>
      <trkpt lat="49.20782" lon="1.16674">
        <ele>37.4</ele>
        <time>2015-09-20T09:37:09Z</time>
      </trkpt>
      <trkpt lat="49.20772" lon="1.16674">
        <ele>37.4</ele>
        <time>2015-09-20T09:37:11Z</time>
      </trkpt>
      <trkpt lat="49.20765" lon="1.16689">
        <ele>37.4</ele>
        <time>2015-09-20T09:37:14Z</time>
      </trkpt>
      <trkpt lat="49.20766" lon="1.16705">
        <ele>37.4</ele>
        <time>2015-09-20T09:37:16Z</time>
      </trkpt>
      <trkpt lat="49.20765" lon="1.16723">
        <ele>37.4</ele>
        <time>2015-09-20T09:37:18Z</time>
      </trkpt>
      <trkpt lat="49.20765" lon="1.16742">
        <ele>37.4</ele>
        <time>2015-09-20T09:37:20Z</time>
      </trkpt>
      <trkpt lat="49.20765" lon="1.16762">
        <ele>37.5</ele>
        <time>2015-09-20T09:37:22Z</time>
      </trkpt>
      <trkpt lat="49.20766" lon="1.1678">
        <ele>37.5</ele>
        <time>2015-09-20T09:37:24Z</time>
      </trkpt>
      <trkpt lat="49.20766" lon="1.16799">
        <ele>37.5</ele>
        <time>2015-09-20T09:37:26Z</time>
      </trkpt>
      <trkpt lat="49.20766" lon="1.16818">
        <ele>37.6</ele>
        <time>2015-09-20T09:37:28Z</time>
      </trkpt>
      <trkpt lat="49.20766" lon="1.16838">
        <ele>37.6</ele>
        <time>2015-09-20T09:37:30Z</time>
      </trkpt>
      <trkpt lat="49.20767" lon="1.16858">
        <ele>37.7</ele>
        <time>2015-09-20T09:37:32Z</time>
      </trkpt>
      <trkpt lat="49.20768" lon="1.16879">
        <ele>37.7</ele>
        <time>2015-09-20T09:37:34Z</time>
      </trkpt>
      <trkpt lat="49.20768" lon="1.169">
        <ele>37.7</ele>
        <time>2015-09-20T09:37:36Z</time>
      </trkpt>
      <trkpt lat="49.20768" lon="1.16921">
        <ele>37.8</ele>
        <time>2015-09-20T09:37:38Z</time>
      </trkpt>
      <trkpt lat="49.20767" lon="1.16942">
        <ele>37.8</ele>
        <time>2015-09-20T09:37:40Z</time>
      </trkpt>
      <trkpt lat="49.20766" lon="1.1696">
        <ele>37.8</ele>
        <time>2015-09-20T09:37:42Z</time>
      </trkpt>
      <trkpt lat="49.20766" lon="1.16977">
        <ele>37.8</ele>
        <time>2015-09-20T09:37:45Z</time>
      </trkpt>
      <trkpt lat="49.20768" lon="1.16993">
        <ele>37.9</ele>
        <time>2015-09-20T09:37:52Z</time>
      </trkpt>
      <trkpt lat="49.20778" lon="1.17005">
        <ele>37.9</ele>
        <time>2015-09-20T09:37:55Z</time>
      </trkpt>
      <trkpt lat="49.20789" lon="1.17012">
        <ele>37.9</ele>
        <time>2015-09-20T09:37:57Z</time>
      </trkpt>
      <trkpt lat="49.20801" lon="1.17021">
        <ele>37.8</ele>
        <time>2015-09-20T09:37:59Z</time>
      </trkpt>
      <trkpt lat="49.20814" lon="1.17032">
        <ele>37.8</ele>
        <time>2015-09-20T09:38:01Z</time>
      </trkpt>
      <trkpt lat="49.20827" lon="1.17042">
        <ele>37.7</ele>
        <time>2015-09-20T09:38:03Z</time>
      </trkpt>
      <trkpt lat="49.2084" lon="1.17053">
        <ele>37.6</ele>
        <time>2015-09-20T09:38:05Z</time>
      </trkpt>
      <trkpt lat="49.20854" lon="1.17062">
        <ele>37.4</ele>
        <time>2015-09-20T09:38:07Z</time>
      </trkpt>
      <trkpt lat="49.20868" lon="1.17071">
        <ele>37.2</ele>
        <time>2015-09-20T09:38:09Z</time>
      </trkpt>
      <trkpt lat="49.20882" lon="1.17077">
        <ele>37</ele>
        <time>2015-09-20T09:38:11Z</time>
      </trkpt>
      <trkpt lat="49.20897" lon="1.1708">
        <ele>36.7</ele>
        <time>2015-09-20T09:38:13Z</time>
      </trkpt>
      <trkpt lat="49.20912" lon="1.17082">
        <ele>36.3</ele>
        <time>2015-09-20T09:38:15Z</time>
      </trkpt>
      <trkpt lat="49.20929" lon="1.17083">
        <ele>36</ele>
        <time>2015-09-20T09:38:17Z</time>
      </trkpt>
      <trkpt lat="49.20945" lon="1.17083">
        <ele>35.6</ele>
        <time>2015-09-20T09:38:19Z</time>
      </trkpt>
      <trkpt lat="49.20961" lon="1.17081">
        <ele>35.2</ele>
        <time>2015-09-20T09:38:21Z</time>
      </trkpt>
      <trkpt lat="49.20978" lon="1.17081">
        <ele>34.9</ele>
        <time>2015-09-20T09:38:23Z</time>
      </trkpt>
      <trkpt lat="49.20993" lon="1.1708">
        <ele>34.5</ele>
        <time>2015-09-20T09:38:25Z</time>
      </trkpt>
      <trkpt lat="49.21006" lon="1.17084">
        <ele>34.1</ele>
        <time>2015-09-20T09:38:27Z</time>
      </trkpt>
      <trkpt lat="49.21017" lon="1.17098">
        <ele>33.6</ele>
        <time>2015-09-20T09:38:29Z</time>
      </trkpt>
      <trkpt lat="49.21023" lon="1.17115">
        <ele>33.2</ele>
        <time>2015-09-20T09:38:31Z</time>
      </trkpt>
      <trkpt lat="49.21026" lon="1.17133">
        <ele>32.8</ele>
        <time>2015-09-20T09:38:33Z</time>
      </trkpt>
      <trkpt lat="49.21029" lon="1.17151">
        <ele>32.1</ele>
        <time>2015-09-20T09:38:36Z</time>
      </trkpt>
      <trkpt lat="49.21025" lon="1.17164">
        <ele>30.5</ele>
        <time>2015-09-20T09:38:46Z</time>
      </trkpt>
      <trkpt lat="49.21016" lon="1.17171">
        <ele>29.9</ele>
        <time>2015-09-20T09:38:51Z</time>
      </trkpt>
      <trkpt lat="49.21005" lon="1.17172">
        <ele>29.5</ele>
        <time>2015-09-20T09:38:56Z</time>
      </trkpt>
      <trkpt lat="49.20996" lon="1.17176">
        <ele>29</ele>
        <time>2015-09-20T09:39:04Z</time>
      </trkpt>
      <trkpt lat="49.20996" lon="1.17176">
        <ele>27.9</ele>
        <time>2015-09-20T09:39:39Z</time>
      </trkpt>
    </trkseg>
  </trk>
</gpx>